# Wetter Temperatur Luftdruck Luftfeuchtigkeit Sichtweite Windgeschwindigkeit Windrichtung Zeit
1 Clear 14 1026 61 10000 6.05 82 14:22 01.02.2023
2 Clear 14 1027 50 10000 3.44 96 13:19 01.02.2023
3 Clear 13 1028 65 10000 5.24 70 12:26 01.02.2023
4 Clear 13 1028 65 10000 5.24 70 11:35 01.02.2023
5 Clear 7 1026 76 10000 4.74 61 08:41 01.02.2023
6 Clear 13 1027 76 10000 4.92 71 22:59 31.01.2023
7 Clear 14 1027 76 10000 5.08 75 21:20 31.01.2023
8 Clear 14 1027 75 10000 5.37 73 19:24 31.01.2023
9 Clear 15 1026 71 10000 6.17 74 17:37 31.01.2023
10 Clear 14 1026 67 10000 7.18 75 15:36 31.01.2023
11 Clear 14 1027 67 10000 7.76 78 15:18 31.01.2023
12 Clear 14 1028 61 10000 6.08 87 13:19 31.01.2023
13 Clouds 13 1028 68 10000 8.98 89 11:28 31.01.2023
14 Clouds 13 1028 69 10000 9.12 90 10:18 31.01.2023
15 Clouds 13 1028 69 10000 9.12 90 09:44 31.01.2023
16 Clouds 13 1027 70 10000 9.45 89 08:36 31.01.2023
17 Clouds 13 1026 69 10000 10.68 89 06:25 31.01.2023
18 Clouds 14 1026 69 10000 11.2 94 01:54 31.01.2023
19 Clouds 13 1027 67 10000 11.39 95 23:26 30.01.2023
20 Clouds 14 1027 67 10000 11.39 95 22:49 30.01.2023
21 Clouds 14 1026 65 10000 11.58 97 21:38 30.01.2023
22 Clouds 14 1026 65 10000 11.66 99 20:43 30.01.2023
23 Clouds 13 1025 71 10000 12.39 91 18:26 30.01.2023
24 Clouds 13 1025 72 10000 12.31 87 16:58 30.01.2023
25 Clouds 13 1025 73 10000 11.82 88 14:35 30.01.2023
26 Clouds 13 1025 72 10000 11.56 88 13:37 30.01.2023
27 Clouds 12 1026 73 10000 11.5 90 11:30 30.01.2023
28 Rain 13 1025 73 10000 11.79 90 10:19 30.01.2023
29 Clouds 13 1025 73 10000 11.79 90 09:52 30.01.2023
30 Clouds 13 1023 74 10000 11.09 90 08:18 30.01.2023
31 Clouds 12 1023 72 10000 9.93 88 02:33 30.01.2023
32 Clouds 13 1023 73 10000 9.21 86 23:35 29.01.2023
33 Clouds 13 1023 74 10000 8.05 79 22:38 29.01.2023
34 Clouds 13 1023 74 10000 8.08 79 21:53 29.01.2023
35 Clouds 13 1023 74 10000 7.61 80 20:50 29.01.2023
36 Clouds 13 1022 79 10000 4.99 83 20:18 29.01.2023
37 Clouds 12 1022 74 10000 7.96 84 19:32 29.01.2023
38 Clouds 12 1020 70 10000 7.71 86 17:50 29.01.2023
39 Clouds 12 1020 70 10000 7.35 89 16:21 29.01.2023
40 Clouds 12 1020 70 10000 7.35 89 15:50 29.01.2023
41 Clouds 12 1021 72 10000 6.24 88 13:34 29.01.2023
42 Clouds 12 1022 70 10000 5.56 85 12:52 29.01.2023
43 Clouds 12 1022 68 10000 4.56 72 12:24 29.01.2023
44 Clouds 12 1022 68 10000 4.57 72 11:58 29.01.2023
45 Clouds 12 1022 69 10000 3.69 56 11:28 29.01.2023
46 Clouds 8 1022 72 10000 3.08 42 10:19 29.01.2023
47 Clear 9 1020 73 10000 1.69 52 07:20 29.01.2023
48 Clear 8 1020 73 10000 1.68 57 03:41 29.01.2023
49 Clear 9 1021 69 10000 1.3 63 23:46 28.01.2023
50 Clear 13 1020 64 10000 1.94 81 20:45 28.01.2023
51 Clear 13 1020 63 10000 2.16 83 19:53 28.01.2023
52 Clear 13 1019 60 10000 0.83 85 18:39 28.01.2023
53 Clear 13 1018 54 10000 1.65 96 17:21 28.01.2023
54 Clear 13 1018 54 10000 1.48 84 16:27 28.01.2023
55 Clear 13 1018 54 10000 1.48 84 15:49 28.01.2023
56 Clear 13 1018 53 10000 0.96 76 14:53 28.01.2023
57 Clear 14 1018 52 10000 0.69 85 13:30 28.01.2023
58 Clear 12 1019 55 10000 1.21 139 11:55 28.01.2023
59 Clear 10 1019 58 10000 0.9 89 10:34 28.01.2023
60 Clear 7 1018 67 10000 1.96 349 08:39 28.01.2023
61 Clear 10 1017 68 10000 3.64 319 01:45 28.01.2023
62 Clear 11 1018 63 10000 3.87 312 00:26 28.01.2023
63 Clear 12 1019 57 10000 4.64 311 21:48 27.01.2023
64 Clear 14 1017 57 10000 5.82 321 18:53 27.01.2023
65 Clear 15 1017 55 10000 5.97 310 17:58 27.01.2023
66 Clear 15 1016 52 10000 5.95 305 17:19 27.01.2023
67 Clear 16 1016 52 10000 5.95 305 16:35 27.01.2023
68 Clear 15 1016 50 10000 6.19 304 14:58 27.01.2023
69 Clear 14 1017 50 10000 5.29 303 14:25 27.01.2023
70 Clear 13 1018 56 10000 4.5 295 13:18 27.01.2023
71 Clear 7 1017 69 10000 2.87 269 08:47 27.01.2023
72 Clear 7 1016 72 10000 1.64 281 06:20 27.01.2023
73 Clouds 10 1018 77 10000 3.82 203 22:59 26.01.2023
74 Clouds 11 1018 73 10000 3.91 230 21:43 26.01.2023
75 Clouds 12 1018 64 10000 3.91 272 20:39 26.01.2023
76 Clouds 13 1018 59 10000 4.64 277 19:54 26.01.2023
77 Clouds 13 1019 58 10000 6.41 290 17:55 26.01.2023
78 Clouds 13 1020 59 10000 8 289 16:29 26.01.2023
79 Clouds 13 1020 59 10000 8 289 15:58 26.01.2023
80 Clouds 13 1020 59 10000 8 289 15:32 26.01.2023
81 Clouds 13 1020 59 10000 8.05 285 14:59 26.01.2023
82 Clouds 13 1022 55 10000 6.6 280 13:32 26.01.2023
83 Clear 12 1024 55 10000 5.86 283 11:53 26.01.2023
84 Clear 10 1024 61 10000 5.29 288 10:33 26.01.2023
85 Clear 8 1023 66 10000 4.73 294 09:44 26.01.2023
86 Clouds 7 1023 69 10000 4.17 309 08:26 26.01.2023
87 Clear 7 1023 72 10000 2.8 309 06:27 26.01.2023
88 Clouds 9 1025 69 10000 2.96 56 23:40 25.01.2023
89 Clouds 9 1025 68 10000 3.35 56 22:36 25.01.2023
90 Clouds 9 1025 68 10000 4.21 84 21:25 25.01.2023
91 Clouds 10 1025 68 10000 4.21 84 20:48 25.01.2023
92 Clouds 12 1024 70 10000 7.08 92 18:24 25.01.2023
93 Clouds 12 1023 69 10000 7.13 81 15:57 25.01.2023
94 Clouds 10 1023 72 10000 7.79 80 13:58 25.01.2023
95 Clouds 12 1025 69 10000 8.25 71 11:37 25.01.2023
96 Clouds 9 1024 71 10000 7.29 68 09:52 25.01.2023
97 Clouds 10 1023 72 10000 7.64 78 08:59 25.01.2023
98 Clouds 8 1022 73 10000 9.08 80 06:18 25.01.2023
99 Clouds 8 1023 75 10000 7.16 68 00:27 25.01.2023
100 Clouds 9 1022 72 10000 7.16 81 21:55 24.01.2023
101 Clouds 10 1022 72 10000 7.57 87 21:26 24.01.2023
102 Clouds 10 1021 74 10000 6.89 87 19:28 24.01.2023
103 Clouds 10 1021 73 10000 6.91 84 18:29 24.01.2023
104 Clouds 10 1020 71 10000 6.51 79 17:18 24.01.2023
105 Clouds 10 1020 71 10000 6.51 79 16:47 24.01.2023
106 Clouds 11 1020 68 10000 7.66 88 13:51 24.01.2023
107 Clouds 11 1022 68 10000 8.53 74 12:21 24.01.2023
108 Clouds 7 1021 77 10000 7.45 66 08:53 24.01.2023
109 Clouds 9 1021 81 10000 7.97 70 08:19 24.01.2023
110 Clouds 11 1021 81 10000 7.97 70 07:49 24.01.2023
111 Clear 9 1019 63 10000 4.09 33 02:48 24.01.2023
112 Clear 10 1020 59 10000 3.65 35 00:41 24.01.2023
113 Clear 11 1021 56 10000 3.64 51 22:38 23.01.2023
114 Clear 12 1020 50 10000 2.65 81 20:45 23.01.2023
115 Clear 14 1020 46 10000 2.24 97 19:24 23.01.2023
116 Clear 14 1019 37 10000 1.7 103 17:29 23.01.2023
117 Clear 15 1019 39 10000 2.95 109 15:32 23.01.2023
118 Clear 14 1020 35 10000 1.1 89 13:57 23.01.2023
119 Clear 14 1021 36 10000 1.69 68 12:56 23.01.2023
120 Clear 14 1022 38 10000 1.84 58 12:21 23.01.2023
121 Clear 12 1022 41 10000 1.77 54 11:29 23.01.2023
122 Clear 9 1021 55 10000 3.03 41 08:25 23.01.2023
123 Clear 9 1021 55 10000 3.03 41 08:25 23.01.2023
124 Clouds 11 1024 58 10000 4.15 59 00:27 23.01.2023
125 Clouds 14 1024 58 10000 5.05 70 22:20 22.01.2023
126 Clouds 14 1024 59 10000 5.42 77 21:19 22.01.2023
127 Clouds 14 1024 82 10000 2.46 50 20:22 22.01.2023
128 Clouds 15 1023 61 10000 6.28 80 19:45 22.01.2023
129 Clear 15 1023 63 10000 6.4 83 18:48 22.01.2023
130 Clear 15 1022 64 10000 6.2 84 17:56 22.01.2023
131 Clear 15 1022 61 10000 5.37 77 17:24 22.01.2023
132 Clear 16 1022 59 10000 4.72 71 15:30 22.01.2023
133 Clear 16 1022 57 10000 4.98 70 14:47 22.01.2023
134 Clear 15 1023 66 10000 7.01 79 13:28 22.01.2023
135 Clear 15 1023 66 10000 7.01 79 12:34 22.01.2023
136 Clear 15 1023 63 10000 6.01 66 11:34 22.01.2023
137 Clear 11 1022 71 10000 3.64 70 09:35 22.01.2023
138 Clear 12 1021 79 10000 2.48 62 06:39 22.01.2023
139 Clear 13 1020 80 10000 1.41 269 01:46 22.01.2023
140 Clear 14 1021 80 10000 1.88 292 23:31 21.01.2023
141 Clear 15 1021 80 10000 3.64 285 21:40 21.01.2023
142 Clear 15 1020 81 10000 4.81 277 19:46 21.01.2023
143 Clouds 17 1019 77 10000 6.03 273 16:55 21.01.2023
144 Clear 17 1020 75 10000 5.99 273 14:24 21.01.2023
145 Clouds 16 1021 76 10000 5.5 278 12:57 21.01.2023
146 Clouds 16 1021 80 10000 5.2 271 11:42 21.01.2023
147 Clouds 14 1021 82 10000 5.09 269 10:56 21.01.2023
148 Clouds 13 1021 89 10000 4.79 261 08:57 21.01.2023
149 Clear 14 1021 85 10000 4.43 262 04:32 21.01.2023
150 Clouds 15 1022 85 10000 4.93 275 22:29 20.01.2023
151 Clouds 15 1022 85 10000 4.93 275 21:38 20.01.2023
152 Clouds 15 1022 86 10000 5.43 271 20:56 20.01.2023
153 Clouds 15 1022 86 10000 5.54 272 19:31 20.01.2023
154 Clouds 14 1022 84 10000 7.27 248 16:39 20.01.2023
155 Clouds 16 1023 84 10000 6.95 241 14:46 20.01.2023
156 Clouds 15 1023 83 10000 6.32 244 13:51 20.01.2023
157 Clouds 13 1024 81 10000 5.68 280 10:24 20.01.2023
158 Clouds 10 1023 81 10000 6.08 287 08:53 20.01.2023
159 Clouds 13 1023 83 10000 5.93 297 05:54 20.01.2023
160 Clear 13 1024 80 10000 5.15 295 02:30 20.01.2023
161 Clear 13 1024 80 10000 5.15 295 02:30 20.01.2023
162 Clear 12 1025 69 10000 5.19 305 22:33 19.01.2023
163 Clear 12 1025 69 10000 6.01 312 20:32 19.01.2023
164 Clear 13 1025 65 10000 5.2 297 19:28 19.01.2023
165 Clear 14 1025 51 10000 5.94 300 16:29 19.01.2023
166 Clear 13 1027 51 10000 5.1 288 12:50 19.01.2023
167 Clear 9 1028 61 10000 4.12 310 09:36 19.01.2023
168 Clear 11 1024 70 10000 5.45 318 00:45 19.01.2023
169 Clouds 13 1022 63 10000 5.62 318 21:22 18.01.2023
170 Clear 13 1021 61 10000 5.85 314 20:20 18.01.2023
171 Clear 13 1021 61 10000 5.85 314 19:37 18.01.2023
172 Clear 14 1019 58 10000 7.85 306 17:51 18.01.2023
173 Clear 15 1018 58 10000 9.04 303 15:48 18.01.2023
174 Clouds 13 1018 56 10000 10.23 300 13:30 18.01.2023
175 Clouds 12 1018 63 10000 8.74 306 11:25 18.01.2023
176 Clouds 12 1017 70 10000 8.26 318 08:47 18.01.2023
177 Clouds 13 1012 72 10000 12.46 287 02:29 18.01.2023
178 Clouds 14 1014 72 10000 11.64 290 00:19 18.01.2023
179 Clouds 16 1014 72 10000 11.98 289 20:40 17.01.2023
180 Clouds 16 1014 71 10000 12.26 285 19:35 17.01.2023
181 Clouds 16 1013 72 10000 11.95 289 18:36 17.01.2023
182 Clouds 17 1013 79 10000 11.83 288 17:31 17.01.2023
183 Clouds 17 1014 84 10000 13.28 261 14:57 17.01.2023
184 Clouds 16 1015 82 10000 13.24 258 14:22 17.01.2023
185 Clouds 16 1016 80 10000 13.09 258 13:27 17.01.2023
186 Clouds 17 1016 79 10000 13.01 255 11:44 17.01.2023
187 Clouds 15 1017 80 10000 11.99 268 09:35 17.01.2023
188 Clouds 15 1017 80 10000 11.7 271 08:20 17.01.2023
189 Clouds 16 1017 79 10000 12.58 264 05:51 17.01.2023
190 Clouds 16 1020 76 10000 11.25 275 00:57 17.01.2023
191 Clouds 15 1021 77 10000 10.62 270 23:40 16.01.2023
192 Clouds 16 1021 79 10000 10.15 262 21:55 16.01.2023
193 Clouds 16 1022 78 10000 10 263 20:46 16.01.2023
194 Clouds 15 1022 77 10000 9.64 264 19:40 16.01.2023
195 Clouds 15 1022 75 10000 9.41 267 18:54 16.01.2023
196 Clouds 16 1022 70 10000 9.28 274 18:21 16.01.2023
197 Clouds 16 1022 70 10000 9.28 274 17:35 16.01.2023
198 Clouds 15 1023 68 10000 8.72 281 15:33 16.01.2023
199 Clear 14 1025 66 10000 7.96 287 13:39 16.01.2023
200 Clouds 11 1027 67 10000 6.21 300 10:53 16.01.2023
201 Clouds 11 1027 69 10000 6.47 302 10:18 16.01.2023
202 Clouds 14 1027 80 10000 5.87 312 23:38 15.01.2023
203 Clouds 14 1027 84 10000 4.81 295 22:26 15.01.2023
204 Clouds 14 1027 82 10000 4.51 289 20:40 15.01.2023
205 Clouds 15 1027 81 10000 4.81 288 19:59 15.01.2023
206 Clouds 17 1025 76 10000 5.47 278 17:55 15.01.2023
207 Clouds 17 1025 71 10000 5.83 274 16:18 15.01.2023
208 Clouds 17 1027 66 10000 6.34 278 12:34 15.01.2023
209 Clouds 16 1027 65 10000 5.52 268 11:36 15.01.2023
210 Clouds 14 1026 70 10000 5.19 270 10:30 15.01.2023
211 Clouds 14 1026 75 10000 4.91 267 09:35 15.01.2023
212 Clear 12 1025 87 10000 1.28 300 01:48 15.01.2023
213 Clouds 13 1026 84 10000 1.49 60 22:57 14.01.2023
214 Clouds 14 1026 84 10000 1.84 59 21:58 14.01.2023
215 Clouds 14 1026 82 10000 2.05 63 21:36 14.01.2023
216 Clouds 14 1026 82 10000 2.06 63 21:18 14.01.2023
217 Clouds 14 1026 82 10000 2.06 63 20:39 14.01.2023
218 Clouds 16 1025 81 10000 2.78 77 18:40 14.01.2023
219 Clouds 17 1025 78 10000 3.35 77 16:19 14.01.2023
220 Clouds 17 1026 77 10000 3.43 81 15:27 14.01.2023
221 Clouds 17 1027 77 10000 3.18 79 14:25 14.01.2023
222 Clouds 17 1027 77 10000 3.18 79 13:41 14.01.2023
223 Clouds 14 1028 79 10000 2.28 78 11:39 14.01.2023
224 Clouds 12 1028 81 10000 1.78 63 10:46 14.01.2023
225 Clouds 12 1028 81 10000 1.78 63 10:46 14.01.2023
226 Clouds 12 1028 81 10000 1.78 63 10:46 14.01.2023
227 Clouds 11 1027 81 10000 1.98 79 05:37 14.01.2023
228 Clear 15 1028 75 10000 0.72 323 23:30 13.01.2023
229 Clear 15 1028 75 10000 0.93 292 22:45 13.01.2023
230 Clear 15 1028 75 10000 1.13 312 22:20 13.01.2023
231 Clear 15 1028 75 10000 1.13 312 21:34 13.01.2023
232 Clear 17 1027 76 10000 2.04 288 19:38 13.01.2023
233 Clouds 19 1026 73 10000 2.45 264 18:19 13.01.2023
234 Clouds 18 1026 68 10000 2.86 283 16:24 13.01.2023
235 Clouds 16 1028 72 10000 1.21 264 13:19 13.01.2023
236 Clouds 15 1028 75 10000 0.78 307 12:20 13.01.2023
237 Clouds 12 1028 83 10000 1.47 18 10:26 13.01.2023
238 Clouds 12 1028 83 10000 1.47 18 09:45 13.01.2023
239 Clouds 12 1027 86 10000 1.53 53 08:52 13.01.2023
240 Clouds 12 1027 87 10000 2.36 37 08:20 13.01.2023
241 Clouds 13 1026 86 10000 2.28 40 06:52 13.01.2023
242 Clouds 12 1027 86 10000 3.32 37 04:43 13.01.2023
243 Clouds 14 1028 85 10000 3.64 62 23:58 12.01.2023
244 Clouds 16 1029 85 10000 3.91 63 22:41 12.01.2023
245 Clouds 16 1028 84 10000 4.41 74 20:55 12.01.2023
246 Clouds 16 1028 83 10000 4.5 72 19:38 12.01.2023
247 Clouds 17 1027 80 10000 5.5 75 17:34 12.01.2023
248 Clouds 17 1027 78 10000 7.21 87 16:18 12.01.2023
249 Clouds 17 1027 78 10000 7.95 87 14:44 12.01.2023
250 Clouds 17 1027 79 10000 8.34 78 14:22 12.01.2023
251 Clear 17 1028 76 10000 8.5 65 12:48 12.01.2023
252 Clear 17 1028 75 10000 5.52 68 10:36 12.01.2023
253 Clear 12 1027 80 10000 2.85 70 08:28 12.01.2023
254 Clear 14 1027 82 10000 0.2 86 03:58 12.01.2023
255 Clouds 15 1029 83 10000 3.39 329 23:59 11.01.2023
256 Clouds 16 1029 83 10000 3.39 329 23:40 11.01.2023
257 Clouds 16 1029 83 10000 4.29 317 23:21 11.01.2023
258 Clouds 16 1028 82 10000 4.91 309 21:45 11.01.2023
259 Clouds 16 1028 79 10000 4.65 298 19:59 11.01.2023
260 Clouds 17 1027 77 10000 4.8 304 18:35 11.01.2023
261 Clear 19 1027 71 10000 6.18 296 16:49 11.01.2023
262 Clear 18 1027 66 10000 6.46 294 14:57 11.01.2023
263 Clear 17 1029 69 10000 6.37 298 12:50 11.01.2023
264 Clear 17 1030 71 10000 5.74 283 11:54 11.01.2023
265 Clouds 15 1029 79 10000 5.28 286 10:20 11.01.2023
266 Clouds 16 1029 83 10000 5.15 281 07:59 11.01.2023
267 Clear 15 1028 84 10000 4.79 285 07:22 11.01.2023
268 Clear 15 1028 84 10000 4.88 287 07:22 11.01.2023
269 Clear 15 1029 84 10000 3.97 277 00:42 11.01.2023
270 Clear 15 1029 84 10000 3.39 283 22:46 10.01.2023
271 Clear 16 1029 84 10000 3.18 294 21:32 10.01.2023
272 Clear 16 1029 84 10000 3.43 294 20:39 10.01.2023
273 Clear 17 1029 84 10000 3.78 287 19:38 10.01.2023
274 Clear 18 1029 83 10000 4.41 281 18:47 10.01.2023
275 Clear 19 1028 80 10000 4.36 270 17:58 10.01.2023
276 Clear 20 1028 76 10000 4.15 271 16:39 10.01.2023
277 Clear 19 1029 74 10000 4.31 279 15:24 10.01.2023
278 Clear 19 1029 74 10000 4.31 279 14:31 10.01.2023
279 Clouds 18 1031 80 10000 3.65 278 12:22 10.01.2023
280 Clouds 15 1030 88 10000 3.2 271 09:21 10.01.2023
281 Clouds 15 1030 89 10000 3.2 265 08:29 10.01.2023
282 Clouds 16 1029 90 10000 2.95 264 07:26 10.01.2023
283 Clouds 17 1029 90 10000 3.36 247 04:53 10.01.2023
284 Clouds 17 1030 87 10000 3.59 282 22:59 09.01.2023
285 Clouds 17 1030 87 10000 3.75 278 21:51 09.01.2023
286 Clouds 17 1029 86 10000 3.58 275 20:44 09.01.2023
287 Clouds 18 1028 87 10000 3.97 267 19:21 09.01.2023
288 Clouds 18 1028 85 10000 4.34 265 17:54 09.01.2023
289 Clouds 18 1027 81 10000 4.88 266 17:19 09.01.2023
290 Clouds 18 1027 81 10000 4.88 266 16:32 09.01.2023
291 Clouds 19 1027 77 10000 5.3 267 15:23 09.01.2023
292 Clouds 19 1027 77 10000 5.28 264 14:43 09.01.2023
293 Clouds 18 1029 81 10000 5.52 263 12:56 09.01.2023
294 Clouds 18 1029 81 10000 5.52 263 12:35 09.01.2023
295 Clouds 18 1029 85 10000 5.97 255 11:21 09.01.2023
296 Clouds 17 1027 87 10000 6.11 248 08:42 09.01.2023
297 Clouds 17 1026 89 10000 6.24 256 06:37 09.01.2023
298 Clouds 17 1026 89 10000 6.68 270 02:53 09.01.2023
299 Clouds 17 1026 89 10000 9.33 251 22:53 08.01.2023
300 Clouds 17 1026 90 10000 9.92 241 21:23 08.01.2023
301 Clouds 17 1026 90 10000 9.92 241 20:57 08.01.2023
302 Clouds 17 1026 90 10000 9.8 234 19:44 08.01.2023
303 Clouds 17 1025 90 10000 10.83 232 17:41 08.01.2023
304 Clouds 16 1025 88 10000 11.07 231 17:19 08.01.2023
305 Clouds 16 1025 86 10000 11.26 230 15:38 08.01.2023
306 Clouds 17 1026 83 10000 11.39 228 14:20 08.01.2023
307 Clouds 17 1026 83 10000 11.39 228 13:32 08.01.2023
308 Clouds 17 1026 82 10000 11.02 227 12:59 08.01.2023
309 Clouds 17 1026 82 10000 11.12 224 11:37 08.01.2023
310 Clouds 17 1026 82 10000 9.8 222 09:37 08.01.2023
311 Clouds 17 1026 82 10000 9.21 223 08:31 08.01.2023
312 Clouds 16 1026 84 10000 7.54 225 02:43 08.01.2023
313 Clouds 16 1027 81 10000 5.68 239 23:23 07.01.2023
314 Clouds 16 1027 81 10000 5.68 239 22:39 07.01.2023
315 Clouds 17 1027 81 10000 5.05 245 21:59 07.01.2023
316 Clouds 17 1027 81 10000 5.02 246 20:59 07.01.2023
317 Clouds 17 1026 81 10000 5.2 249 20:25 07.01.2023
318 Clear 17 1026 81 10000 4.89 253 19:23 07.01.2023
319 Clear 18 1026 79 10000 4.98 262 18:18 07.01.2023
320 Clear 18 1026 79 10000 4.98 262 17:40 07.01.2023
321 Clear 19 1026 76 10000 5.01 265 16:41 07.01.2023
322 Clear 18 1025 74 10000 5.23 262 15:52 07.01.2023
323 Clear 19 1026 72 10000 4.69 266 15:31 07.01.2023
324 Clear 18 1026 72 10000 4.71 266 14:50 07.01.2023
325 Clear 18 1027 72 10000 4.09 253 13:58 07.01.2023
326 Clear 18 1027 72 10000 4.09 253 13:39 07.01.2023
327 Clouds 17 1028 73 10000 3.26 250 12:35 07.01.2023
328 Clouds 15 1028 73 10000 3.28 250 11:58 07.01.2023
329 Clear 13 1028 81 10000 3.61 288 10:26 07.01.2023
330 Clear 12 1027 84 10000 3.1 280 08:46 07.01.2023
331 Clear 11 1027 85 10000 2.92 273 07:47 07.01.2023
332 Clear 11 1026 80 10000 2.2 264 07:20 07.01.2023
333 Clear 12 1026 81 10000 2.16 289 04:59 07.01.2023
334 Clear 14 1027 79 10000 0.62 31 22:57 06.01.2023
335 Clear 14 1027 78 10000 0.62 18 22:20 06.01.2023
336 Clear 14 1027 78 10000 0.62 18 21:44 06.01.2023
337 Clear 16 1026 75 10000 0.69 86 19:59 06.01.2023
338 Clear 16 1026 75 10000 0.69 86 19:41 06.01.2023
339 Clear 16 1025 76 10000 0.48 86 19:23 06.01.2023
340 Clear 16 1025 76 10000 0.48 86 18:50 06.01.2023
341 Clear 17 1025 74 10000 0.78 63 17:31 06.01.2023
342 Clouds 17 1025 70 10000 1.26 47 16:50 06.01.2023
343 Clouds 17 1025 67 10000 1.47 48 16:20 06.01.2023
344 Clouds 18 1025 67 10000 1.49 49 15:50 06.01.2023
345 Clear 17 1025 66 10000 1.72 66 14:55 06.01.2023
346 Clouds 16 1027 68 10000 2.32 79 12:50 06.01.2023
347 Clouds 14 1027 74 10000 2.73 64 10:59 06.01.2023
348 Clouds 15 1026 77 10000 3.26 64 09:27 06.01.2023
349 Clouds 11 1026 74 10000 3.37 67 07:57 06.01.2023
350 Clouds 16 1026 75 10000 4.67 81 01:52 06.01.2023
351 Clouds 16 1027 70 10000 5.98 86 22:55 05.01.2023
352 Clouds 16 1027 70 10000 5.98 86 22:55 05.01.2023
353 Clouds 16 1027 72 10000 6.07 85 21:54 05.01.2023
354 Clouds 17 1027 78 10000 6.48 87 19:46 05.01.2023
355 Clouds 17 1026 75 10000 7.26 85 17:28 05.01.2023
356 Clouds 17 1026 75 10000 7.99 87 16:28 05.01.2023
357 Clouds 17 1026 75 10000 7.99 87 15:46 05.01.2023
358 Clouds 17 1026 75 10000 8.51 89 14:51 05.01.2023
359 Clouds 17 1028 76 10000 8.8 89 12:44 05.01.2023
360 Clouds 17 1029 78 10000 9.35 88 11:54 05.01.2023
361 Clouds 17 1028 80 10000 9.55 87 09:55 05.01.2023
362 Clouds 17 1028 80 10000 9.64 87 08:31 05.01.2023
363 Clouds 17 1028 80 10000 8.95 89 07:20 05.01.2023
364 Clouds 17 1028 77 10000 9.44 91 05:20 05.01.2023
365 Clouds 17 1030 83 10000 10.34 87 23:19 04.01.2023
366 Clouds 17 1030 83 10000 10.24 86 21:33 04.01.2023
367 Clouds 17 1030 83 10000 10.24 86 21:33 04.01.2023
368 Clouds 17 1030 83 10000 10.3 85 20:47 04.01.2023
369 Clouds 17 1030 83 10000 10.18 86 19:56 04.01.2023
370 Clouds 17 1030 82 10000 9.95 87 19:33 04.01.2023
371 Clouds 17 1029 83 10000 9.88 87 18:37 04.01.2023
372 Clouds 17 1029 80 10000 10.16 90 16:32 04.01.2023
373 Clouds 17 1029 80 10000 10.16 90 16:32 04.01.2023
374 Clouds 17 1030 77 10000 10.46 91 15:48 04.01.2023
375 Clouds 17 1030 80 10000 10.57 88 14:22 04.01.2023
376 Clouds 17 1032 79 10000 9.69 82 11:41 04.01.2023
377 Clouds 17 1031 78 10000 9.4 85 11:20 04.01.2023
378 Clouds 17 1031 78 10000 9.4 85 10:42 04.01.2023
379 Clouds 17 1031 80 10000 9.41 85 10:21 04.01.2023
380 Clouds 17 1030 81 10000 9.5 81 07:40 04.01.2023
381 Clouds 17 1030 86 10000 7.28 81 01:48 04.01.2023
382 Clear 17 1030 85 10000 5.62 79 23:59 03.01.2023
383 Clear 17 1030 85 10000 5.62 79 23:32 03.01.2023
384 Clear 17 1030 84 10000 5.22 80 22:41 03.01.2023
385 Clear 16 1030 82 10000 4.2 77 20:52 03.01.2023
386 Clouds 17 1028 80 10000 3.45 79 19:21 03.01.2023
387 Clouds 18 1028 75 10000 2.02 81 16:55 03.01.2023
388 Clouds 17 1027 76 10000 1.47 92 15:51 03.01.2023
389 Clouds 18 1028 79 10000 0.5 114 13:52 03.01.2023
390 Clouds 17 1029 80 10000 0.23 276 13:29 03.01.2023
391 Clouds 18 1028 80 10000 0.56 270 12:57 03.01.2023
392 Clouds 16 1029 82 10000 0.9 282 12:29 03.01.2023
393 Clouds 14 1028 85 10000 0.81 267 10:30 03.01.2023
394 Clouds 14 1026 91 10000 1.59 277 06:21 03.01.2023
395 Clouds 14 1026 90 10000 1.97 265 03:57 03.01.2023
396 Clouds 14 1026 90 10000 1.98 264 03:39 03.01.2023
397 Clouds 16 1026 81 10000 0.96 266 23:56 02.01.2023
398 Clouds 16 1026 81 10000 0.7 258 22:41 02.01.2023
399 Clouds 16 1026 81 10000 0.62 291 21:52 02.01.2023
400 Clouds 16 1026 80 10000 1.14 292 20:38 02.01.2023
401 Clouds 17 1025 78 10000 1.85 289 19:28 02.01.2023
402 Rain 18 1024 81 10000 1.61 304 16:56 02.01.2023
403 Clouds 17 1024 82 10000 5.01 264 14:46 02.01.2023
404 Clouds 17 1025 72 10000 3.76 240 12:57 02.01.2023
405 Clouds 18 1026 75 10000 3.42 263 11:40 02.01.2023
406 Clouds 14 1025 70 10000 2.39 247 09:48 02.01.2023
407 Clouds 13 1024 67 10000 2.99 230 07:32 02.01.2023
408 Clouds 14 1024 62 10000 1.45 226 00:40 02.01.2023
409 Clouds 16 1024 67 10000 1.49 122 21:55 01.01.2023
410 Clouds 16 1024 68 10000 1.81 104 21:22 01.01.2023
411 Clouds 16 1024 68 10000 1.81 104 20:45 01.01.2023
412 Clouds 16 1024 67 10000 2.15 93 19:42 01.01.2023
413 Clouds 17 1023 67 10000 2.74 81 17:53 01.01.2023
414 Clouds 17 1023 65 10000 3.24 80 17:20 01.01.2023
415 Clouds 18 1023 65 10000 3.24 80 16:31 01.01.2023
416 Clouds 17 1023 62 10000 4.56 85 14:47 01.01.2023
417 Clouds 17 1024 60 10000 4.56 75 13:29 01.01.2023
418 Clouds 17 1024 60 10000 4.56 75 12:32 01.01.2023
419 Clouds 17 1025 63 10000 4.85 78 11:36 01.01.2023
420 Clouds 12 1025 69 10000 4.41 75 09:53 01.01.2023
421 Clouds 12 1024 70 10000 4.45 66 08:46 01.01.2023
422 Clouds 12 1024 69 10000 4.38 76 08:18 01.01.2023
423 Clouds 12 1024 67 10000 4.29 76 06:51 01.01.2023
424 Clouds 13 1026 66 10000 3.74 72 00:33 01.01.2023
425 Clouds 13 1026 65 10000 3.56 81 23:40 31.12.2022
426 Clouds 14 1026 65 10000 3.3 83 22:30 31.12.2022
427 Clouds 14 1026 65 10000 3.16 82 21:25 31.12.2022
428 Clouds 15 1026 65 10000 3.17 82 20:34 31.12.2022
429 Clouds 16 1025 63 10000 3.1 79 18:59 31.12.2022
430 Clouds 16 1025 63 10000 3.1 79 18:39 31.12.2022
431 Clouds 17 1025 64 10000 2.99 80 17:58 31.12.2022
432 Clouds 17 1025 64 10000 2.99 80 17:34 31.12.2022
433 Clouds 18 1025 62 10000 3.38 90 16:32 31.12.2022
434 Clouds 18 1025 58 10000 3.52 91 15:43 31.12.2022
435 Clouds 17 1025 57 10000 3.36 72 14:34 31.12.2022
436 Clouds 17 1026 58 10000 3.41 85 13:28 31.12.2022
437 Rain 16 1027 57 10000 3.56 82 12:24 31.12.2022
438 Clouds 16 1027 57 10000 3.56 82 11:56 31.12.2022
439 Clouds 16 1027 57 10000 3.56 82 11:38 31.12.2022
440 Clouds 11 1026 63 10000 3.5 67 10:18 31.12.2022
441 Clouds 11 1026 63 10000 3.5 67 09:50 31.12.2022
442 Clouds 11 1026 64 10000 3.47 67 08:30 31.12.2022
443 Clear 11 1025 64 10000 3.57 69 04:52 31.12.2022
444 Clouds 13 1027 56 10000 1.3 72 00:33 31.12.2022
445 Clouds 13 1027 58 10000 0.79 74 23:20 30.12.2022
446 Clear 15 1027 59 10000 0.79 53 22:18 30.12.2022
447 Clear 14 1027 59 10000 0.79 53 21:38 30.12.2022
448 Clear 15 1027 60 10000 0.84 18 21:19 30.12.2022
449 Clouds 20 1026 65 10000 1.63 312 18:28 30.12.2022
450 Clouds 21 1026 65 10000 1.63 312 17:35 30.12.2022
451 Clouds 21 1026 63 10000 1.9 279 16:48 30.12.2022
452 Clouds 20 1026 58 10000 2.33 261 14:55 30.12.2022
453 Clouds 20 1026 58 10000 2.33 261 14:55 30.12.2022
454 Clouds 18 1028 62 10000 2.3 281 12:54 30.12.2022
455 Clouds 13 1027 77 10000 1.35 263 08:24 30.12.2022
456 Clouds 14 1027 78 10000 1.59 288 03:58 30.12.2022
457 Clouds 14 1027 77 10000 1.9 273 02:26 30.12.2022
458 Clear 14 1027 76 10000 1.76 264 23:45 29.12.2022
459 Clear 16 1027 76 10000 2.81 268 21:55 29.12.2022
460 Clear 16 1027 76 10000 2.75 264 21:20 29.12.2022
461 Clear 16 1027 76 10000 2.75 264 20:45 29.12.2022
462 Clouds 18 1027 78 10000 3.39 263 18:49 29.12.2022
463 Clouds 19 1026 78 10000 3.48 265 17:53 29.12.2022
464 Clear 19 1026 76 10000 3.95 274 17:25 29.12.2022
465 Clear 19 1026 76 10000 3.95 274 16:54 29.12.2022
466 Clear 19 1026 73 10000 4.32 271 15:49 29.12.2022
467 Clear 19 1027 69 10000 4.29 253 13:41 29.12.2022
468 Clouds 17 1028 69 10000 3.86 256 11:51 29.12.2022
469 Clouds 14 1027 72 10000 3.37 258 09:47 29.12.2022
470 Clouds 14 1025 73 10000 3.27 260 03:35 29.12.2022
471 Clear 14 1026 78 10000 0.81 245 23:29 28.12.2022
472 Clear 15 1026 78 10000 0.79 292 21:57 28.12.2022
473 Clear 15 1026 78 10000 0.72 321 21:19 28.12.2022
474 Clear 16 1026 78 10000 1.42 8 19:54 28.12.2022
475 Clouds 18 1025 76 10000 1.42 65 18:25 28.12.2022
476 Clouds 18 1024 71 10000 2.38 74 16:20 28.12.2022
477 Clear 18 1025 70 10000 3.45 84 13:46 28.12.2022
478 Clear 17 1026 68 10000 3.19 74 12:48 28.12.2022
479 Clear 17 1027 71 10000 3.88 72 11:33 28.12.2022
480 Clear 16 1026 82 10000 4.6 71 09:28 28.12.2022
481 Clear 15 1026 81 10000 4.93 76 07:30 28.12.2022
482 Clouds 15 1025 81 10000 5.49 77 06:44 28.12.2022
483 Clouds 17 1027 78 10000 6.88 72 00:29 28.12.2022
484 Clouds 17 1027 77 10000 6.77 65 20:59 27.12.2022
485 Clouds 17 1027 78 10000 6.64 65 19:41 27.12.2022
486 Clouds 18 1026 75 10000 6.89 68 17:58 27.12.2022
487 Clouds 18 1026 73 10000 7.24 68 16:44 27.12.2022
488 Clouds 18 1026 72 10000 7.66 72 15:49 27.12.2022
489 Clouds 19 1027 69 10000 8.77 76 13:57 27.12.2022
490 Clouds 17 1028 69 10000 7.71 78 11:30 27.12.2022
491 Clouds 17 1027 74 10000 7.05 77 09:47 27.12.2022
492 Clouds 16 1027 75 10000 7.02 75 09:23 27.12.2022
493 Clouds 16 1027 75 10000 7.39 73 08:21 27.12.2022
494 Clouds 14 1026 75 10000 7.36 74 04:32 27.12.2022
495 Clear 16 1027 81 10000 5.25 61 22:48 26.12.2022
496 Clear 16 1027 81 10000 4.86 59 21:25 26.12.2022
497 Clear 16 1027 81 10000 4.86 59 20:42 26.12.2022
498 Clear 17 1026 75 10000 4.32 64 18:44 26.12.2022
499 Clear 18 1025 74 10000 4.29 72 17:51 26.12.2022
500 Clear 18 1025 70 10000 4.79 78 16:21 26.12.2022
501 Clear 18 1025 69 10000 4.5 75 14:30 26.12.2022
502 Clouds 17 1025 70 10000 4.65 70 12:47 26.12.2022
503 Clouds 13 1023 77 10000 3.73 69 07:59 26.12.2022
504 Clouds 14 1022 72 10000 1.59 84 23:58 25.12.2022
505 Clouds 14 1022 72 10000 1.59 84 23:38 25.12.2022
506 Clouds 15 1021 74 10000 1.94 95 22:29 25.12.2022
507 Clouds 15 1021 74 10000 1.94 95 21:48 25.12.2022
508 Clouds 17 1020 77 10000 2.55 86 18:50 25.12.2022
509 Clouds 19 1020 76 10000 2.57 81 17:52 25.12.2022
510 Clouds 19 1020 76 10000 2.58 80 17:34 25.12.2022
511 Clouds 19 1020 67 10000 2.11 101 15:23 25.12.2022
512 Clouds 17 1021 63 10000 2.33 101 12:42 25.12.2022
513 Clouds 13 1021 69 10000 2.05 74 08:44 25.12.2022
514 Clear 16 1023 78 10000 2.4 237 23:40 24.12.2022
515 Clear 17 1023 82 10000 3.35 248 21:41 24.12.2022
516 Clear 21 1021 86 10000 3.34 272 18:18 24.12.2022
517 Clear 22 1021 81 10000 3.58 279 16:38 24.12.2022
518 Clear 22 1022 74 10000 3.14 274 14:52 24.12.2022
519 Clear 20 1023 71 10000 2.74 261 12:42 24.12.2022
520 Clear 15 1024 72 10000 2.54 255 10:39 24.12.2022
521 Clear 14 1024 75 10000 2.55 258 10:20 24.12.2022
522 Clear 13 1024 75 10000 2.55 258 09:36 24.12.2022
523 Clear 13 1023 75 10000 2.1 269 05:46 24.12.2022
524 Clear 14 1024 76 10000 1.24 250 02:20 24.12.2022
525 Clouds 15 1025 75 10000 1.42 254 23:35 23.12.2022
526 Clouds 17 1025 76 10000 1.51 265 21:58 23.12.2022
527 Clouds 19 1025 77 10000 1.54 276 20:40 23.12.2022
528 Clouds 19 1025 77 10000 1.81 282 19:39 23.12.2022
529 Clouds 20 1025 76 10000 1.91 274 19:21 23.12.2022
530 Clouds 20 1025 74 10000 1.37 275 18:39 23.12.2022
531 Clouds 20 1024 73 10000 1.18 277 18:19 23.12.2022
532 Clouds 21 1024 70 10000 1.13 276 16:33 23.12.2022
533 Clear 20 1025 65 10000 1.2 204 14:51 23.12.2022
534 Clouds 16 1028 65 10000 1.65 287 11:42 23.12.2022
535 Clouds 13 1027 71 10000 1.63 168 09:37 23.12.2022
536 Clouds 13 1027 74 10000 0.66 248 07:52 23.12.2022
537 Clear 11 1026 74 10000 0.61 264 06:51 23.12.2022
538 Clear 14 1026 75 10000 1.61 264 05:27 23.12.2022
539 Clear 16 1028 77 10000 1.69 286 23:21 22.12.2022
540 Clear 17 1028 77 10000 1.69 286 22:34 22.12.2022
541 Clear 18 1028 78 10000 2.91 298 20:26 22.12.2022
542 Clear 18 1027 82 10000 3.01 279 19:23 22.12.2022
543 Clear 19 1027 82 10000 3.01 279 18:37 22.12.2022
544 Clear 20 1027 76 10000 3.73 270 16:59 22.12.2022
545 Clear 20 1027 76 10000 3.72 270 16:37 22.12.2022
546 Clear 20 1027 72 10000 3.59 261 15:32 22.12.2022
547 Clear 20 1027 70 10000 3.5 267 14:45 22.12.2022
548 Clouds 19 1028 71 10000 3.69 272 13:32 22.12.2022
549 Clouds 19 1029 74 10000 3.89 281 12:40 22.12.2022
550 Clouds 16 1030 79 10000 3.66 269 10:32 22.12.2022
551 Clouds 16 1029 83 10000 3.45 271 09:59 22.12.2022
552 Clouds 16 1029 85 10000 3.46 273 09:19 22.12.2022
553 Clouds 14 1028 86 10000 3.79 276 07:54 22.12.2022
554 Clouds 16 1028 85 10000 3.84 273 04:19 22.12.2022
555 Clouds 17 1028 84 10000 4.21 289 00:51 22.12.2022
556 Clouds 17 1028 85 10000 4.21 287 22:42 21.12.2022
557 Clouds 17 1028 85 10000 4.17 285 21:53 21.12.2022
558 Clouds 17 1028 86 10000 3.93 279 21:21 21.12.2022
559 Clouds 18 1028 86 10000 3.93 279 20:45 21.12.2022
560 Clouds 18 1028 86 10000 3.76 280 19:58 21.12.2022
561 Clouds 18 1028 86 10000 3.74 280 19:39 21.12.2022
562 Clouds 18 1028 87 10000 3.62 282 19:21 21.12.2022
563 Clouds 18 1027 86 10000 3.77 277 18:43 21.12.2022
564 Clouds 19 1027 85 10000 3.87 281 17:34 21.12.2022
565 Clouds 19 1027 84 10000 5.69 253 14:24 21.12.2022
566 Clouds 19 1028 85 10000 5.69 254 12:33 21.12.2022
567 Clouds 18 1029 83 10000 4.97 254 11:41 21.12.2022
568 Clouds 18 1029 82 10000 4.64 254 11:19 21.12.2022
569 Clouds 16 1028 82 10000 4.41 250 08:51 21.12.2022
570 Clouds 16 1027 83 10000 4.56 244 06:55 21.12.2022
571 Clouds 19 1027 73 10000 5.09 232 00:28 21.12.2022
572 Clouds 18 1027 73 10000 4.82 233 22:38 20.12.2022
573 Clouds 16 1027 71 10000 5.14 225 20:58 20.12.2022
574 Clouds 17 1026 73 10000 4.94 221 19:59 20.12.2022
575 Clouds 17 1026 75 10000 3.02 234 18:49 20.12.2022
576 Clouds 17 1025 75 10000 2.04 229 18:25 20.12.2022
577 Clouds 18 1025 75 10000 2.04 229 17:51 20.12.2022
578 Clouds 18 1025 73 10000 1 224 17:25 20.12.2022
579 Clouds 18 1025 69 10000 0.49 183 16:19 20.12.2022
580 Clouds 18 1025 68 10000 0.39 174 14:56 20.12.2022
581 Clouds 18 1025 68 10000 0.39 174 14:36 20.12.2022
582 Clouds 18 1026 73 10000 0.52 118 13:49 20.12.2022
583 Clouds 17 1026 74 10000 1.54 113 12:37 20.12.2022
584 Clouds 17 1027 78 10000 2.44 106 11:55 20.12.2022
585 Clouds 16 1026 85 10000 3.1 105 10:29 20.12.2022
586 Clouds 15 1025 85 10000 4.09 103 07:28 20.12.2022
587 Clouds 17 1026 83 10000 4.21 96 00:20 20.12.2022
588 Clouds 17 1027 82 10000 4.1 92 22:29 19.12.2022
589 Clouds 17 1027 82 10000 4.1 92 21:30 19.12.2022
590 Clouds 17 1026 84 10000 4.53 87 19:42 19.12.2022
591 Clouds 17 1026 80 10000 5 89 18:59 19.12.2022
592 Clouds 17 1025 80 10000 5.24 87 17:58 19.12.2022
593 Clouds 17 1025 80 10000 5.61 83 16:20 19.12.2022
594 Clouds 17 1026 81 10000 6.55 82 13:20 19.12.2022
595 Clouds 17 1027 81 10000 6.44 85 11:37 19.12.2022
596 Clouds 16 1026 79 10000 7.26 91 08:23 19.12.2022
597 Clouds 13 1025 79 10000 7.54 92 06:58 19.12.2022
598 Clouds 16 1025 79 10000 7.48 90 00:50 19.12.2022
599 Clouds 17 1026 79 10000 7.97 90 21:49 18.12.2022
600 Clouds 17 1026 78 10000 7.98 90 21:27 18.12.2022
601 Clouds 17 1025 78 10000 8.05 90 20:54 18.12.2022
602 Clouds 17 1025 78 10000 8.2 88 19:44 18.12.2022
603 Clouds 17 1025 79 10000 7.97 87 18:59 18.12.2022
604 Clouds 17 1024 80 10000 8 88 17:52 18.12.2022
605 Clouds 17 1024 78 10000 8.17 87 15:43 18.12.2022
606 Clouds 17 1024 74 10000 8.24 87 15:24 18.12.2022
607 Clouds 17 1024 74 10000 8.24 87 14:58 18.12.2022
608 Clouds 17 1025 72 10000 7.32 85 13:29 18.12.2022
609 Clouds 16 1025 72 10000 7.32 85 12:50 18.12.2022
610 Clouds 17 1025 75 10000 7.03 82 11:49 18.12.2022
611 Clouds 14 1025 78 10000 5.71 77 09:36 18.12.2022
612 Clouds 11 1024 81 10000 4.76 73 08:46 18.12.2022
613 Clouds 12 1023 81 10000 3.89 66 06:41 18.12.2022
614 Clear 12 1023 81 10000 3.01 73 06:18 18.12.2022
615 Clear 14 1023 79 10000 0.7 342 01:53 18.12.2022
616 Clear 15 1023 79 10000 1.32 297 22:57 17.12.2022
617 Clear 16 1022 79 10000 1.93 284 20:46 17.12.2022
618 Clouds 19 1019 75 10000 2.92 272 17:21 17.12.2022
619 Clouds 18 1019 72 10000 3.19 270 15:32 17.12.2022
620 Clouds 17 1020 74 10000 3.64 238 13:18 17.12.2022
621 Clouds 16 1020 77 10000 2.5 244 11:19 17.12.2022
622 Clouds 16 1020 77 10000 2.5 244 10:40 17.12.2022
623 Clouds 16 1018 83 10000 3.93 259 08:37 17.12.2022
624 Clouds 16 1016 85 10000 4.93 240 06:47 17.12.2022
625 Rain 16 1016 82 10000 5.32 247 02:19 17.12.2022
626 Clouds 17 1015 81 10000 5.16 252 22:34 16.12.2022
627 Clouds 17 1013 80 10000 5.26 266 20:27 16.12.2022
628 Clouds 17 1012 79 10000 7.13 263 18:22 16.12.2022
629 Clouds 18 1010 79 10000 8.57 261 15:28 16.12.2022
630 Clouds 17 1010 79 10000 8.57 261 14:36 16.12.2022
631 Clouds 16 1011 78 10000 9.92 263 12:38 16.12.2022
632 Rain 16 1011 78 10000 9.61 260 11:55 16.12.2022
633 Clouds 16 1010 81 8138 9.82 252 09:40 16.12.2022
634 Rain 15 1010 81 8324 9.46 249 08:39 16.12.2022
635 Rain 17 1009 77 10000 9.21 255 07:54 16.12.2022
636 Clouds 15 1009 80 9523 9.12 226 02:43 16.12.2022
637 Clouds 14 1009 72 10000 9.19 256 22:33 15.12.2022
638 Clouds 14 1009 72 10000 9.22 256 21:30 15.12.2022
639 Rain 14 1008 77 10000 9.15 271 19:46 15.12.2022
640 Clouds 15 1007 77 9395 10.78 265 18:53 15.12.2022
641 Rain 14 1005 82 10000 9.59 249 17:27 15.12.2022
642 Clouds 14 1005 76 10000 11.14 257 15:47 15.12.2022
643 Clouds 15 1005 75 9654 11.08 255 14:57 15.12.2022
644 Clouds 14 1006 87 6951 7.85 253 12:54 15.12.2022
645 Clouds 14 1006 86 3904 8.94 251 12:24 15.12.2022
646 Rain 14 1005 76 8818 10.61 256 08:59 15.12.2022
647 Clouds 14 1005 78 8801 10.86 257 08:21 15.12.2022
648 Clouds 16 1004 83 10000 12.87 263 05:43 15.12.2022
649 Clear 18 1007 83 10000 11.72 245 22:59 14.12.2022
650 Clouds 18 1006 84 10000 11.2 250 21:24 14.12.2022
651 Clouds 17 1006 84 10000 11.23 250 20:45 14.12.2022
652 Clouds 17 1006 85 10000 11.66 251 19:51 14.12.2022
653 Clouds 19 1006 85 10000 10.72 243 17:19 14.12.2022
654 Clouds 17 1006 85 10000 10.72 243 16:53 14.12.2022
655 Rain 19 1006 87 10000 9.28 240 14:55 14.12.2022
656 Clouds 18 1009 93 10000 8.39 239 13:19 14.12.2022
657 Rain 19 1010 94 10000 8.42 242 10:46 14.12.2022
658 Rain 18 1008 93 5254 8.1 238 10:22 14.12.2022
659 Rain 20 1009 94 10000 9.02 237 07:44 14.12.2022
660 Clouds 21 1013 90 10000 12.05 246 22:19 13.12.2022
661 Clouds 21 1013 90 10000 12.05 246 21:37 13.12.2022
662 Clouds 21 1013 92 10000 12.44 244 20:47 13.12.2022
663 Clouds 21 1012 92 5297 12.29 238 19:21 13.12.2022
664 Clouds 20 1011 92 8399 12.12 233 16:36 13.12.2022
665 Clouds 20 1012 91 10000 13.2 230 14:59 13.12.2022
666 Clouds 20 1013 90 10000 12.46 226 13:33 13.12.2022
667 Clouds 20 1014 86 10000 11.95 221 10:42 13.12.2022
668 Clouds 20 1014 88 10000 11.87 218 09:48 13.12.2022
669 Clouds 20 1014 91 10000 10.72 220 08:18 13.12.2022
670 Clouds 20 1016 88 10000 10.71 235 22:36 12.12.2022
671 Clouds 20 1016 89 10000 10.14 235 21:58 12.12.2022
672 Clouds 20 1015 92 10000 9.45 224 19:34 12.12.2022
673 Clouds 20 1014 92 10000 9.66 228 17:52 12.12.2022
674 Clouds 20 1014 90 10000 10.1 235 15:32 12.12.2022
675 Clouds 21 1015 88 10000 10.72 236 13:37 12.12.2022
676 Clouds 19 1015 91 10000 7.47 226 09:20 12.12.2022
677 Clouds 18 1015 91 10000 7.47 226 08:56 12.12.2022
678 Clouds 19 1014 94 10000 6 244 04:34 12.12.2022
679 Clouds 18 1014 94 10000 5.9 234 01:50 12.12.2022
680 Clouds 18 1014 93 10000 5.73 252 22:18 11.12.2022
681 Clouds 19 1014 93 10000 6.98 252 20:34 11.12.2022
682 Clouds 19 1014 92 10000 7.84 256 19:38 11.12.2022
683 Clouds 20 1013 92 10000 8.84 256 18:31 11.12.2022
684 Clouds 20 1012 93 10000 9.66 252 17:33 11.12.2022
685 Clouds 21 1012 91 10000 9.92 253 16:53 11.12.2022
686 Clouds 21 1012 89 10000 11.17 255 16:20 11.12.2022
687 Clouds 21 1012 89 10000 11.17 255 15:43 11.12.2022
688 Clouds 20 1012 90 10000 13.5 249 13:35 11.12.2022
689 Rain 19 1012 90 10000 13.53 249 12:41 11.12.2022
690 Clouds 17 1011 95 2407 13.88 234 10:19 11.12.2022
691 Clouds 18 1014 87 10000 7.27 222 00:49 11.12.2022
692 Clouds 17 1015 86 10000 7.15 227 00:21 11.12.2022
693 Clouds 17 1015 86 10000 6.6 241 22:34 10.12.2022
694 Clouds 17 1016 86 10000 5.02 255 21:52 10.12.2022
695 Clouds 17 1016 86 10000 4.45 267 20:57 10.12.2022
696 Clouds 17 1016 87 10000 4.07 274 20:19 10.12.2022
697 Clouds 19 1015 85 10000 4.49 283 17:44 10.12.2022
698 Clouds 19 1014 82 10000 4.44 284 16:37 10.12.2022
699 Clouds 19 1014 81 10000 5.02 288 15:40 10.12.2022
700 Clouds 19 1014 81 10000 6.11 283 15:20 10.12.2022
701 Clouds 18 1014 78 10000 6.08 287 13:33 10.12.2022
702 Clouds 17 1015 81 10000 6.11 295 11:57 10.12.2022
703 Clouds 17 1014 83 10000 6.01 297 10:49 10.12.2022
704 Clouds 16 1013 85 10000 5.87 297 09:41 10.12.2022
705 Clouds 17 1011 86 10000 8.82 274 07:22 10.12.2022
706 Clouds 17 1010 88 10000 9.63 265 04:56 10.12.2022
707 Clouds 17 1008 88 10000 10.67 253 23:34 09.12.2022
708 Clouds 18 1008 89 10000 10.62 253 22:41 09.12.2022
709 Clouds 19 1007 89 9693 11.59 251 21:27 09.12.2022
710 Clouds 19 1007 89 9693 11.59 251 20:57 09.12.2022
711 Clouds 19 1006 87 10000 11.94 246 19:41 09.12.2022
712 Clouds 20 1005 85 10000 13.1 247 17:56 09.12.2022
713 Clouds 19 1005 84 9300 13.2 246 16:37 09.12.2022
714 Clouds 19 1004 84 10000 13.13 243 16:18 09.12.2022
715 Clouds 18 1004 84 10000 13.42 243 15:19 09.12.2022
716 Rain 18 1006 86 8423 11.97 228 12:25 09.12.2022
717 Clouds 17 1006 84 10000 12.74 235 10:48 09.12.2022
718 Clouds 18 1006 84 10000 12.89 232 09:44 09.12.2022
719 Clouds 18 1005 86 9209 11.53 223 05:36 09.12.2022
720 Clouds 16 1006 84 10000 9.59 230 02:29 09.12.2022
721 Clouds 18 1007 85 10000 11.56 229 22:32 08.12.2022
722 Clouds 18 1007 92 6695 10.09 233 20:51 08.12.2022
723 Clouds 19 1006 79 10000 9.3 215 18:18 08.12.2022
724 Clouds 19 1005 79 10000 8.85 217 15:44 08.12.2022
725 Clouds 19 1006 82 10000 6.8 203 14:27 08.12.2022
726 Clouds 19 1006 82 10000 6.8 203 14:27 08.12.2022
727 Clouds 19 1008 81 10000 5.86 180 11:33 08.12.2022
728 Clouds 17 1008 82 10000 5.34 198 09:54 08.12.2022
729 Clouds 17 1008 81 10000 5.22 180 09:26 08.12.2022
730 Rain 16 1008 88 10000 3.06 106 02:56 08.12.2022
731 Clouds 17 1010 87 10000 4.59 89 22:19 07.12.2022
732 Clouds 17 1010 87 10000 4.59 89 21:50 07.12.2022
733 Clouds 17 1010 87 10000 4.59 89 21:31 07.12.2022
734 Clouds 17 1011 85 10000 3.88 90 19:44 07.12.2022
735 Clouds 17 1011 86 10000 4.34 84 17:37 07.12.2022
736 Clouds 17 1011 82 10000 3.77 85 14:41 07.12.2022
737 Clouds 17 1013 79 10000 3.38 86 12:37 07.12.2022
738 Clouds 16 1014 82 10000 3.34 87 10:43 07.12.2022
739 Clouds 16 1014 84 10000 3.17 92 09:51 07.12.2022
740 Clouds 15 1014 86 10000 2.94 88 08:47 07.12.2022
741 Clouds 14 1014 85 10000 1.72 96 06:48 07.12.2022
742 Clouds 14 1014 84 10000 0.04 88 05:23 07.12.2022
743 Clouds 16 1016 84 10000 1.35 254 22:40 06.12.2022
744 Clouds 17 1017 83 10000 1.79 271 20:48 06.12.2022
745 Clouds 18 1016 80 10000 3.79 262 18:21 06.12.2022
746 Clouds 19 1016 77 10000 4.99 257 16:42 06.12.2022
747 Clouds 19 1016 76 10000 5.98 256 15:52 06.12.2022
748 Clouds 19 1016 76 10000 5.98 256 15:33 06.12.2022
749 Clouds 19 1016 76 10000 6.29 254 14:28 06.12.2022
750 Clouds 19 1017 75 10000 7.33 251 12:58 06.12.2022
751 Clouds 19 1017 75 10000 7.33 251 12:40 06.12.2022
752 Clouds 16 1016 82 10000 6.48 255 08:44 06.12.2022
753 Clouds 17 1014 84 10000 8.04 269 05:57 06.12.2022
754 Clouds 17 1011 85 10000 10.65 234 01:26 06.12.2022
755 Clouds 16 1011 83 10000 11.35 204 22:36 05.12.2022
756 Clouds 15 1010 77 10000 10.7 190 20:55 05.12.2022
757 Rain 15 1010 77 10000 8.89 191 20:26 05.12.2022
758 Rain 15 1010 77 10000 8.89 191 19:45 05.12.2022
759 Rain 18 1011 73 10000 6.39 193 17:49 05.12.2022
760 Clouds 17 1011 80 10000 6.21 196 16:42 05.12.2022
761 Clouds 18 1012 81 8741 8.16 223 15:22 05.12.2022
762 Clouds 17 1011 80 10000 6.42 106 12:59 05.12.2022
763 Clouds 17 1011 80 10000 6.42 106 12:40 05.12.2022
764 Clouds 17 1011 81 10000 6.33 93 11:51 05.12.2022
765 Clouds 17 1011 82 10000 6.6 97 10:58 05.12.2022
766 Clouds 16 1011 88 10000 5.5 84 00:20 05.12.2022
767 Clouds 16 1011 87 10000 4.91 87 22:45 04.12.2022
768 Clouds 16 1012 87 10000 4.14 89 22:20 04.12.2022
769 Clouds 16 1012 87 10000 4.14 89 22:20 04.12.2022
770 Clouds 16 1012 87 10000 4.14 89 21:53 04.12.2022
771 Clouds 16 1012 85 10000 4.17 97 20:30 04.12.2022
772 Clouds 16 1011 83 10000 3.39 93 19:27 04.12.2022
773 Clouds 16 1011 83 10000 3.39 93 18:40 04.12.2022
774 Clouds 16 1010 73 10000 2.01 110 17:23 04.12.2022
775 Clouds 16 1010 73 10000 2.01 110 16:37 04.12.2022
776 Clouds 16 1010 68 10000 1.32 128 16:19 04.12.2022
777 Clouds 16 1010 68 10000 1.32 127 15:57 04.12.2022
778 Clouds 16 1010 65 10000 1.34 249 14:43 04.12.2022
779 Clouds 16 1011 71 10000 2.93 234 13:26 04.12.2022
780 Clouds 16 1011 71 10000 2.93 234 12:42 04.12.2022
781 Clouds 15 1012 74 10000 3.68 225 11:46 04.12.2022
782 Clouds 14 1010 85 10000 3.82 218 09:20 04.12.2022
783 Clouds 14 1010 79 10000 3.43 242 07:27 04.12.2022
784 Clouds 15 1009 82 10000 3.05 216 00:45 04.12.2022
785 Clouds 16 1009 80 10000 3.15 147 23:33 03.12.2022
786 Clouds 16 1008 79 10000 3.38 122 21:59 03.12.2022
787 Clouds 16 1008 79 10000 3.71 110 21:21 03.12.2022
788 Clouds 16 1008 79 10000 3.96 98 19:34 03.12.2022
789 Clouds 16 1008 78 10000 3.7 88 18:39 03.12.2022
790 Clouds 16 1007 70 10000 3.74 75 15:53 03.12.2022
791 Clouds 16 1008 69 10000 3.13 80 14:23 03.12.2022
792 Clouds 16 1008 68 10000 2.95 88 12:54 03.12.2022
793 Clouds 16 1009 71 10000 3.03 83 12:22 03.12.2022
794 Clouds 13 1009 76 10000 2.7 78 10:20 03.12.2022
795 Clouds 12 1008 79 10000 2.83 102 06:56 03.12.2022
796 Clouds 14 1009 77 10000 4.73 94 00:31 03.12.2022
797 Clouds 14 1010 75 10000 4.68 84 22:22 02.12.2022
798 Clouds 15 1010 74 10000 4.95 93 20:53 02.12.2022
799 Clouds 15 1009 75 10000 5.03 89 19:23 02.12.2022
800 Clouds 16 1009 68 10000 5.77 91 15:58 02.12.2022
801 Clouds 16 1009 67 10000 5.81 85 14:40 02.12.2022
802 Clouds 15 1009 68 10000 5.7 84 14:22 02.12.2022
803 Clouds 15 1010 71 10000 4.55 78 12:55 02.12.2022
804 Clouds 16 1011 75 10000 4.6 71 11:31 02.12.2022
805 Clouds 15 1010 81 10000 5.03 93 08:35 02.12.2022
806 Clouds 15 1010 79 10000 5.2 88 07:23 02.12.2022
807 Clouds 13 1012 82 10000 6.31 89 22:54 01.12.2022
808 Clouds 14 1012 85 10000 6.3 89 21:45 01.12.2022
809 Clouds 14 1012 84 10000 5.56 88 21:26 01.12.2022
810 Clouds 14 1012 86 10000 3.96 87 19:22 01.12.2022
811 Clouds 13 1011 85 10000 4.16 80 17:46 01.12.2022
812 Clouds 14 1011 81 10000 4.32 81 15:38 01.12.2022
813 Clouds 14 1013 85 10000 4.85 100 11:23 01.12.2022
814 Clouds 14 1012 85 10000 4.72 99 09:55 01.12.2022
815 Clouds 13 1012 87 10000 4.92 101 09:37 01.12.2022
816 Clouds 13 1012 87 7385 4.96 82 08:18 01.12.2022
817 Clouds 14 1015 69 10000 2.24 255 23:59 30.11.2022
818 Clouds 14 1015 66 10000 2.67 268 22:28 30.11.2022
819 Clouds 15 1015 64 10000 3.2 270 21:19 30.11.2022
820 Clouds 15 1015 62 10000 3.18 269 20:25 30.11.2022
821 Clouds 16 1015 59 10000 3.09 277 19:35 30.11.2022
822 Clouds 17 1015 58 10000 3.28 279 18:33 30.11.2022
823 Clouds 18 1015 57 10000 3.5 279 17:35 30.11.2022
824 Clouds 17 1016 56 10000 2.66 264 14:47 30.11.2022
825 Clouds 17 1016 57 10000 2.21 258 14:27 30.11.2022
826 Clouds 15 1017 54 10000 1.59 243 12:32 30.11.2022
827 Clear 11 1017 63 10000 0.71 138 10:24 30.11.2022
828 Clear 10 1017 67 10000 0.6 83 08:38 30.11.2022
829 Clouds 10 1017 68 10000 0.43 72 07:25 30.11.2022
830 Clouds 13 1019 58 10000 1.99 79 23:33 29.11.2022
831 Clouds 14 1019 57 10000 1.52 82 22:25 29.11.2022
832 Clouds 16 1019 56 10000 1.08 61 20:53 29.11.2022
833 Clouds 16 1019 56 10000 1.08 61 20:33 29.11.2022
834 Clouds 17 1018 54 10000 0.35 343 18:57 29.11.2022
835 Clear 19 1018 52 10000 0.74 108 16:58 29.11.2022
836 Clear 19 1019 49 10000 0.54 48 16:22 29.11.2022
837 Clear 19 1019 49 10000 0.54 48 16:22 29.11.2022
838 Clear 19 1019 48 10000 0.5 65 14:49 29.11.2022
839 Clouds 17 1021 43 10000 0.69 121 12:46 29.11.2022
840 Clouds 14 1021 44 10000 1.04 130 11:32 29.11.2022
841 Clouds 12 1022 44 10000 0.9 112 10:52 29.11.2022
842 Clear 10 1022 47 10000 0.74 129 09:37 29.11.2022
843 Clear 11 1021 51 10000 0.46 129 07:48 29.11.2022
844 Clouds 14 1022 48 10000 0.28 330 00:35 29.11.2022
845 Clouds 14 1022 47 10000 1.31 352 00:35 29.11.2022
846 Clouds 14 1023 47 10000 1.37 0 23:29 28.11.2022
847 Clouds 15 1023 47 10000 1.37 0 22:32 28.11.2022
848 Clouds 15 1023 46 10000 2.11 355 21:43 28.11.2022
849 Clouds 16 1023 45 10000 2.95 345 20:33 28.11.2022
850 Clouds 16 1023 44 10000 2.99 347 19:38 28.11.2022
851 Clouds 18 1021 42 10000 4.65 328 18:29 28.11.2022
852 Clouds 18 1021 42 10000 4.65 328 17:44 28.11.2022
853 Clouds 19 1022 37 10000 6.14 296 15:22 28.11.2022
854 Clouds 18 1022 38 10000 5.78 286 13:59 28.11.2022
855 Clouds 18 1022 38 10000 5.78 286 13:37 28.11.2022
856 Clouds 16 1024 56 10000 5.15 286 11:49 28.11.2022
857 Clouds 15 1024 80 10000 6.02 307 09:27 28.11.2022
858 Clouds 15 1024 80 10000 6.02 307 09:27 28.11.2022
859 Clouds 16 1022 71 10000 5.33 297 04:58 28.11.2022
860 Clouds 16 1022 77 10000 5.83 300 04:40 28.11.2022
861 Clear 16 1023 73 10000 4.86 296 03:23 28.11.2022
862 Clouds 15 1023 66 10000 3.76 285 00:42 28.11.2022
863 Clouds 14 1023 77 10000 2.12 306 22:24 27.11.2022
864 Clear 15 1022 76 10000 0.32 339 20:49 27.11.2022
865 Clouds 16 1022 75 10000 2.02 83 18:57 27.11.2022
866 Clouds 17 1022 65 10000 2.14 79 16:44 27.11.2022
867 Clouds 17 1023 63 10000 4.2 85 14:22 27.11.2022
868 Clouds 17 1025 64 10000 4.77 84 12:27 27.11.2022
869 Clouds 16 1025 67 10000 5.19 82 10:36 27.11.2022
870 Clouds 15 1024 74 10000 5.66 80 07:55 27.11.2022
871 Clouds 16 1026 76 10000 8.47 81 23:39 26.11.2022
872 Clouds 17 1026 74 10000 9 86 21:44 26.11.2022
873 Clouds 18 1027 77 10000 8.98 85 20:20 26.11.2022
874 Clear 18 1026 75 10000 7.78 80 18:57 26.11.2022
875 Clear 18 1026 75 10000 7.76 80 18:57 26.11.2022
876 Clear 18 1025 72 10000 8.37 87 16:47 26.11.2022
877 Clear 18 1026 71 10000 8.3 84 15:37 26.11.2022
878 Clouds 17 1027 69 10000 8.38 77 12:54 26.11.2022
879 Clouds 17 1027 69 10000 8.38 77 12:54 26.11.2022
880 Clouds 17 1027 72 10000 8.83 83 11:23 26.11.2022
881 Clouds 17 1027 80 10000 8.83 78 09:43 26.11.2022
882 Clouds 16 1027 84 10000 8.58 78 08:39 26.11.2022
883 Clear 17 1025 68 10000 2.71 83 22:59 25.11.2022
884 Clear 18 1025 69 10000 1.7 84 21:38 25.11.2022
885 Clear 19 1024 71 10000 0.57 114 20:33 25.11.2022
886 Clouds 21 1023 69 10000 3.64 284 16:59 25.11.2022
887 Clouds 21 1023 71 10000 4.26 278 15:40 25.11.2022
888 Clouds 19 1024 75 10000 3.59 267 12:20 25.11.2022
889 Clouds 17 1023 81 10000 3.45 290 08:53 25.11.2022
890 Clouds 17 1023 81 10000 3.45 290 08:33 25.11.2022
891 Clouds 17 1022 80 10000 2.77 274 06:42 25.11.2022
892 Clouds 17 1022 79 10000 4.03 283 01:25 25.11.2022
893 Clouds 18 1021 79 10000 3.31 283 23:22 24.11.2022
894 Clouds 18 1021 81 10000 3.34 277 22:29 24.11.2022
895 Clouds 18 1021 81 10000 3.34 277 21:39 24.11.2022
896 Clouds 19 1021 82 10000 3.5 281 19:48 24.11.2022
897 Clouds 20 1020 80 10000 3.99 278 17:47 24.11.2022
898 Clouds 20 1019 75 10000 4.7 277 17:23 24.11.2022
899 Clouds 20 1019 75 10000 4.7 277 16:39 24.11.2022
900 Clouds 21 1020 72 10000 5.15 279 14:23 24.11.2022
901 Clouds 20 1021 73 10000 4.53 263 12:40 24.11.2022
902 Clouds 18 1021 79 10000 3.29 252 10:52 24.11.2022
903 Clouds 16 1021 85 10000 2.66 255 08:45 24.11.2022
904 Clouds 16 1020 88 10000 2.57 284 04:42 24.11.2022
905 Clouds 17 1021 86 10000 3.51 271 00:40 24.11.2022
906 Clouds 17 1021 87 10000 3.47 274 23:31 23.11.2022
907 Clear 18 1022 87 10000 3.25 269 21:47 23.11.2022
908 Clear 18 1022 87 10000 3.27 264 20:49 23.11.2022
909 Clouds 18 1021 85 10000 3.59 273 19:34 23.11.2022
910 Clouds 18 1021 84 10000 3.85 280 18:54 23.11.2022
911 Clouds 19 1020 79 10000 4.51 283 17:29 23.11.2022
912 Clouds 19 1020 79 10000 4.51 283 17:29 23.11.2022
913 Clouds 19 1020 81 10000 7.22 251 13:42 23.11.2022
914 Clouds 19 1021 80 10000 6.93 250 13:21 23.11.2022
915 Clouds 18 1022 82 10000 6.58 246 12:22 23.11.2022
916 Clouds 18 1022 82 10000 6.56 246 11:44 23.11.2022
917 Clouds 18 1022 82 10000 6.06 245 10:45 23.11.2022
918 Clouds 18 1022 83 10000 6.01 237 09:45 23.11.2022
919 Clouds 18 1021 84 10000 6.47 230 09:26 23.11.2022
920 Clouds 17 1021 84 10000 6.45 230 08:57 23.11.2022
921 Clouds 17 1021 85 10000 6.91 229 08:30 23.11.2022
922 Clouds 17 1021 85 10000 7.25 234 05:19 23.11.2022
923 Clouds 19 1023 79 10000 6.9 257 23:58 22.11.2022
924 Clouds 19 1023 79 10000 6.94 256 22:36 22.11.2022
925 Clouds 18 1023 78 10000 6.88 259 21:34 22.11.2022
926 Clouds 18 1023 77 10000 7.04 258 20:50 22.11.2022
927 Clouds 19 1023 76 10000 7.04 261 20:26 22.11.2022
928 Clouds 18 1023 76 10000 7.04 261 19:34 22.11.2022
929 Clouds 19 1022 74 10000 8.05 258 17:48 22.11.2022
930 Clouds 18 1022 74 10000 6.11 268 16:24 22.11.2022
931 Clouds 19 1023 72 10000 4.89 277 14:20 22.11.2022
932 Clouds 17 1023 75 10000 5.22 283 12:26 22.11.2022
933 Clouds 15 1023 84 10000 4.28 316 09:26 22.11.2022
934 Clouds 17 1022 85 10000 5.12 314 07:59 22.11.2022
935 Clouds 15 1022 85 10000 4.14 310 06:37 22.11.2022
936 Clouds 18 1023 85 10000 6.84 305 23:42 21.11.2022
937 Clouds 17 1023 87 10000 8.91 286 22:50 21.11.2022
938 Clouds 19 1022 86 10000 10.53 275 21:59 21.11.2022
939 Clouds 19 1022 85 10000 10.96 265 20:56 21.11.2022
940 Clouds 19 1021 84 10000 10.84 262 19:44 21.11.2022
941 Clouds 19 1021 83 10000 11.12 256 19:26 21.11.2022
942 Clouds 19 1021 83 10000 11.12 256 18:44 21.11.2022
943 Clouds 19 1021 83 10000 10.48 250 16:58 21.11.2022
944 Clouds 19 1021 83 10000 10.48 250 16:40 21.11.2022
945 Clouds 20 1021 80 10000 10.51 255 15:53 21.11.2022
946 Clouds 20 1022 77 10000 9.83 258 14:58 21.11.2022
947 Clouds 21 1023 74 10000 9.62 256 13:52 21.11.2022
948 Clouds 19 1025 75 10000 8.69 260 11:39 21.11.2022
949 Clouds 16 1024 81 10000 5.32 269 09:19 21.11.2022
950 Clouds 15 1024 82 10000 4.81 269 07:43 21.11.2022
951 Clouds 16 1026 75 10000 3.38 280 22:48 20.11.2022
952 Clear 17 1026 74 10000 3.48 273 21:36 20.11.2022
953 Clear 17 1026 73 10000 3.96 285 20:33 20.11.2022
954 Clouds 18 1025 71 10000 4.05 285 18:46 20.11.2022
955 Clouds 18 1025 66 10000 5.11 277 16:46 20.11.2022
956 Clouds 19 1025 64 10000 5.34 279 15:30 20.11.2022
957 Clouds 19 1025 64 10000 5.01 282 14:54 20.11.2022
958 Clouds 18 1027 66 10000 5.35 283 13:34 20.11.2022
959 Clouds 18 1027 66 10000 5.37 283 12:44 20.11.2022
960 Clouds 16 1027 66 10000 4.66 280 11:31 20.11.2022
961 Clouds 15 1027 68 10000 4.29 286 10:51 20.11.2022
962 Clouds 13 1026 75 10000 3.93 311 09:29 20.11.2022
963 Clouds 13 1026 75 10000 3.93 311 08:41 20.11.2022
964 Clouds 14 1026 77 10000 4.59 310 07:30 20.11.2022
965 Clouds 14 1025 73 10000 4.58 325 04:26 20.11.2022
966 Clouds 15 1025 69 10000 3.9 321 01:22 20.11.2022
967 Clouds 15 1025 69 10000 3.9 321 00:42 20.11.2022
968 Clouds 16 1025 67 10000 4.1 320 00:23 20.11.2022
969 Clouds 16 1025 67 10000 4.1 320 23:51 19.11.2022
970 Clouds 16 1025 64 10000 3.83 317 23:25 19.11.2022
971 Clouds 17 1025 64 10000 3.83 317 22:40 19.11.2022
972 Clouds 17 1025 63 10000 4.36 316 21:32 19.11.2022
973 Clouds 17 1025 63 10000 5.44 309 20:57 19.11.2022
974 Clouds 17 1024 62 10000 5.66 309 20:33 19.11.2022
975 Clouds 17 1023 63 10000 6.29 301 19:22 19.11.2022
976 Clouds 17 1023 64 10000 6.98 296 17:41 19.11.2022
977 Clouds 18 1022 63 10000 7.67 291 17:20 19.11.2022
978 Clouds 17 1022 61 10000 8.36 292 16:28 19.11.2022
979 Clouds 18 1022 58 10000 8.29 293 14:39 19.11.2022
980 Clouds 15 1024 61 10000 6.84 304 12:23 19.11.2022
981 Clouds 14 1024 64 10000 6.55 305 10:57 19.11.2022
982 Clouds 12 1023 74 10000 6.2 305 08:43 19.11.2022
983 Clear 13 1022 74 10000 6.15 311 04:59 19.11.2022
984 Clear 14 1022 72 10000 5.83 320 03:25 19.11.2022
985 Clouds 15 1021 64 10000 6.02 315 00:18 19.11.2022
986 Clear 15 1021 61 10000 5.47 314 23:19 18.11.2022
987 Clear 16 1021 60 10000 5.19 320 21:50 18.11.2022
988 Clear 16 1021 60 10000 5.19 320 21:30 18.11.2022
989 Clear 17 1021 59 10000 5.23 319 20:34 18.11.2022
990 Clear 17 1020 58 10000 5.93 315 19:46 18.11.2022
991 Clouds 17 1020 58 10000 7.57 305 18:38 18.11.2022
992 Clouds 18 1019 57 10000 8.38 301 17:44 18.11.2022
993 Clouds 16 1016 62 10000 8.01 306 14:32 18.11.2022
994 Rain 16 1017 84 10000 7.51 315 11:31 18.11.2022
995 Rain 16 1015 94 5974 7.15 319 08:46 18.11.2022
996 Rain 17 1014 94 2878 5.56 269 07:51 18.11.2022
997 Clouds 17 1014 86 9746 9.07 239 05:19 18.11.2022
998 Clouds 20 1016 83 10000 8.07 241 00:50 18.11.2022
999 Clouds 20 1017 81 10000 7.6 247 21:53 17.11.2022
1000 Clear 21 1017 83 10000 7.39 254 20:46 17.11.2022
1001 Clear 20 1017 84 10000 7.18 262 19:51 17.11.2022
1002 Clouds 21 1017 84 10000 6.51 269 18:35 17.11.2022
1003 Clouds 22 1016 82 10000 6.72 273 17:32 17.11.2022
1004 Clouds 22 1016 78 10000 7.25 277 16:53 17.11.2022
1005 Clouds 20 1016 76 10000 7.76 277 14:40 17.11.2022
1006 Clouds 19 1018 79 10000 6.99 260 11:21 17.11.2022
1007 Clear 19 1016 87 10000 6.09 250 08:23 17.11.2022
1008 Clouds 19 1016 89 10000 5.58 269 03:51 17.11.2022
1009 Clouds 20 1017 89 10000 6.81 253 00:21 17.11.2022
1010 Clouds 21 1018 89 10000 7.24 252 22:30 16.11.2022
1011 Clouds 21 1018 89 10000 6.37 253 20:36 16.11.2022
1012 Clouds 20 1017 90 10000 5.6 254 19:49 16.11.2022
1013 Clouds 20 1017 89 10000 5.45 261 18:43 16.11.2022
1014 Clouds 20 1016 86 10000 6.48 269 17:20 16.11.2022
1015 Clouds 20 1017 85 10000 6.13 265 13:54 16.11.2022
1016 Rain 20 1018 91 7415 7.64 254 09:38 16.11.2022
1017 Clouds 20 1017 88 10000 9.54 240 02:32 16.11.2022
1018 Clouds 20 1018 88 10000 8.84 242 01:25 16.11.2022
1019 Clouds 20 1018 88 10000 8.84 242 01:25 16.11.2022
1020 Clouds 20 1019 86 10000 8.11 246 22:22 15.11.2022
1021 Clouds 21 1019 85 10000 8.27 250 20:32 15.11.2022
1022 Clouds 21 1019 86 10000 8.18 251 19:34 15.11.2022
1023 Clouds 21 1018 85 10000 8.75 253 17:39 15.11.2022
1024 Clouds 21 1018 83 10000 9.09 250 16:53 15.11.2022
1025 Clouds 21 1018 79 10000 9.32 251 16:18 15.11.2022
1026 Clouds 21 1019 79 10000 9.36 246 14:42 15.11.2022
1027 Clouds 21 1020 76 10000 8.94 243 12:59 15.11.2022
1028 Clouds 20 1021 79 10000 8.05 238 11:43 15.11.2022
1029 Clouds 20 1021 80 10000 7.45 234 10:41 15.11.2022
1030 Clouds 17 1020 87 10000 5.05 243 06:57 15.11.2022
1031 Clouds 18 1021 87 10000 3.34 257 00:34 15.11.2022
1032 Clouds 18 1021 87 10000 2.77 259 22:54 14.11.2022
1033 Clouds 19 1021 87 10000 2.62 272 21:18 14.11.2022
1034 Clouds 20 1021 87 10000 2.62 272 20:37 14.11.2022
1035 Clouds 22 1020 81 10000 3.77 279 18:29 14.11.2022
1036 Clouds 24 1020 68 10000 4.8 281 15:40 14.11.2022
1037 Clouds 21 1022 67 10000 3.96 262 11:50 14.11.2022
1038 Clouds 20 1022 72 10000 3.34 248 11:28 14.11.2022
1039 Clouds 20 1022 72 10000 3.33 248 11:28 14.11.2022
1040 Clouds 20 1022 72 10000 3.34 248 11:28 14.11.2022
1041 Clouds 20 1022 72 10000 3.34 248 11:28 14.11.2022
1042 Clouds 17 1021 82 10000 3.11 248 08:48 14.11.2022
1043 Clouds 17 1021 82 10000 3.09 248 08:48 14.11.2022
1044 Clouds 17 1021 82 10000 3.11 248 08:48 14.11.2022
1045 Clouds 14 1021 84 10000 3.15 261 07:53 14.11.2022
1046 Clouds 16 1020 85 10000 3.11 265 05:59 14.11.2022
1047 Clouds 17 1021 81 10000 1.87 261 23:51 13.11.2022
1048 Clouds 18 1021 80 10000 1.41 250 21:46 13.11.2022
1049 Clouds 19 1021 79 10000 1.32 271 20:58 13.11.2022
1050 Clouds 19 1020 77 10000 1.33 268 19:25 13.11.2022
1051 Clear 20 1019 73 10000 1.07 254 17:55 13.11.2022
1052 Clear 21 1019 68 10000 0.88 258 17:00 13.11.2022
1053 Clear 21 1019 64 10000 0.27 90 14:58 13.11.2022
1054 Clouds 20 1020 69 10000 1.89 100 13:26 13.11.2022
1055 Clear 20 1020 61 10000 0.43 206 12:34 13.11.2022
1056 Clear 18 1021 71 10000 1.24 128 10:51 13.11.2022
1057 Clouds 17 1020 88 10000 1.85 78 07:39 13.11.2022
1058 Clouds 19 1020 89 10000 3.69 72 00:44 13.11.2022
1059 Clouds 19 1019 89 10000 4.37 73 21:59 12.11.2022
1060 Clouds 19 1019 89 10000 4.57 72 21:23 12.11.2022
1061 Clouds 19 1019 88 10000 4.45 68 19:53 12.11.2022
1062 Clouds 20 1018 82 10000 5.03 66 17:56 12.11.2022
1063 Clouds 20 1017 71 10000 5.86 64 16:22 12.11.2022
1064 Clouds 20 1017 70 10000 5.37 68 14:59 12.11.2022
1065 Clear 19 1019 79 10000 4.25 68 11:24 12.11.2022
1066 Clear 16 1018 82 10000 3.03 75 08:28 12.11.2022
1067 Clouds 18 1017 91 10000 4.96 83 01:59 12.11.2022
1068 Clouds 18 1018 89 10000 8.23 94 21:43 11.11.2022
1069 Clouds 19 1018 88 10000 8.91 92 20:45 11.11.2022
1070 Clouds 18 1018 87 10000 9.8 92 19:30 11.11.2022
1071 Clouds 19 1017 88 10000 10.46 92 18:42 11.11.2022
1072 Clouds 19 1016 87 10000 10.11 86 17:42 11.11.2022
1073 Clouds 19 1016 80 10000 12.32 89 15:36 11.11.2022
1074 Clouds 19 1017 78 10000 12.71 89 14:20 11.11.2022
1075 Clouds 19 1018 78 10000 12.82 91 13:24 11.11.2022
1076 Clouds 18 1018 80 10000 11.76 92 09:37 11.11.2022
1077 Clear 18 1018 82 10000 12.11 93 08:27 11.11.2022
1078 Clear 18 1018 84 10000 10.58 88 03:55 11.11.2022
1079 Clear 18 1020 83 10000 8.74 84 23:21 10.11.2022
1080 Clear 18 1020 85 10000 9.08 86 21:55 10.11.2022
1081 Clear 18 1020 85 10000 9.08 86 21:32 10.11.2022
1082 Clear 18 1020 86 10000 8.55 86 20:49 10.11.2022
1083 Clear 18 1020 87 10000 8.59 81 20:20 10.11.2022
1084 Clear 18 1020 87 10000 8.59 81 19:34 10.11.2022
1085 Clear 18 1019 87 10000 8.99 69 18:19 10.11.2022
1086 Clear 20 1019 73 10000 8.49 73 16:25 10.11.2022
1087 Clear 21 1020 65 10000 7.16 80 13:41 10.11.2022
1088 Clear 19 1021 69 10000 4.54 79 11:29 10.11.2022
1089 Clear 16 1020 84 10000 0.98 74 08:21 10.11.2022
1090 Clear 18 1020 84 10000 1.41 284 01:29 10.11.2022
1091 Clear 19 1021 84 10000 1.84 287 23:30 09.11.2022
1092 Clear 19 1021 83 10000 2.1 301 22:28 09.11.2022
1093 Clear 20 1021 83 10000 2.17 312 20:48 09.11.2022
1094 Clear 20 1021 83 10000 2.44 304 20:29 09.11.2022
1095 Clear 20 1021 83 10000 2.44 304 19:32 09.11.2022
1096 Clouds 21 1020 82 10000 2.78 296 18:49 09.11.2022
1097 Clouds 22 1019 80 10000 2.57 277 15:55 09.11.2022
1098 Clouds 22 1019 78 10000 3.3 289 14:45 09.11.2022
1099 Clouds 21 1019 76 10000 3.65 271 14:23 09.11.2022
1100 Clouds 21 1020 78 10000 4.33 287 12:58 09.11.2022
1101 Clouds 20 1021 80 10000 4.43 257 11:36 09.11.2022
1102 Clouds 18 1020 84 10000 3.5 233 08:35 09.11.2022
1103 Clouds 18 1019 86 10000 3.24 242 07:42 09.11.2022
1104 Clouds 19 1019 85 10000 2.63 269 23:53 08.11.2022
1105 Clouds 19 1019 83 10000 2.84 280 21:44 08.11.2022
1106 Clouds 19 1019 83 10000 2.71 277 21:25 08.11.2022
1107 Clouds 20 1019 83 10000 2.71 277 20:40 08.11.2022
1108 Clouds 20 1018 82 10000 2.53 280 19:36 08.11.2022
1109 Clouds 22 1017 73 10000 3.27 277 18:24 08.11.2022
1110 Clouds 24 1017 65 10000 3.62 272 16:20 08.11.2022
1111 Clouds 22 1017 66 10000 4.19 275 14:55 08.11.2022
1112 Clouds 22 1018 67 10000 4.32 274 13:36 08.11.2022
1113 Clouds 21 1019 66 10000 4.03 262 12:40 08.11.2022
1114 Clouds 18 1019 82 10000 3.41 250 08:57 08.11.2022
1115 Clouds 17 1019 86 10000 3.77 257 07:25 08.11.2022
1116 Clouds 19 1019 87 10000 2.81 258 00:33 08.11.2022
1117 Clouds 19 1019 89 10000 2.32 269 22:24 07.11.2022
1118 Clouds 19 1019 89 10000 2.37 274 21:21 07.11.2022
1119 Clouds 20 1019 89 10000 2.37 274 20:33 07.11.2022
1120 Clear 23 1018 79 10000 2.85 275 17:51 07.11.2022
1121 Clear 22 1018 74 10000 3.06 271 16:32 07.11.2022
1122 Clear 20 1018 73 10000 3.13 267 15:34 07.11.2022
1123 Clear 20 1018 71 10000 3 276 14:31 07.11.2022
1124 Clear 20 1019 69 10000 2.71 271 12:34 07.11.2022
1125 Clear 17 1020 67 10000 2.02 242 10:54 07.11.2022
1126 Clear 16 1020 56 10000 2.02 255 09:29 07.11.2022
1127 Clear 16 1019 55 10000 2.13 262 07:31 07.11.2022
1128 Clear 17 1019 53 10000 2.45 280 03:39 07.11.2022
1129 Clouds 18 1020 61 10000 2.85 269 01:19 07.11.2022
1130 Clouds 19 1020 68 10000 3.03 268 22:18 06.11.2022
1131 Clouds 20 1020 71 10000 3.1 270 21:19 06.11.2022
1132 Clouds 21 1020 74 10000 3.42 273 20:20 06.11.2022
1133 Clouds 21 1019 76 10000 3.44 273 19:32 06.11.2022
1134 Clear 22 1019 78 10000 3.73 275 18:39 06.11.2022
1135 Clear 22 1019 73 10000 4.13 274 18:19 06.11.2022
1136 Clear 22 1018 66 10000 4.35 275 17:20 06.11.2022
1137 Clear 24 1018 66 10000 4.35 275 16:36 06.11.2022
1138 Clear 24 1018 62 10000 4.67 273 15:42 06.11.2022
1139 Clouds 21 1020 57 10000 4.04 266 12:48 06.11.2022
1140 Clouds 20 1020 61 10000 3.73 259 11:56 06.11.2022
1141 Clouds 18 1021 67 10000 3.03 258 10:36 06.11.2022
1142 Clouds 15 1020 87 10000 1.53 269 07:45 06.11.2022
1143 Clouds 15 1020 87 10000 1.53 269 07:45 06.11.2022
1144 Clear 18 1020 86 10000 1.8 70 00:49 06.11.2022
1145 Clear 19 1020 83 10000 1.4 70 22:49 05.11.2022
1146 Clear 19 1019 77 10000 2.23 282 19:20 05.11.2022
1147 Clear 23 1019 70 10000 2.68 270 16:58 05.11.2022
1148 Clear 23 1019 70 10000 2.26 258 15:28 05.11.2022
1149 Clear 22 1019 70 10000 2.26 258 14:33 05.11.2022
1150 Clouds 23 1020 70 10000 0.7 253 12:30 05.11.2022
1151 Clouds 18 1021 81 10000 0.42 256 09:37 05.11.2022
1152 Clouds 18 1020 87 10000 0.4 342 07:25 05.11.2022
1153 Clouds 16 1020 87 10000 0.4 342 06:57 05.11.2022
1154 Clouds 20 1021 93 10000 2.27 259 00:46 05.11.2022
1155 Clouds 20 1021 94 10000 2.39 262 23:32 04.11.2022
1156 Clouds 20 1021 95 10000 3.15 270 21:40 04.11.2022
1157 Clouds 21 1021 93 10000 3.68 280 19:40 04.11.2022
1158 Clouds 22 1020 86 10000 4.7 268 17:44 04.11.2022
1159 Clouds 22 1020 79 10000 5.68 269 14:38 04.11.2022
1160 Clouds 22 1021 76 10000 5.44 269 13:19 04.11.2022
1161 Clouds 21 1022 76 10000 4.7 273 12:19 04.11.2022
1162 Clouds 20 1022 85 10000 4.09 276 09:31 04.11.2022
1163 Clouds 19 1021 91 10000 4.3 258 08:20 04.11.2022
1164 Clear 19 1021 87 10000 4.01 275 06:51 04.11.2022
1165 Clouds 18 1022 75 10000 4.32 279 00:56 04.11.2022
1166 Clouds 19 1022 80 10000 4.35 279 21:48 03.11.2022
1167 Clouds 19 1022 80 10000 4.64 282 20:46 03.11.2022
1168 Clouds 20 1022 76 10000 5.15 284 19:41 03.11.2022
1169 Clouds 21 1021 69 10000 5.08 271 18:27 03.11.2022
1170 Clouds 21 1021 69 10000 5.08 271 17:37 03.11.2022
1171 Clouds 21 1022 65 10000 6.13 274 15:24 03.11.2022
1172 Clouds 21 1022 65 10000 6.64 272 13:33 03.11.2022
1173 Clouds 21 1023 65 10000 6.86 273 12:35 03.11.2022
1174 Clouds 20 1023 65 10000 6.22 270 11:36 03.11.2022
1175 Clouds 17 1022 84 10000 4.22 291 07:48 03.11.2022
1176 Clouds 19 1022 83 10000 0.77 50 22:20 02.11.2022
1177 Clouds 19 1022 84 10000 1.31 30 20:56 02.11.2022
1178 Clouds 20 1022 84 10000 1.25 360 20:24 02.11.2022
1179 Clouds 20 1021 75 10000 1.67 83 18:28 02.11.2022
1180 Clouds 21 1021 66 10000 2.61 75 16:28 02.11.2022
1181 Clouds 21 1021 66 10000 2.61 75 15:30 02.11.2022
1182 Clouds 20 1022 65 10000 1.29 116 12:52 02.11.2022
1183 Clouds 20 1023 67 10000 1.57 150 12:22 02.11.2022
1184 Clear 18 1023 75 10000 0.38 231 09:50 02.11.2022
1185 Clear 17 1023 82 10000 1.26 295 08:33 02.11.2022
1186 Clouds 19 1022 88 10000 2.79 260 02:28 02.11.2022
1187 Clouds 21 1023 83 10000 3.11 258 22:21 01.11.2022
1188 Clouds 21 1023 83 10000 3.11 258 21:54 01.11.2022
1189 Clouds 21 1023 85 10000 3.11 271 20:28 01.11.2022
1190 Clouds 20 1023 85 10000 3.11 271 19:59 01.11.2022
1191 Clouds 20 1023 85 10000 3.11 271 19:40 01.11.2022
1192 Clouds 23 1021 77 10000 3.86 260 18:21 01.11.2022
1193 Clouds 24 1021 68 10000 3.88 274 16:23 01.11.2022
1194 Clouds 22 1021 64 10000 3.83 270 14:38 01.11.2022
1195 Clouds 21 1023 60 10000 1.3 263 12:34 01.11.2022
1196 Clouds 21 1023 60 10000 1.3 263 11:40 01.11.2022
1197 Clouds 21 1023 64 10000 0.96 258 11:20 01.11.2022
1198 Clouds 21 1023 64 10000 0.96 258 11:20 01.11.2022
1199 Clear 18 1022 74 10000 0.45 52 08:51 01.11.2022
1200 Clear 19 1022 79 10000 1.02 348 07:48 01.11.2022
1201 Clouds 19 1022 81 10000 0.45 328 07:27 01.11.2022
1202 Clouds 19 1021 83 10000 1.4 278 06:45 01.11.2022
1203 Clouds 20 1021 84 10000 2.15 282 04:18 01.11.2022
1204 Clouds 20 1021 89 10000 0.87 359 22:24 31.10.2022
1205 Clouds 20 1021 90 10000 2.77 104 21:26 31.10.2022
1206 Clouds 20 1021 89 10000 3.11 72 19:56 31.10.2022
1207 Clouds 20 1020 88 10000 2.13 79 18:35 31.10.2022
1208 Rain 20 1019 82 10000 4.67 93 16:44 31.10.2022
1209 Clouds 20 1019 76 10000 4.34 93 14:20 31.10.2022
1210 Clouds 20 1020 82 10000 3.76 78 12:18 31.10.2022
1211 Clouds 20 1020 88 10000 4.68 76 09:34 31.10.2022
1212 Clouds 20 1018 91 10000 5.46 78 05:40 31.10.2022
1213 Clouds 20 1017 91 10000 5.99 80 02:34 31.10.2022
1214 Clouds 20 1018 94 10000 5.83 77 00:34 31.10.2022
1215 Clouds 19 1018 92 10000 5.68 77 21:51 30.10.2022
1216 Clouds 19 1018 92 10000 5.78 80 20:37 30.10.2022
1217 Clouds 21 1018 92 10000 5.69 74 19:31 30.10.2022
1218 Clouds 21 1017 80 10000 6.41 79 16:26 30.10.2022
1219 Clouds 21 1018 80 10000 7.01 88 14:23 30.10.2022
1220 Clouds 21 1019 80 10000 6.21 89 13:23 30.10.2022
1221 Clouds 21 1019 83 10000 7.29 83 11:48 30.10.2022
1222 Clouds 20 1020 87 10000 4.53 61 09:51 30.10.2022
1223 Rain 20 1019 89 10000 5.72 75 08:40 30.10.2022
1224 Clouds 20 1018 92 10000 5.32 72 07:24 30.10.2022
1225 Clouds 19 1020 92 10000 6.3 78 00:29 30.10.2022
1226 Clouds 20 1020 92 10000 6.3 78 23:45 29.10.2022
1227 Clouds 20 1019 91 10000 6.77 78 21:32 29.10.2022
1228 Clouds 21 1019 89 10000 6.31 79 18:34 29.10.2022
1229 Clouds 21 1019 84 10000 6.53 79 17:21 29.10.2022
1230 Clouds 21 1019 83 10000 6.76 79 15:38 29.10.2022
1231 Clouds 21 1020 82 10000 6.72 80 14:51 29.10.2022
1232 Clouds 21 1021 81 10000 6.79 81 12:36 29.10.2022
1233 Clouds 21 1021 83 10000 6.68 82 11:55 29.10.2022
1234 Clouds 20 1019 90 10000 6.22 82 07:38 29.10.2022
1235 Clouds 20 1019 90 10000 6.5 81 06:46 29.10.2022
1236 Clouds 20 1019 90 10000 6.57 81 05:53 29.10.2022
1237 Clouds 19 1021 92 10000 6.14 82 23:43 28.10.2022
1238 Clouds 20 1021 92 10000 6.4 81 21:29 28.10.2022
1239 Clouds 20 1021 90 10000 6.06 82 19:36 28.10.2022
1240 Clouds 21 1020 83 10000 6.26 82 18:32 28.10.2022
1241 Clouds 21 1020 71 10000 7.09 82 16:46 28.10.2022
1242 Clouds 20 1021 69 10000 7.67 80 14:46 28.10.2022
1243 Clouds 20 1023 70 10000 7.45 79 13:20 28.10.2022
1244 Clouds 19 1023 73 10000 7.57 80 11:54 28.10.2022
1245 Clouds 20 1023 73 10000 7.57 80 11:31 28.10.2022
1246 Clouds 19 1022 86 10000 6.51 79 10:28 28.10.2022
1247 Clouds 19 1022 89 10000 5.94 76 08:40 28.10.2022
1248 Clouds 19 1021 87 10000 5.11 74 05:58 28.10.2022
1249 Clouds 20 1023 88 10000 4.87 78 23:56 27.10.2022
1250 Clouds 20 1023 88 10000 4.87 78 23:34 27.10.2022
1251 Clouds 20 1023 88 10000 4.97 79 22:31 27.10.2022
1252 Clouds 20 1022 86 10000 4.88 78 20:47 27.10.2022
1253 Clouds 22 1021 65 10000 5.38 80 18:23 27.10.2022
1254 Clouds 24 1021 63 10000 5.5 84 16:33 27.10.2022
1255 Rain 21 1022 63 10000 5.31 88 11:34 27.10.2022
1256 Clouds 22 1020 85 10000 4.87 76 07:32 27.10.2022
1257 Clouds 21 1019 85 10000 5.91 74 00:23 27.10.2022
1258 Clouds 21 1019 85 10000 5.91 74 23:51 26.10.2022
1259 Clouds 22 1019 80 10000 6.37 77 22:40 26.10.2022
1260 Clouds 21 1018 69 10000 6.06 78 21:22 26.10.2022
1261 Clouds 21 1017 49 10000 5.99 85 17:40 26.10.2022
1262 Clouds 23 1018 49 10000 4.71 76 14:54 26.10.2022
1263 Clouds 23 1018 49 10000 1.72 87 12:56 26.10.2022
1264 Clouds 21 1018 48 10000 3.11 81 12:18 26.10.2022
1265 Rain 18 1017 54 10000 1.43 32 09:19 26.10.2022
1266 Clouds 19 1017 54 10000 1.43 32 08:52 26.10.2022
1267 Clouds 19 1018 58 10000 0.51 268 00:52 26.10.2022
1268 Clouds 19 1018 58 10000 0.51 268 00:33 26.10.2022
1269 Clouds 21 1018 60 10000 1.4 358 22:25 25.10.2022
1270 Clouds 22 1018 60 10000 1.4 358 21:44 25.10.2022
1271 Clouds 23 1017 64 10000 1.59 77 20:27 25.10.2022
1272 Clouds 25 1016 61 10000 2.88 98 18:52 25.10.2022
1273 Clouds 25 1016 52 10000 3.27 85 16:30 25.10.2022
1274 Clouds 21 1017 56 10000 3.68 78 11:41 25.10.2022
1275 Rain 19 1017 61 10000 3.77 78 10:47 25.10.2022
1276 Clouds 18 1017 68 10000 3.68 74 10:29 25.10.2022
1277 Clouds 18 1016 72 10000 3.93 77 08:38 25.10.2022
1278 Clouds 18 1016 73 10000 4.02 76 08:18 25.10.2022
1279 Clouds 18 1016 73 10000 4.02 76 07:44 25.10.2022
1280 Clouds 18 1016 74 10000 3.94 75 06:43 25.10.2022
1281 Clouds 18 1016 76 10000 4.9 77 03:28 25.10.2022
1282 Clouds 20 1017 77 10000 4.49 74 00:32 25.10.2022
1283 Clouds 20 1017 77 10000 4.2 80 22:26 24.10.2022
1284 Clouds 20 1017 77 10000 4.2 80 21:37 24.10.2022
1285 Clouds 21 1017 76 10000 4.4 82 20:49 24.10.2022
1286 Clouds 21 1017 76 10000 4.01 81 20:19 24.10.2022
1287 Clouds 25 1016 67 10000 4.02 77 17:53 24.10.2022
1288 Clouds 25 1016 66 10000 4.34 77 16:54 24.10.2022
1289 Clouds 24 1017 64 10000 4.29 81 15:19 24.10.2022
1290 Clouds 23 1018 63 10000 3.09 76 14:18 24.10.2022
1291 Clouds 22 1019 65 10000 1.76 83 12:26 24.10.2022
1292 Clouds 17 1018 79 10000 0.58 349 08:51 24.10.2022
1293 Clouds 21 1018 85 10000 1.41 290 00:58 24.10.2022
1294 Clouds 23 1018 89 10000 1.62 271 21:43 23.10.2022
1295 Clouds 23 1017 87 10000 2.4 269 20:21 23.10.2022
1296 Clouds 25 1016 78 10000 3.57 273 18:26 23.10.2022
1297 Clouds 26 1016 77 10000 4.04 283 17:27 23.10.2022
1298 Clouds 26 1017 74 10000 4.23 282 15:22 23.10.2022
1299 Clouds 24 1018 78 10000 2.66 257 13:24 23.10.2022
1300 Clouds 22 1019 87 10000 2.92 270 11:21 23.10.2022
1301 Clouds 20 1017 94 10000 3.1 262 08:59 23.10.2022
1302 Clouds 19 1016 88 10000 2.84 254 03:52 23.10.2022
1303 Clouds 21 1017 77 10000 1.96 247 22:32 22.10.2022
1304 Clouds 21 1017 76 10000 1.52 246 21:42 22.10.2022
1305 Clouds 21 1016 77 10000 0.45 238 20:55 22.10.2022
1306 Clouds 21 1016 76 10000 1.4 91 19:46 22.10.2022
1307 Clouds 22 1015 72 10000 1.86 87 19:27 22.10.2022
1308 Clouds 22 1015 68 10000 2.46 88 17:37 22.10.2022
1309 Clouds 22 1015 66 10000 3.97 83 15:57 22.10.2022
1310 Clouds 21 1015 65 10000 4.05 83 14:44 22.10.2022
1311 Clouds 21 1016 67 10000 3.97 84 13:45 22.10.2022
1312 Clouds 21 1016 66 10000 3.47 88 13:45 22.10.2022
1313 Clouds 20 1016 83 10000 2.53 78 10:25 22.10.2022
1314 Clouds 19 1016 83 10000 2.53 78 09:36 22.10.2022
1315 Clouds 18 1016 88 10000 1.47 83 08:29 22.10.2022
1316 Clouds 21 1016 85 10000 0.71 275 03:42 22.10.2022
1317 Clouds 21 1018 88 10000 1.13 283 23:51 21.10.2022
1318 Clouds 22 1018 91 10000 2.69 286 21:35 21.10.2022
1319 Clouds 22 1018 93 10000 2.76 279 20:59 21.10.2022
1320 Clouds 24 1018 91 10000 3.3 276 19:33 21.10.2022
1321 Clouds 25 1017 79 10000 4.6 278 16:51 21.10.2022
1322 Clouds 23 1018 64 10000 4.73 267 13:59 21.10.2022
1323 Clouds 22 1018 64 10000 4.02 261 12:58 21.10.2022
1324 Clouds 22 1018 64 10000 4.02 261 12:58 21.10.2022
1325 Clouds 21 1018 74 10000 2.88 254 10:59 21.10.2022
1326 Clouds 20 1018 84 10000 2.21 255 09:50 21.10.2022
1327 Clouds 19 1017 89 10000 2.28 255 08:39 21.10.2022
1328 Clouds 19 1016 87 10000 2.24 255 07:28 21.10.2022
1329 Clouds 20 1017 81 10000 1.19 254 01:00 21.10.2022
1330 Clouds 20 1017 77 10000 2.02 176 22:26 20.10.2022
1331 Clouds 20 1017 79 10000 0.87 52 20:38 20.10.2022
1332 Clouds 21 1017 78 10000 2.72 270 19:38 20.10.2022
1333 Clouds 21 1016 68 10000 4 281 17:53 20.10.2022
1334 Clouds 21 1016 68 10000 4 281 17:33 20.10.2022
1335 Clouds 22 1017 66 10000 3.45 275 12:37 20.10.2022
1336 Clouds 22 1017 69 10000 1.7 251 12:18 20.10.2022
1337 Clouds 21 1017 73 10000 2.52 257 11:20 20.10.2022
1338 Clouds 21 1017 73 10000 2.52 257 10:45 20.10.2022
1339 Clouds 20 1016 79 10000 3.44 281 08:18 20.10.2022
1340 Clouds 19 1016 76 10000 2.75 275 05:38 20.10.2022
1341 Clouds 20 1017 72 10000 2.43 265 01:49 20.10.2022
1342 Clouds 21 1018 76 10000 2.06 270 22:45 19.10.2022
1343 Clouds 21 1018 79 10000 1.97 269 21:56 19.10.2022
1344 Clouds 22 1018 82 10000 1.87 276 20:53 19.10.2022
1345 Clouds 21 1018 74 10000 1.85 281 18:49 19.10.2022
1346 Clouds 22 1017 72 10000 0.81 126 17:38 19.10.2022
1347 Clouds 22 1017 73 10000 2.74 83 15:47 19.10.2022
1348 Clouds 23 1019 75 10000 3.57 90 13:51 19.10.2022
1349 Clouds 21 1020 93 10000 4.05 90 09:34 19.10.2022
1350 Clouds 21 1020 95 10000 4.43 81 08:29 19.10.2022
1351 Clouds 20 1020 95 10000 3.13 65 06:25 19.10.2022
1352 Clouds 21 1022 95 10000 4.09 81 01:25 19.10.2022
1353 Clouds 21 1022 94 10000 4.2 82 23:18 18.10.2022
1354 Rain 21 1022 93 10000 3.96 77 21:45 18.10.2022
1355 Rain 21 1022 92 10000 4.09 74 20:59 18.10.2022
1356 Clouds 21 1022 91 10000 4.74 80 19:58 18.10.2022
1357 Rain 22 1021 84 10000 5.38 85 17:44 18.10.2022
1358 Rain 22 1022 80 10000 5.57 83 16:49 18.10.2022
1359 Clouds 23 1023 82 10000 5.82 77 14:31 18.10.2022
1360 Clouds 22 1023 87 10000 6.18 77 12:33 18.10.2022
1361 Clouds 22 1023 88 10000 6.4 76 11:22 18.10.2022
1362 Clouds 22 1022 90 10000 6.39 76 09:45 18.10.2022
1363 Clouds 21 1021 93 10000 6.03 76 07:56 18.10.2022
1364 Clouds 21 1021 93 10000 5.73 76 03:19 18.10.2022
1365 Clouds 22 1021 94 10000 5.53 77 22:24 17.10.2022
1366 Clouds 22 1021 91 10000 4.98 77 20:55 17.10.2022
1367 Clouds 22 1020 89 10000 5.36 77 20:31 17.10.2022
1368 Clouds 22 1020 89 10000 5.36 76 19:51 17.10.2022
1369 Clouds 22 1020 83 10000 6.08 77 18:52 17.10.2022
1370 Clouds 22 1020 76 10000 6.28 74 16:52 17.10.2022
1371 Clouds 22 1020 76 10000 6.65 78 15:29 17.10.2022
1372 Clouds 22 1020 76 10000 6.65 78 15:29 17.10.2022
1373 Clouds 22 1020 76 10000 6.65 78 15:29 17.10.2022
1374 Clouds 23 1020 73 10000 5.85 82 14:35 17.10.2022
1375 Clouds 21 1019 76 10000 5.38 70 11:23 17.10.2022
1376 Clouds 19 1017 83 10000 4.46 71 06:36 17.10.2022
1377 Clouds 22 1017 83 10000 4.83 80 23:30 16.10.2022
1378 Rain 22 1017 81 10000 4.33 86 21:56 16.10.2022
1379 Clouds 22 1017 81 10000 4.13 115 20:43 16.10.2022
1380 Clouds 21 1015 79 10000 5.35 64 19:46 16.10.2022
1381 Clouds 22 1015 70 10000 6.32 101 17:52 16.10.2022
1382 Clouds 22 1015 70 10000 6.32 101 17:30 16.10.2022
1383 Clouds 23 1014 67 10000 7.78 86 15:57 16.10.2022
1384 Clouds 22 1015 64 10000 8.93 80 14:33 16.10.2022
1385 Clouds 21 1016 67 10000 6.22 81 12:23 16.10.2022
1386 Clouds 19 1015 72 10000 5.38 74 10:27 16.10.2022
1387 Rain 19 1015 73 10000 3.04 68 08:44 16.10.2022
1388 Clouds 19 1017 72 10000 0.72 257 01:30 16.10.2022
1389 Clouds 20 1017 74 10000 0.62 250 22:43 15.10.2022
1390 Clear 20 1016 76 10000 0.8 286 21:25 15.10.2022
1391 Clear 20 1016 76 10000 0.79 286 20:55 15.10.2022
1392 Clear 23 1015 66 10000 1.23 101 18:44 15.10.2022
1393 Clear 23 1015 66 10000 1.23 101 18:44 15.10.2022
1394 Clear 24 1015 57 10000 2.75 87 15:49 15.10.2022
1395 Clear 24 1016 59 10000 3.86 75 14:55 15.10.2022
1396 Clouds 20 1017 65 10000 3.78 87 11:58 15.10.2022
1397 Clouds 18 1017 69 10000 3.98 86 10:47 15.10.2022
1398 Clear 19 1016 83 10000 4.32 76 08:54 15.10.2022
1399 Clear 19 1017 85 10000 5.94 81 02:42 15.10.2022
1400 Clear 20 1018 87 10000 6.34 78 23:56 14.10.2022
1401 Clear 20 1018 86 10000 6.51 81 22:23 14.10.2022
1402 Clear 20 1018 86 10000 6.51 81 21:30 14.10.2022
1403 Clear 21 1018 82 10000 6.93 83 20:18 14.10.2022
1404 Clear 22 1018 72 10000 8.29 79 16:49 14.10.2022
1405 Clear 22 1021 72 10000 8.82 83 13:52 14.10.2022
1406 Clear 22 1021 74 10000 9.11 83 12:19 14.10.2022
1407 Clear 22 1021 74 10000 9.11 83 12:19 14.10.2022
1408 Clear 20 1021 84 10000 7.42 74 09:40 14.10.2022
1409 Clear 20 1021 89 10000 6.92 71 07:47 14.10.2022
1410 Clear 20 1021 90 10000 6.87 72 06:18 14.10.2022
1411 Clear 20 1021 90 10000 6.9 72 05:42 14.10.2022
1412 Clouds 20 1022 91 10000 6.59 68 04:29 14.10.2022
1413 Clear 21 1023 92 10000 6.43 69 23:58 13.10.2022
1414 Clear 21 1023 91 10000 6.46 73 22:31 13.10.2022
1415 Clear 21 1023 89 10000 6.47 76 21:26 13.10.2022
1416 Clear 21 1022 87 10000 6.77 78 20:18 13.10.2022
1417 Clear 22 1022 86 10000 6.5 80 19:37 13.10.2022
1418 Clear 22 1021 81 10000 7.38 85 18:43 13.10.2022
1419 Clear 23 1021 76 10000 8.66 88 17:20 13.10.2022
1420 Clear 24 1022 74 10000 8.68 91 15:48 13.10.2022
1421 Clear 24 1023 71 10000 8.82 95 14:23 13.10.2022
1422 Clear 23 1022 74 10000 9.03 91 12:50 13.10.2022
1423 Clouds 22 1022 76 10000 8.72 88 11:36 13.10.2022
1424 Clouds 20 1021 82 10000 8.41 73 09:40 13.10.2022
1425 Clear 20 1020 85 10000 8.9 69 07:40 13.10.2022
1426 Clear 20 1020 84 10000 9.42 71 06:40 13.10.2022
1427 Clouds 20 1020 85 10000 8.56 76 01:51 13.10.2022
1428 Clouds 20 1020 87 10000 7.83 77 00:55 13.10.2022
1429 Clouds 20 1020 88 10000 7.01 74 22:46 12.10.2022
1430 Clouds 20 1019 89 10000 6.92 71 22:28 12.10.2022
1431 Clouds 20 1019 89 10000 6.97 72 21:21 12.10.2022
1432 Clouds 20 1019 89 10000 6.97 72 20:52 12.10.2022
1433 Clouds 21 1017 82 10000 8.06 86 19:29 12.10.2022
1434 Clouds 21 1017 77 10000 8.21 83 18:21 12.10.2022
1435 Clouds 22 1017 77 10000 8.21 83 17:47 12.10.2022
1436 Clouds 22 1018 74 10000 8.03 78 15:35 12.10.2022
1437 Clouds 22 1018 75 10000 7.6 78 13:55 12.10.2022
1438 Clouds 21 1018 77 10000 7.13 78 12:46 12.10.2022
1439 Rain 20 1018 83 10000 5.94 67 09:40 12.10.2022
1440 Clouds 20 1017 91 10000 4.51 56 07:42 12.10.2022
1441 Clouds 20 1017 92 10000 4.17 66 06:55 12.10.2022
1442 Clouds 19 1017 92 10000 4.17 66 06:37 12.10.2022
1443 Clouds 20 1017 92 10000 4.91 70 00:58 12.10.2022
1444 Clouds 20 1018 91 10000 5.47 64 21:59 11.10.2022
1445 Clouds 21 1017 90 10000 5.02 71 20:38 11.10.2022
1446 Clouds 21 1016 80 10000 5.89 79 18:28 11.10.2022
1447 Rain 21 1016 79 10000 6.32 81 16:37 11.10.2022
1448 Clouds 21 1016 78 10000 6.57 85 14:34 11.10.2022
1449 Clouds 20 1017 77 10000 5.7 85 12:44 11.10.2022
1450 Clouds 20 1017 87 10000 4.45 82 10:28 11.10.2022
1451 Clouds 20 1017 87 10000 4.45 82 09:30 11.10.2022
1452 Clouds 21 1015 89 10000 0.9 52 05:39 11.10.2022
1453 Clouds 21 1017 89 10000 1.82 281 02:22 11.10.2022
1454 Clouds 21 1017 92 10000 1.95 263 00:29 11.10.2022
1455 Clouds 22 1017 90 10000 3.14 265 21:24 10.10.2022
1456 Clouds 25 1017 90 10000 2.71 263 19:46 10.10.2022
1457 Clouds 25 1017 90 10000 2.71 263 19:46 10.10.2022
1458 Clouds 25 1016 84 10000 3.41 264 18:30 10.10.2022
1459 Clouds 26 1016 78 10000 4.54 271 16:51 10.10.2022
1460 Clouds 25 1017 77 10000 4.86 259 15:20 10.10.2022
1461 Clouds 24 1018 72 10000 2.22 253 12:43 10.10.2022
1462 Clouds 21 1018 77 10000 1.61 194 11:26 10.10.2022
1463 Clouds 20 1016 92 10000 0.09 54 08:33 10.10.2022
1464 Clouds 21 1016 93 10000 1.1 113 05:41 10.10.2022
1465 Clouds 21 1017 93 10000 1.68 63 02:53 10.10.2022
1466 Clouds 20 1017 93 10000 2.93 64 00:29 10.10.2022
1467 Clouds 21 1016 93 10000 3.77 75 22:27 09.10.2022
1468 Clouds 21 1016 93 10000 3.77 75 21:58 09.10.2022
1469 Clouds 21 1016 92 10000 4.19 82 21:19 09.10.2022
1470 Clouds 21 1015 90 10000 4.38 85 19:54 09.10.2022
1471 Clouds 21 1015 90 10000 4.38 85 19:32 09.10.2022
1472 Clouds 23 1015 86 10000 4.88 82 18:32 09.10.2022
1473 Clouds 23 1015 84 10000 6.51 78 16:56 09.10.2022
1474 Clouds 23 1015 84 10000 6.51 78 16:32 09.10.2022
1475 Clouds 22 1015 83 10000 7.31 74 15:37 09.10.2022
1476 Clouds 22 1016 84 10000 6.82 82 14:29 09.10.2022
1477 Clouds 22 1016 84 10000 7.04 80 12:58 09.10.2022
1478 Clouds 21 1016 84 10000 7.15 80 11:50 09.10.2022
1479 Clouds 21 1016 84 10000 6.43 77 10:37 09.10.2022
1480 Clouds 20 1015 90 10000 6.29 70 08:25 09.10.2022
1481 Clouds 20 1014 90 10000 7.61 73 03:36 09.10.2022
1482 Clouds 20 1014 90 10000 8 75 02:39 09.10.2022
1483 Clouds 20 1015 85 10000 7.63 75 00:26 09.10.2022
1484 Clouds 20 1015 87 10000 7.9 72 22:53 08.10.2022
1485 Clouds 20 1015 90 10000 8.26 75 21:44 08.10.2022
1486 Clouds 22 1014 91 10000 8.81 78 20:25 08.10.2022
1487 Clouds 22 1013 85 10000 9.15 84 18:37 08.10.2022
1488 Clouds 21 1014 78 10000 9.41 85 16:18 08.10.2022
1489 Clouds 21 1015 78 10000 9.25 84 14:52 08.10.2022
1490 Clouds 21 1015 81 10000 9.35 83 13:20 08.10.2022
1491 Clouds 20 1015 86 10000 9.24 81 10:37 08.10.2022
1492 Clouds 20 1015 87 10000 8.5 77 09:55 08.10.2022
1493 Clouds 19 1014 90 10000 8.04 76 08:47 08.10.2022
1494 Clouds 20 1015 89 10000 7.59 70 03:52 08.10.2022
1495 Clouds 20 1016 91 10000 7 71 00:37 08.10.2022
1496 Clouds 20 1016 91 10000 6.81 72 23:21 07.10.2022
1497 Clouds 20 1016 91 10000 6.81 72 22:41 07.10.2022
1498 Clouds 20 1016 90 10000 6.95 72 20:59 07.10.2022
1499 Clouds 21 1016 87 10000 7.22 75 19:32 07.10.2022
1500 Clouds 21 1016 79 10000 8.81 81 17:47 07.10.2022
1501 Clouds 21 1016 77 10000 9.04 82 16:40 07.10.2022
1502 Clouds 21 1017 76 10000 9.82 86 14:55 07.10.2022
1503 Clouds 22 1018 75 10000 9.75 87 12:37 07.10.2022
1504 Clouds 20 1018 83 10000 9.68 82 09:37 07.10.2022
1505 Clouds 22 1018 86 10000 9.36 80 09:19 07.10.2022
1506 Clouds 22 1018 87 10000 10.27 76 06:58 07.10.2022
1507 Clouds 20 1020 90 10000 10.38 81 01:34 07.10.2022
1508 Clouds 20 1021 88 10000 10.04 77 22:51 06.10.2022
1509 Clouds 20 1021 90 10000 9.74 77 21:46 06.10.2022
1510 Clouds 20 1021 91 10000 9.18 77 21:25 06.10.2022
1511 Clear 21 1020 88 10000 9.49 79 19:59 06.10.2022
1512 Clear 21 1020 85 10000 9.9 80 18:38 06.10.2022
1513 Clear 21 1019 82 10000 10.4 81 18:18 06.10.2022
1514 Clear 23 1021 78 10000 10.45 81 14:52 06.10.2022
1515 Clouds 20 1022 81 10000 10.25 83 11:38 06.10.2022
1516 Clouds 20 1021 93 10000 7.68 76 07:24 06.10.2022
1517 Clouds 20 1021 94 10000 7.17 74 03:37 06.10.2022
1518 Clouds 19 1022 94 10000 6.51 77 00:27 06.10.2022
1519 Clear 19 1021 91 10000 6.22 75 21:22 05.10.2022
1520 Clear 20 1020 81 10000 7.1 77 19:29 05.10.2022
1521 Clear 22 1019 78 10000 7.25 80 17:36 05.10.2022
1522 Clear 21 1020 77 10000 7.83 79 15:57 05.10.2022
1523 Clear 20 1020 76 10000 7.71 79 14:47 05.10.2022
1524 Clouds 19 1021 75 10000 7.36 78 13:56 05.10.2022
1525 Clouds 20 1021 78 10000 6.01 77 12:23 05.10.2022
1526 Clouds 18 1020 94 10000 5 70 09:28 05.10.2022
1527 Clouds 17 1020 94 10000 5.28 69 07:43 05.10.2022
1528 Clouds 17 1019 92 10000 5.19 67 05:39 05.10.2022
1529 Clouds 17 1019 91 10000 4.71 65 04:18 05.10.2022
1530 Clear 18 1020 86 10000 3.3 66 00:46 05.10.2022
1531 Clear 18 1020 85 10000 3.64 79 00:24 05.10.2022
1532 Clear 19 1020 78 10000 2.94 82 22:34 04.10.2022
1533 Clear 19 1019 72 10000 1.14 239 20:32 04.10.2022
1534 Clear 21 1018 61 10000 3.32 260 18:58 04.10.2022
1535 Clear 21 1018 61 10000 3.32 260 18:37 04.10.2022
1536 Clear 23 1018 59 10000 4.05 259 17:45 04.10.2022
1537 Clear 23 1018 55 10000 4.39 257 16:33 04.10.2022
1538 Clear 23 1020 50 10000 3.3 254 12:56 04.10.2022
1539 Clear 18 1020 57 10000 0.95 216 09:32 04.10.2022
1540 Clear 18 1019 64 10000 2.04 286 07:23 04.10.2022
1541 Clear 23 1020 69 10000 2.39 272 02:19 04.10.2022
1542 Clouds 25 1021 69 10000 1.48 254 23:40 03.10.2022
1543 Clouds 25 1021 69 10000 1.48 254 23:40 03.10.2022
1544 Clouds 25 1021 71 10000 1.85 268 21:52 03.10.2022
1545 Clear 27 1020 75 10000 2.03 276 20:55 03.10.2022
1546 Clouds 24 1020 71 10000 2.77 257 19:34 03.10.2022
1547 Clouds 25 1019 61 10000 2.02 256 17:53 03.10.2022
1548 Clouds 25 1020 63 10000 0.31 144 16:56 03.10.2022
1549 Clouds 24 1020 69 10000 3.44 92 15:28 03.10.2022
1550 Clouds 23 1021 68 10000 3.48 93 13:45 03.10.2022
1551 Clouds 23 1021 75 10000 3.61 87 12:22 03.10.2022
1552 Clouds 20 1021 79 10000 3.94 89 10:38 03.10.2022
1553 Clouds 18 1021 81 10000 4.38 86 09:37 03.10.2022
1554 Clouds 19 1019 84 10000 5.18 73 05:44 03.10.2022
1555 Clouds 21 1019 90 10000 5.88 79 02:51 03.10.2022
1556 Clouds 22 1020 88 10000 8.34 80 22:29 02.10.2022
1557 Clouds 20 1019 86 10000 8.82 80 20:42 02.10.2022
1558 Clouds 21 1019 81 10000 11.06 78 18:31 02.10.2022
1559 Clouds 20 1019 81 10000 11.05 78 17:38 02.10.2022
1560 Clouds 21 1019 81 10000 11.64 79 16:33 02.10.2022
1561 Clouds 21 1020 79 10000 12.3 84 15:41 02.10.2022
1562 Clouds 20 1021 74 10000 14.07 86 13:51 02.10.2022
1563 Clouds 19 1021 74 10000 14.5 86 12:52 02.10.2022
1564 Clouds 19 1022 74 10000 14.51 87 12:28 02.10.2022
1565 Clouds 19 1022 74 10000 14.51 87 11:36 02.10.2022
1566 Clouds 19 1021 75 10000 14.24 89 10:37 02.10.2022
1567 Clouds 22 1021 78 10000 14.16 90 08:53 02.10.2022
1568 Clear 18 1021 77 10000 12.79 87 07:29 02.10.2022
1569 Clear 19 1022 74 10000 13.28 91 02:54 02.10.2022
1570 Clear 18 1023 75 10000 13.34 93 00:45 02.10.2022
1571 Clear 18 1023 75 10000 13.41 93 23:43 01.10.2022
1572 Clear 18 1023 75 10000 13.49 92 22:36 01.10.2022
1573 Clouds 19 1021 76 10000 12.35 83 20:21 01.10.2022
1574 Clouds 20 1021 70 10000 12.04 77 17:55 01.10.2022
1575 Clouds 20 1021 67 10000 12.3 77 16:30 01.10.2022
1576 Clouds 19 1022 61 10000 11.52 87 14:25 01.10.2022
1577 Clouds 20 1022 62 10000 11.05 87 12:59 01.10.2022
1578 Clouds 20 1022 66 10000 10.62 88 12:29 01.10.2022
1579 Clouds 19 1022 69 10000 10.06 85 11:19 01.10.2022
1580 Clouds 19 1022 69 10000 10.06 85 10:31 01.10.2022
1581 Clouds 18 1021 77 10000 8.21 74 09:27 01.10.2022
1582 Clouds 18 1021 77 10000 8.21 74 08:57 01.10.2022
1583 Clouds 17 1019 78 10000 4.87 54 03:59 01.10.2022
1584 Clouds 18 1019 77 10000 4.41 56 03:28 01.10.2022
1585 Clear 20 1019 75 10000 4.18 72 23:33 30.09.2022
1586 Clear 21 1018 67 10000 3.81 81 22:19 30.09.2022
1587 Clear 22 1016 66 10000 2.39 106 21:22 30.09.2022
1588 Clear 22 1016 66 10000 2.39 106 20:42 30.09.2022
1589 Clear 23 1015 66 10000 2.03 139 19:30 30.09.2022
1590 Clear 23 1014 54 10000 3.5 233 17:27 30.09.2022
1591 Clear 23 1014 52 10000 4.71 224 15:26 30.09.2022
1592 Clear 21 1015 52 10000 2.64 252 13:27 30.09.2022
1593 Clear 20 1014 56 10000 2.97 282 11:56 30.09.2022
1594 Clear 17 1013 67 10000 3.72 296 10:18 30.09.2022
1595 Clear 17 1012 75 10000 4.19 296 08:21 30.09.2022
1596 Clear 18 1011 77 10000 4.86 310 04:31 30.09.2022
1597 Clouds 19 1012 83 10000 6.1 289 02:23 30.09.2022
1598 Clouds 21 1012 83 10000 8.45 250 22:24 29.09.2022
1599 Clouds 20 1012 79 10000 8.39 253 21:26 29.09.2022
1600 Clouds 20 1012 76 10000 8.02 259 20:26 29.09.2022
1601 Clouds 22 1012 72 10000 8.12 260 18:31 29.09.2022
1602 Clouds 21 1012 68 10000 8.6 270 16:30 29.09.2022
1603 Clouds 21 1012 68 10000 8.6 270 16:30 29.09.2022
1604 Clouds 21 1013 67 10000 9.53 273 15:52 29.09.2022
1605 Clouds 21 1014 66 10000 9.7 273 15:27 29.09.2022
1606 Clouds 20 1014 66 10000 9.64 270 13:28 29.09.2022
1607 Clouds 19 1014 78 10000 7.15 289 08:52 29.09.2022
1608 Clouds 20 1014 82 10000 6.76 263 05:36 29.09.2022
1609 Clouds 20 1015 86 10000 8.11 237 02:42 29.09.2022
1610 Clear 20 1017 83 10000 6.22 248 23:29 28.09.2022
1611 Clear 20 1016 83 10000 6.18 252 22:24 28.09.2022
1612 Clouds 20 1016 82 10000 6.36 258 21:28 28.09.2022
1613 Clear 22 1015 79 10000 6.45 262 19:58 28.09.2022
1614 Clear 23 1016 70 10000 7.94 259 17:19 28.09.2022
1615 Clear 24 1017 70 10000 8.7 259 14:45 28.09.2022
1616 Clouds 23 1018 71 10000 8.08 251 12:31 28.09.2022
1617 Clouds 21 1018 77 10000 6.79 243 10:22 28.09.2022
1618 Clear 18 1018 85 10000 6.38 237 07:53 28.09.2022
1619 Clear 19 1017 84 10000 6.86 239 06:27 28.09.2022
1620 Clear 20 1019 83 10000 4.92 246 01:50 28.09.2022
1621 Clear 20 1019 81 10000 4.61 247 01:25 28.09.2022
1622 Clear 21 1019 77 10000 4.44 259 22:49 27.09.2022
1623 Clear 22 1019 77 10000 4.47 265 21:20 27.09.2022
1624 Clear 23 1019 77 10000 4.47 265 20:35 27.09.2022
1625 Clear 24 1018 75 10000 4.94 267 19:45 27.09.2022
1626 Clear 25 1018 67 10000 6.04 266 17:54 27.09.2022
1627 Clear 25 1018 64 10000 6.45 263 17:29 27.09.2022
1628 Clear 24 1019 60 10000 6.62 263 15:18 27.09.2022
1629 Clear 24 1020 60 10000 6.29 260 14:21 27.09.2022
1630 Clear 23 1020 60 10000 6.14 257 12:39 27.09.2022
1631 Clear 23 1020 60 10000 6.14 257 12:39 27.09.2022
1632 Clear 21 1020 65 10000 5.72 242 10:45 27.09.2022
1633 Clear 19 1019 78 10000 4.84 234 08:36 27.09.2022
1634 Clear 19 1017 81 10000 4.62 244 05:48 27.09.2022
1635 Clear 19 1017 81 10000 3.95 244 01:40 27.09.2022
1636 Clear 20 1018 80 10000 3.99 256 00:28 27.09.2022
1637 Clear 20 1018 79 10000 3.91 259 23:24 26.09.2022
1638 Clear 21 1017 77 10000 4.07 263 21:37 26.09.2022
1639 Clear 23 1016 68 10000 4.59 269 20:18 26.09.2022
1640 Clear 22 1015 64 10000 5.32 269 19:21 26.09.2022
1641 Clear 25 1015 60 10000 6.51 265 17:27 26.09.2022
1642 Clear 25 1015 59 10000 6.6 264 15:44 26.09.2022
1643 Clear 23 1016 59 10000 7.05 248 12:42 26.09.2022
1644 Clear 22 1015 63 10000 7.61 240 11:28 26.09.2022
1645 Clear 21 1015 63 10000 7.61 240 10:36 26.09.2022
1646 Clear 20 1014 66 10000 7.6 236 10:18 26.09.2022
1647 Clear 20 1014 66 10000 7.6 236 09:52 26.09.2022
1648 Clear 20 1013 69 10000 7.1 235 09:21 26.09.2022
1649 Clouds 20 1012 75 10000 7.42 231 05:30 26.09.2022
1650 Clouds 20 1012 75 10000 7.53 233 02:35 26.09.2022
1651 Clouds 21 1013 75 10000 7.57 241 23:24 25.09.2022
1652 Clouds 21 1012 76 10000 7.02 244 21:48 25.09.2022
1653 Clouds 21 1011 77 10000 6.64 248 21:25 25.09.2022
1654 Clouds 22 1011 77 10000 6.64 248 20:36 25.09.2022
1655 Clouds 23 1010 70 10000 6.99 250 18:57 25.09.2022
1656 Clouds 23 1010 68 10000 7.46 251 18:26 25.09.2022
1657 Clouds 24 1010 67 10000 7.12 256 17:24 25.09.2022
1658 Clouds 25 1010 69 10000 6.75 262 16:21 25.09.2022
1659 Clouds 24 1011 71 10000 7.15 260 14:49 25.09.2022
1660 Clouds 24 1011 71 10000 7.56 259 14:19 25.09.2022
1661 Clouds 23 1012 75 10000 7.17 242 11:34 25.09.2022
1662 Clouds 21 1012 83 10000 6.34 234 09:44 25.09.2022
1663 Clouds 21 1011 88 10000 5.28 237 07:42 25.09.2022
1664 Clouds 21 1012 87 10000 5.38 238 05:25 25.09.2022
1665 Clouds 23 1014 83 10000 5.32 248 23:37 24.09.2022
1666 Clouds 25 1013 78 10000 5.1 262 21:20 24.09.2022
1667 Clear 27 1012 73 10000 5.19 266 19:46 24.09.2022
1668 Clear 27 1012 66 10000 5.33 261 19:20 24.09.2022
1669 Clear 28 1012 61 10000 5.73 256 16:56 24.09.2022
1670 Clear 29 1013 61 10000 5.56 267 15:29 24.09.2022
1671 Clear 28 1013 61 10000 5.56 267 14:37 24.09.2022
1672 Clear 26 1014 60 10000 4.98 263 13:22 24.09.2022
1673 Clear 24 1014 60 10000 3.65 251 12:23 24.09.2022
1674 Clear 19 1014 69 10000 0.99 270 09:59 24.09.2022
1675 Clear 19 1014 78 10000 0.69 346 08:58 24.09.2022
1676 Clear 19 1014 82 10000 0.86 51 07:41 24.09.2022
1677 Clouds 19 1013 83 10000 2.68 77 04:53 24.09.2022
1678 Clouds 20 1014 83 10000 2.87 67 04:19 24.09.2022
1679 Clouds 22 1016 88 10000 3.99 60 22:58 23.09.2022
1680 Clouds 22 1016 87 10000 4.03 63 21:37 23.09.2022
1681 Clouds 22 1015 85 10000 4.31 70 21:19 23.09.2022
1682 Clouds 22 1015 85 10000 4.31 70 20:43 23.09.2022
1683 Clear 22 1015 71 10000 5.58 80 19:19 23.09.2022
1684 Clear 24 1016 66 10000 6.8 82 16:23 23.09.2022
1685 Clear 22 1017 70 10000 5.99 82 12:39 23.09.2022
1686 Clouds 22 1017 83 10000 4.83 75 09:36 23.09.2022
1687 Clouds 21 1016 92 10000 4.32 70 06:51 23.09.2022
1688 Clear 22 1017 89 10000 3.82 70 00:44 23.09.2022
1689 Clear 22 1018 88 10000 3.47 83 23:28 22.09.2022
1690 Clear 22 1017 88 10000 3.35 87 22:27 22.09.2022
1691 Clear 22 1017 89 10000 3.31 77 21:23 22.09.2022
1692 Clear 23 1017 83 10000 2.25 61 19:58 22.09.2022
1693 Clear 22 1016 73 10000 0.51 219 17:41 22.09.2022
1694 Clear 25 1017 71 10000 1.09 112 13:38 22.09.2022
1695 Clear 22 1018 81 10000 1.57 98 10:37 22.09.2022
1696 Clear 22 1018 81 10000 1.57 98 10:37 22.09.2022
1697 Clouds 21 1017 90 10000 2 79 08:58 22.09.2022
1698 Clouds 22 1016 93 10000 2.83 57 07:27 22.09.2022
1699 Clouds 22 1016 92 10000 3.13 72 04:37 22.09.2022
1700 Clouds 21 1017 92 10000 1.34 40 23:33 21.09.2022
1701 Clouds 22 1017 91 10000 0.99 24 21:52 21.09.2022
1702 Clouds 24 1016 91 10000 0.41 289 20:53 21.09.2022
1703 Clear 28 1015 76 10000 1.91 255 17:55 21.09.2022
1704 Clear 28 1016 75 3332 1.74 265 17:21 21.09.2022
1705 Clear 24 1017 75 10000 1.17 113 15:18 21.09.2022
1706 Clouds 24 1017 74 10000 1.53 79 13:38 21.09.2022
1707 Clouds 22 1018 80 10000 2.7 101 11:34 21.09.2022
1708 Clouds 22 1018 82 10000 2.92 92 10:50 21.09.2022
1709 Clouds 22 1017 85 10000 2.92 93 09:38 21.09.2022
1710 Clouds 21 1017 92 10000 2.24 89 08:23 21.09.2022
1711 Clouds 21 1017 92 10000 3.89 78 02:51 21.09.2022
1712 Clouds 21 1017 92 10000 3.89 78 02:51 21.09.2022
1713 Clouds 24 1017 92 10000 3.89 78 02:32 21.09.2022
1714 Clouds 21 1017 92 10000 3.63 79 01:49 21.09.2022
1715 Clouds 21 1017 93 10000 3.67 72 23:19 20.09.2022
1716 Clouds 22 1016 92 10000 4.51 68 21:33 20.09.2022
1717 Clouds 22 1015 82 10000 4.71 81 20:22 20.09.2022
1718 Clouds 25 1015 71 10000 5.32 88 17:41 20.09.2022
1719 Clouds 23 1016 66 10000 5.89 82 14:59 20.09.2022
1720 Clouds 23 1017 67 10000 5.71 87 13:58 20.09.2022
1721 Clouds 22 1017 77 10000 4.37 80 10:41 20.09.2022
1722 Clouds 20 1016 93 10000 3.96 78 08:29 20.09.2022
1723 Clouds 20 1015 93 10000 4.14 78 07:27 20.09.2022
1724 Clouds 22 1016 93 10000 4.13 76 04:29 20.09.2022
1725 Clouds 21 1016 91 10000 4.54 66 01:28 20.09.2022
1726 Clouds 23 1016 92 10000 4.49 74 22:29 19.09.2022
1727 Clouds 22 1015 90 10000 4.51 73 20:59 19.09.2022
1728 Clouds 22 1015 90 10000 4.51 73 20:39 19.09.2022
1729 Clouds 24 1014 82 10000 4.99 93 18:41 19.09.2022
1730 Clouds 24 1014 81 10000 5.86 93 15:56 19.09.2022
1731 Clouds 24 1015 85 10000 6.04 89 13:39 19.09.2022
1732 Clouds 21 1014 87 10000 6.54 93 11:33 19.09.2022
1733 Clouds 20 1014 88 10000 6.36 93 09:33 19.09.2022
1734 Clouds 21 1012 89 10000 6.73 100 08:20 19.09.2022
1735 Clouds 22 1012 87 10000 9.46 100 02:31 19.09.2022
1736 Clouds 21 1011 88 10000 10.98 97 23:24 18.09.2022
1737 Clouds 21 1011 87 10000 10.67 97 21:47 18.09.2022
1738 Clouds 21 1010 87 10000 10.25 97 20:34 18.09.2022
1739 Clouds 22 1009 80 10000 11.53 98 18:42 18.09.2022
1740 Clouds 22 1009 76 10000 12.36 98 17:45 18.09.2022
1741 Clouds 22 1009 76 10000 12.83 97 16:32 18.09.2022
1742 Clouds 23 1010 76 10000 12.91 98 14:35 18.09.2022
1743 Clouds 23 1010 79 10000 12.69 99 12:55 18.09.2022
1744 Clouds 23 1010 80 10000 12.1 100 11:46 18.09.2022
1745 Clouds 20 1008 92 10000 9.74 87 06:45 18.09.2022
1746 Clear 20 1010 91 10000 7.91 77 01:32 18.09.2022
1747 Clear 21 1010 89 10000 7.21 78 00:48 18.09.2022
1748 Clear 20 1010 88 10000 4.5 68 22:23 17.09.2022
1749 Clear 21 1009 86 10000 4.29 68 20:48 17.09.2022
1750 Clear 21 1009 71 10000 6.05 79 19:28 17.09.2022
1751 Clear 22 1009 66 10000 4.24 81 17:19 17.09.2022
1752 Clear 22 1011 65 10000 1.16 239 13:59 17.09.2022
1753 Clear 24 1012 68 10000 1.87 256 12:29 17.09.2022
1754 Clear 22 1011 77 10000 2.29 253 10:28 17.09.2022
1755 Clear 22 1011 88 10000 2.76 250 06:29 17.09.2022
1756 Clear 22 1011 88 10000 3.07 255 03:34 17.09.2022
1757 Clear 23 1013 85 10000 3.84 265 23:23 16.09.2022
1758 Clear 23 1013 83 10000 3.91 266 21:33 16.09.2022
1759 Clear 23 1012 82 10000 4.09 265 20:41 16.09.2022
1760 Clear 25 1011 72 10000 5.31 265 18:18 16.09.2022
1761 Clear 24 1012 70 10000 4.97 257 16:18 16.09.2022
1762 Clear 25 1013 71 10000 4.94 251 14:40 16.09.2022
1763 Clear 25 1014 72 10000 4.29 261 12:31 16.09.2022
1764 Clear 21 1014 83 10000 3.8 249 09:34 16.09.2022
1765 Clouds 21 1014 91 10000 3.55 257 07:21 16.09.2022
1766 Clouds 21 1014 91 10000 3.53 258 06:47 16.09.2022
1767 Clouds 20 1014 92 10000 3.59 270 04:42 16.09.2022
1768 Clear 21 1015 91 10000 4.11 276 23:50 15.09.2022
1769 Clear 23 1014 85 10000 4.55 276 21:24 15.09.2022
1770 Clear 23 1014 79 10000 4.68 275 20:25 15.09.2022
1771 Clear 26 1014 75 10000 4.91 275 18:53 15.09.2022
1772 Clear 26 1014 74 10000 4.97 276 17:33 15.09.2022
1773 Clear 26 1014 74 10000 4.98 271 16:54 15.09.2022
1774 Clear 24 1015 74 10000 5.39 270 14:42 15.09.2022
1775 Clouds 23 1016 76 10000 5.41 262 12:49 15.09.2022
1776 Clouds 22 1016 81 10000 5.09 243 10:34 15.09.2022
1777 Clouds 21 1016 90 10000 4.05 238 08:57 15.09.2022
1778 Clouds 21 1015 92 10000 3.92 252 04:24 15.09.2022
1779 Clouds 22 1015 91 10000 3.89 251 01:57 15.09.2022
1780 Clear 23 1015 90 10000 3.67 273 22:26 14.09.2022
1781 Clear 23 1014 82 10000 5.03 274 20:19 14.09.2022
1782 Clear 24 1014 82 10000 5.03 274 19:32 14.09.2022
1783 Clear 26 1013 73 10000 5.95 273 17:26 14.09.2022
1784 Clear 27 1013 72 10000 5.95 272 15:58 14.09.2022
1785 Clear 27 1014 72 10000 5.97 271 14:35 14.09.2022
1786 Clouds 22 1014 75 10000 4.74 260 11:54 14.09.2022
1787 Clouds 21 1014 82 10000 4.56 251 09:48 14.09.2022
1788 Clouds 22 1013 89 10000 4.2 253 07:39 14.09.2022
1789 Clouds 22 1012 90 10000 4.15 254 06:47 14.09.2022
1790 Clouds 23 1012 89 10000 4.43 249 04:33 14.09.2022
1791 Clouds 23 1012 90 10000 4.57 251 01:51 14.09.2022
1792 Clouds 22 1013 90 10000 4.3 251 01:29 14.09.2022
1793 Clouds 23 1013 90 10000 4.3 251 00:50 14.09.2022
1794 Clouds 23 1013 91 10000 4.11 250 23:54 13.09.2022
1795 Clouds 23 1013 91 10000 4.11 250 23:36 13.09.2022
1796 Clouds 23 1013 90 10000 3.86 254 23:18 13.09.2022
1797 Clouds 22 1013 90 10000 3.85 260 22:20 13.09.2022
1798 Clouds 26 1012 84 10000 4.8 259 19:52 13.09.2022
1799 Clouds 26 1011 78 10000 7.37 258 18:18 13.09.2022
1800 Clouds 27 1011 73 10000 8.7 253 15:55 13.09.2022
1801 Clouds 25 1012 76 10000 8.99 245 14:36 13.09.2022
1802 Clouds 24 1012 75 10000 8.76 238 13:20 13.09.2022
1803 Rain 22 1011 78 10000 3.51 226 09:23 13.09.2022
1804 Rain 23 1010 74 10000 3.98 221 06:24 13.09.2022
1805 Clouds 23 1011 69 10000 3.41 248 00:22 13.09.2022
1806 Clouds 25 1011 73 10000 3.93 259 22:50 12.09.2022
1807 Clouds 24 1011 76 10000 3.47 266 21:55 12.09.2022
1808 Clouds 24 1010 75 10000 3.61 203 20:25 12.09.2022
1809 Rain 23 1009 74 10000 3.25 245 18:51 12.09.2022
1810 Clouds 24 1009 69 10000 1.45 68 17:25 12.09.2022
1811 Rain 24 1011 73 10000 1.46 81 14:37 12.09.2022
1812 Rain 24 1011 73 10000 3.52 78 11:30 12.09.2022
1813 Clouds 21 1011 82 10000 3.17 79 09:56 12.09.2022
1814 Clouds 19 1011 85 10000 2.9 95 04:54 12.09.2022
1815 Clouds 21 1011 83 10000 3.05 49 04:25 12.09.2022
1816 Clouds 21 1013 86 10000 4.15 98 23:39 11.09.2022
1817 Rain 21 1012 84 10000 6.19 85 22:28 11.09.2022
1818 Clouds 22 1011 83 10000 5.49 71 20:50 11.09.2022
1819 Clouds 22 1012 73 10000 4.37 75 19:57 11.09.2022
1820 Clouds 23 1012 69 10000 5.63 80 19:24 11.09.2022
1821 Clouds 23 1012 67 10000 5.55 85 18:21 11.09.2022
1822 Clouds 23 1012 65 10000 7 81 16:46 11.09.2022
1823 Clouds 22 1013 64 10000 6.99 80 14:39 11.09.2022
1824 Clouds 22 1014 63 10000 6.61 78 12:42 11.09.2022
1825 Clouds 22 1015 83 10000 4.77 73 08:59 11.09.2022
1826 Clouds 20 1014 86 10000 4.37 68 07:18 11.09.2022
1827 Clouds 21 1017 78 10000 1.25 55 00:50 11.09.2022
1828 Clouds 20 1017 80 10000 2.28 96 22:56 10.09.2022
1829 Clouds 22 1016 81 10000 2.86 57 21:33 10.09.2022
1830 Clouds 24 1015 75 10000 3.72 64 19:47 10.09.2022
1831 Clouds 24 1015 71 10000 4.11 73 19:29 10.09.2022
1832 Clouds 24 1015 71 10000 4.11 73 18:54 10.09.2022
1833 Clouds 24 1015 67 10000 5.22 75 16:39 10.09.2022
1834 Clouds 23 1016 61 10000 4 80 14:42 10.09.2022
1835 Clouds 23 1017 59 10000 1.97 95 12:52 10.09.2022
1836 Clear 23 1017 63 10000 1.09 84 11:19 10.09.2022
1837 Clear 20 1017 69 10000 0.86 82 09:50 10.09.2022
1838 Clouds 20 1017 74 10000 1.57 90 08:37 10.09.2022
1839 Clouds 21 1016 82 10000 0.34 63 07:22 10.09.2022
1840 Clear 24 1017 83 10000 3.56 256 00:41 10.09.2022
1841 Clear 26 1018 80 10000 3.43 243 23:33 09.09.2022
1842 Clear 25 1016 76 10000 2.96 249 22:18 09.09.2022
1843 Clear 25 1015 75 10000 3.24 253 20:46 09.09.2022
1844 Clouds 25 1015 63 10000 3.81 261 19:24 09.09.2022
1845 Clouds 25 1015 63 10000 3.79 261 18:47 09.09.2022
1846 Clouds 28 1016 61 10000 4.03 257 16:23 09.09.2022
1847 Clear 25 1017 65 10000 4.19 252 13:49 09.09.2022
1848 Clear 27 1017 66 10000 4.13 256 12:30 09.09.2022
1849 Clear 23 1017 78 10000 3.42 256 09:53 09.09.2022
1850 Clear 25 1016 88 10000 3.72 248 05:18 09.09.2022
1851 Clear 26 1017 88 10000 4.14 255 03:20 09.09.2022
1852 Clear 25 1016 81 10000 4.41 262 21:52 08.09.2022
1853 Clear 26 1015 79 10000 4.74 264 20:51 08.09.2022
1854 Clear 26 1015 79 10000 4.73 264 20:31 08.09.2022
1855 Clear 26 1015 69 10000 5.12 255 19:49 08.09.2022
1856 Clear 27 1015 59 10000 5.42 252 18:21 08.09.2022
1857 Clear 27 1016 56 10000 5.43 258 16:19 08.09.2022
1858 Clear 28 1016 54 10000 5.36 250 14:40 08.09.2022
1859 Clear 28 1017 54 10000 5.29 254 13:26 08.09.2022
1860 Clear 24 1017 55 10000 5.03 254 11:39 08.09.2022
1861 Clear 24 1017 58 10000 4.84 254 10:52 08.09.2022
1862 Clouds 22 1016 85 10000 4.28 249 08:21 08.09.2022
1863 Clouds 23 1015 87 10000 4.25 252 06:41 08.09.2022
1864 Clear 24 1016 89 10000 4.51 259 02:36 08.09.2022
1865 Clouds 24 1017 88 10000 4.7 256 02:18 08.09.2022
1866 Clouds 25 1017 81 10000 4.97 252 00:27 08.09.2022
1867 Clouds 25 1017 77 10000 4.89 264 22:42 07.09.2022
1868 Clouds 24 1016 73 10000 5.09 268 21:42 07.09.2022
1869 Clouds 28 1015 69 10000 5.49 275 20:42 07.09.2022
1870 Clouds 28 1015 61 10000 5.7 275 19:36 07.09.2022
1871 Clouds 30 1016 55 10000 6.67 266 17:28 07.09.2022
1872 Clouds 27 1017 53 10000 5.35 250 12:49 07.09.2022
1873 Clear 24 1017 60 10000 4.72 255 10:46 07.09.2022
1874 Clear 22 1017 79 10000 4.38 249 08:36 07.09.2022
1875 Clouds 20 1016 85 10000 4.14 250 06:57 07.09.2022
1876 Clouds 24 1018 87 10000 4.85 248 01:50 07.09.2022
1877 Clouds 25 1019 86 10000 4.81 261 22:44 06.09.2022
1878 Clouds 27 1018 83 10000 4.84 260 21:39 06.09.2022
1879 Clouds 28 1017 71 10000 5.75 265 20:21 06.09.2022
1880 Clear 26 1016 66 10000 5.7 263 18:45 06.09.2022
1881 Clear 26 1017 65 10000 5.79 262 17:56 06.09.2022
1882 Clear 25 1017 63 10000 5.75 259 17:20 06.09.2022
1883 Clear 26 1017 63 10000 5.75 259 16:37 06.09.2022
1884 Clear 27 1019 62 10000 5.85 254 14:55 06.09.2022
1885 Clouds 28 1019 61 10000 5.61 255 13:44 06.09.2022
1886 Clouds 27 1019 61 10000 5.23 260 13:21 06.09.2022
1887 Clear 24 1020 65 10000 4.52 257 11:29 06.09.2022
1888 Clear 23 1020 65 10000 4.54 257 10:33 06.09.2022
1889 Clear 21 1019 83 10000 4.36 268 08:29 06.09.2022
1890 Clear 21 1019 84 10000 4.5 261 06:58 06.09.2022
1891 Clouds 21 1020 87 10000 4.81 278 02:34 06.09.2022
1892 Clouds 22 1021 86 10000 4.82 271 23:21 05.09.2022
1893 Clouds 24 1020 82 10000 5.17 275 21:50 05.09.2022
1894 Clouds 27 1019 78 10000 5.41 273 20:32 05.09.2022
1895 Clouds 29 1019 62 10000 5.79 267 18:59 05.09.2022
1896 Clouds 29 1019 62 10000 5.79 267 18:38 05.09.2022
1897 Clouds 28 1019 59 10000 5.97 265 18:19 05.09.2022
1898 Clouds 26 1020 59 10000 6.58 263 16:25 05.09.2022
1899 Clouds 25 1020 58 10000 6.36 263 15:29 05.09.2022
1900 Clear 27 1021 60 10000 5.73 266 13:21 05.09.2022
1901 Clear 25 1021 62 10000 5.35 271 11:53 05.09.2022
1902 Clear 19 1020 80 10000 4.55 280 08:58 05.09.2022
1903 Clear 20 1019 85 10000 4.97 270 06:38 05.09.2022
1904 Clouds 21 1020 82 10000 5.39 270 01:35 05.09.2022
1905 Clouds 22 1020 75 10000 5.07 273 22:39 04.09.2022
1906 Clouds 23 1019 73 10000 5.3 273 22:19 04.09.2022
1907 Clouds 26 1018 72 10000 5.41 272 20:37 04.09.2022
1908 Clear 26 1017 61 10000 5.96 269 18:55 04.09.2022
1909 Clear 27 1017 59 10000 6.35 270 17:43 04.09.2022
1910 Clear 26 1018 59 10000 6.55 270 16:28 04.09.2022
1911 Clear 26 1018 60 10000 6.45 271 14:25 04.09.2022
1912 Clear 25 1019 60 10000 6.27 270 12:57 04.09.2022
1913 Clear 24 1019 62 10000 5.98 269 11:37 04.09.2022
1914 Clear 21 1018 68 10000 5.42 264 09:39 04.09.2022
1915 Clouds 20 1016 82 10000 4.92 263 06:40 04.09.2022
1916 Clouds 21 1016 84 10000 5.17 255 03:18 04.09.2022
1917 Clear 22 1016 81 10000 5.49 267 22:56 03.09.2022
1918 Clear 23 1016 77 10000 5.47 270 22:18 03.09.2022
1919 Clear 23 1015 73 10000 5.6 271 21:22 03.09.2022
1920 Clouds 26 1014 64 10000 5.75 267 18:49 03.09.2022
1921 Clouds 27 1014 61 10000 6.06 269 17:22 03.09.2022
1922 Clouds 27 1014 61 10000 6.06 269 17:22 03.09.2022
1923 Clouds 26 1015 60 10000 5.96 266 15:54 03.09.2022
1924 Clouds 24 1015 60 10000 6.22 270 14:42 03.09.2022
1925 Clouds 24 1016 61 10000 5.98 269 13:50 03.09.2022
1926 Clouds 23 1016 69 10000 6.11 266 11:33 03.09.2022
1927 Clouds 22 1015 72 10000 5.18 275 09:36 03.09.2022
1928 Clouds 21 1014 84 10000 4.71 276 07:54 03.09.2022
1929 Clouds 23 1014 86 10000 4.74 255 04:55 03.09.2022
1930 Clouds 23 1015 82 10000 4.81 262 02:49 03.09.2022
1931 Clouds 23 1016 79 10000 4.49 262 23:46 02.09.2022
1932 Clouds 24 1015 75 10000 5.06 262 22:23 02.09.2022
1933 Rain 25 1014 70 10000 4.88 255 20:42 02.09.2022
1934 Rain 26 1013 62 10000 5.07 258 20:18 02.09.2022
1935 Clouds 27 1013 58 10000 4.99 268 18:51 02.09.2022
1936 Clouds 29 1014 59 10000 5.59 269 18:25 02.09.2022
1937 Clouds 30 1014 60 10000 5.65 274 17:25 02.09.2022
1938 Clouds 28 1014 60 10000 5.65 274 16:31 02.09.2022
1939 Clouds 27 1015 65 10000 5.92 263 13:42 02.09.2022
1940 Clouds 23 1016 76 10000 5.04 263 10:57 02.09.2022
1941 Clouds 24 1015 78 10000 4.25 259 09:45 02.09.2022
1942 Clouds 24 1016 81 10000 4.96 249 08:46 02.09.2022
1943 Clouds 24 1014 81 10000 4.49 251 06:46 02.09.2022
1944 Clouds 24 1014 81 10000 3.91 260 06:21 02.09.2022
1945 Clouds 25 1016 66 10000 4.19 256 00:20 02.09.2022
1946 Clouds 26 1015 65 10000 3.44 247 21:56 01.09.2022
1947 Clouds 25 1015 65 10000 3.44 247 21:37 01.09.2022
1948 Clouds 25 1014 61 10000 3.13 266 21:18 01.09.2022
1949 Clouds 29 1014 63 10000 3.98 258 19:32 01.09.2022
1950 Clouds 31 1014 52 10000 4.07 258 18:18 01.09.2022
1951 Clouds 28 1014 55 10000 6.05 278 16:51 01.09.2022
1952 Clouds 29 1015 63 10000 4.58 256 14:51 01.09.2022
1953 Clouds 27 1016 58 10000 3.88 260 13:21 01.09.2022
1954 Clouds 27 1016 58 10000 3.88 260 12:42 01.09.2022
1955 Clouds 25 1016 60 10000 4.28 254 11:50 01.09.2022
1956 Clouds 24 1016 62 10000 4.33 251 11:19 01.09.2022
1957 Clouds 24 1015 65 10000 3.01 272 09:31 01.09.2022
1958 Clouds 23 1015 71 10000 3.47 265 06:31 01.09.2022
1959 Clouds 25 1016 71 10000 4.25 262 02:33 01.09.2022
1960 Clouds 26 1016 67 10000 3.61 258 01:29 01.09.2022
1961 Clouds 25 1017 62 10000 3.86 260 22:22 31.08.2022
1962 Clouds 28 1015 56 10000 4.42 258 20:27 31.08.2022
1963 Clear 30 1016 56 10000 5.05 261 18:19 31.08.2022
1964 Clear 30 1016 57 10000 5.26 263 16:32 31.08.2022
1965 Clear 30 1017 58 10000 4.95 260 15:18 31.08.2022
1966 Clear 26 1018 58 10000 4.18 259 12:30 31.08.2022
1967 Clear 26 1018 59 10000 3.41 253 11:38 31.08.2022
1968 Clear 24 1018 77 10000 2.51 259 09:25 31.08.2022
1969 Clear 24 1017 81 10000 2.31 293 06:35 31.08.2022
1970 Clouds 25 1019 79 10000 2.37 277 01:25 31.08.2022
1971 Rain 25 1020 79 10000 4.61 259 21:49 30.08.2022
1972 Clouds 28 1019 77 10000 6.53 249 21:21 30.08.2022
1973 Clouds 31 1017 73 10000 5.86 251 18:53 30.08.2022
1974 Rain 27 1015 70 10000 5.06 357 16:35 30.08.2022
1975 Clouds 27 1017 64 10000 4.91 253 13:30 30.08.2022
1976 Clouds 26 1018 75 10000 3.3 269 11:22 30.08.2022
1977 Clouds 24 1018 75 10000 3.32 269 10:57 30.08.2022
1978 Clouds 24 1018 75 10000 3.32 269 10:57 30.08.2022
1979 Clouds 23 1016 86 10000 1.91 248 08:46 30.08.2022
1980 Clouds 24 1016 92 10000 1.24 280 03:33 30.08.2022
1981 Clouds 24 1016 95 10000 2 76 23:45 29.08.2022
1982 Clouds 23 1016 94 10000 2.87 65 22:33 29.08.2022
1983 Clouds 23 1015 93 10000 2.41 69 21:27 29.08.2022
1984 Clouds 24 1014 85 10000 2.03 58 20:26 29.08.2022
1985 Clouds 24 1014 81 10000 2.48 66 17:58 29.08.2022
1986 Clouds 24 1014 82 10000 3.85 69 17:25 29.08.2022
1987 Clouds 25 1014 82 10000 3.85 69 16:43 29.08.2022
1988 Rain 25 1015 84 10000 2.75 77 15:18 29.08.2022
1989 Clouds 24 1016 85 10000 2.05 89 13:23 29.08.2022
1990 Clouds 25 1015 87 10000 0.43 109 11:20 29.08.2022
1991 Clouds 24 1014 89 10000 1.41 280 10:19 29.08.2022
1992 Rain 23 1014 88 10000 0.64 346 08:37 29.08.2022
1993 Clouds 24 1012 91 10000 1.05 337 05:36 29.08.2022
1994 Clouds 23 1014 94 10000 3.75 67 01:23 29.08.2022
1995 Clouds 24 1013 92 10000 4.19 76 22:47 28.08.2022
1996 Clouds 24 1012 92 10000 5.27 68 21:44 28.08.2022
1997 Clouds 24 1011 92 10000 4.78 72 20:55 28.08.2022
1998 Clouds 26 1010 81 10000 7.47 77 19:26 28.08.2022
1999 Clear 25 1009 79 10000 7.38 76 18:21 28.08.2022
2000 Clear 24 1010 78 10000 7.72 77 17:22 28.08.2022
2001 Clear 24 1010 78 10000 7.65 79 16:27 28.08.2022
2002 Clouds 23 1011 78 10000 7.62 81 14:41 28.08.2022
2003 Clouds 24 1011 81 10000 7.17 79 12:48 28.08.2022
2004 Clouds 22 1011 85 10000 4.95 78 10:43 28.08.2022
2005 Clouds 22 1011 85 10000 4.95 78 10:43 28.08.2022
2006 Clouds 23 1010 88 10000 4 69 09:49 28.08.2022
2007 Clouds 22 1010 93 10000 3.55 61 08:37 28.08.2022
2008 Clouds 22 1010 94 10000 3.51 55 07:43 28.08.2022
2009 Clouds 22 1010 94 10000 1.44 106 02:39 28.08.2022
2010 Clouds 23 1011 94 10000 3.29 89 00:27 28.08.2022
2011 Clouds 23 1011 93 10000 3.7 83 22:36 27.08.2022
2012 Clear 24 1010 91 10000 3.74 79 21:31 27.08.2022
2013 Clear 24 1009 82 10000 5.81 90 19:44 27.08.2022
2014 Clear 26 1009 73 10000 7.57 85 17:29 27.08.2022
2015 Clear 26 1010 72 10000 7.61 82 15:53 27.08.2022
2016 Clear 25 1010 73 10000 7.56 83 15:24 27.08.2022
2017 Clouds 24 1011 78 10000 5.58 88 12:23 27.08.2022
2018 Clouds 24 1011 78 10000 5.58 88 11:31 27.08.2022
2019 Clouds 23 1011 86 10000 4.47 87 09:48 27.08.2022
2020 Clouds 22 1010 93 10000 3.85 85 07:37 27.08.2022
2021 Clouds 22 1011 93 10000 3.32 73 02:34 27.08.2022
2022 Clear 23 1012 89 10000 2.74 58 23:57 26.08.2022
2023 Clear 24 1012 89 10000 2.83 56 22:37 26.08.2022
2024 Clear 24 1010 85 10000 3.17 55 21:19 26.08.2022
2025 Clear 26 1010 73 10000 4.71 76 19:23 26.08.2022
2026 Clear 26 1011 66 10000 6 82 16:50 26.08.2022
2027 Clear 26 1012 65 10000 6.32 83 15:31 26.08.2022
2028 Clear 25 1013 66 10000 6.11 83 14:30 26.08.2022
2029 Clear 23 1013 70 10000 5.31 82 12:49 26.08.2022
2030 Clouds 25 1014 73 10000 3.37 74 11:27 26.08.2022
2031 Clouds 23 1014 80 10000 3.12 62 10:29 26.08.2022
2032 Clear 22 1013 87 10000 2.61 74 07:28 26.08.2022
2033 Clear 24 1014 83 10000 3.72 260 01:41 26.08.2022
2034 Clear 26 1014 81 10000 3.48 252 23:32 25.08.2022
2035 Clear 26 1012 81 10000 3.96 251 21:27 25.08.2022
2036 Clear 27 1012 72 10000 4.57 258 20:29 25.08.2022
2037 Clear 28 1012 68 10000 4.77 263 18:53 25.08.2022
2038 Clear 28 1013 65 10000 4.88 263 17:44 25.08.2022
2039 Clear 28 1013 64 10000 4.88 261 17:24 25.08.2022
2040 Clear 27 1014 64 10000 5.09 259 15:39 25.08.2022
2041 Clear 27 1015 65 10000 4.96 255 14:33 25.08.2022
2042 Clear 25 1016 70 10000 4.01 260 11:54 25.08.2022
2043 Clear 23 1016 73 10000 3.89 260 10:46 25.08.2022
2044 Clear 22 1015 83 10000 3.21 262 08:54 25.08.2022
2045 Clouds 21 1015 87 10000 3.22 258 05:20 25.08.2022
2046 Clouds 23 1016 90 10000 4.44 269 00:59 25.08.2022
2047 Clear 24 1016 90 10000 4.07 251 23:26 24.08.2022
2048 Clear 24 1015 90 10000 3.68 259 22:22 24.08.2022
2049 Clear 24 1015 90 10000 3.68 259 21:34 24.08.2022
2050 Clear 25 1014 87 10000 3.48 264 20:32 24.08.2022
2051 Clouds 26 1013 77 10000 2.3 257 18:46 24.08.2022
2052 Clouds 27 1014 73 4753 0.4 43 16:28 24.08.2022
2053 Clouds 27 1014 73 4662 0.45 45 15:51 24.08.2022
2054 Clouds 25 1014 75 10000 2 82 12:55 24.08.2022
2055 Clouds 25 1014 80 10000 2.29 92 11:24 24.08.2022
2056 Clouds 23 1014 86 10000 2.4 92 09:33 24.08.2022
2057 Clouds 22 1013 93 10000 3 89 07:47 24.08.2022
2058 Clouds 22 1014 94 10000 3.3 87 02:25 24.08.2022
2059 Clouds 22 1013 93 10000 4.36 79 22:59 23.08.2022
2060 Clouds 23 1013 93 10000 4.77 80 22:29 23.08.2022
2061 Clouds 23 1012 89 10000 5.38 80 21:27 23.08.2022
2062 Clouds 24 1012 78 10000 5.37 83 19:54 23.08.2022
2063 Clouds 24 1012 74 10000 5.83 84 18:33 23.08.2022
2064 Clouds 24 1012 72 10000 6.25 85 17:47 23.08.2022
2065 Clouds 24 1012 70 10000 6.53 84 16:35 23.08.2022
2066 Clouds 25 1013 69 10000 6.88 81 15:23 23.08.2022
2067 Clouds 24 1013 71 10000 6.16 79 13:25 23.08.2022
2068 Clouds 23 1013 77 10000 5.31 78 11:24 23.08.2022
2069 Clouds 23 1013 77 10000 5.31 78 10:35 23.08.2022
2070 Clouds 22 1013 82 10000 4.66 77 09:47 23.08.2022
2071 Clouds 22 1013 90 10000 4.44 74 08:49 23.08.2022
2072 Clouds 23 1012 92 10000 4.31 75 08:20 23.08.2022
2073 Clouds 23 1012 92 10000 4.31 75 08:20 23.08.2022
2074 Clouds 22 1012 92 10000 4.31 75 07:34 23.08.2022
2075 Clouds 21 1012 92 10000 3.96 74 06:27 23.08.2022
2076 Clear 21 1012 87 10000 2.75 64 02:28 23.08.2022
2077 Clear 21 1012 80 10000 1.42 51 00:27 23.08.2022
2078 Clear 23 1012 80 10000 1.42 51 23:33 22.08.2022
2079 Clear 20 1012 79 10000 0.26 328 22:34 22.08.2022
2080 Clear 20 1011 72 10000 1.73 264 21:24 22.08.2022
2081 Clear 23 1011 62 10000 3.02 258 19:47 22.08.2022
2082 Clear 24 1011 56 10000 3.79 258 18:44 22.08.2022
2083 Clear 32 1011 53 10000 4.1 257 16:47 22.08.2022
2084 Clear 31 1012 55 10000 4.42 258 15:38 22.08.2022
2085 Clear 32 1013 58 10000 4.8 263 13:44 22.08.2022
2086 Clear 27 1013 69 10000 4.93 259 10:26 22.08.2022
2087 Clear 27 1013 78 10000 4.22 253 07:41 22.08.2022
2088 Clear 30 1013 65 10000 4.05 251 02:56 22.08.2022
2089 Clear 29 1014 67 10000 3.97 244 00:38 22.08.2022
2090 Clear 28 1014 68 10000 3.77 250 23:59 21.08.2022
2091 Clear 28 1014 65 10000 4.31 252 22:18 21.08.2022
2092 Clear 28 1013 61 10000 4.33 247 21:23 21.08.2022
2093 Clear 25 1013 52 10000 4.37 249 20:27 21.08.2022
2094 Clear 29 1013 49 10000 3.93 257 19:23 21.08.2022
2095 Clear 29 1014 48 10000 2.7 265 16:54 21.08.2022
2096 Clear 29 1015 47 10000 1.31 265 15:53 21.08.2022
2097 Clear 29 1015 49 10000 0.35 136 15:18 21.08.2022
2098 Clear 28 1016 49 10000 0.7 79 13:51 21.08.2022
2099 Clear 26 1017 51 10000 1.8 86 12:57 21.08.2022
2100 Clear 21 1017 59 10000 2.56 81 10:49 21.08.2022
2101 Clear 19 1017 78 10000 3.3 73 09:24 21.08.2022
2102 Clear 19 1017 78 10000 3.3 73 08:56 21.08.2022
2103 Clear 19 1017 78 10000 3.57 69 08:38 21.08.2022
2104 Clear 19 1017 85 10000 3.92 69 07:26 21.08.2022
2105 Clear 22 1018 88 10000 4.39 65 03:24 21.08.2022
2106 Clear 23 1018 89 10000 4.51 69 23:45 20.08.2022
2107 Clear 23 1017 89 10000 5.11 70 22:23 20.08.2022
2108 Clear 24 1017 85 10000 5.72 75 21:26 20.08.2022
2109 Clear 24 1016 74 10000 6.14 80 19:58 20.08.2022
2110 Clear 24 1016 74 10000 6.14 80 19:39 20.08.2022
2111 Clear 24 1016 74 10000 6.14 80 19:39 20.08.2022
2112 Clear 25 1016 66 10000 7.24 82 18:27 20.08.2022
2113 Clear 26 1016 66 10000 7.24 82 17:38 20.08.2022
2114 Clear 27 1016 65 10000 7.57 83 16:35 20.08.2022
2115 Clear 27 1017 65 10000 8.14 83 14:55 20.08.2022
2116 Clear 26 1018 69 10000 8 81 12:28 20.08.2022
2117 Clear 26 1018 69 10000 8 81 11:46 20.08.2022
2118 Clear 24 1016 83 10000 7.13 77 09:25 20.08.2022
2119 Clear 21 1016 87 10000 6.77 76 07:31 20.08.2022
2120 Clear 20 1016 86 10000 6.55 77 05:48 20.08.2022
2121 Clear 21 1016 88 10000 7.03 78 00:58 20.08.2022
2122 Clear 21 1016 88 10000 7.22 78 23:52 19.08.2022
2123 Clear 22 1016 87 10000 7.42 79 22:48 19.08.2022
2124 Clear 23 1015 87 10000 7.53 79 21:30 19.08.2022
2125 Clear 25 1014 70 10000 9.08 83 19:22 19.08.2022
2126 Clear 24 1015 67 10000 10.3 85 16:28 19.08.2022
2127 Clear 22 1016 70 10000 10.62 85 13:56 19.08.2022
2128 Clear 22 1016 70 10000 10.31 83 11:51 19.08.2022
2129 Clear 22 1016 70 10000 9.94 81 10:33 19.08.2022
2130 Clear 22 1016 84 10000 7.49 80 08:48 19.08.2022
2131 Clear 21 1014 83 10000 5.77 69 04:43 19.08.2022
2132 Clear 21 1015 78 10000 4.92 66 00:42 19.08.2022
2133 Clear 21 1015 75 10000 4.68 65 00:19 19.08.2022
2134 Clear 21 1015 73 10000 4.46 63 22:57 18.08.2022
2135 Clear 21 1014 71 10000 4.3 67 22:23 18.08.2022
2136 Clear 21 1014 71 10000 4.3 67 21:49 18.08.2022
2137 Clear 22 1014 67 10000 3.69 75 20:48 18.08.2022
2138 Clear 23 1013 55 10000 2.99 71 19:35 18.08.2022
2139 Clear 23 1013 55 10000 2.97 71 18:43 18.08.2022
2140 Clear 30 1013 53 10000 1.39 67 17:32 18.08.2022
2141 Clear 27 1013 54 10000 2.47 246 15:53 18.08.2022
2142 Clear 27 1014 58 10000 3.79 257 14:21 18.08.2022
2143 Clear 26 1014 60 10000 4.01 262 13:44 18.08.2022
2144 Clear 27 1014 62 10000 3.65 262 12:28 18.08.2022
2145 Clear 26 1014 64 10000 3.33 265 11:19 18.08.2022
2146 Clear 22 1014 69 10000 3.1 259 09:43 18.08.2022
2147 Clear 22 1013 83 10000 3.38 241 07:27 18.08.2022
2148 Clear 22 1013 83 10000 3.76 237 06:18 18.08.2022
2149 Clear 23 1013 84 10000 5.18 236 01:43 18.08.2022
2150 Clear 23 1014 80 10000 4.71 265 22:32 17.08.2022
2151 Clear 24 1012 68 10000 5.35 263 20:21 17.08.2022
2152 Clear 25 1012 68 10000 5.35 263 19:34 17.08.2022
2153 Clear 28 1012 64 10000 5.5 264 18:32 17.08.2022
2154 Clear 25 1012 61 10000 6.08 266 16:50 17.08.2022
2155 Clear 26 1013 61 10000 6.37 269 15:41 17.08.2022
2156 Clear 27 1013 62 10000 6.65 268 14:29 17.08.2022
2157 Clear 25 1014 62 10000 6.41 265 12:21 17.08.2022
2158 Clear 23 1013 62 10000 5.31 261 10:25 17.08.2022
2159 Clear 23 1013 62 10000 5.31 261 10:25 17.08.2022
2160 Clear 22 1012 78 10000 4.92 260 08:25 17.08.2022
2161 Clear 23 1011 85 10000 4.82 237 05:22 17.08.2022
2162 Clear 23 1012 86 10000 6.35 237 00:46 17.08.2022
2163 Clear 23 1013 83 10000 5.53 254 22:59 16.08.2022
2164 Clear 26 1011 73 10000 6.29 265 20:59 16.08.2022
2165 Clear 27 1011 68 10000 6.67 269 19:55 16.08.2022
2166 Clear 27 1011 64 10000 6.36 266 19:22 16.08.2022
2167 Clear 27 1011 62 10000 6.63 268 17:54 16.08.2022
2168 Clear 28 1011 61 10000 6.63 269 16:35 16.08.2022
2169 Clear 26 1012 62 10000 6.55 270 15:44 16.08.2022
2170 Clear 26 1012 62 10000 6.55 270 15:44 16.08.2022
2171 Clear 25 1012 63 10000 6.48 268 14:54 16.08.2022
2172 Clear 25 1012 63 10000 6.48 268 14:36 16.08.2022
2173 Clear 24 1013 70 10000 6.56 258 11:40 16.08.2022
2174 Clear 22 1012 76 10000 6.68 250 09:58 16.08.2022
2175 Clear 22 1012 80 10000 6.57 248 08:49 16.08.2022
2176 Clear 22 1012 83 10000 6.39 248 08:19 16.08.2022
2177 Clear 21 1012 83 10000 6.42 247 05:52 16.08.2022
2178 Clear 22 1013 81 10000 6.22 257 23:27 15.08.2022
2179 Clear 23 1012 79 10000 6.18 258 22:20 15.08.2022
2180 Clear 23 1012 79 10000 6.18 258 21:43 15.08.2022
2181 Clear 25 1011 74 10000 6.31 261 20:31 15.08.2022
2182 Clear 26 1011 64 10000 6.56 266 18:57 15.08.2022
2183 Clear 26 1011 63 10000 6.56 268 17:59 15.08.2022
2184 Clear 27 1012 63 10000 6.6 266 16:24 15.08.2022
2185 Clear 27 1013 64 10000 6.6 266 14:49 15.08.2022
2186 Clear 26 1014 66 10000 6.55 263 13:23 15.08.2022
2187 Clear 24 1014 71 10000 7.31 255 10:37 15.08.2022
2188 Clouds 22 1014 78 10000 6.78 250 08:54 15.08.2022
2189 Clear 22 1013 82 10000 6.28 256 06:49 15.08.2022
2190 Clear 23 1014 81 10000 6.98 254 03:56 15.08.2022
2191 Clear 24 1015 82 10000 6.66 247 23:38 14.08.2022
2192 Clear 26 1013 80 10000 6.76 261 21:48 14.08.2022
2193 Clear 27 1012 71 10000 6.98 265 20:41 14.08.2022
2194 Clouds 28 1011 63 10000 6.93 265 19:45 14.08.2022
2195 Clouds 29 1011 57 10000 7.04 265 18:32 14.08.2022
2196 Clouds 29 1011 57 10000 7.04 265 18:32 14.08.2022
2197 Clouds 30 1012 54 10000 7.15 266 17:37 14.08.2022
2198 Clouds 33 1012 54 10000 6.88 265 16:25 14.08.2022
2199 Clouds 32 1012 54 10000 6.88 265 15:43 14.08.2022
2200 Clouds 31 1013 57 10000 6.44 266 13:52 14.08.2022
2201 Clouds 31 1013 57 10000 6.44 266 13:33 14.08.2022
2202 Clouds 29 1013 59 10000 6.17 266 12:45 14.08.2022
2203 Clouds 28 1013 66 10000 5.71 260 11:30 14.08.2022
2204 Clouds 26 1013 70 10000 5.04 255 09:34 14.08.2022
2205 Clouds 25 1012 79 10000 4.34 255 06:54 14.08.2022
2206 Clouds 26 1012 79 10000 4 251 05:45 14.08.2022
2207 Clouds 27 1013 71 10000 3.61 258 01:43 14.08.2022
2208 Clouds 27 1013 74 10000 4.81 237 23:22 13.08.2022
2209 Clouds 27 1012 72 10000 3.89 250 22:28 13.08.2022
2210 Clouds 28 1011 69 10000 4.34 260 20:51 13.08.2022
2211 Clouds 31 1010 63 10000 3.98 242 19:49 13.08.2022
2212 Clouds 31 1010 58 10000 4.16 247 19:18 13.08.2022
2213 Clouds 31 1011 56 10000 3.26 251 17:21 13.08.2022
2214 Clouds 33 1011 52 10000 2.38 48 14:51 13.08.2022
2215 Clouds 32 1012 54 10000 1.85 58 14:24 13.08.2022
2216 Clouds 33 1012 56 10000 0.82 284 13:34 13.08.2022
2217 Clear 29 1012 57 10000 1.72 110 11:33 13.08.2022
2218 Clear 26 1012 77 10000 2.14 77 09:26 13.08.2022
2219 Clouds 26 1012 85 10000 2.13 74 07:43 13.08.2022
2220 Clouds 26 1013 87 10000 4.87 73 01:52 13.08.2022
2221 Clouds 25 1014 90 10000 3.74 77 23:32 12.08.2022
2222 Clear 26 1013 90 10000 4.88 66 21:39 12.08.2022
2223 Clouds 26 1012 77 10000 5.46 74 19:49 12.08.2022
2224 Clouds 28 1012 75 10000 5.2 76 19:24 12.08.2022
2225 Clouds 29 1013 74 10000 5.02 83 18:29 12.08.2022
2226 Clear 29 1013 70 10000 6.13 83 16:27 12.08.2022
2227 Clear 28 1013 71 10000 6.44 78 15:21 12.08.2022
2228 Clouds 28 1014 71 10000 5.71 78 13:47 12.08.2022
2229 Clouds 27 1014 74 10000 5.99 77 12:38 12.08.2022
2230 Clouds 24 1014 89 10000 4.39 75 08:57 12.08.2022
2231 Clouds 26 1014 93 10000 3.38 75 07:46 12.08.2022
2232 Clouds 24 1013 94 10000 3.72 72 06:23 12.08.2022
2233 Clouds 25 1015 93 10000 3.34 82 00:32 12.08.2022
2234 Clear 25 1015 91 10000 3.21 42 23:58 11.08.2022
2235 Clear 25 1015 91 10000 1.96 53 23:25 11.08.2022
2236 Clear 27 1014 90 10000 2.39 54 21:53 11.08.2022
2237 Clear 27 1014 86 10000 2.06 42 21:28 11.08.2022
2238 Clear 27 1014 86 10000 2.06 42 21:28 11.08.2022
2239 Clear 28 1014 86 10000 2.06 42 20:31 11.08.2022
2240 Clear 28 1014 86 10000 2.06 42 20:31 11.08.2022
2241 Clear 29 1013 79 10000 1.91 52 19:33 11.08.2022
2242 Clouds 28 1013 75 10000 2.01 85 18:56 11.08.2022
2243 Clouds 28 1013 77 10000 1.51 61 16:47 11.08.2022
2244 Clouds 28 1014 78 2658 0.79 50 15:43 11.08.2022
2245 Clouds 28 1014 79 2321 0.18 175 14:40 11.08.2022
2246 Clouds 25 1015 76 10000 0.75 216 11:59 11.08.2022
2247 Clouds 24 1014 84 10000 1.82 287 09:22 11.08.2022
2248 Clouds 24 1014 86 10000 2.2 285 06:49 11.08.2022
2249 Clouds 24 1014 88 10000 2.46 276 02:38 11.08.2022
2250 Clouds 24 1015 88 10000 3.59 272 23:41 10.08.2022
2251 Clouds 25 1014 87 10000 3.9 269 21:49 10.08.2022
2252 Clouds 25 1013 84 10000 3.91 262 21:18 10.08.2022
2253 Clouds 26 1013 84 10000 3.91 262 20:35 10.08.2022
2254 Clouds 27 1013 80 10000 3.3 262 18:53 10.08.2022
2255 Clouds 26 1014 78 10000 2.32 261 17:27 10.08.2022
2256 Clouds 26 1014 78 2091 2.03 254 14:53 10.08.2022
2257 Clouds 25 1015 79 10000 1.75 243 13:33 10.08.2022
2258 Clouds 25 1015 80 10000 2.56 257 10:50 10.08.2022
2259 Clouds 24 1015 88 10000 2.63 268 08:39 10.08.2022
2260 Clouds 24 1015 90 10000 3.02 266 07:35 10.08.2022
2261 Clouds 25 1014 91 10000 2.92 267 04:50 10.08.2022
2262 Clouds 25 1015 91 10000 0.51 265 01:33 10.08.2022
2263 Clouds 25 1015 92 10000 0.86 52 23:31 09.08.2022
2264 Clouds 26 1014 91 10000 2.61 42 21:58 09.08.2022
2265 Clouds 26 1014 88 10000 2.6 34 21:23 09.08.2022
2266 Clouds 27 1013 80 10000 1.97 35 19:18 09.08.2022
2267 Clouds 28 1013 78 10000 2.35 57 17:37 09.08.2022
2268 Clouds 28 1014 76 10000 2.81 73 17:19 09.08.2022
2269 Clouds 28 1014 76 10000 2.95 73 16:22 09.08.2022
2270 Clouds 28 1015 75 10000 2.28 74 15:23 09.08.2022
2271 Clear 25 1016 69 10000 1.53 77 11:30 09.08.2022
2272 Clear 23 1015 75 10000 0.85 86 08:53 09.08.2022
2273 Clear 23 1015 79 10000 0.77 57 07:58 09.08.2022
2274 Clouds 23 1015 80 10000 2.21 270 05:24 09.08.2022
2275 Clouds 24 1016 75 10000 1.73 284 00:59 09.08.2022
2276 Clear 25 1015 78 10000 3.37 290 23:24 08.08.2022
2277 Clear 25 1015 78 10000 3.37 290 22:42 08.08.2022
2278 Clear 26 1015 78 10000 3.7 270 21:44 08.08.2022
2279 Clear 27 1014 74 10000 3.95 271 20:39 08.08.2022
2280 Clear 27 1014 68 10000 4.41 268 19:35 08.08.2022
2281 Clear 28 1014 63 10000 4.77 260 18:18 08.08.2022
2282 Clear 27 1015 62 10000 4.87 258 15:48 08.08.2022
2283 Clear 27 1016 61 10000 4.88 259 15:28 08.08.2022
2284 Clouds 27 1016 62 10000 4.42 267 12:30 08.08.2022
2285 Clouds 24 1016 72 10000 4.05 253 10:28 08.08.2022
2286 Clouds 22 1016 85 10000 3.58 254 07:59 08.08.2022
2287 Clear 22 1015 84 10000 4.22 260 03:45 08.08.2022
2288 Clear 25 1015 81 10000 4.08 269 23:28 07.08.2022
2289 Clear 27 1015 79 10000 4.2 269 21:41 07.08.2022
2290 Clear 26 1015 75 10000 4.56 268 20:55 07.08.2022
2291 Clear 26 1014 69 10000 5.03 266 20:18 07.08.2022
2292 Clear 27 1014 69 10000 5.03 266 19:51 07.08.2022
2293 Clear 28 1014 66 10000 5.25 263 18:49 07.08.2022
2294 Clear 28 1014 65 10000 5.04 260 17:22 07.08.2022
2295 Clear 28 1014 65 10000 5.04 260 16:51 07.08.2022
2296 Clear 25 1015 68 10000 4.19 254 15:29 07.08.2022
2297 Clouds 27 1015 64 10000 3.76 254 13:55 07.08.2022
2298 Clouds 27 1016 67 10000 3.11 256 12:40 07.08.2022
2299 Clouds 25 1016 79 10000 2.04 252 10:48 07.08.2022
2300 Clouds 24 1016 82 10000 1.57 244 09:56 07.08.2022
2301 Clouds 25 1016 92 10000 0.4 312 04:33 07.08.2022
2302 Clear 25 1016 90 10000 0.63 327 01:59 07.08.2022
2303 Clear 26 1016 90 10000 1.01 27 22:33 06.08.2022
2304 Clear 27 1016 89 10000 1.18 21 21:48 06.08.2022
2305 Clear 29 1015 78 10000 1.14 78 19:43 06.08.2022
2306 Clear 29 1015 75 10000 0.5 60 18:35 06.08.2022
2307 Clear 28 1015 73 6697 1.1 76 17:44 06.08.2022
2308 Clear 29 1016 70 10000 4.39 77 15:21 06.08.2022
2309 Clouds 27 1016 71 10000 4.88 80 13:50 06.08.2022
2310 Clouds 28 1016 73 10000 4.05 79 12:21 06.08.2022
2311 Clouds 26 1016 74 10000 3.84 81 10:40 06.08.2022
2312 Clouds 25 1016 78 10000 3.61 84 09:31 06.08.2022
2313 Clouds 25 1015 92 10000 2.32 61 04:38 06.08.2022
2314 Clear 25 1016 92 10000 1.21 54 00:46 06.08.2022
2315 Clear 27 1015 91 10000 1.42 43 22:35 05.08.2022
2316 Clear 27 1014 83 10000 0.98 49 20:37 05.08.2022
2317 Clear 29 1013 75 10000 2.59 75 18:55 05.08.2022
2318 Clear 29 1013 75 10000 2.59 75 18:36 05.08.2022
2319 Clear 29 1013 69 10000 5.24 74 16:52 05.08.2022
2320 Clear 29 1014 72 10000 6.07 79 15:24 05.08.2022
2321 Clear 29 1014 72 10000 6.07 79 14:34 05.08.2022
2322 Clouds 28 1015 75 10000 4.54 85 13:26 05.08.2022
2323 Clouds 28 1015 75 10000 4.54 85 12:59 05.08.2022
2324 Clouds 27 1014 79 10000 2.91 83 11:20 05.08.2022
2325 Clouds 25 1014 87 10000 2.55 71 08:46 05.08.2022
2326 Clouds 25 1013 92 10000 2.34 74 07:34 05.08.2022
2327 Clear 25 1013 93 10000 2.83 75 02:33 05.08.2022
2328 Clear 25 1014 91 10000 3.04 59 22:43 04.08.2022
2329 Clear 26 1012 86 10000 2.74 62 21:28 04.08.2022
2330 Clear 26 1012 86 10000 2.74 62 20:53 04.08.2022
2331 Clear 26 1012 86 10000 2.74 62 20:33 04.08.2022
2332 Clear 28 1011 74 10000 3.2 72 18:57 04.08.2022
2333 Clear 28 1011 74 10000 3.2 72 18:33 04.08.2022
2334 Clear 29 1013 74 10000 2.75 71 14:50 04.08.2022
2335 Clear 27 1013 76 10000 2.43 82 13:26 04.08.2022
2336 Clear 27 1013 76 10000 1.54 78 11:39 04.08.2022
2337 Clear 23 1013 80 10000 0.47 58 10:20 04.08.2022
2338 Clear 25 1012 91 10000 0.31 39 07:44 04.08.2022
2339 Clear 26 1012 90 10000 2.73 76 02:46 04.08.2022
2340 Clear 25 1013 87 10000 2.36 67 23:58 03.08.2022
2341 Clear 25 1013 87 10000 2.36 67 23:36 03.08.2022
2342 Clear 26 1011 79 10000 3.07 58 21:26 03.08.2022
2343 Clear 27 1011 71 10000 4.14 74 20:20 03.08.2022
2344 Clear 27 1010 67 10000 5.19 80 18:53 03.08.2022
2345 Clear 28 1011 64 10000 6.4 81 16:27 03.08.2022
2346 Clear 27 1011 64 10000 6.4 81 15:53 03.08.2022
2347 Clear 27 1013 67 10000 6.26 81 13:38 03.08.2022
2348 Clear 25 1013 75 10000 5.85 82 10:44 03.08.2022
2349 Clear 22 1012 90 10000 4.86 80 07:21 03.08.2022
2350 Clear 23 1012 91 10000 5.22 74 04:22 03.08.2022
2351 Clear 23 1012 91 10000 5.44 73 03:22 03.08.2022
2352 Clear 24 1013 90 10000 5.75 74 00:46 03.08.2022
2353 Clear 24 1014 89 10000 5.71 74 22:33 02.08.2022
2354 Clear 24 1013 87 10000 6.07 77 21:50 02.08.2022
2355 Clear 25 1013 73 10000 6.77 80 20:27 02.08.2022
2356 Clear 27 1013 66 10000 7.48 83 16:52 02.08.2022
2357 Clear 27 1014 67 10000 7.22 81 14:33 02.08.2022
2358 Clouds 24 1015 75 10000 6.72 84 10:44 02.08.2022
2359 Clouds 23 1015 89 10000 6.27 80 08:38 02.08.2022
2360 Clouds 22 1014 93 10000 6.44 80 07:51 02.08.2022
2361 Clouds 22 1014 93 10000 6.22 77 04:57 02.08.2022
2362 Clouds 22 1015 93 10000 6.21 78 03:30 02.08.2022
2363 Clouds 24 1015 93 10000 5.23 75 23:26 01.08.2022
2364 Clouds 25 1015 91 10000 5.25 74 21:49 01.08.2022
2365 Clear 26 1014 81 10000 6.09 77 20:27 01.08.2022
2366 Clear 27 1014 77 10000 6.55 81 18:56 01.08.2022
2367 Clear 27 1014 72 10000 7.17 83 16:59 01.08.2022
2368 Clear 27 1014 72 10000 7.17 83 16:39 01.08.2022
2369 Clear 26 1014 72 10000 7.37 81 15:45 01.08.2022
2370 Clear 26 1015 73 10000 7.49 81 14:57 01.08.2022
2371 Clouds 26 1015 74 10000 7.4 80 13:32 01.08.2022
2372 Clouds 23 1016 80 10000 7.37 81 11:18 01.08.2022
2373 Clouds 23 1015 89 10000 6.78 76 08:55 01.08.2022
2374 Clouds 22 1015 92 10000 6.83 73 07:37 01.08.2022
2375 Clouds 23 1014 93 10000 6.73 77 04:37 01.08.2022
2376 Clouds 22 1016 95 10000 6.28 71 01:33 01.08.2022
2377 Clouds 23 1015 93 10000 5.69 72 22:47 31.07.2022
2378 Clouds 24 1014 92 10000 5.74 76 22:29 31.07.2022
2379 Clouds 25 1014 86 10000 5.89 77 20:39 31.07.2022
2380 Clouds 28 1014 79 10000 6.54 81 18:40 31.07.2022
2381 Clouds 28 1015 76 10000 7.12 80 17:29 31.07.2022
2382 Clouds 26 1016 78 10000 7.34 78 14:43 31.07.2022
2383 Clouds 26 1016 79 10000 7.04 77 12:59 31.07.2022
2384 Clouds 25 1016 81 10000 6.98 77 11:39 31.07.2022
2385 Clouds 23 1015 89 10000 6.18 75 08:47 31.07.2022
2386 Clouds 23 1014 93 10000 6.18 74 05:38 31.07.2022
2387 Clouds 23 1016 93 10000 7.51 77 01:21 31.07.2022
2388 Clouds 24 1016 93 10000 6.82 76 22:49 30.07.2022
2389 Clouds 23 1015 93 10000 6.43 78 21:52 30.07.2022
2390 Clouds 23 1015 93 10000 6.43 78 21:33 30.07.2022
2391 Clear 23 1014 90 10000 6.56 80 20:38 30.07.2022
2392 Clear 25 1013 84 10000 7.35 78 19:50 30.07.2022
2393 Clear 27 1014 80 10000 7.43 77 18:19 30.07.2022
2394 Clear 25 1014 79 10000 7.95 81 16:38 30.07.2022
2395 Clear 26 1014 77 10000 8.46 83 15:33 30.07.2022
2396 Clouds 24 1016 68 10000 6.59 80 13:23 30.07.2022
2397 Clouds 25 1016 64 10000 5.75 75 12:22 30.07.2022
2398 Clouds 25 1016 64 10000 5.75 75 11:51 30.07.2022
2399 Clouds 25 1015 70 10000 4.58 76 10:20 30.07.2022
2400 Rain 24 1015 72 10000 4.02 74 08:55 30.07.2022
2401 Rain 23 1015 76 10000 3.54 78 07:33 30.07.2022
2402 Clouds 23 1014 73 10000 2.41 82 02:33 30.07.2022
2403 Clouds 24 1015 75 10000 0.64 111 00:30 30.07.2022
2404 Clouds 26 1013 74 10000 1.88 64 21:38 29.07.2022
2405 Clear 27 1013 69 10000 1.98 53 20:50 29.07.2022
2406 Clear 28 1013 62 10000 2.38 77 19:46 29.07.2022
2407 Clear 29 1013 58 10000 0.47 173 17:25 29.07.2022
2408 Clear 27 1013 59 10000 2.3 256 14:48 29.07.2022
2409 Clear 27 1014 59 10000 2.99 264 12:42 29.07.2022
2410 Clear 23 1013 72 10000 2.44 264 08:52 29.07.2022
2411 Clear 23 1013 78 10000 2.5 254 08:23 29.07.2022
2412 Clear 25 1012 77 10000 3.03 256 05:19 29.07.2022
2413 Clear 26 1013 76 10000 3.59 246 23:59 28.07.2022
2414 Clear 27 1012 71 10000 3.57 261 21:41 28.07.2022
2415 Clear 28 1011 65 10000 3.93 255 20:54 28.07.2022
2416 Clear 29 1011 59 10000 4 254 20:18 28.07.2022
2417 Clear 29 1010 59 10000 4.15 261 19:40 28.07.2022
2418 Clear 29 1011 55 10000 4.58 259 18:19 28.07.2022
2419 Clear 29 1011 55 10000 4.58 259 17:36 28.07.2022
2420 Clear 28 1011 55 10000 4.7 261 16:41 28.07.2022
2421 Clear 28 1013 61 10000 4.89 258 14:28 28.07.2022
2422 Clear 28 1013 65 10000 4.83 264 12:41 28.07.2022
2423 Clear 22 1013 80 10000 4.6 246 09:21 28.07.2022
2424 Clear 22 1013 84 10000 4.84 245 05:41 28.07.2022
2425 Clear 22 1013 83 10000 5.33 246 05:21 28.07.2022
2426 Clear 25 1014 78 10000 5.14 260 23:41 27.07.2022
2427 Clear 27 1013 78 10000 5.18 263 21:31 27.07.2022
2428 Clear 27 1013 65 10000 5.42 264 20:19 27.07.2022
2429 Clear 28 1013 58 10000 5.69 265 19:26 27.07.2022
2430 Clear 30 1014 56 10000 5.77 267 16:32 27.07.2022
2431 Clear 30 1014 57 10000 5.59 266 15:51 27.07.2022
2432 Clear 29 1015 58 10000 5.61 269 14:42 27.07.2022
2433 Clear 27 1015 59 10000 5.91 271 13:45 27.07.2022
2434 Clear 25 1015 66 10000 5.66 266 10:39 27.07.2022
2435 Clear 24 1015 85 10000 5.83 262 07:53 27.07.2022
2436 Clear 25 1014 85 10000 6.72 239 04:54 27.07.2022
2437 Clear 28 1015 79 10000 4.15 252 23:25 26.07.2022
2438 Clear 30 1015 78 10000 4.29 258 22:19 26.07.2022
2439 Clear 30 1014 69 10000 4.75 258 20:58 26.07.2022
2440 Clear 33 1014 64 10000 5.06 261 19:32 26.07.2022
2441 Clear 33 1014 59 10000 5.28 258 18:40 26.07.2022
2442 Clear 35 1015 56 10000 5.38 254 17:54 26.07.2022
2443 Clear 32 1015 55 10000 6.03 251 15:46 26.07.2022
2444 Clear 36 1016 55 10000 6.07 254 14:43 26.07.2022
2445 Clear 33 1016 54 10000 6.09 255 12:33 26.07.2022
2446 Clear 30 1015 46 10000 4.31 257 10:20 26.07.2022
2447 Clear 28 1014 44 10000 3.15 268 08:27 26.07.2022
2448 Clear 31 1015 61 10000 4.38 253 01:55 26.07.2022
2449 Clear 32 1016 56 10000 3.85 233 00:20 26.07.2022
2450 Clear 33 1015 52 10000 3.47 243 22:40 25.07.2022
2451 Clear 26 1014 49 10000 2.97 242 21:43 25.07.2022
2452 Clear 26 1014 50 10000 2.18 229 20:43 25.07.2022
2453 Clear 26 1013 47 10000 1.55 228 20:24 25.07.2022
2454 Clear 27 1013 46 10000 1.38 240 19:25 25.07.2022
2455 Clouds 27 1014 48 10000 0.14 177 17:56 25.07.2022
2456 Clouds 27 1014 49 10000 0.9 73 17:20 25.07.2022
2457 Clouds 24 1016 52 10000 3.56 88 13:27 25.07.2022
2458 Clouds 23 1016 55 10000 2.67 92 10:54 25.07.2022
2459 Clouds 25 1015 70 10000 2.78 75 07:59 25.07.2022
2460 Clouds 24 1016 75 10000 3.57 83 01:36 25.07.2022
2461 Clouds 25 1016 74 10000 3.94 69 23:45 24.07.2022
2462 Clouds 25 1016 77 10000 4.08 69 22:47 24.07.2022
2463 Clouds 25 1015 78 10000 4.62 79 21:42 24.07.2022
2464 Clouds 26 1015 73 10000 4.39 79 21:18 24.07.2022
2465 Clouds 26 1015 73 10000 4.38 80 20:44 24.07.2022
2466 Clouds 28 1014 64 10000 5.05 82 19:23 24.07.2022
2467 Clouds 27 1014 60 10000 5.58 79 18:26 24.07.2022
2468 Clouds 26 1015 59 10000 6.86 80 15:55 24.07.2022
2469 Clouds 26 1016 61 10000 6.77 80 14:57 24.07.2022
2470 Clouds 26 1016 59 10000 6.72 79 13:50 24.07.2022
2471 Clouds 25 1017 64 10000 6.45 79 12:28 24.07.2022
2472 Clouds 25 1017 64 10000 6.44 79 11:31 24.07.2022
2473 Clouds 24 1017 72 10000 6.44 77 09:55 24.07.2022
2474 Clear 23 1016 87 10000 5.6 70 08:22 24.07.2022
2475 Clear 23 1016 85 10000 5.31 68 07:41 24.07.2022
2476 Clear 24 1017 87 10000 4.79 65 03:18 24.07.2022
2477 Clear 25 1017 82 10000 5.06 72 23:25 23.07.2022
2478 Clear 26 1016 75 10000 5.3 75 20:49 23.07.2022
2479 Clear 27 1015 64 10000 5.68 74 19:30 23.07.2022
2480 Clear 26 1015 61 10000 5.81 78 18:40 23.07.2022
2481 Clear 27 1015 57 10000 6.53 83 17:27 23.07.2022
2482 Clear 26 1015 56 10000 6.52 85 16:29 23.07.2022
2483 Clear 27 1016 56 10000 6.43 84 15:22 23.07.2022
2484 Clear 27 1016 56 10000 6.43 84 14:55 23.07.2022
2485 Clear 27 1016 57 10000 6.05 81 14:23 23.07.2022
2486 Clear 26 1016 61 10000 5.06 80 11:56 23.07.2022
2487 Clear 25 1016 66 10000 4.98 77 10:44 23.07.2022
2488 Clear 24 1016 72 10000 4.84 77 09:44 23.07.2022
2489 Clear 22 1015 87 10000 5.05 73 07:37 23.07.2022
2490 Clear 23 1015 90 10000 4.97 69 03:37 23.07.2022
2491 Clear 24 1016 89 10000 4.72 65 00:37 23.07.2022
2492 Clear 25 1015 86 10000 5.6 79 21:36 22.07.2022
2493 Clear 25 1015 78 10000 5.81 82 20:31 22.07.2022
2494 Clear 31 1014 67 10000 5.95 81 18:42 22.07.2022
2495 Clear 27 1015 66 10000 6.73 86 17:40 22.07.2022
2496 Clear 27 1015 63 10000 7.24 80 15:48 22.07.2022
2497 Clear 25 1016 70 10000 7.03 80 12:47 22.07.2022
2498 Clouds 23 1016 83 10000 6.32 80 10:22 22.07.2022
2499 Clouds 23 1016 90 10000 6.27 77 09:21 22.07.2022
2500 Clouds 24 1015 94 10000 6.04 77 07:57 22.07.2022
2501 Clouds 23 1016 93 10000 6.23 77 04:23 22.07.2022
2502 Clouds 23 1017 93 10000 6.46 72 23:43 21.07.2022
2503 Clouds 29 1016 93 10000 6.34 72 21:51 21.07.2022
2504 Clear 26 1015 83 10000 7.42 82 19:45 21.07.2022
2505 Clouds 27 1015 79 10000 8.05 82 18:36 21.07.2022
2506 Clouds 27 1016 75 10000 7.75 78 17:22 21.07.2022
2507 Clouds 26 1017 74 10000 8.2 79 16:23 21.07.2022
2508 Clouds 27 1017 74 10000 8.02 80 14:46 21.07.2022
2509 Clouds 26 1018 74 10000 7.66 82 13:53 21.07.2022
2510 Clouds 25 1018 79 10000 7.75 82 11:58 21.07.2022
2511 Clouds 24 1017 86 10000 7.63 79 10:20 21.07.2022
2512 Clouds 23 1017 89 10000 7.34 79 08:53 21.07.2022
2513 Clouds 23 1017 93 10000 6.56 78 07:50 21.07.2022
2514 Clouds 24 1016 95 10000 5.75 76 06:27 21.07.2022
2515 Clear 24 1016 92 10000 5.56 73 02:49 21.07.2022
2516 Clear 24 1016 85 10000 4.71 68 22:47 20.07.2022
2517 Clear 24 1015 82 10000 4.69 68 22:19 20.07.2022
2518 Clear 24 1015 76 10000 4.57 68 20:46 20.07.2022
2519 Clear 25 1014 71 10000 5.23 75 19:46 20.07.2022
2520 Clear 24 1014 68 10000 5.47 78 18:54 20.07.2022
2521 Clear 25 1014 68 10000 5.47 78 18:31 20.07.2022
2522 Clear 26 1015 62 10000 6.42 85 17:25 20.07.2022
2523 Clear 26 1015 63 10000 6.14 81 15:33 20.07.2022
2524 Clear 27 1016 64 10000 5.89 84 14:36 20.07.2022
2525 Clear 24 1016 64 10000 3.38 81 12:54 20.07.2022
2526 Clear 24 1016 59 10000 2.23 93 10:57 20.07.2022
2527 Clear 22 1015 74 10000 2.49 258 06:21 20.07.2022
2528 Clear 25 1016 71 10000 2.76 236 01:40 20.07.2022
2529 Clear 25 1016 69 10000 2.43 256 00:41 20.07.2022
2530 Clear 26 1016 68 10000 2.48 263 22:36 19.07.2022
2531 Clear 26 1015 67 10000 2.7 261 21:54 19.07.2022
2532 Clear 27 1015 60 10000 2.9 254 20:49 19.07.2022
2533 Clear 27 1014 54 10000 3.12 250 19:22 19.07.2022
2534 Clear 27 1014 54 10000 3.11 250 18:41 19.07.2022
2535 Clear 29 1015 57 10000 3.39 256 17:54 19.07.2022
2536 Clear 28 1016 62 10000 2.89 258 15:49 19.07.2022
2537 Clear 27 1017 62 10000 2.97 254 13:37 19.07.2022
2538 Clear 24 1018 62 10000 2.33 250 11:33 19.07.2022
2539 Clear 23 1018 72 10000 1.97 264 09:52 19.07.2022
2540 Clear 21 1017 79 10000 1.58 258 08:47 19.07.2022
2541 Clear 21 1017 85 10000 1.45 264 07:46 19.07.2022
2542 Clear 22 1017 86 10000 1.52 252 07:18 19.07.2022
2543 Clear 22 1017 87 10000 0.41 279 05:18 19.07.2022
2544 Clear 23 1017 87 10000 0.26 51 03:40 19.07.2022
2545 Clear 24 1017 87 10000 1.75 36 23:57 18.07.2022
2546 Clear 24 1017 88 10000 1.93 39 23:20 18.07.2022
2547 Clear 25 1016 87 10000 1.98 39 22:27 18.07.2022
2548 Clear 24 1016 82 10000 2.45 40 21:24 18.07.2022
2549 Clear 26 1016 82 10000 2.45 40 20:34 18.07.2022
2550 Clear 27 1015 73 10000 4.21 73 18:32 18.07.2022
2551 Clear 27 1016 68 10000 5.64 73 16:34 18.07.2022
2552 Clear 27 1017 68 10000 6.22 79 15:28 18.07.2022
2553 Clear 27 1017 69 10000 6.31 79 13:32 18.07.2022
2554 Clear 25 1017 74 10000 4.91 87 11:44 18.07.2022
2555 Clear 25 1017 78 10000 4.2 91 09:55 18.07.2022
2556 Clear 25 1017 78 10000 4.2 91 09:55 18.07.2022
2557 Clouds 24 1017 91 10000 3.13 89 07:59 18.07.2022
2558 Clouds 24 1017 92 10000 3.39 90 05:35 18.07.2022
2559 Clear 25 1016 86 10000 6.6 81 23:19 17.07.2022
2560 Clear 26 1016 86 10000 6.6 81 22:32 17.07.2022
2561 Clear 26 1016 85 10000 6.54 80 21:40 17.07.2022
2562 Clear 27 1015 77 10000 6.78 84 20:46 17.07.2022
2563 Clear 27 1015 70 10000 7.19 83 19:50 17.07.2022
2564 Clear 28 1015 66 10000 7.61 83 19:24 17.07.2022
2565 Clear 28 1015 64 10000 7.97 82 17:54 17.07.2022
2566 Clear 28 1015 64 10000 7.97 82 17:36 17.07.2022
2567 Clouds 27 1016 62 10000 8.78 83 16:33 17.07.2022
2568 Clouds 27 1016 62 10000 8.78 82 15:50 17.07.2022
2569 Clouds 26 1017 63 10000 7.94 83 13:51 17.07.2022
2570 Clouds 26 1017 65 10000 7.2 82 12:56 17.07.2022
2571 Clouds 27 1016 72 10000 6.23 86 10:21 17.07.2022
2572 Clear 26 1016 86 10000 4.64 83 07:31 17.07.2022
2573 Clear 25 1015 86 10000 5.35 103 02:35 17.07.2022
2574 Clear 25 1015 86 10000 7.25 80 23:28 16.07.2022
2575 Clear 25 1015 86 10000 7.25 80 22:43 16.07.2022
2576 Clear 26 1014 77 10000 7.18 81 20:45 16.07.2022
2577 Clear 27 1013 64 10000 8.45 82 18:58 16.07.2022
2578 Clear 28 1014 62 10000 8.91 82 17:47 16.07.2022
2579 Clear 27 1014 61 10000 9.09 83 16:22 16.07.2022
2580 Clear 26 1016 64 10000 8.16 85 13:26 16.07.2022
2581 Clear 26 1015 75 10000 7.1 84 10:29 16.07.2022
2582 Clear 26 1015 83 10000 6.43 84 09:26 16.07.2022
2583 Clear 25 1015 83 10000 6.42 84 08:41 16.07.2022
2584 Clear 24 1014 89 10000 5.96 81 07:23 16.07.2022
2585 Clear 24 1014 87 10000 6.87 85 03:35 16.07.2022
2586 Clear 24 1015 87 10000 7.84 82 00:45 16.07.2022
2587 Clear 24 1014 89 10000 8.01 81 22:56 15.07.2022
2588 Clear 24 1014 88 10000 7.87 81 22:24 15.07.2022
2589 Clear 24 1014 82 10000 8.01 82 20:41 15.07.2022
2590 Clear 25 1013 75 10000 8.25 82 19:34 15.07.2022
2591 Clear 26 1013 67 10000 9.44 80 18:23 15.07.2022
2592 Clear 26 1013 65 10000 9.75 80 16:53 15.07.2022
2593 Clear 26 1014 63 10000 10.11 83 14:19 15.07.2022
2594 Clear 26 1015 64 10000 9.92 80 12:28 15.07.2022
2595 Clear 24 1014 67 10000 9.51 79 10:52 15.07.2022
2596 Clear 24 1013 87 10000 7.41 78 07:48 15.07.2022
2597 Clear 23 1013 88 10000 8 79 03:41 15.07.2022
2598 Clear 24 1015 86 10000 7.68 78 00:40 15.07.2022
2599 Clear 23 1015 86 10000 7.63 79 22:56 14.07.2022
2600 Clear 24 1014 84 10000 7.83 78 22:19 14.07.2022
2601 Clear 24 1014 84 10000 7.83 78 21:39 14.07.2022
2602 Clear 24 1014 78 10000 8.09 78 21:19 14.07.2022
2603 Clear 25 1014 78 10000 8.09 78 20:42 14.07.2022
2604 Clear 24 1014 71 10000 8.29 81 20:18 14.07.2022
2605 Clear 25 1014 66 10000 9.93 82 17:59 14.07.2022
2606 Clear 27 1016 62 10000 9.96 81 16:19 14.07.2022
2607 Clear 26 1016 63 10000 9.87 81 14:55 14.07.2022
2608 Clear 26 1017 63 10000 9.45 81 13:51 14.07.2022
2609 Clear 25 1017 62 10000 9.34 81 12:34 14.07.2022
2610 Clear 25 1017 67 10000 8.32 81 11:26 14.07.2022
2611 Clear 24 1017 67 10000 8.32 81 10:51 14.07.2022
2612 Clear 24 1017 79 10000 7.69 82 08:45 14.07.2022
2613 Clear 24 1017 88 10000 7.06 79 04:18 14.07.2022
2614 Clear 25 1018 86 10000 8.34 82 00:55 14.07.2022
2615 Clear 25 1018 86 10000 8.45 81 00:18 14.07.2022
2616 Clear 24 1018 84 10000 8.6 81 22:28 13.07.2022
2617 Clear 24 1018 84 10000 8.6 81 21:38 13.07.2022
2618 Clear 23 1017 79 10000 8.81 81 20:38 13.07.2022
2619 Clear 26 1017 65 10000 9.78 81 18:26 13.07.2022
2620 Clear 27 1018 64 10000 10.16 81 17:22 13.07.2022
2621 Clear 26 1018 65 10000 10.58 81 16:18 13.07.2022
2622 Clear 25 1019 67 10000 10.88 81 13:50 13.07.2022
2623 Clear 25 1019 71 10000 10.65 82 11:33 13.07.2022
2624 Clear 25 1018 74 10000 10.53 83 10:44 13.07.2022
2625 Clear 24 1018 80 10000 10.07 81 09:29 13.07.2022
2626 Clouds 24 1017 83 10000 9.78 80 08:24 13.07.2022
2627 Clouds 24 1017 82 10000 10.03 79 04:50 13.07.2022
2628 Clear 24 1018 82 10000 8.15 82 00:47 13.07.2022
2629 Clear 23 1018 83 10000 9.72 79 22:47 12.07.2022
2630 Clear 24 1017 84 10000 9.61 77 21:49 12.07.2022
2631 Clear 24 1016 81 10000 9.31 78 20:53 12.07.2022
2632 Clouds 24 1016 77 10000 9.82 80 19:54 12.07.2022
2633 Clouds 25 1015 73 10000 10.07 81 18:43 12.07.2022
2634 Clouds 25 1016 70 10000 10.79 83 16:36 12.07.2022
2635 Clouds 25 1016 71 10000 12.06 83 14:32 12.07.2022
2636 Clouds 25 1017 72 10000 11.78 85 13:43 12.07.2022
2637 Clouds 24 1015 73 10000 12.93 82 11:54 12.07.2022
2638 Clouds 24 1014 78 10000 12.46 82 10:27 12.07.2022
2639 Clouds 23 1014 82 10000 12.1 79 08:57 12.07.2022
2640 Clouds 23 1013 85 10000 11.34 77 07:48 12.07.2022
2641 Clouds 24 1012 87 10000 11.38 79 05:47 12.07.2022
2642 Clouds 23 1012 86 10000 11.25 78 05:29 12.07.2022
2643 Clouds 23 1013 87 10000 10.53 79 01:31 12.07.2022
2644 Clear 24 1013 90 10000 9.54 79 22:43 11.07.2022
2645 Clear 24 1012 89 10000 9.61 80 21:34 11.07.2022
2646 Clear 25 1011 84 10000 9.95 79 20:32 11.07.2022
2647 Clear 25 1011 68 10000 10.4 81 19:18 11.07.2022
2648 Clear 25 1011 63 10000 10.73 81 18:29 11.07.2022
2649 Clear 26 1012 61 10000 10.91 83 16:30 11.07.2022
2650 Clear 25 1012 63 10000 10.86 84 15:28 11.07.2022
2651 Clear 25 1013 66 10000 10.42 83 13:19 11.07.2022
2652 Clear 24 1013 72 10000 9.84 85 11:23 11.07.2022
2653 Clear 24 1012 77 10000 9.33 82 09:55 11.07.2022
2654 Clear 23 1012 85 10000 8.48 82 09:27 11.07.2022
2655 Clear 23 1012 91 10000 7.48 80 08:31 11.07.2022
2656 Clouds 22 1015 91 10000 7.91 80 01:20 11.07.2022
2657 Clouds 22 1015 92 10000 7.83 80 23:54 10.07.2022
2658 Clouds 23 1015 92 10000 7.87 77 22:45 10.07.2022
2659 Clear 24 1014 84 10000 7.57 81 20:56 10.07.2022
2660 Clear 24 1014 84 10000 7.57 81 20:36 10.07.2022
2661 Clear 24 1013 75 10000 8.47 84 19:30 10.07.2022
2662 Clear 24 1013 75 10000 8.47 84 19:30 10.07.2022
2663 Clear 23 1014 67 10000 10.04 80 18:25 10.07.2022
2664 Clear 24 1014 67 10000 10.04 80 17:35 10.07.2022
2665 Clear 24 1015 65 10000 10.5 80 16:21 10.07.2022
2666 Clear 25 1015 65 10000 10.67 80 14:47 10.07.2022
2667 Clear 24 1016 67 10000 10.34 79 13:31 10.07.2022
2668 Clear 24 1016 71 10000 9.78 79 11:57 10.07.2022
2669 Clear 23 1016 77 10000 8.58 78 09:46 10.07.2022
2670 Clear 22 1016 84 10000 7.95 79 08:44 10.07.2022
2671 Clear 22 1016 87 10000 7.32 77 07:20 10.07.2022
2672 Clear 22 1018 86 10000 8.23 82 23:53 09.07.2022
2673 Clear 30 1018 86 10000 8.4 79 22:26 09.07.2022
2674 Clear 24 1018 86 10000 8.4 79 21:47 09.07.2022
2675 Clear 25 1017 73 10000 9.35 79 19:57 09.07.2022
2676 Clear 24 1017 70 10000 10.24 80 18:32 09.07.2022
2677 Clear 25 1017 67 10000 10.78 81 17:32 09.07.2022
2678 Clear 26 1018 66 10000 11.19 82 16:36 09.07.2022
2679 Clear 26 1018 65 10000 11.6 83 15:39 09.07.2022
2680 Clear 26 1019 64 10000 11.95 82 14:24 09.07.2022
2681 Clear 25 1019 64 10000 11.95 82 13:48 09.07.2022
2682 Clear 25 1019 66 10000 11.48 80 12:29 09.07.2022
2683 Clear 25 1019 68 10000 11.33 80 10:42 09.07.2022
2684 Clear 25 1019 71 10000 10.8 80 10:21 09.07.2022
2685 Clear 23 1019 81 10000 9.36 77 07:44 09.07.2022
2686 Clear 23 1019 81 10000 9.36 77 07:44 09.07.2022
2687 Clear 23 1018 84 10000 8.67 77 04:53 09.07.2022
2688 Clear 23 1019 85 10000 9.09 79 00:43 09.07.2022
2689 Clear 23 1019 86 10000 8.75 77 22:41 08.07.2022
2690 Clear 22 1019 85 10000 8.63 78 21:31 08.07.2022
2691 Clear 22 1019 80 10000 8.74 81 20:40 08.07.2022
2692 Clear 23 1018 76 10000 9.19 83 19:48 08.07.2022
2693 Clear 24 1018 70 10000 9.5 83 17:57 08.07.2022
2694 Clear 25 1019 69 10000 9.48 83 16:37 08.07.2022
2695 Clear 24 1019 72 10000 9.7 81 14:51 08.07.2022
2696 Clear 25 1020 74 10000 9.21 81 13:24 08.07.2022
2697 Clear 25 1020 74 10000 9.21 81 13:24 08.07.2022
2698 Clouds 24 1020 78 10000 8.34 84 11:25 08.07.2022
2699 Clouds 24 1020 82 10000 8.09 82 10:26 08.07.2022
2700 Clouds 23 1020 92 10000 7.2 78 08:24 08.07.2022
2701 Clouds 23 1019 93 10000 7.38 77 06:47 08.07.2022
2702 Clouds 22 1020 94 10000 6.84 75 01:19 08.07.2022
2703 Clouds 24 1020 94 10000 6.65 76 22:57 07.07.2022
2704 Clouds 24 1020 94 10000 6.65 76 22:57 07.07.2022
2705 Clouds 24 1020 94 10000 6.6 75 21:57 07.07.2022
2706 Clouds 23 1019 87 10000 7.42 80 19:47 07.07.2022
2707 Clouds 23 1019 81 10000 7.86 80 18:18 07.07.2022
2708 Clouds 26 1019 80 10000 8.2 81 16:43 07.07.2022
2709 Clouds 26 1020 78 10000 8.3 82 14:32 07.07.2022
2710 Clear 26 1020 76 10000 8.01 80 12:46 07.07.2022
2711 Clear 25 1020 73 10000 7.25 78 12:23 07.07.2022
2712 Clear 25 1020 73 10000 7.25 78 11:34 07.07.2022
2713 Clear 23 1020 69 10000 6.8 75 10:46 07.07.2022
2714 Clear 23 1020 68 10000 6.01 76 10:28 07.07.2022
2715 Clear 23 1020 68 10000 6.03 76 09:52 07.07.2022
2716 Clear 20 1019 83 10000 4.77 73 06:32 07.07.2022
2717 Clear 21 1019 79 10000 0.49 299 00:31 07.07.2022
2718 Clear 21 1019 80 10000 1.44 236 23:36 06.07.2022
2719 Clear 23 1019 83 10000 2.02 232 23:18 06.07.2022
2720 Clear 23 1019 83 10000 2.02 232 22:52 06.07.2022
2721 Clear 23 1019 83 10000 2.02 232 22:33 06.07.2022
2722 Clear 23 1019 83 10000 2.02 232 22:33 06.07.2022
2723 Clear 25 1016 69 10000 3.8 248 20:23 06.07.2022
2724 Clear 27 1016 69 10000 2.87 243 19:32 06.07.2022
2725 Clear 27 1017 57 10000 4.13 257 17:21 06.07.2022
2726 Clear 27 1018 57 10000 4.31 259 15:57 06.07.2022
2727 Clear 25 1019 61 10000 4.15 257 12:44 06.07.2022
2728 Clear 25 1020 64 10000 3.76 259 11:52 06.07.2022
2729 Clear 22 1019 69 10000 3.61 263 10:54 06.07.2022
2730 Clouds 20 1019 84 10000 3.47 258 09:25 06.07.2022
2731 Clear 19 1019 89 10000 2.28 277 07:44 06.07.2022
2732 Clear 19 1019 89 10000 2.29 276 07:44 06.07.2022
2733 Clouds 19 1018 89 10000 2.49 278 06:44 06.07.2022
2734 Clear 21 1020 89 10000 4.92 263 00:24 06.07.2022
2735 Clear 22 1019 89 10000 4.78 265 22:43 05.07.2022
2736 Clear 25 1018 81 10000 4.64 263 20:49 05.07.2022
2737 Clear 25 1017 77 10000 5.14 253 20:21 05.07.2022
2738 Clouds 25 1017 77 10000 5.03 256 19:37 05.07.2022
2739 Clear 26 1016 70 10000 5.3 258 17:50 05.07.2022
2740 Clear 26 1017 68 10000 5.4 260 17:19 05.07.2022
2741 Clear 25 1017 66 10000 5.49 261 16:18 05.07.2022
2742 Clear 26 1017 66 10000 5.2 259 14:54 05.07.2022
2743 Clear 27 1018 66 10000 5.22 258 13:34 05.07.2022
2744 Clear 24 1018 68 10000 5.09 263 12:22 05.07.2022
2745 Clear 23 1018 70 10000 4.9 262 10:45 05.07.2022
2746 Clear 22 1018 73 10000 4.41 264 09:52 05.07.2022
2747 Clear 20 1017 86 10000 3.57 255 08:21 05.07.2022
2748 Clear 20 1017 88 10000 3 249 06:48 05.07.2022
2749 Clear 21 1017 88 10000 3.45 280 04:35 05.07.2022
2750 Clouds 23 1019 89 10000 4.89 260 01:25 05.07.2022
2751 Clouds 23 1018 88 10000 4.97 269 23:37 04.07.2022
2752 Clouds 25 1018 87 10000 5.2 267 22:55 04.07.2022
2753 Clouds 24 1017 85 10000 4.83 263 21:56 04.07.2022
2754 Clouds 25 1016 78 10000 5.02 260 20:56 04.07.2022
2755 Clouds 25 1016 78 10000 5.02 260 20:35 04.07.2022
2756 Clouds 25 1015 72 10000 5.27 260 19:56 04.07.2022
2757 Clouds 25 1016 71 10000 5.14 258 19:37 04.07.2022
2758 Clouds 25 1015 67 10000 5.27 257 18:34 04.07.2022
2759 Clouds 25 1016 62 10000 5.99 264 16:42 04.07.2022
2760 Clouds 25 1016 62 10000 5.76 263 15:34 04.07.2022
2761 Clear 25 1017 63 10000 5.3 256 13:41 04.07.2022
2762 Clear 24 1018 63 10000 4.76 257 12:38 04.07.2022
2763 Clear 23 1019 69 10000 3.58 261 10:39 04.07.2022
2764 Clear 22 1019 74 10000 3.01 268 10:20 04.07.2022
2765 Clouds 20 1018 83 10000 2.84 278 08:31 04.07.2022
2766 Clouds 20 1018 88 10000 3.42 277 05:36 04.07.2022
2767 Clear 21 1019 90 10000 4.5 274 00:43 04.07.2022
2768 Clear 23 1019 89 10000 4.66 269 23:27 03.07.2022
2769 Clear 21 1018 87 10000 4.47 266 22:23 03.07.2022
2770 Clear 24 1018 82 10000 4.37 258 20:42 03.07.2022
2771 Clear 25 1017 76 10000 4.87 262 19:42 03.07.2022
2772 Clear 25 1016 72 10000 5.23 262 19:23 03.07.2022
2773 Clear 26 1017 68 10000 5.45 256 17:45 03.07.2022
2774 Clear 26 1017 66 10000 5.2 260 16:58 03.07.2022
2775 Clear 26 1018 67 10000 4.68 258 15:25 03.07.2022
2776 Clear 26 1018 67 10000 4.68 258 14:37 03.07.2022
2777 Clouds 25 1019 67 10000 4.85 264 13:49 03.07.2022
2778 Clouds 24 1019 68 10000 4.88 270 12:41 03.07.2022
2779 Clouds 24 1019 70 10000 4.46 268 11:40 03.07.2022
2780 Clouds 22 1019 74 10000 4.09 257 10:40 03.07.2022
2781 Clouds 21 1019 79 10000 3.65 251 09:59 03.07.2022
2782 Clouds 22 1019 90 10000 2.83 252 07:37 03.07.2022
2783 Clouds 22 1018 89 10000 2.67 245 05:22 03.07.2022
2784 Clouds 23 1019 95 10000 2.31 80 00:24 03.07.2022
2785 Clouds 23 1018 96 10000 2.04 81 22:36 02.07.2022
2786 Clouds 24 1017 95 10000 2.35 88 21:38 02.07.2022
2787 Clouds 25 1016 87 10000 4.69 86 19:53 02.07.2022
2788 Clouds 25 1016 87 10000 4.69 86 19:31 02.07.2022
2789 Clouds 25 1016 85 10000 6.36 89 17:58 02.07.2022
2790 Clouds 25 1016 86 10000 6.36 89 17:36 02.07.2022
2791 Clouds 25 1017 90 10000 6.95 79 15:28 02.07.2022
2792 Clouds 23 1017 90 10000 6.4 78 12:24 02.07.2022
2793 Clouds 22 1017 91 10000 6.47 77 11:28 02.07.2022
2794 Clouds 21 1017 91 10000 6.47 77 10:48 02.07.2022
2795 Clouds 20 1016 91 10000 6.63 76 09:49 02.07.2022
2796 Clouds 21 1016 92 10000 6.48 75 08:36 02.07.2022
2797 Clouds 22 1015 94 10000 5.85 77 08:18 02.07.2022
2798 Clouds 21 1014 90 10000 9.03 79 02:52 02.07.2022
2799 Clouds 22 1015 91 10000 8.86 82 00:27 02.07.2022
2800 Clear 22 1014 92 10000 8.97 80 22:59 01.07.2022
2801 Clear 22 1013 91 10000 8.74 80 21:56 01.07.2022
2802 Clear 22 1013 91 10000 8.74 80 21:37 01.07.2022
2803 Clear 20 1013 86 10000 8.73 81 20:56 01.07.2022
2804 Clear 21 1012 77 10000 8.72 81 19:47 01.07.2022
2805 Clear 21 1013 64 10000 9.11 76 17:58 01.07.2022
2806 Clear 21 1013 64 10000 8.54 72 16:24 01.07.2022
2807 Clear 21 1014 66 10000 7.22 71 13:55 01.07.2022
2808 Clear 24 1014 62 10000 4.43 68 12:59 01.07.2022
2809 Clear 22 1014 54 10000 0.36 90 10:46 01.07.2022
2810 Clear 22 1014 57 10000 0.94 319 10:18 01.07.2022
2811 Clouds 21 1013 75 10000 4.43 242 05:27 01.07.2022
2812 Clouds 21 1014 70 10000 5.3 249 01:27 01.07.2022
2813 Clouds 24 1014 67 10000 4.8 263 23:26 30.06.2022
2814 Clouds 24 1013 67 10000 4.82 263 22:44 30.06.2022
2815 Clouds 25 1013 65 10000 4.86 266 22:26 30.06.2022
2816 Clouds 25 1013 65 10000 4.86 266 21:48 30.06.2022
2817 Clouds 25 1013 59 10000 5 264 20:30 30.06.2022
2818 Clear 26 1012 56 10000 5.28 261 19:55 30.06.2022
2819 Clear 27 1012 54 10000 5.79 263 19:26 30.06.2022
2820 Clear 28 1012 54 10000 5.79 263 18:42 30.06.2022
2821 Clear 26 1012 53 10000 5.93 260 17:44 30.06.2022
2822 Clouds 26 1013 54 10000 6.08 262 16:55 30.06.2022
2823 Clouds 26 1013 55 10000 6.28 262 15:44 30.06.2022
2824 Clear 24 1014 56 10000 6.01 264 13:49 30.06.2022
2825 Clear 24 1014 55 10000 6.49 272 12:36 30.06.2022
2826 Clear 23 1014 55 10000 6.49 272 11:55 30.06.2022
2827 Clear 22 1014 60 10000 5.44 256 09:55 30.06.2022
2828 Clear 22 1014 60 10000 5.44 256 09:35 30.06.2022
2829 Clear 20 1014 80 10000 4.67 255 08:19 30.06.2022
2830 Clear 20 1013 85 10000 4.97 250 07:24 30.06.2022
2831 Clear 23 1013 86 10000 5.1 235 02:38 30.06.2022
2832 Clear 24 1014 84 10000 4.86 243 23:35 29.06.2022
2833 Clear 25 1014 83 10000 4.53 249 22:41 29.06.2022
2834 Clear 24 1013 79 10000 4.6 259 21:43 29.06.2022
2835 Clear 25 1013 69 10000 5.38 265 20:34 29.06.2022
2836 Clear 26 1012 61 10000 4.89 260 19:48 29.06.2022
2837 Clear 27 1013 57 10000 5.04 255 17:54 29.06.2022
2838 Clear 27 1014 58 10000 5.31 257 16:51 29.06.2022
2839 Clear 26 1014 59 10000 5.52 259 15:32 29.06.2022
2840 Clear 25 1015 63 10000 4.56 263 13:20 29.06.2022
2841 Clear 23 1015 62 10000 3.99 261 11:57 29.06.2022
2842 Clear 19 1016 58 10000 2.27 248 09:35 29.06.2022
2843 Clear 18 1016 59 10000 1.55 225 08:46 29.06.2022
2844 Clear 18 1015 68 10000 1.17 197 06:27 29.06.2022
2845 Clear 20 1017 77 10000 2.38 86 02:21 29.06.2022
2846 Clear 21 1017 78 10000 2.69 65 00:38 29.06.2022
2847 Clear 21 1017 80 10000 3.05 54 23:55 28.06.2022
2848 Clear 21 1017 81 10000 3.22 58 22:48 28.06.2022
2849 Clear 21 1017 79 10000 3.24 61 21:55 28.06.2022
2850 Clear 21 1017 79 10000 3.24 61 21:33 28.06.2022
2851 Clear 21 1016 73 10000 3.28 61 20:55 28.06.2022
2852 Clear 22 1016 66 10000 3.62 65 19:48 28.06.2022
2853 Clear 22 1016 61 10000 5 75 19:24 28.06.2022
2854 Clear 22 1016 58 10000 5.47 78 17:49 28.06.2022
2855 Clear 22 1016 56 10000 6.5 80 16:29 28.06.2022
2856 Clear 21 1016 56 10000 6.5 80 15:53 28.06.2022
2857 Clear 22 1017 66 10000 6.44 72 14:22 28.06.2022
2858 Clear 21 1017 67 10000 5.81 76 13:55 28.06.2022
2859 Clear 21 1017 68 10000 5.03 72 13:26 28.06.2022
2860 Clear 21 1018 69 10000 3.91 71 11:57 28.06.2022
2861 Clear 21 1018 63 10000 1.55 59 09:46 28.06.2022
2862 Clear 19 1018 64 10000 0.46 344 08:46 28.06.2022
2863 Clear 19 1017 75 10000 0.73 279 07:58 28.06.2022
2864 Clear 18 1017 79 10000 2.51 246 07:19 28.06.2022
2865 Clear 21 1018 81 10000 5.35 229 01:36 28.06.2022
2866 Clear 21 1018 79 10000 5.07 245 23:47 27.06.2022
2867 Clear 21 1018 76 10000 4.86 255 22:55 27.06.2022
2868 Clear 23 1018 72 10000 5.46 262 21:38 27.06.2022
2869 Clear 23 1017 66 10000 5.87 263 20:55 27.06.2022
2870 Clear 23 1017 60 10000 6.26 262 19:44 27.06.2022
2871 Clear 25 1017 56 10000 6.48 264 18:40 27.06.2022
2872 Clear 25 1017 54 10000 6.47 264 16:44 27.06.2022
2873 Clear 25 1017 54 10000 6.73 266 15:42 27.06.2022
2874 Clear 23 1018 55 10000 7.24 272 13:44 27.06.2022
2875 Clear 23 1018 55 10000 7.99 271 12:57 27.06.2022
2876 Clear 21 1017 55 10000 7.12 279 10:43 27.06.2022
2877 Clear 19 1017 58 10000 6.51 284 09:37 27.06.2022
2878 Clear 18 1017 59 10000 6.13 289 08:32 27.06.2022
2879 Clear 18 1016 59 10000 5.64 287 07:38 27.06.2022
2880 Clear 20 1014 69 10000 5.6 299 04:21 27.06.2022
2881 Clear 21 1015 79 10000 6.86 242 01:19 27.06.2022
2882 Clear 21 1014 73 10000 6.72 269 22:27 26.06.2022
2883 Clear 23 1013 65 10000 6.9 273 20:55 26.06.2022
2884 Clear 23 1013 57 10000 7.44 274 19:59 26.06.2022
2885 Clear 25 1013 51 10000 7.47 272 18:32 26.06.2022
2886 Clear 26 1013 49 10000 7.48 272 17:33 26.06.2022
2887 Clear 25 1013 51 10000 7.7 275 15:31 26.06.2022
2888 Clear 24 1014 54 10000 7.34 271 13:55 26.06.2022
2889 Clear 24 1014 54 10000 7.84 269 13:23 26.06.2022
2890 Clear 23 1013 49 10000 5.87 272 11:27 26.06.2022
2891 Clear 22 1013 53 10000 5.8 274 10:28 26.06.2022
2892 Clear 21 1013 53 10000 5.8 274 09:39 26.06.2022
2893 Clear 20 1012 79 10000 5.17 272 07:45 26.06.2022
2894 Clear 21 1012 89 10000 5.94 240 02:52 26.06.2022
2895 Clear 20 1013 89 10000 5.67 260 00:21 26.06.2022
2896 Clear 20 1013 88 10000 5.7 260 23:51 25.06.2022
2897 Clear 21 1013 87 10000 5.56 264 23:24 25.06.2022
2898 Clear 22 1012 83 10000 5.8 271 22:27 25.06.2022
2899 Clear 23 1012 83 10000 5.8 271 21:46 25.06.2022
2900 Clear 24 1012 75 10000 6.07 272 21:20 25.06.2022
2901 Clear 26 1012 75 10000 6.07 272 20:30 25.06.2022
2902 Clear 25 1012 69 10000 6.37 271 19:42 25.06.2022
2903 Clear 28 1012 62 10000 6.41 271 18:19 25.06.2022
2904 Clear 28 1012 62 10000 6.4 271 18:19 25.06.2022
2905 Clear 25 1013 63 10000 6.66 273 17:24 25.06.2022
2906 Clear 26 1013 63 10000 6.73 272 15:36 25.06.2022
2907 Clear 24 1014 64 10000 6.29 271 13:41 25.06.2022
2908 Clear 25 1014 65 10000 6.09 269 12:38 25.06.2022
2909 Clear 23 1015 67 10000 5.59 266 10:45 25.06.2022
2910 Clear 20 1015 72 10000 5.05 272 09:20 25.06.2022
2911 Clear 20 1015 72 10000 5.05 272 08:41 25.06.2022
2912 Clear 20 1015 79 10000 4.96 273 08:19 25.06.2022
2913 Clear 20 1015 86 10000 4.94 247 04:18 25.06.2022
2914 Clear 22 1016 85 10000 5.31 270 00:38 25.06.2022
2915 Clear 23 1016 78 10000 5.27 274 22:55 24.06.2022
2916 Clear 23 1016 74 10000 5.64 276 21:42 24.06.2022
2917 Clear 24 1016 68 10000 5.83 275 20:48 24.06.2022
2918 Clear 25 1015 64 10000 5.95 273 20:19 24.06.2022
2919 Clear 26 1015 65 10000 6.17 272 19:21 24.06.2022
2920 Clear 27 1015 65 10000 6.17 272 18:49 24.06.2022
2921 Clear 27 1015 65 10000 6.17 272 18:30 24.06.2022
2922 Clear 27 1016 65 10000 6.29 272 17:20 24.06.2022
2923 Clear 27 1017 67 10000 6.39 268 15:29 24.06.2022
2924 Clear 26 1018 68 10000 6.58 267 14:27 24.06.2022
2925 Clear 25 1018 68 10000 6.58 267 13:55 24.06.2022
2926 Clear 22 1018 69 10000 6.06 268 11:44 24.06.2022
2927 Clear 22 1018 71 10000 5.48 274 10:55 24.06.2022
2928 Clear 21 1018 73 10000 5.11 277 09:49 24.06.2022
2929 Clear 20 1018 78 10000 4.67 280 09:28 24.06.2022
2930 Clear 20 1018 78 10000 4.67 280 08:51 24.06.2022
2931 Clear 19 1017 86 10000 4.59 282 06:48 24.06.2022
2932 Clear 19 1017 86 10000 4.59 282 06:30 24.06.2022
2933 Clear 19 1017 86 10000 4.52 286 05:52 24.06.2022
2934 Clear 20 1019 85 10000 4.96 288 01:21 24.06.2022
2935 Clear 22 1019 82 10000 5.02 288 22:44 23.06.2022
2936 Clear 22 1018 79 10000 5.39 281 21:54 23.06.2022
2937 Clear 24 1017 73 10000 5.67 279 20:54 23.06.2022
2938 Clear 24 1017 73 10000 5.67 279 20:32 23.06.2022
2939 Clear 25 1016 65 10000 6.3 278 18:44 23.06.2022
2940 Clear 25 1016 63 10000 6.13 277 17:45 23.06.2022
2941 Clear 25 1017 64 10000 6.45 276 16:36 23.06.2022
2942 Clear 26 1017 64 10000 5.85 273 15:29 23.06.2022
2943 Clear 26 1017 64 10000 5.85 273 14:59 23.06.2022
2944 Clouds 23 1018 66 10000 5.62 266 12:39 23.06.2022
2945 Clouds 21 1017 70 10000 5.15 262 11:19 23.06.2022
2946 Clouds 20 1016 78 10000 4 254 09:20 23.06.2022
2947 Clear 19 1015 85 10000 3.75 269 05:51 23.06.2022
2948 Clear 20 1016 86 10000 4.67 269 01:22 23.06.2022
2949 Clear 21 1016 86 10000 5.12 270 00:25 23.06.2022
2950 Clear 21 1016 85 10000 5.02 274 23:22 22.06.2022
2951 Clear 22 1016 82 10000 5.16 274 21:44 22.06.2022
2952 Clear 23 1015 77 10000 5.71 270 20:52 22.06.2022
2953 Clear 22 1015 72 10000 6.1 271 20:20 22.06.2022
2954 Clear 23 1015 72 10000 6.12 271 19:44 22.06.2022
2955 Clear 24 1015 67 10000 6.85 270 17:50 22.06.2022
2956 Clear 24 1015 65 10000 7.08 271 16:43 22.06.2022
2957 Clear 23 1016 62 10000 6.86 267 15:29 22.06.2022
2958 Clear 24 1016 62 10000 6.86 267 14:57 22.06.2022
2959 Clouds 23 1016 60 10000 6.67 261 13:49 22.06.2022
2960 Clouds 22 1016 61 10000 6.56 255 13:24 22.06.2022
2961 Clouds 23 1016 61 10000 6.56 255 12:31 22.06.2022
2962 Clouds 22 1016 63 10000 6.59 260 11:45 22.06.2022
2963 Clouds 22 1016 63 10000 6.59 260 11:45 22.06.2022
2964 Clouds 20 1016 65 10000 6.39 261 10:47 22.06.2022
2965 Clouds 19 1016 68 10000 5.29 262 09:40 22.06.2022
2966 Clear 18 1015 77 10000 5.13 277 07:22 22.06.2022
2967 Clear 20 1015 75 10000 7.03 274 02:39 22.06.2022
2968 Clear 20 1016 74 10000 7.64 264 00:57 22.06.2022
2969 Clear 20 1016 74 10000 7.64 264 00:57 22.06.2022
2970 Clear 20 1016 76 10000 7 265 22:53 21.06.2022
2971 Clear 22 1014 70 10000 7.67 273 20:58 21.06.2022
2972 Clear 24 1013 66 10000 8.26 274 19:30 21.06.2022
2973 Clear 24 1013 66 10000 8.26 274 19:30 21.06.2022
2974 Clear 24 1013 61 10000 8.36 273 17:56 21.06.2022
2975 Clear 25 1014 61 10000 8.38 275 16:47 21.06.2022
2976 Clouds 21 1014 60 10000 6.55 269 11:59 21.06.2022
2977 Clouds 22 1013 61 10000 5.81 272 10:46 21.06.2022
2978 Clouds 20 1014 65 10000 4.89 277 09:35 21.06.2022
2979 Clouds 20 1013 77 10000 4.66 279 07:49 21.06.2022
2980 Clear 20 1013 80 10000 5.02 259 04:57 21.06.2022
2981 Clear 20 1016 74 10000 6.88 270 00:23 21.06.2022
2982 Clear 21 1015 70 10000 6.02 265 22:21 20.06.2022
2983 Clear 21 1015 70 10000 6.02 265 21:40 20.06.2022
2984 Clear 23 1014 62 10000 6.46 261 20:29 20.06.2022
2985 Clouds 23 1014 64 10000 6.71 263 19:36 20.06.2022
2986 Clouds 23 1013 63 10000 7.44 269 18:34 20.06.2022
2987 Clouds 24 1013 62 10000 7.4 273 17:49 20.06.2022
2988 Clouds 24 1013 62 10000 7.38 273 16:36 20.06.2022
2989 Clouds 24 1014 64 10000 7.51 274 15:30 20.06.2022
2990 Clouds 23 1015 70 10000 7.42 266 12:37 20.06.2022
2991 Clouds 22 1014 74 10000 6.33 270 10:22 20.06.2022
2992 Clouds 21 1014 79 10000 5.97 271 08:56 20.06.2022
2993 Clouds 20 1013 84 10000 5.44 270 07:52 20.06.2022
2994 Clouds 21 1012 89 10000 5.56 267 05:26 20.06.2022
2995 Clear 21 1014 89 10000 4.8 269 01:33 20.06.2022
2996 Clear 22 1014 89 10000 5.02 263 00:19 20.06.2022
2997 Clear 22 1014 88 10000 5.2 263 22:43 19.06.2022
2998 Clear 23 1013 86 10000 5.16 266 21:48 19.06.2022
2999 Clear 23 1012 80 10000 5.2 266 21:29 19.06.2022
3000 Clear 25 1012 81 10000 5.03 267 20:30 19.06.2022
3001 Clear 26 1011 77 10000 5.5 270 19:46 19.06.2022
3002 Clear 27 1011 74 10000 5.94 267 18:43 19.06.2022
3003 Clear 25 1012 72 10000 6.17 267 17:48 19.06.2022
3004 Clear 26 1012 71 10000 6.32 269 17:21 19.06.2022
3005 Clear 25 1012 71 10000 6.32 269 16:34 19.06.2022
3006 Clear 25 1013 70 10000 6.26 271 15:38 19.06.2022
3007 Clouds 25 1013 69 10000 6.16 269 14:55 19.06.2022
3008 Clouds 24 1014 68 10000 6.08 269 13:58 19.06.2022
3009 Clouds 23 1014 69 10000 5.79 271 12:56 19.06.2022
3010 Clouds 22 1014 73 10000 5.41 266 10:54 19.06.2022
3011 Clouds 20 1014 76 10000 5.61 266 09:40 19.06.2022
3012 Clouds 20 1014 81 10000 5.52 267 08:47 19.06.2022
3013 Clouds 20 1014 87 10000 5.01 271 07:48 19.06.2022
3014 Clear 20 1014 87 10000 5.42 271 04:41 19.06.2022
3015 Clear 21 1016 87 10000 5.3 274 01:29 19.06.2022
3016 Clear 22 1016 86 10000 5.27 268 00:24 19.06.2022
3017 Clear 23 1016 84 10000 5.25 270 23:35 18.06.2022
3018 Clear 24 1016 84 10000 5.25 270 22:36 18.06.2022
3019 Clear 24 1015 74 10000 5.13 264 20:56 18.06.2022
3020 Clear 22 1014 69 10000 5.67 264 20:28 18.06.2022
3021 Clear 27 1013 72 10000 5.52 264 19:32 18.06.2022
3022 Clear 27 1013 72 10000 5.55 261 18:44 18.06.2022
3023 Clear 28 1014 72 10000 5.52 259 17:30 18.06.2022
3024 Clear 28 1014 73 10000 5.36 258 16:37 18.06.2022
3025 Clear 29 1015 72 10000 5.11 263 15:22 18.06.2022
3026 Clear 28 1015 72 10000 5.11 263 14:42 18.06.2022
3027 Clear 27 1016 70 10000 4.29 259 13:22 18.06.2022
3028 Clear 25 1016 69 10000 3.95 262 11:34 18.06.2022
3029 Clear 25 1016 70 10000 3.3 254 10:46 18.06.2022
3030 Clear 23 1016 75 10000 2.9 265 09:20 18.06.2022
3031 Clear 23 1016 75 10000 2.9 265 09:20 18.06.2022
3032 Clouds 20 1016 78 10000 1.77 290 08:19 18.06.2022
3033 Clouds 22 1015 80 10000 0.95 327 06:43 18.06.2022
3034 Clouds 25 1016 77 10000 1.52 82 03:24 18.06.2022
3035 Clouds 26 1017 86 10000 1.78 28 01:24 18.06.2022
3036 Clouds 27 1017 86 10000 1.78 28 00:42 18.06.2022
3037 Clouds 27 1018 85 10000 1.47 80 23:52 17.06.2022
3038 Clouds 27 1018 85 10000 1.47 80 23:52 17.06.2022
3039 Clouds 27 1017 83 10000 1.79 72 22:56 17.06.2022
3040 Clouds 27 1015 76 10000 4.54 71 20:42 17.06.2022
3041 Clouds 27 1015 71 10000 6.07 74 19:29 17.06.2022
3042 Clouds 27 1015 71 10000 6.07 74 18:34 17.06.2022
3043 Clouds 27 1016 68 10000 6.61 69 17:34 17.06.2022
3044 Clouds 28 1016 67 10000 7.29 70 16:42 17.06.2022
3045 Clouds 27 1016 65 10000 8.09 74 15:42 17.06.2022
3046 Clouds 27 1017 64 10000 8.67 76 14:50 17.06.2022
3047 Clouds 27 1017 63 10000 8.54 80 14:19 17.06.2022
3048 Clouds 25 1017 64 10000 6.57 78 13:42 17.06.2022
3049 Clouds 25 1018 65 10000 5.2 82 12:42 17.06.2022
3050 Clouds 26 1018 64 10000 3.47 87 11:56 17.06.2022
3051 Clouds 26 1018 64 10000 3.46 87 11:35 17.06.2022
3052 Clouds 22 1017 72 10000 0.64 303 09:59 17.06.2022
3053 Clouds 21 1017 85 10000 2.46 294 08:27 17.06.2022
3054 Clouds 21 1017 86 10000 2.65 292 06:57 17.06.2022
3055 Clouds 23 1017 86 10000 2.6 268 04:52 17.06.2022
3056 Clouds 23 1018 84 10000 3.07 279 02:42 17.06.2022
3057 Clouds 24 1018 79 10000 2.35 275 00:33 17.06.2022
3058 Clouds 26 1018 81 10000 3.72 277 22:44 16.06.2022
3059 Clouds 27 1016 77 10000 2.49 291 21:26 16.06.2022
3060 Clouds 27 1016 77 10000 2.5 291 20:59 16.06.2022
3061 Clouds 27 1016 77 10000 2.49 291 20:36 16.06.2022
3062 Clouds 27 1015 72 10000 1.33 353 19:53 16.06.2022
3063 Clouds 27 1015 68 10000 1.66 343 18:28 16.06.2022
3064 Clouds 28 1015 68 10000 1.66 343 17:43 16.06.2022
3065 Clouds 27 1016 69 10000 2.54 32 16:39 16.06.2022
3066 Clouds 27 1017 70 10000 1.8 58 15:24 16.06.2022
3067 Clouds 27 1017 70 10000 1.8 58 14:46 16.06.2022
3068 Clouds 27 1017 71 10000 1.52 300 13:34 16.06.2022
3069 Clouds 24 1017 71 10000 1.86 245 12:37 16.06.2022
3070 Clouds 25 1016 72 10000 1.87 233 11:52 16.06.2022
3071 Clouds 23 1016 76 10000 2.7 255 10:56 16.06.2022
3072 Clouds 23 1016 83 10000 3.15 273 10:27 16.06.2022
3073 Clouds 22 1016 89 10000 3.15 284 09:21 16.06.2022
3074 Clouds 21 1016 89 10000 3.15 284 08:30 16.06.2022
3075 Clouds 21 1016 92 10000 3.92 280 07:26 16.06.2022
3076 Clouds 23 1017 92 10000 3.91 274 04:50 16.06.2022
3077 Clouds 24 1018 94 10000 4.64 264 02:21 16.06.2022
3078 Clouds 24 1018 94 10000 4.64 264 01:42 16.06.2022
3079 Clouds 22 1018 91 10000 4.96 260 01:21 16.06.2022
3080 Clouds 23 1017 84 10000 3.28 255 23:47 15.06.2022
3081 Clouds 23 1017 84 10000 3.28 255 23:47 15.06.2022
3082 Clouds 23 1018 87 10000 3.17 270 22:38 15.06.2022
3083 Rain 23 1015 78 10000 3.55 290 21:22 15.06.2022
3084 Clouds 24 1015 78 10000 3.55 291 20:44 15.06.2022
3085 Clouds 24 1015 78 10000 3.55 290 20:44 15.06.2022
3086 Clouds 24 1014 69 10000 0.2 118 20:25 15.06.2022
3087 Clouds 26 1014 64 10000 2.68 72 19:29 15.06.2022
3088 Clouds 25 1013 57 10000 6.21 83 17:56 15.06.2022
3089 Clouds 24 1013 58 10000 6.8 81 17:25 15.06.2022
3090 Clouds 24 1013 54 10000 6.83 81 15:38 15.06.2022
3091 Clouds 25 1014 57 10000 6.84 76 14:23 15.06.2022
3092 Clouds 25 1015 62 10000 7.13 73 12:54 15.06.2022
3093 Clouds 26 1016 64 10000 6.75 78 11:58 15.06.2022
3094 Clouds 24 1015 68 10000 7.17 77 10:24 15.06.2022
3095 Clouds 24 1015 68 10000 7.17 77 10:24 15.06.2022
3096 Clouds 22 1015 68 10000 7.17 77 09:43 15.06.2022
3097 Clouds 21 1015 70 10000 5.93 79 08:40 15.06.2022
3098 Clouds 21 1015 73 10000 4.17 72 06:34 15.06.2022
3099 Clouds 23 1015 75 10000 1.08 64 04:34 15.06.2022
3100 Clouds 22 1016 73 10000 2 81 01:54 15.06.2022
3101 Clouds 24 1016 79 10000 0.68 237 00:50 15.06.2022
3102 Clouds 23 1017 79 10000 1.16 169 23:39 14.06.2022
3103 Clouds 23 1016 75 10000 2.44 176 23:21 14.06.2022
3104 Clouds 28 1013 71 10000 3.7 46 22:23 14.06.2022
3105 Clouds 24 1013 71 10000 3.7 46 21:38 14.06.2022
3106 Clouds 25 1013 71 10000 4.2 71 20:54 14.06.2022
3107 Clear 24 1012 62 10000 4.17 79 20:28 14.06.2022
3108 Clouds 25 1013 59 10000 3.16 100 19:18 14.06.2022
3109 Clouds 25 1013 55 10000 4.33 80 17:54 14.06.2022
3110 Clouds 26 1013 55 10000 5.67 83 16:44 14.06.2022
3111 Clouds 25 1014 55 10000 6.08 82 15:50 14.06.2022
3112 Clouds 25 1014 56 10000 5.52 82 15:24 14.06.2022
3113 Clouds 26 1014 56 10000 5.52 82 14:33 14.06.2022
3114 Clear 26 1015 52 10000 4.19 78 13:42 14.06.2022
3115 Clear 26 1015 53 10000 2.75 85 12:45 14.06.2022
3116 Clear 27 1015 54 10000 1.78 97 11:38 14.06.2022
3117 Clear 23 1015 55 10000 1.96 96 10:47 14.06.2022
3118 Clear 23 1015 61 10000 0.91 59 10:20 14.06.2022
3119 Clear 21 1015 68 10000 1.05 335 08:48 14.06.2022
3120 Clouds 21 1014 77 10000 2.65 93 07:34 14.06.2022
3121 Clouds 21 1014 75 10000 2.39 98 05:28 14.06.2022
3122 Clouds 21 1016 84 10000 2.57 98 02:58 14.06.2022
3123 Clouds 22 1017 86 10000 2.05 110 00:53 14.06.2022
3124 Clouds 22 1016 86 10000 4.13 129 23:39 13.06.2022
3125 Clouds 26 1014 83 10000 7.09 84 22:26 13.06.2022
3126 Clouds 23 1014 82 10000 7.09 84 21:50 13.06.2022
3127 Clouds 24 1014 76 10000 7.38 81 20:42 13.06.2022
3128 Clouds 24 1013 71 10000 7.89 80 19:34 13.06.2022
3129 Clouds 25 1014 64 10000 7.77 78 18:25 13.06.2022
3130 Clouds 25 1014 64 10000 7.77 78 17:46 13.06.2022
3131 Clouds 25 1014 61 10000 7.65 77 16:52 13.06.2022
3132 Clouds 24 1015 60 10000 7.84 78 15:38 13.06.2022
3133 Clouds 27 1015 57 10000 7.28 78 14:43 13.06.2022
3134 Clouds 27 1016 58 10000 7.1 79 13:53 13.06.2022
3135 Clouds 27 1016 59 10000 7.19 79 12:48 13.06.2022
3136 Clouds 27 1016 59 10000 7.19 79 12:48 13.06.2022
3137 Clouds 25 1016 59 10000 7.69 79 11:26 13.06.2022
3138 Clouds 25 1016 63 10000 7.41 78 10:27 13.06.2022
3139 Clouds 23 1016 63 10000 7.41 78 09:38 13.06.2022
3140 Clouds 23 1016 72 10000 6.6 80 07:51 13.06.2022
3141 Clouds 23 1016 71 10000 6.69 81 05:49 13.06.2022
3142 Clouds 22 1017 75 10000 6.49 80 02:55 13.06.2022
3143 Clouds 23 1018 76 10000 6.17 83 01:37 13.06.2022
3144 Clouds 23 1018 83 10000 5.75 79 00:21 13.06.2022
3145 Clouds 22 1018 84 10000 5.56 71 23:25 12.06.2022
3146 Clouds 27 1018 83 10000 6.05 111 22:22 12.06.2022
3147 Clouds 22 1016 77 10000 9.05 76 21:27 12.06.2022
3148 Clouds 23 1015 75 10000 8.67 78 20:33 12.06.2022
3149 Clear 23 1015 65 10000 9.72 79 19:30 12.06.2022
3150 Clear 24 1015 63 10000 10.26 79 17:54 12.06.2022
3151 Clear 24 1016 62 10000 10.58 77 16:34 12.06.2022
3152 Clear 23 1017 66 10000 11.13 81 15:18 12.06.2022
3153 Clouds 23 1017 66 10000 11.13 80 14:29 12.06.2022
3154 Clouds 24 1017 66 10000 10.55 80 13:55 12.06.2022
3155 Clouds 24 1017 68 10000 10.58 80 12:43 12.06.2022
3156 Clouds 23 1017 68 10000 10.56 83 11:40 12.06.2022
3157 Clouds 22 1017 69 10000 10.53 83 10:38 12.06.2022
3158 Clear 21 1017 77 10000 10.71 81 09:19 12.06.2022
3159 Clear 21 1017 77 10000 10.71 81 08:45 12.06.2022
3160 Clouds 25 1017 80 10000 9.02 78 07:38 12.06.2022
3161 Clouds 22 1016 76 10000 9.77 79 04:52 12.06.2022
3162 Clouds 22 1017 77 10000 9.16 74 03:29 12.06.2022
3163 Clouds 23 1017 77 10000 9.41 78 01:42 12.06.2022
3164 Clouds 23 1018 78 10000 8.14 80 00:58 12.06.2022
3165 Clouds 21 1017 79 10000 8.36 76 00:21 12.06.2022
3166 Clouds 21 1017 79 10000 8.36 76 23:44 11.06.2022
3167 Clouds 21 1017 84 10000 8.73 74 22:39 11.06.2022
3168 Clouds 21 1017 84 10000 8.46 78 21:53 11.06.2022
3169 Clouds 22 1017 79 10000 9.68 100 20:38 11.06.2022
3170 Clear 23 1015 75 10000 10.81 81 19:46 11.06.2022
3171 Clear 24 1015 71 10000 11.44 85 19:26 11.06.2022
3172 Clear 24 1015 71 10000 11.44 85 18:34 11.06.2022
3173 Clear 24 1015 69 10000 11.66 83 17:51 11.06.2022
3174 Clouds 25 1015 69 10000 11.64 82 17:27 11.06.2022
3175 Clouds 25 1015 69 10000 11.63 82 16:56 11.06.2022
3176 Clouds 25 1016 69 10000 11.42 83 16:29 11.06.2022
3177 Clouds 25 1016 69 10000 11.42 83 15:42 11.06.2022
3178 Clear 24 1016 70 10000 12.23 84 13:53 11.06.2022
3179 Clouds 24 1017 71 10000 12.21 83 12:51 11.06.2022
3180 Clouds 24 1016 73 10000 11.7 83 10:54 11.06.2022
3181 Clouds 23 1016 79 10000 11.36 81 09:55 11.06.2022
3182 Clouds 23 1016 83 10000 10.74 81 09:19 11.06.2022
3183 Clouds 22 1016 86 10000 9.74 82 07:41 11.06.2022
3184 Clouds 22 1015 86 10000 9.49 82 06:30 11.06.2022
3185 Clouds 21 1015 86 10000 9.36 80 04:30 11.06.2022
3186 Clear 22 1016 86 10000 9.27 77 01:53 11.06.2022
3187 Clear 22 1016 86 10000 9.26 77 01:32 11.06.2022
3188 Clear 21 1016 86 10000 9.76 78 23:49 10.06.2022
3189 Clear 28 1016 87 10000 9.83 80 22:31 10.06.2022
3190 Clear 22 1016 87 10000 9.8 78 21:52 10.06.2022
3191 Clear 22 1016 84 10000 10.13 80 20:41 10.06.2022
3192 Clear 23 1015 79 10000 10.5 80 20:21 10.06.2022
3193 Clear 23 1015 75 10000 10.57 81 19:20 10.06.2022
3194 Clear 23 1015 75 10000 10.57 81 18:55 10.06.2022
3195 Clear 23 1015 73 10000 10.73 82 17:55 10.06.2022
3196 Clear 23 1015 73 10000 10.73 82 17:33 10.06.2022
3197 Clear 24 1016 71 10000 10.93 83 16:47 10.06.2022
3198 Clear 24 1016 72 10000 11.17 83 15:40 10.06.2022
3199 Clear 24 1016 72 10000 11.31 83 14:51 10.06.2022
3200 Clouds 23 1017 75 10000 11.05 82 13:26 10.06.2022
3201 Clouds 22 1017 76 10000 10.77 83 11:59 10.06.2022
3202 Clouds 22 1016 78 10000 10.53 81 11:25 10.06.2022
3203 Clouds 21 1016 78 10000 10.53 81 10:35 10.06.2022
3204 Clouds 20 1016 85 10000 9.52 79 09:21 10.06.2022
3205 Clouds 20 1016 89 10000 8.41 79 07:51 10.06.2022
3206 Clouds 21 1015 89 10000 8.21 80 06:48 10.06.2022
3207 Clouds 21 1015 89 10000 8.1 80 06:28 10.06.2022
3208 Clouds 21 1015 89 10000 8.1 80 05:31 10.06.2022
3209 Clouds 20 1016 93 10000 7.6 76 02:46 10.06.2022
3210 Clouds 20 1016 93 10000 7.07 73 01:37 10.06.2022
3211 Clouds 20 1016 93 10000 6.74 70 23:58 09.06.2022
3212 Clouds 20 1016 93 10000 6.39 65 22:43 09.06.2022
3213 Clouds 22 1015 90 10000 5.94 61 21:43 09.06.2022
3214 Clouds 22 1015 85 10000 5.86 61 21:24 09.06.2022
3215 Clouds 22 1015 85 10000 5.84 61 20:38 09.06.2022
3216 Clouds 23 1014 80 10000 5.66 64 19:43 09.06.2022
3217 Clouds 23 1014 76 10000 5.04 71 18:37 09.06.2022
3218 Clouds 22 1015 68 10000 2.21 57 17:31 09.06.2022
3219 Clouds 23 1015 63 10000 1.21 281 16:28 09.06.2022
3220 Clouds 26 1015 63 10000 3.44 239 14:52 09.06.2022
3221 Clouds 27 1015 64 10000 3.78 236 14:27 09.06.2022
3222 Clouds 28 1015 64 10000 3.79 234 13:30 09.06.2022
3223 Clouds 29 1016 67 10000 3.44 254 12:55 09.06.2022
3224 Clouds 28 1016 71 10000 3.78 262 11:33 09.06.2022
3225 Clouds 25 1016 78 10000 4.09 251 09:55 09.06.2022
3226 Clouds 25 1016 78 10000 4.07 251 09:55 09.06.2022
3227 Clouds 25 1016 78 10000 4.09 251 09:37 09.06.2022
3228 Clouds 24 1016 84 10000 4.09 243 08:33 09.06.2022
3229 Clouds 23 1015 88 10000 4.19 244 07:24 09.06.2022
3230 Clouds 25 1016 87 10000 4.05 243 03:31 09.06.2022
3231 Clouds 24 1016 83 10000 4.22 248 00:34 09.06.2022
3232 Clouds 26 1017 85 10000 4.4 246 23:18 08.06.2022
3233 Clouds 26 1017 85 10000 4.4 246 22:42 08.06.2022
3234 Clouds 25 1017 87 10000 4.39 249 22:23 08.06.2022
3235 Clouds 25 1017 87 10000 4.43 249 21:32 08.06.2022
3236 Clouds 28 1016 79 10000 5.48 261 20:25 08.06.2022
3237 Clouds 29 1016 80 10000 5.22 260 19:40 08.06.2022
3238 Clouds 27 1016 77 10000 5.82 261 18:48 08.06.2022
3239 Clouds 30 1016 73 10000 6.05 258 17:38 08.06.2022
3240 Clouds 29 1017 72 10000 6.46 255 15:53 08.06.2022
3241 Clouds 27 1018 70 10000 6.46 261 14:31 08.06.2022
3242 Clouds 25 1018 70 10000 6.67 262 12:55 08.06.2022
3243 Clouds 24 1018 69 10000 6.73 262 11:36 08.06.2022
3244 Clouds 24 1018 70 10000 6.55 252 10:46 08.06.2022
3245 Clouds 23 1017 80 10000 6.02 250 09:28 08.06.2022
3246 Clouds 23 1017 80 10000 6.02 250 08:52 08.06.2022
3247 Clear 22 1017 87 10000 5.94 244 06:43 08.06.2022
3248 Clear 23 1016 88 10000 5.3 240 04:41 08.06.2022
3249 Clear 25 1017 87 10000 4.42 253 00:58 08.06.2022
3250 Clear 24 1018 88 10000 4.52 255 23:32 07.06.2022
3251 Clear 25 1018 87 10000 4.83 249 22:51 07.06.2022
3252 Clear 26 1018 87 10000 4.83 249 22:33 07.06.2022
3253 Clear 24 1017 84 10000 4.86 255 21:37 07.06.2022
3254 Clear 24 1016 77 10000 5 256 21:18 07.06.2022
3255 Clear 25 1016 77 10000 5 256 20:37 07.06.2022
3256 Clouds 28 1016 71 10000 5.38 260 19:49 07.06.2022
3257 Clouds 29 1016 59 10000 5.22 258 18:25 07.06.2022
3258 Clouds 29 1016 59 10000 5.22 258 17:31 07.06.2022
3259 Clouds 29 1017 57 10000 5.14 256 16:44 07.06.2022
3260 Clouds 29 1017 54 10000 4.96 256 15:57 07.06.2022
3261 Clouds 29 1018 56 10000 4.65 254 15:27 07.06.2022
3262 Clouds 29 1018 56 10000 4.65 254 14:52 07.06.2022
3263 Clouds 29 1018 56 10000 4.65 254 14:34 07.06.2022
3264 Clear 29 1018 57 10000 4.71 261 13:32 07.06.2022
3265 Clear 28 1018 60 10000 4.58 268 12:54 07.06.2022
3266 Clear 27 1018 61 10000 4.05 262 11:49 07.06.2022
3267 Clear 24 1019 63 10000 3.18 251 10:27 07.06.2022
3268 Clear 19 1018 66 10000 2.34 240 08:53 07.06.2022
3269 Clear 18 1018 75 10000 1.94 252 07:35 07.06.2022
3270 Clear 19 1017 77 10000 2.02 239 06:38 07.06.2022
3271 Clear 19 1017 77 10000 2.02 239 06:38 07.06.2022
3272 Clear 20 1018 72 10000 3.54 252 04:20 07.06.2022
3273 Clouds 20 1019 66 10000 3.36 256 01:27 07.06.2022
3274 Clouds 26 1019 66 10000 3.43 264 23:52 06.06.2022
3275 Clouds 26 1019 68 10000 3.27 257 22:54 06.06.2022
3276 Clouds 23 1018 68 10000 3.45 261 22:29 06.06.2022
3277 Clouds 29 1017 66 10000 3.5 248 20:43 06.06.2022
3278 Clear 27 1017 58 10000 4.53 255 19:24 06.06.2022
3279 Clear 27 1017 58 10000 4.53 255 18:48 06.06.2022
3280 Clear 28 1017 59 10000 4.71 257 17:59 06.06.2022
3281 Clear 29 1018 59 10000 5.07 262 16:57 06.06.2022
3282 Clear 27 1018 59 10000 4.78 260 15:57 06.06.2022
3283 Clear 27 1019 61 10000 4.29 253 14:59 06.06.2022
3284 Clear 28 1019 63 10000 3.95 254 14:26 06.06.2022
3285 Clear 27 1019 66 10000 3.97 258 13:20 06.06.2022
3286 Clear 25 1019 66 10000 3.97 258 12:35 06.06.2022
3287 Clear 25 1020 66 10000 3.74 262 11:49 06.06.2022
3288 Clear 19 1019 71 10000 2.44 248 09:53 06.06.2022
3289 Clouds 18 1019 76 10000 2.21 244 09:18 06.06.2022
3290 Clouds 18 1019 77 10000 2.84 242 08:31 06.06.2022
3291 Clouds 18 1018 84 10000 2.67 236 07:20 06.06.2022
3292 Clear 19 1018 83 10000 3.07 247 04:42 06.06.2022
3293 Clear 19 1019 79 10000 1.51 281 02:19 06.06.2022
3294 Clear 20 1019 82 10000 2.78 284 00:57 06.06.2022
3295 Clear 20 1019 82 10000 2.78 284 00:35 06.06.2022
3296 Clear 21 1019 81 10000 2.98 260 23:25 05.06.2022
3297 Clear 21 1019 80 10000 3.13 262 22:26 05.06.2022
3298 Clear 23 1018 72 10000 3.96 269 20:29 05.06.2022
3299 Clear 24 1018 70 10000 4.5 266 19:26 05.06.2022
3300 Clear 24 1018 67 10000 4.67 262 18:20 05.06.2022
3301 Clear 25 1018 67 10000 4.69 262 17:39 05.06.2022
3302 Clear 25 1019 66 10000 4.66 262 17:21 05.06.2022
3303 Clear 25 1019 66 10000 4.66 262 16:47 05.06.2022
3304 Clear 23 1019 65 10000 4.68 257 15:41 05.06.2022
3305 Clouds 23 1020 65 10000 5.17 246 14:21 05.06.2022
3306 Clouds 23 1020 68 10000 4.37 259 12:23 05.06.2022
3307 Clouds 22 1020 72 10000 4.14 267 10:51 05.06.2022
3308 Clouds 21 1020 78 10000 3.82 272 10:24 05.06.2022
3309 Clouds 20 1020 78 10000 3.82 272 09:44 05.06.2022
3310 Clouds 18 1020 88 10000 3.57 281 08:25 05.06.2022
3311 Clouds 19 1020 90 10000 3.72 281 06:47 05.06.2022
3312 Clouds 19 1019 89 10000 3.94 280 05:20 05.06.2022
3313 Clouds 19 1020 88 10000 4.12 284 02:57 05.06.2022
3314 Clouds 20 1020 87 10000 4.33 282 01:24 05.06.2022
3315 Clouds 20 1020 87 10000 4.33 282 01:24 05.06.2022
3316 Clear 20 1020 87 10000 4.36 273 23:43 04.06.2022
3317 Clear 22 1019 83 10000 4.91 280 21:31 04.06.2022
3318 Clear 24 1018 71 10000 5.63 276 19:46 04.06.2022
3319 Clear 25 1018 68 10000 6.87 277 17:28 04.06.2022
3320 Clear 25 1018 69 10000 6.51 274 16:22 04.06.2022
3321 Clear 24 1018 69 10000 6.51 274 15:51 04.06.2022
3322 Clear 24 1018 69 10000 6.44 270 14:22 04.06.2022
3323 Clear 22 1018 68 10000 5.63 267 11:45 04.06.2022
3324 Clear 21 1018 70 10000 5.45 265 10:55 04.06.2022
3325 Clear 21 1018 72 10000 5.09 268 10:19 04.06.2022
3326 Clear 19 1018 72 10000 5.09 268 09:39 04.06.2022
3327 Clouds 19 1018 77 10000 4.72 273 08:39 04.06.2022
3328 Clouds 18 1017 85 10000 4.43 281 07:18 04.06.2022
3329 Clouds 19 1016 86 10000 4.41 282 04:33 04.06.2022
3330 Clear 20 1017 89 10000 4.31 288 00:37 04.06.2022
3331 Clear 20 1017 89 10000 4.35 282 23:28 03.06.2022
3332 Clear 20 1016 86 10000 4.76 282 22:20 03.06.2022
3333 Clear 23 1016 79 10000 5 278 20:42 03.06.2022
3334 Clear 23 1016 79 10000 5 278 20:42 03.06.2022
3335 Clear 23 1015 73 10000 5.48 281 20:18 03.06.2022
3336 Clear 27 1016 69 10000 5.4 273 17:31 03.06.2022
3337 Clear 24 1016 67 10000 5.38 274 16:34 03.06.2022
3338 Clear 25 1016 65 10000 5.22 270 14:52 03.06.2022
3339 Clouds 23 1017 70 10000 4.39 276 12:28 03.06.2022
3340 Clouds 21 1016 79 10000 4.09 268 10:18 03.06.2022
3341 Clouds 20 1016 86 10000 3.42 265 09:29 03.06.2022
3342 Clouds 19 1016 91 10000 3.18 263 07:53 03.06.2022
3343 Clouds 19 1015 91 10000 3.44 263 07:19 03.06.2022
3344 Clouds 19 1015 91 10000 3.44 263 06:30 03.06.2022
3345 Clouds 19 1015 91 10000 3.01 265 04:35 03.06.2022
3346 Clouds 20 1016 90 10000 4 279 00:22 03.06.2022
3347 Clouds 21 1016 89 10000 3.78 283 22:35 02.06.2022
3348 Clouds 22 1015 80 10000 4.37 282 20:58 02.06.2022
3349 Clouds 22 1015 75 10000 5.27 279 19:59 02.06.2022
3350 Clouds 22 1015 74 10000 4.31 277 19:40 02.06.2022
3351 Clouds 23 1015 71 10000 4.63 273 18:59 02.06.2022
3352 Clouds 23 1015 68 10000 4.41 290 16:30 02.06.2022
3353 Clouds 24 1016 70 10000 4.9 279 15:58 02.06.2022
3354 Clouds 23 1016 69 10000 5.47 280 13:38 02.06.2022
3355 Clouds 23 1017 71 10000 5.53 274 13:20 02.06.2022
3356 Clouds 21 1017 77 10000 4.61 274 10:53 02.06.2022
3357 Clouds 20 1017 82 10000 4.46 280 09:45 02.06.2022
3358 Clouds 20 1016 88 10000 3.97 280 09:26 02.06.2022
3359 Clouds 20 1016 92 10000 3.97 283 08:23 02.06.2022
3360 Clouds 19 1016 93 10000 4.05 283 06:26 02.06.2022
3361 Clouds 20 1015 93 10000 3.5 276 03:53 02.06.2022
3362 Clouds 21 1016 92 10000 3.41 278 01:36 02.06.2022
3363 Clear 22 1017 91 10000 3.26 280 23:36 01.06.2022
3364 Clear 22 1016 90 10000 3.36 274 22:18 01.06.2022
3365 Clear 23 1016 83 10000 3.74 265 21:25 01.06.2022
3366 Clear 24 1016 83 10000 3.74 265 20:39 01.06.2022
3367 Clear 25 1015 79 10000 4.39 270 19:52 01.06.2022
3368 Clear 28 1015 75 10000 4.69 269 18:41 01.06.2022
3369 Clear 27 1015 72 10000 4.67 265 17:38 01.06.2022
3370 Clear 26 1016 73 10000 5 269 15:56 01.06.2022
3371 Clear 26 1016 72 10000 4.91 269 14:50 01.06.2022
3372 Clear 26 1017 72 10000 5.04 273 13:39 01.06.2022
3373 Clear 22 1017 75 10000 3.99 267 11:24 01.06.2022
3374 Clear 20 1017 85 10000 3.24 266 09:30 01.06.2022
3375 Clear 19 1016 91 10000 3 265 08:28 01.06.2022
3376 Clear 20 1016 92 10000 3.17 265 07:20 01.06.2022
3377 Clear 19 1016 93 10000 3.63 266 04:53 01.06.2022
3378 Clear 22 1016 82 10000 3.63 277 23:50 31.05.2022
3379 Clear 23 1016 79 10000 3.37 275 22:43 31.05.2022
3380 Clear 24 1015 79 10000 3.15 265 22:24 31.05.2022
3381 Clear 23 1015 79 10000 3.15 265 21:44 31.05.2022
3382 Clear 23 1014 74 10000 3.32 270 20:44 31.05.2022
3383 Clear 25 1014 66 10000 3.56 271 19:46 31.05.2022
3384 Clear 26 1013 63 10000 4.23 262 18:32 31.05.2022
3385 Clear 26 1013 61 10000 4.5 264 17:38 31.05.2022
3386 Clear 24 1013 57 10000 4.35 267 15:55 31.05.2022
3387 Clear 24 1013 57 10000 4.35 267 15:34 31.05.2022
3388 Clear 26 1015 64 10000 3.79 264 12:56 31.05.2022
3389 Clear 24 1015 67 10000 3.83 269 12:18 31.05.2022
3390 Clear 22 1015 68 10000 3.93 268 10:34 31.05.2022
3391 Clear 18 1013 80 10000 2.72 282 08:26 31.05.2022
3392 Clear 18 1013 83 10000 2.7 275 06:21 31.05.2022
3393 Clear 19 1012 83 10000 2.92 271 04:31 31.05.2022
3394 Clouds 21 1014 83 10000 3.43 270 23:45 30.05.2022
3395 Clouds 22 1014 82 10000 3.79 271 23:24 30.05.2022
3396 Clouds 22 1014 82 10000 3.79 271 22:42 30.05.2022
3397 Clouds 24 1013 81 10000 4.13 269 21:40 30.05.2022
3398 Clouds 24 1012 77 10000 4.15 266 20:52 30.05.2022
3399 Clouds 25 1012 71 10000 4.54 268 19:44 30.05.2022
3400 Clouds 24 1012 67 10000 5.02 275 18:18 30.05.2022
3401 Clouds 24 1012 67 10000 5.27 277 17:23 30.05.2022
3402 Clouds 23 1013 68 10000 5.45 275 16:22 30.05.2022
3403 Clouds 22 1013 68 10000 5.01 267 13:32 30.05.2022
3404 Clouds 21 1014 70 10000 6.31 262 11:40 30.05.2022
3405 Clouds 20 1013 73 10000 6.15 253 09:52 30.05.2022
3406 Clouds 18 1013 78 10000 5.57 256 07:51 30.05.2022
3407 Clouds 18 1012 77 10000 5.76 258 06:22 30.05.2022
3408 Clouds 19 1012 80 10000 4.83 271 04:46 30.05.2022
3409 Clouds 19 1013 84 10000 5.45 278 00:18 30.05.2022
3410 Clouds 20 1013 84 10000 5.4 278 22:40 29.05.2022
3411 Clouds 21 1012 82 10000 5.94 281 21:46 29.05.2022
3412 Clouds 22 1011 76 10000 5.89 276 20:23 29.05.2022
3413 Clouds 22 1011 74 10000 5.93 274 19:29 29.05.2022
3414 Clouds 22 1011 71 10000 6.2 274 17:57 29.05.2022
3415 Clouds 23 1011 68 10000 5.98 272 16:22 29.05.2022
3416 Clouds 22 1011 68 10000 5.98 272 15:43 29.05.2022
3417 Clouds 23 1012 70 10000 5.83 272 14:54 29.05.2022
3418 Clouds 21 1012 73 10000 5.81 274 12:33 29.05.2022
3419 Clouds 20 1012 77 10000 5.3 265 11:19 29.05.2022
3420 Clouds 20 1012 83 10000 4.91 266 10:29 29.05.2022
3421 Clouds 18 1011 94 10000 3.74 277 07:59 29.05.2022
3422 Clouds 19 1012 95 10000 4.18 269 04:58 29.05.2022
3423 Clouds 19 1012 95 10000 4.2 269 04:33 29.05.2022
3424 Clear 21 1014 91 10000 4.75 257 01:23 29.05.2022
3425 Clear 22 1014 90 10000 4.31 258 23:47 28.05.2022
3426 Clear 22 1014 89 10000 3.96 256 23:19 28.05.2022
3427 Clear 23 1013 81 10000 3.13 266 21:53 28.05.2022
3428 Clear 24 1013 75 10000 1.82 300 20:53 28.05.2022
3429 Clear 24 1012 58 10000 3.92 84 19:20 28.05.2022
3430 Clear 24 1012 57 10000 4.54 84 18:24 28.05.2022
3431 Clear 24 1012 57 10000 4.54 84 17:33 28.05.2022
3432 Clear 24 1014 56 10000 5.49 81 15:51 28.05.2022
3433 Clear 24 1014 58 10000 5.64 84 15:20 28.05.2022
3434 Clouds 24 1015 58 10000 6.01 84 13:36 28.05.2022
3435 Clouds 24 1015 60 10000 6.07 81 12:43 28.05.2022
3436 Clear 24 1015 65 10000 5.7 81 11:37 28.05.2022
3437 Clear 22 1015 70 10000 5.6 84 10:39 28.05.2022
3438 Clear 20 1015 71 10000 5.18 88 09:54 28.05.2022
3439 Clouds 18 1015 76 10000 5.34 83 08:24 28.05.2022
3440 Clouds 18 1015 78 10000 5.32 79 06:34 28.05.2022
3441 Clouds 18 1015 81 10000 5.15 75 05:18 28.05.2022
3442 Clear 19 1017 81 10000 5.28 88 02:26 28.05.2022
3443 Clear 19 1017 82 10000 6.56 81 23:57 27.05.2022
3444 Clear 21 1017 82 10000 6.52 84 22:38 27.05.2022
3445 Clear 21 1016 77 10000 6.76 84 21:28 27.05.2022
3446 Clear 21 1016 77 10000 6.76 84 20:44 27.05.2022
3447 Clear 21 1016 70 10000 7.5 83 20:19 27.05.2022
3448 Clear 21 1016 70 10000 7.35 83 19:38 27.05.2022
3449 Clear 22 1016 65 10000 7.88 83 19:19 27.05.2022
3450 Clear 22 1017 62 10000 8.16 83 17:19 27.05.2022
3451 Clear 23 1017 62 10000 8.18 85 15:56 27.05.2022
3452 Clear 22 1018 61 10000 8.34 85 14:57 27.05.2022
3453 Clear 22 1018 62 10000 8.35 85 13:40 27.05.2022
3454 Clear 22 1018 64 10000 8.77 81 12:20 27.05.2022
3455 Clear 21 1018 64 10000 8.77 81 11:30 27.05.2022
3456 Clear 20 1018 67 10000 9.05 82 10:41 27.05.2022
3457 Clear 20 1018 69 10000 9.1 80 09:59 27.05.2022
3458 Clear 20 1018 76 10000 9.09 78 09:29 27.05.2022
3459 Clear 18 1018 80 10000 8.99 77 07:39 27.05.2022
3460 Clear 18 1019 84 10000 9.73 77 03:59 27.05.2022
3461 Clear 19 1020 87 10000 10.57 80 01:27 27.05.2022
3462 Clear 19 1021 87 10000 10.51 81 23:23 26.05.2022
3463 Clear 19 1020 86 10000 10.39 80 21:57 26.05.2022
3464 Clear 19 1020 84 10000 10.41 83 21:27 26.05.2022
3465 Clear 20 1020 81 10000 10.55 84 19:34 26.05.2022
3466 Clear 20 1019 76 10000 10.8 86 18:46 26.05.2022
3467 Clear 20 1019 74 10000 11.2 85 17:36 26.05.2022
3468 Clear 20 1020 72 10000 12.21 83 16:18 26.05.2022
3469 Clear 21 1020 71 10000 12.71 83 15:24 26.05.2022
3470 Clear 20 1020 70 10000 13.05 84 13:58 26.05.2022
3471 Clear 20 1020 72 10000 12.77 81 12:18 26.05.2022
3472 Clouds 19 1020 74 10000 12.37 81 11:18 26.05.2022
3473 Clouds 19 1020 78 10000 11.73 80 09:38 26.05.2022
3474 Clouds 18 1019 82 10000 11.02 78 08:40 26.05.2022
3475 Clouds 18 1019 82 10000 11.02 78 08:40 26.05.2022
3476 Clouds 18 1019 88 10000 9.52 80 05:30 26.05.2022
3477 Clouds 18 1020 88 10000 7.94 71 02:23 26.05.2022
3478 Clouds 18 1020 89 10000 6.84 71 23:53 25.05.2022
3479 Clouds 18 1020 90 10000 6.68 72 22:52 25.05.2022
3480 Clouds 19 1019 92 10000 6.1 70 21:42 25.05.2022
3481 Clouds 19 1019 89 10000 6.08 70 20:49 25.05.2022
3482 Clouds 20 1018 82 10000 5.41 76 19:42 25.05.2022
3483 Clouds 20 1018 76 10000 5.39 81 18:47 25.05.2022
3484 Clouds 22 1017 56 10000 1.29 87 16:58 25.05.2022
3485 Clouds 24 1017 57 10000 1.87 209 16:27 25.05.2022
3486 Clouds 23 1017 57 10000 1.88 209 15:36 25.05.2022
3487 Clouds 23 1017 60 10000 2.88 235 14:50 25.05.2022
3488 Clouds 24 1017 60 10000 2.88 235 14:31 25.05.2022
3489 Clouds 23 1018 65 10000 5.04 271 13:23 25.05.2022
3490 Clouds 19 1018 67 10000 5.79 263 11:49 25.05.2022
3491 Clear 19 1017 73 10000 5.9 245 10:24 25.05.2022
3492 Clouds 18 1016 78 10000 5.97 238 09:29 25.05.2022
3493 Clouds 16 1015 79 10000 5.29 236 07:26 25.05.2022
3494 Clouds 19 1015 77 10000 5.59 235 05:41 25.05.2022
3495 Clouds 18 1015 83 10000 6.15 243 01:51 25.05.2022
3496 Clouds 20 1015 85 10000 6.5 233 23:48 24.05.2022
3497 Clouds 20 1015 83 10000 6.44 234 22:58 24.05.2022
3498 Clouds 19 1014 81 10000 6.57 242 21:47 24.05.2022
3499 Clouds 20 1014 75 10000 7.08 260 21:23 24.05.2022
3500 Clouds 21 1014 75 10000 7.08 260 20:59 24.05.2022
3501 Clear 22 1013 64 10000 7.99 266 19:20 24.05.2022
3502 Clear 22 1013 61 10000 7.59 258 17:50 24.05.2022
3503 Clear 22 1013 60 10000 7.99 269 16:36 24.05.2022
3504 Clear 23 1013 58 10000 7.74 269 15:31 24.05.2022
3505 Clear 23 1014 59 10000 7.28 268 14:37 24.05.2022
3506 Clear 23 1014 61 10000 8 274 13:35 24.05.2022
3507 Clear 23 1014 62 10000 7.52 272 12:19 24.05.2022
3508 Clear 21 1013 66 10000 6.18 265 09:51 24.05.2022
3509 Clear 20 1013 75 10000 5.81 268 08:51 24.05.2022
3510 Clouds 19 1013 85 10000 5.9 267 07:44 24.05.2022
3511 Clouds 19 1012 85 10000 5.85 262 06:34 24.05.2022
3512 Clouds 21 1012 90 10000 5.73 241 03:38 24.05.2022
3513 Clouds 20 1012 90 10000 4.92 246 01:46 24.05.2022
3514 Clear 22 1013 90 10000 4.91 244 00:30 24.05.2022
3515 Clear 19 1012 91 10000 5.11 260 22:24 23.05.2022
3516 Clear 25 1012 91 10000 5.11 260 21:50 23.05.2022
3517 Clear 26 1011 85 10000 5.44 264 20:46 23.05.2022
3518 Clear 25 1011 79 10000 5.44 265 19:51 23.05.2022
3519 Clear 26 1011 76 10000 5.67 261 19:24 23.05.2022
3520 Clear 25 1011 76 10000 5.67 261 18:41 23.05.2022
3521 Clear 27 1011 75 10000 5.78 260 17:56 23.05.2022
3522 Clear 27 1012 76 10000 5.76 259 16:29 23.05.2022
3523 Clouds 24 1013 79 10000 5.75 258 14:18 23.05.2022
3524 Clouds 23 1014 81 10000 5.46 257 11:53 23.05.2022
3525 Clouds 22 1014 84 10000 5.19 254 10:49 23.05.2022
3526 Clouds 20 1014 88 10000 5.19 249 09:48 23.05.2022
3527 Clouds 19 1014 92 10000 5.28 241 08:46 23.05.2022
3528 Clouds 19 1014 92 10000 5.28 241 08:46 23.05.2022
3529 Clouds 18 1014 94 10000 5.52 242 07:31 23.05.2022
3530 Clouds 18 1014 93 10000 5.46 244 06:40 23.05.2022
3531 Clouds 19 1015 92 10000 5.76 252 03:41 23.05.2022
3532 Clouds 19 1016 92 10000 6.14 251 01:52 23.05.2022
3533 Clouds 19 1016 92 10000 6.14 249 01:29 23.05.2022
3534 Clouds 20 1016 91 10000 5.58 255 23:18 22.05.2022
3535 Clear 19 1015 90 10000 5.58 259 22:27 22.05.2022
3536 Clear 20 1015 90 10000 5.58 259 21:52 22.05.2022
3537 Clouds 21 1015 86 10000 5.63 265 20:46 22.05.2022
3538 Clouds 22 1015 81 10000 6.07 267 20:22 22.05.2022
3539 Clouds 22 1014 82 10000 5.77 265 19:34 22.05.2022
3540 Clouds 22 1015 78 10000 6.05 268 18:50 22.05.2022
3541 Clouds 22 1015 77 10000 6.05 267 18:21 22.05.2022
3542 Clouds 23 1015 77 10000 5.82 263 16:57 22.05.2022
3543 Clouds 24 1016 78 10000 5.79 266 15:34 22.05.2022
3544 Clouds 24 1016 77 10000 6.01 267 14:47 22.05.2022
3545 Clouds 23 1017 77 10000 5.96 266 13:21 22.05.2022
3546 Clouds 23 1017 77 10000 5.96 266 12:45 22.05.2022
3547 Clouds 20 1017 82 10000 5.35 266 10:55 22.05.2022
3548 Clouds 19 1017 84 10000 5.1 266 09:38 22.05.2022
3549 Clouds 19 1016 92 10000 4.45 269 07:52 22.05.2022
3550 Clouds 19 1015 94 10000 4.41 273 07:20 22.05.2022
3551 Clouds 20 1016 95 10000 3.95 262 04:49 22.05.2022
3552 Clouds 21 1017 87 10000 1.42 229 01:20 22.05.2022
3553 Clouds 23 1018 86 10000 1.24 165 23:57 21.05.2022
3554 Clouds 23 1018 86 10000 1.23 165 23:32 21.05.2022
3555 Clouds 23 1017 84 10000 2.43 82 22:22 21.05.2022
3556 Clouds 23 1017 84 10000 2.43 82 21:39 21.05.2022
3557 Clouds 22 1017 82 10000 3.54 68 20:48 21.05.2022
3558 Clouds 23 1016 78 10000 4.74 71 19:59 21.05.2022
3559 Clouds 23 1016 78 10000 4.69 76 19:24 21.05.2022
3560 Clouds 24 1016 78 10000 5.79 75 17:35 21.05.2022
3561 Clouds 24 1017 77 10000 6.63 81 15:37 21.05.2022
3562 Clouds 23 1017 76 10000 7.16 79 14:36 21.05.2022
3563 Clouds 23 1018 79 10000 6.52 85 13:36 21.05.2022
3564 Clouds 22 1018 78 10000 6.77 89 12:40 21.05.2022
3565 Clouds 24 1018 77 10000 7.4 82 11:52 21.05.2022
3566 Clouds 22 1018 84 10000 6.32 79 10:22 21.05.2022
3567 Clouds 22 1017 87 10000 5.24 73 09:18 21.05.2022
3568 Clouds 21 1017 87 10000 5.24 73 08:47 21.05.2022
3569 Clouds 19 1015 88 10000 8.1 71 06:22 21.05.2022
3570 Clouds 22 1017 85 10000 7.87 76 02:23 21.05.2022
3571 Clouds 20 1017 87 10000 8.75 69 23:42 20.05.2022
3572 Clouds 20 1018 86 10000 8.32 78 22:41 20.05.2022
3573 Clouds 22 1017 85 10000 7.85 87 22:18 20.05.2022
3574 Clouds 22 1016 85 10000 10.46 72 21:19 20.05.2022
3575 Clouds 21 1016 85 10000 10.46 73 20:51 20.05.2022
3576 Clouds 22 1016 83 10000 7.85 79 19:54 20.05.2022
3577 Clouds 23 1016 80 10000 8.14 86 18:58 20.05.2022
3578 Clouds 24 1015 77 10000 9.49 81 18:23 20.05.2022
3579 Clouds 24 1017 76 10000 10.45 78 16:28 20.05.2022
3580 Clouds 24 1017 76 10000 10.44 78 15:54 20.05.2022
3581 Clouds 23 1017 76 10000 10.44 78 15:32 20.05.2022
3582 Clouds 22 1017 77 10000 10.82 81 14:27 20.05.2022
3583 Clouds 22 1017 79 10000 10.96 82 12:45 20.05.2022
3584 Clouds 21 1017 82 10000 10.85 80 10:48 20.05.2022
3585 Clouds 20 1017 84 10000 10.78 78 09:31 20.05.2022
3586 Clouds 19 1016 86 10000 10.39 76 08:37 20.05.2022
3587 Clouds 19 1015 89 10000 10.08 79 06:44 20.05.2022
3588 Clouds 19 1015 89 10000 10.59 78 05:52 20.05.2022
3589 Clouds 19 1015 88 10000 10.67 77 02:52 20.05.2022
3590 Clouds 20 1016 87 10000 9.3 75 23:47 19.05.2022
3591 Clouds 21 1016 87 10000 9.28 76 22:37 19.05.2022
3592 Clouds 21 1016 87 10000 9.02 76 21:51 19.05.2022
3593 Clouds 22 1015 84 10000 8.86 76 21:24 19.05.2022
3594 Clouds 22 1015 84 10000 8.86 76 20:52 19.05.2022
3595 Clouds 22 1015 81 10000 8.57 76 19:54 19.05.2022
3596 Clouds 22 1014 77 10000 8.64 76 19:18 19.05.2022
3597 Clouds 23 1015 75 10000 8.96 74 17:46 19.05.2022
3598 Clouds 23 1016 70 10000 9.27 74 15:51 19.05.2022
3599 Clear 22 1016 69 10000 9.43 76 14:47 19.05.2022
3600 Clouds 22 1017 69 10000 9.59 76 14:20 19.05.2022
3601 Clouds 22 1017 69 10000 8.67 76 11:55 19.05.2022
3602 Clouds 20 1017 70 10000 8.38 77 10:31 19.05.2022
3603 Clouds 21 1017 84 10000 6.58 76 08:44 19.05.2022
3604 Clouds 21 1016 90 10000 5.26 76 07:18 19.05.2022
3605 Clouds 20 1015 87 10000 5.08 86 03:41 19.05.2022
3606 Clouds 21 1016 88 10000 5.06 75 00:57 19.05.2022
3607 Clouds 22 1016 88 10000 5.11 72 23:40 18.05.2022
3608 Clouds 22 1016 86 10000 4.99 72 22:43 18.05.2022
3609 Clouds 23 1016 85 10000 4.87 75 21:43 18.05.2022
3610 Clouds 23 1015 82 10000 5.27 83 21:23 18.05.2022
3611 Clouds 24 1015 75 10000 5.75 83 20:19 18.05.2022
3612 Clouds 24 1015 69 10000 5.88 83 18:53 18.05.2022
3613 Clouds 24 1015 69 10000 5.88 83 18:53 18.05.2022
3614 Clouds 24 1015 65 10000 5.99 82 17:42 18.05.2022
3615 Clouds 24 1015 63 10000 6.5 82 17:24 18.05.2022
3616 Clouds 24 1015 63 10000 6.5 82 16:53 18.05.2022
3617 Clouds 26 1016 61 10000 6.51 82 15:45 18.05.2022
3618 Clouds 24 1016 60 10000 6.28 83 15:20 18.05.2022
3619 Clouds 22 1016 60 10000 5.6 82 13:59 18.05.2022
3620 Clouds 22 1017 62 10000 5.25 82 12:53 18.05.2022
3621 Clouds 22 1017 63 10000 4.84 80 11:48 18.05.2022
3622 Clouds 23 1017 66 10000 4.38 79 11:29 18.05.2022
3623 Clouds 22 1017 66 10000 4.38 79 10:43 18.05.2022
3624 Clear 20 1016 82 10000 4.56 71 07:59 18.05.2022
3625 Clear 19 1015 83 10000 4.98 72 06:54 18.05.2022
3626 Clear 20 1016 80 10000 4.77 70 03:34 18.05.2022
3627 Clear 20 1017 69 10000 3.41 65 00:41 18.05.2022
3628 Clear 21 1018 70 10000 2.05 55 22:59 17.05.2022
3629 Clear 22 1017 72 10000 1.05 74 21:21 17.05.2022
3630 Clear 22 1017 72 10000 1.05 74 21:21 17.05.2022
3631 Clear 23 1017 72 10000 1.05 74 20:38 17.05.2022
3632 Clear 23 1017 66 10000 2.05 260 19:29 17.05.2022
3633 Clear 24 1017 66 10000 2.05 260 18:43 17.05.2022
3634 Clear 26 1017 64 10000 1.98 249 17:31 17.05.2022
3635 Clear 26 1018 63 10000 1.86 250 16:53 17.05.2022
3636 Clear 27 1018 63 10000 1.99 252 15:45 17.05.2022
3637 Clear 26 1019 63 10000 2.13 247 14:48 17.05.2022
3638 Clear 24 1019 63 10000 1.97 242 14:23 17.05.2022
3639 Clear 23 1020 65 10000 2.68 249 12:36 17.05.2022
3640 Clear 20 1020 71 10000 2.13 256 10:23 17.05.2022
3641 Clear 17 1020 75 10000 1.91 238 08:45 17.05.2022
3642 Clear 17 1019 78 10000 2.03 251 07:41 17.05.2022
3643 Clear 18 1019 80 10000 2.53 256 05:58 17.05.2022
3644 Clear 23 1020 80 10000 2.8 267 00:47 17.05.2022
3645 Clear 24 1020 81 10000 3.16 265 22:51 16.05.2022
3646 Clear 19 1020 81 10000 3.16 265 22:30 16.05.2022
3647 Clear 25 1019 79 10000 4.41 268 20:56 16.05.2022
3648 Clear 22 1018 75 10000 4.88 258 20:33 16.05.2022
3649 Clear 24 1018 70 10000 4.94 259 18:41 16.05.2022
3650 Clear 24 1020 68 10000 5.23 257 16:41 16.05.2022
3651 Clouds 25 1021 70 10000 5.67 262 14:48 16.05.2022
3652 Clear 23 1021 65 10000 4.39 249 13:27 16.05.2022
3653 Clear 22 1021 65 10000 4.39 249 12:34 16.05.2022
3654 Clear 20 1021 70 10000 3.38 268 10:34 16.05.2022
3655 Clouds 18 1020 88 10000 3.09 292 07:47 16.05.2022
3656 Clouds 18 1020 90 10000 3.44 278 05:40 16.05.2022
3657 Clouds 19 1021 89 10000 3.43 268 00:35 16.05.2022
3658 Clouds 21 1021 88 10000 3.65 271 22:42 15.05.2022
3659 Clouds 22 1020 87 10000 4.39 278 21:54 15.05.2022
3660 Clouds 22 1020 87 10000 4.4 278 21:34 15.05.2022
3661 Clouds 23 1019 84 10000 4.55 275 20:35 15.05.2022
3662 Clouds 23 1018 76 10000 5.21 271 18:30 15.05.2022
3663 Clouds 23 1018 72 10000 5.47 276 16:37 15.05.2022
3664 Clouds 23 1019 74 10000 5.22 273 14:26 15.05.2022
3665 Clouds 23 1019 73 10000 5.24 274 13:44 15.05.2022
3666 Clouds 21 1020 77 10000 4.01 269 11:55 15.05.2022
3667 Clouds 20 1019 80 10000 3.92 266 10:43 15.05.2022
3668 Clouds 18 1018 88 10000 3.33 271 08:57 15.05.2022
3669 Clouds 17 1018 96 10000 3.11 280 07:22 15.05.2022
3670 Clouds 17 1018 96 10000 3.11 280 06:42 15.05.2022
3671 Clouds 18 1017 91 10000 2.45 270 02:38 15.05.2022
3672 Clear 19 1018 87 10000 0.63 334 23:59 14.05.2022
3673 Clear 20 1018 87 10000 0.63 334 23:35 14.05.2022
3674 Clear 20 1018 87 10000 0.63 334 23:35 14.05.2022
3675 Clear 20 1017 86 10000 0.8 84 21:45 14.05.2022
3676 Clouds 21 1017 84 10000 0.2 18 21:24 14.05.2022
3677 Clouds 22 1017 79 10000 1.59 73 19:54 14.05.2022
3678 Clouds 21 1016 75 10000 2.46 84 19:20 14.05.2022
3679 Clouds 21 1016 75 10000 2.46 84 18:51 14.05.2022
3680 Clouds 21 1016 75 10000 2.46 84 18:51 14.05.2022
3681 Clouds 21 1016 73 10000 3.26 90 17:42 14.05.2022
3682 Clear 21 1017 69 10000 4.75 79 15:55 14.05.2022
3683 Clear 22 1017 70 10000 5.24 81 14:37 14.05.2022
3684 Clouds 21 1018 72 10000 5.1 82 12:51 14.05.2022
3685 Clouds 20 1019 74 10000 4.66 86 11:37 14.05.2022
3686 Clouds 20 1019 77 10000 4.42 94 10:39 14.05.2022
3687 Clouds 19 1018 81 10000 4.22 86 10:18 14.05.2022
3688 Clouds 19 1018 86 10000 4.18 91 09:19 14.05.2022
3689 Clouds 19 1017 90 10000 4.78 92 07:23 14.05.2022
3690 Clouds 19 1017 89 10000 6.97 82 03:45 14.05.2022
3691 Clouds 19 1019 88 10000 6.97 76 00:21 14.05.2022
3692 Clouds 19 1019 88 10000 6.68 78 23:24 13.05.2022
3693 Clouds 19 1019 88 10000 6.68 78 22:54 13.05.2022
3694 Clouds 19 1019 89 10000 6.44 78 22:20 13.05.2022
3695 Clouds 20 1019 86 10000 6.54 81 20:57 13.05.2022
3696 Clouds 20 1018 85 10000 6.43 83 20:30 13.05.2022
3697 Clouds 20 1018 79 10000 6.83 83 19:44 13.05.2022
3698 Clouds 20 1018 76 10000 7.1 84 18:47 13.05.2022
3699 Clouds 20 1018 72 10000 7.38 82 17:29 13.05.2022
3700 Clouds 20 1019 73 10000 7.38 82 16:29 13.05.2022
3701 Clouds 21 1019 73 10000 7.38 82 15:45 13.05.2022
3702 Clouds 21 1019 74 10000 7.47 83 14:29 13.05.2022
3703 Clear 20 1020 75 10000 7.03 80 12:47 13.05.2022
3704 Clear 20 1020 77 10000 6.9 81 11:39 13.05.2022
3705 Clear 18 1020 83 10000 6.36 79 09:43 13.05.2022
3706 Clouds 18 1019 89 10000 6.11 77 08:51 13.05.2022
3707 Clouds 18 1019 92 10000 6.15 71 07:50 13.05.2022
3708 Clouds 18 1019 93 10000 6.03 69 06:49 13.05.2022
3709 Clouds 18 1019 91 10000 5.32 84 04:54 13.05.2022
3710 Clouds 19 1021 90 10000 5.17 78 00:42 13.05.2022
3711 Clouds 18 1020 89 10000 6.51 80 22:47 12.05.2022
3712 Clouds 18 1019 88 10000 6.78 79 22:29 12.05.2022
3713 Clouds 20 1018 85 10000 6.74 74 20:41 12.05.2022
3714 Clouds 20 1018 78 10000 7.45 85 19:26 12.05.2022
3715 Clouds 21 1017 75 10000 8.07 77 18:19 12.05.2022
3716 Clouds 20 1018 73 10000 8.33 78 16:39 12.05.2022
3717 Clouds 22 1018 73 10000 8.82 76 14:52 12.05.2022
3718 Clouds 22 1019 73 10000 7.51 80 13:48 12.05.2022
3719 Clouds 21 1018 75 10000 8.41 85 11:31 12.05.2022
3720 Clouds 20 1018 81 10000 7.73 81 10:22 12.05.2022
3721 Clouds 20 1017 82 10000 7.36 80 08:52 12.05.2022
3722 Clouds 20 1017 82 10000 7.36 80 08:52 12.05.2022
3723 Clouds 20 1017 82 10000 7.36 80 08:52 12.05.2022
3724 Clouds 18 1017 82 10000 7.6 78 07:58 12.05.2022
3725 Clouds 18 1016 83 10000 7.91 76 06:58 12.05.2022
3726 Clouds 18 1016 81 10000 7.39 77 03:46 12.05.2022
3727 Clouds 19 1018 84 10000 6.91 77 00:50 12.05.2022
3728 Clouds 20 1018 84 10000 6.94 80 22:53 11.05.2022
3729 Clouds 20 1017 84 10000 7.04 78 21:59 11.05.2022
3730 Clouds 19 1017 82 10000 7.13 79 21:24 11.05.2022
3731 Clouds 20 1017 78 10000 7.29 81 19:57 11.05.2022
3732 Clouds 20 1016 70 10000 9.85 84 17:27 11.05.2022
3733 Clouds 21 1017 70 10000 10.34 85 16:19 11.05.2022
3734 Clouds 21 1017 70 10000 10.89 85 14:45 11.05.2022
3735 Clouds 21 1018 69 10000 11.16 86 14:24 11.05.2022
3736 Clouds 21 1018 73 10000 11.54 86 12:23 11.05.2022
3737 Clouds 21 1018 73 10000 11.54 86 11:47 11.05.2022
3738 Clouds 19 1017 78 10000 10.65 82 09:29 11.05.2022
3739 Clouds 18 1017 80 10000 10.22 77 06:27 11.05.2022
3740 Clear 19 1020 81 10000 8.94 77 01:29 11.05.2022
3741 Clear 19 1020 80 10000 8.66 81 22:56 10.05.2022
3742 Clear 19 1020 80 10000 8.78 79 22:21 10.05.2022
3743 Clear 19 1020 78 10000 8.87 79 21:21 10.05.2022
3744 Clouds 20 1020 74 10000 8.98 80 20:21 10.05.2022
3745 Clouds 21 1019 71 10000 9.6 81 18:36 10.05.2022
3746 Clouds 21 1019 67 10000 10.04 81 17:37 10.05.2022
3747 Clear 21 1020 66 10000 10.45 80 15:49 10.05.2022
3748 Clouds 21 1021 67 10000 10.28 81 12:51 10.05.2022
3749 Clouds 21 1022 68 10000 10.27 82 11:53 10.05.2022
3750 Clouds 20 1021 70 10000 10.41 81 11:28 10.05.2022
3751 Clouds 20 1021 70 10000 10.41 81 10:55 10.05.2022
3752 Clouds 19 1020 77 10000 9.38 77 09:27 10.05.2022
3753 Clouds 19 1020 79 10000 9.06 76 07:51 10.05.2022
3754 Clouds 19 1019 81 10000 8.64 75 05:43 10.05.2022
3755 Clouds 19 1020 86 10000 7.6 76 01:37 10.05.2022
3756 Clouds 19 1021 87 10000 6.67 77 23:42 09.05.2022
3757 Clouds 19 1021 87 10000 6.67 77 23:42 09.05.2022
3758 Clouds 19 1021 86 10000 6.76 78 22:33 09.05.2022
3759 Clouds 18 1020 85 10000 6.69 76 21:36 09.05.2022
3760 Clouds 20 1019 74 10000 6.77 80 19:52 09.05.2022
3761 Clouds 20 1019 74 10000 6.77 80 19:52 09.05.2022
3762 Clouds 21 1018 65 10000 7.76 79 18:25 09.05.2022
3763 Clouds 21 1018 64 10000 8.15 80 17:25 09.05.2022
3764 Clouds 21 1019 64 10000 8.39 81 15:54 09.05.2022
3765 Clouds 21 1019 64 10000 8.39 81 15:35 09.05.2022
3766 Clear 20 1019 65 10000 8.66 82 14:33 09.05.2022
3767 Clear 21 1019 65 10000 8.72 81 13:51 09.05.2022
3768 Clear 20 1019 65 10000 8.66 82 12:51 09.05.2022
3769 Clear 20 1019 65 10000 8.4 81 11:52 09.05.2022
3770 Clear 20 1019 66 10000 7.73 82 10:46 09.05.2022
3771 Clear 19 1019 71 10000 7.16 80 09:59 09.05.2022
3772 Clouds 18 1018 81 10000 6.27 76 07:56 09.05.2022
3773 Clouds 18 1018 81 10000 6.14 70 04:33 09.05.2022
3774 Clouds 18 1018 81 10000 6.14 70 04:33 09.05.2022
3775 Clear 18 1019 80 10000 5.11 70 00:23 09.05.2022
3776 Clear 18 1019 80 10000 5.06 71 22:58 08.05.2022
3777 Clear 19 1018 80 10000 5.02 73 22:29 08.05.2022
3778 Clear 19 1018 78 10000 5.03 74 20:53 08.05.2022
3779 Clear 19 1017 73 10000 5.12 78 20:18 08.05.2022
3780 Clear 19 1017 68 10000 5.54 81 19:27 08.05.2022
3781 Clear 19 1017 69 10000 5.54 81 19:27 08.05.2022
3782 Clear 19 1017 67 10000 5.59 84 18:25 08.05.2022
3783 Clear 19 1017 67 10000 5.8 85 17:21 08.05.2022
3784 Clear 20 1018 67 10000 5.89 83 15:44 08.05.2022
3785 Clear 20 1018 68 10000 5.95 80 15:20 08.05.2022
3786 Clear 19 1019 70 10000 5.89 81 12:45 08.05.2022
3787 Clear 18 1019 75 10000 5.83 79 10:46 08.05.2022
3788 Clouds 18 1019 81 10000 5.77 76 10:21 08.05.2022
3789 Clouds 18 1019 81 10000 5.77 76 09:46 08.05.2022
3790 Clouds 17 1018 89 10000 5.67 71 07:33 08.05.2022
3791 Clouds 17 1019 90 10000 5.24 66 04:24 08.05.2022
3792 Clouds 18 1019 89 10000 5.26 66 03:20 08.05.2022
3793 Clouds 18 1020 89 10000 4.84 67 00:29 08.05.2022
3794 Clouds 18 1020 89 10000 4.84 67 23:53 07.05.2022
3795 Clouds 19 1020 89 10000 4.8 67 22:57 07.05.2022
3796 Clouds 18 1020 89 10000 4.8 67 22:33 07.05.2022
3797 Clouds 18 1019 88 10000 4.89 72 21:43 07.05.2022
3798 Clouds 19 1019 84 10000 4.76 75 20:55 07.05.2022
3799 Clouds 19 1018 78 10000 5.05 78 19:58 07.05.2022
3800 Clouds 19 1018 73 10000 5.58 78 17:51 07.05.2022
3801 Clouds 20 1019 73 10000 5.88 83 15:53 07.05.2022
3802 Clear 20 1019 73 10000 5.88 83 14:44 07.05.2022
3803 Clouds 19 1019 72 10000 4.63 67 10:59 07.05.2022
3804 Clouds 17 1019 70 10000 4.19 70 09:38 07.05.2022
3805 Clouds 15 1018 69 10000 1 41 07:52 07.05.2022
3806 Clouds 20 1017 69 10000 0.79 14 06:44 07.05.2022
3807 Clouds 20 1018 71 10000 0.55 280 05:22 07.05.2022
3808 Clouds 20 1019 76 10000 1.34 279 02:21 07.05.2022
3809 Clouds 20 1020 75 10000 2.11 293 23:38 06.05.2022
3810 Clear 22 1020 73 10000 2.43 296 22:32 06.05.2022
3811 Clear 23 1020 70 10000 2.05 299 21:44 06.05.2022
3812 Clear 25 1019 70 10000 1.14 292 20:35 06.05.2022
3813 Clear 26 1019 67 10000 0.38 356 19:40 06.05.2022
3814 Clear 26 1019 61 10000 0.74 46 19:18 06.05.2022
3815 Clear 25 1019 61 10000 1.84 85 18:23 06.05.2022
3816 Clear 24 1019 60 10000 2.87 94 16:53 06.05.2022
3817 Clear 24 1020 60 10000 3.3 97 15:42 06.05.2022
3818 Clear 22 1020 61 10000 3.72 94 14:53 06.05.2022
3819 Clear 20 1021 62 10000 3.51 86 12:56 06.05.2022
3820 Clear 20 1021 62 10000 3.51 86 12:37 06.05.2022
3821 Clear 20 1021 65 10000 3.65 87 11:42 06.05.2022
3822 Clear 16 1022 68 10000 3.65 81 10:30 06.05.2022
3823 Clear 16 1022 72 10000 3.9 72 09:46 06.05.2022
3824 Clear 14 1022 78 10000 3.99 65 08:33 06.05.2022
3825 Clear 14 1021 84 10000 4.26 59 06:48 06.05.2022
3826 Clear 15 1021 85 10000 4.42 59 05:23 06.05.2022
3827 Clear 17 1022 86 10000 4.45 63 02:47 06.05.2022
3828 Clear 17 1023 84 10000 4.64 76 00:19 06.05.2022
3829 Clear 18 1022 82 10000 4.63 75 22:28 05.05.2022
3830 Clear 18 1022 79 10000 4.44 73 21:22 05.05.2022
3831 Clear 19 1021 73 10000 4.26 78 19:54 05.05.2022
3832 Clear 20 1020 69 10000 4.56 85 18:31 05.05.2022
3833 Clear 19 1021 67 10000 5.56 92 16:20 05.05.2022
3834 Clear 20 1021 69 10000 5.07 94 14:49 05.05.2022
3835 Clear 20 1021 71 10000 2.47 89 13:22 05.05.2022
3836 Clear 20 1021 73 10000 1.07 98 12:25 05.05.2022
3837 Clear 17 1020 76 10000 0.15 127 10:48 05.05.2022
3838 Clear 16 1020 80 10000 1.12 273 09:39 05.05.2022
3839 Clear 14 1019 86 10000 1.67 279 07:35 05.05.2022
3840 Clear 14 1018 84 10000 0.62 32 04:42 05.05.2022
3841 Clouds 15 1018 85 10000 1.07 85 01:53 05.05.2022
3842 Clouds 16 1018 84 10000 1.97 91 01:24 05.05.2022
3843 Clouds 16 1018 86 10000 2.21 96 23:47 04.05.2022
3844 Rain 16 1018 86 10000 0.91 80 22:30 04.05.2022
3845 Rain 17 1017 86 10000 0.74 233 21:49 04.05.2022
3846 Rain 17 1016 86 10000 1.15 254 21:26 04.05.2022
3847 Clouds 17 1015 83 10000 2.18 265 20:24 04.05.2022
3848 Clouds 17 1015 81 10000 1.46 266 19:53 04.05.2022
3849 Rain 17 1015 79 10000 2.53 272 18:54 04.05.2022
3850 Rain 18 1014 78 10000 2.73 269 18:22 04.05.2022
3851 Clouds 18 1014 78 10000 2.73 269 17:30 04.05.2022
3852 Clouds 18 1014 78 10000 2.8 277 15:38 04.05.2022
3853 Clouds 18 1014 78 10000 2.69 288 15:20 04.05.2022
3854 Clouds 18 1014 78 10000 3.22 282 14:20 04.05.2022
3855 Clouds 17 1015 73 10000 1.85 259 13:20 04.05.2022
3856 Clouds 16 1015 74 10000 1.88 247 12:29 04.05.2022
3857 Clouds 16 1015 76 10000 1.48 249 10:40 04.05.2022
3858 Clouds 15 1014 77 10000 1.48 255 09:40 04.05.2022
3859 Clouds 15 1014 78 10000 1.25 258 08:34 04.05.2022
3860 Clouds 14 1012 81 10000 2.13 233 05:53 04.05.2022
3861 Clouds 15 1012 78 10000 2.65 233 02:53 04.05.2022
3862 Clouds 15 1013 76 10000 3.77 253 23:58 03.05.2022
3863 Clouds 17 1012 76 10000 4.05 248 22:30 03.05.2022
3864 Clouds 17 1012 76 10000 3.9 260 21:36 03.05.2022
3865 Clouds 17 1012 74 10000 3.38 277 20:53 03.05.2022
3866 Clouds 19 1011 72 10000 3.55 269 19:45 03.05.2022
3867 Clouds 18 1011 71 10000 3.56 263 18:50 03.05.2022
3868 Clouds 18 1011 71 10000 3.56 263 18:50 03.05.2022
3869 Clouds 17 1010 72 10000 3.5 257 18:20 03.05.2022
3870 Clouds 21 1010 74 10000 4.25 258 16:37 03.05.2022
3871 Clouds 20 1010 74 10000 4.25 258 15:32 03.05.2022
3872 Clouds 18 1011 72 10000 4.22 261 12:47 03.05.2022
3873 Clouds 17 1011 75 10000 3.98 263 12:27 03.05.2022
3874 Clouds 16 1011 79 10000 2.69 270 10:57 03.05.2022
3875 Clouds 15 1011 86 10000 2.98 288 09:21 03.05.2022
3876 Clouds 16 1010 87 10000 3.57 266 06:46 03.05.2022
3877 Clouds 15 1010 87 10000 4.22 261 05:56 03.05.2022
3878 Clouds 17 1014 89 10000 7.32 251 00:19 03.05.2022
3879 Clouds 17 1014 89 10000 7.09 252 22:36 02.05.2022
3880 Clouds 17 1014 88 10000 7.7 255 21:51 02.05.2022
3881 Clouds 18 1014 88 10000 8.26 255 20:51 02.05.2022
3882 Clouds 19 1014 81 10000 8.01 263 18:37 02.05.2022
3883 Clouds 19 1014 78 10000 8.07 264 17:53 02.05.2022
3884 Clouds 19 1014 78 10000 8.08 264 17:33 02.05.2022
3885 Clouds 19 1015 73 10000 8.02 267 16:20 02.05.2022
3886 Clouds 19 1016 72 10000 7.95 269 15:19 02.05.2022
3887 Clouds 19 1016 73 10000 8.11 270 13:50 02.05.2022
3888 Clouds 17 1017 71 10000 7.86 271 12:18 02.05.2022
3889 Clouds 16 1017 74 10000 7.14 275 10:25 02.05.2022
3890 Clouds 16 1016 79 10000 6.64 278 08:46 02.05.2022
3891 Clear 17 1016 82 10000 6.41 281 07:39 02.05.2022
3892 Clear 17 1016 86 10000 4.64 251 02:51 02.05.2022
3893 Clear 22 1018 80 10000 3.76 245 00:24 02.05.2022
3894 Clear 22 1018 80 10000 3.76 245 23:47 01.05.2022
3895 Clear 22 1018 80 10000 3.68 263 22:20 01.05.2022
3896 Clear 24 1018 78 10000 3.88 260 20:58 01.05.2022
3897 Clouds 26 1018 73 10000 3.81 257 19:49 01.05.2022
3898 Clouds 24 1018 67 10000 4.3 263 18:55 01.05.2022
3899 Clouds 25 1018 60 10000 4.11 271 18:18 01.05.2022
3900 Clouds 26 1018 53 10000 3.26 284 16:55 01.05.2022
3901 Clouds 26 1019 49 10000 1.73 291 16:23 01.05.2022
3902 Clouds 26 1019 48 10000 0.36 108 15:23 01.05.2022
3903 Clouds 23 1020 50 10000 0.95 107 13:42 01.05.2022
3904 Clear 18 1021 56 10000 2.3 103 10:50 01.05.2022
3905 Clear 16 1021 62 10000 2.6 81 08:51 01.05.2022
3906 Clear 14 1020 61 10000 3 70 07:42 01.05.2022
3907 Clear 16 1021 78 10000 4.51 62 02:51 01.05.2022
3908 Clear 17 1022 83 10000 4.75 78 22:58 30.04.2022
3909 Clear 18 1022 84 10000 4.83 74 21:35 30.04.2022
3910 Clear 20 1021 81 10000 4.68 79 20:35 30.04.2022
3911 Clear 20 1021 69 10000 6.09 81 19:36 30.04.2022
3912 Clear 19 1021 68 10000 6.9 81 17:40 30.04.2022
3913 Clear 19 1021 69 10000 7.08 78 16:34 30.04.2022
3914 Clear 18 1022 73 10000 7.07 80 15:21 30.04.2022
3915 Clear 18 1022 73 10000 7.07 80 14:33 30.04.2022
3916 Clouds 18 1023 75 10000 7.19 80 12:36 30.04.2022
3917 Clouds 18 1023 75 10000 7.19 80 12:36 30.04.2022
3918 Clouds 17 1023 77 10000 7.82 79 11:32 30.04.2022
3919 Clouds 17 1023 80 10000 7.81 79 10:31 30.04.2022
3920 Clouds 16 1022 86 10000 6.98 75 08:54 30.04.2022
3921 Clear 16 1021 86 10000 6.71 71 05:38 30.04.2022
3922 Clear 16 1024 86 10000 6.35 67 00:35 30.04.2022
3923 Clouds 17 1023 88 10000 6.36 72 23:36 29.04.2022
3924 Clouds 17 1023 88 10000 6.37 72 22:30 29.04.2022
3925 Clear 17 1022 86 10000 6.53 85 21:27 29.04.2022
3926 Clear 18 1022 86 10000 6.53 85 20:38 29.04.2022
3927 Clouds 18 1022 82 10000 7.1 81 19:36 29.04.2022
3928 Clouds 19 1021 76 10000 8.99 88 17:48 29.04.2022
3929 Clouds 18 1021 74 10000 9.43 89 16:43 29.04.2022
3930 Clouds 18 1022 76 10000 8.94 91 14:50 29.04.2022
3931 Clear 19 1022 74 10000 9.41 89 14:19 29.04.2022
3932 Clear 18 1022 73 10000 8.99 84 12:41 29.04.2022
3933 Clear 17 1022 77 10000 9.21 82 10:58 29.04.2022
3934 Clouds 16 1021 86 10000 7.5 83 08:18 29.04.2022
3935 Clouds 16 1020 85 10000 6.91 82 07:27 29.04.2022
3936 Clouds 16 1020 85 10000 6.91 82 06:35 29.04.2022
3937 Clear 16 1020 87 10000 5.03 69 03:28 29.04.2022
3938 Clear 16 1021 84 10000 2.53 87 00:18 29.04.2022
3939 Clear 15 1021 82 10000 1.1 68 23:26 28.04.2022
3940 Clear 16 1021 82 10000 1.1 68 22:37 28.04.2022
3941 Clear 16 1020 81 10000 0.81 330 21:45 28.04.2022
3942 Clear 16 1019 81 10000 2.08 302 20:49 28.04.2022
3943 Clouds 17 1018 80 10000 3.12 318 19:57 28.04.2022
3944 Clouds 17 1018 80 10000 3.12 318 19:39 28.04.2022
3945 Clouds 17 1018 78 10000 2.45 267 19:19 28.04.2022
3946 Rain 16 1018 83 10000 0.18 19 17:56 28.04.2022
3947 Rain 15 1018 76 10000 1.85 318 16:58 28.04.2022
3948 Rain 18 1018 73 10000 3.92 276 16:21 28.04.2022
3949 Clouds 18 1018 73 10000 3.92 276 15:56 28.04.2022
3950 Clouds 19 1018 75 10000 5.04 260 15:21 28.04.2022
3951 Clear 18 1018 67 10000 4.97 252 13:43 28.04.2022
3952 Clear 18 1018 66 10000 4.09 260 12:32 28.04.2022
3953 Clear 17 1018 69 10000 3.66 266 11:50 28.04.2022
3954 Clear 15 1019 78 10000 2.89 244 10:29 28.04.2022
3955 Clear 15 1019 78 10000 2.89 244 09:50 28.04.2022
3956 Clouds 13 1019 86 10000 2.75 243 07:44 28.04.2022
3957 Clouds 11 1018 86 10000 2.68 238 06:53 28.04.2022
3958 Clouds 11 1018 87 10000 2.53 227 05:53 28.04.2022
3959 Clouds 14 1018 87 10000 2.7 226 04:43 28.04.2022
3960 Clouds 15 1018 87 10000 2.06 235 02:45 28.04.2022
3961 Clouds 16 1019 87 10000 1.88 285 23:36 27.04.2022
3962 Clear 17 1018 85 10000 3.19 286 22:25 27.04.2022
3963 Clear 17 1018 85 10000 3.19 286 21:47 27.04.2022
3964 Clear 18 1018 81 10000 4.2 269 20:47 27.04.2022
3965 Clear 19 1017 73 10000 4.42 266 20:29 27.04.2022
3966 Clear 19 1017 74 10000 4.48 270 19:36 27.04.2022
3967 Clear 21 1017 68 10000 5.11 279 18:42 27.04.2022
3968 Clear 21 1016 65 10000 5.67 274 18:21 27.04.2022
3969 Clear 21 1017 69 10000 6.16 273 16:20 27.04.2022
3970 Clouds 19 1017 75 10000 4.28 269 13:21 27.04.2022
3971 Clouds 17 1017 78 10000 3.22 252 11:26 27.04.2022
3972 Clouds 17 1017 78 10000 3.22 252 10:50 27.04.2022
3973 Clouds 14 1016 83 10000 2.32 246 08:28 27.04.2022
3974 Clouds 14 1015 82 10000 2.32 197 06:42 27.04.2022
3975 Clouds 14 1015 83 10000 1.2 11 02:35 27.04.2022
3976 Clouds 15 1016 83 10000 0.9 2 01:23 27.04.2022
3977 Clouds 15 1016 84 10000 0.73 2 00:27 27.04.2022
3978 Clouds 17 1016 85 10000 0.65 11 23:24 26.04.2022
3979 Clouds 17 1016 85 10000 0.65 11 22:45 26.04.2022
3980 Clouds 17 1015 83 10000 2.04 89 22:19 26.04.2022
3981 Clouds 17 1014 81 10000 2.64 80 21:19 26.04.2022
3982 Clouds 18 1014 81 10000 2.64 80 20:37 26.04.2022
3983 Clouds 18 1014 77 10000 1.79 57 19:45 26.04.2022
3984 Clouds 18 1014 71 10000 2.59 67 19:26 26.04.2022
3985 Clouds 19 1014 71 10000 2.59 67 18:39 26.04.2022
3986 Clouds 17 1013 70 10000 3.37 72 17:39 26.04.2022
3987 Clouds 17 1013 69 10000 4.84 82 15:32 26.04.2022
3988 Clouds 18 1014 69 10000 3.13 75 13:40 26.04.2022
3989 Clouds 17 1014 69 10000 3.06 76 12:47 26.04.2022
3990 Clouds 17 1014 77 10000 3.68 73 11:20 26.04.2022
3991 Clouds 16 1013 80 10000 3.59 61 10:30 26.04.2022
3992 Clouds 16 1014 77 10000 3.68 73 10:30 26.04.2022
3993 Clouds 16 1013 84 10000 3 65 08:32 26.04.2022
3994 Clouds 16 1012 84 10000 3.21 56 04:39 26.04.2022
3995 Clouds 15 1012 82 10000 2.98 57 03:59 26.04.2022
3996 Clouds 16 1013 80 10000 1.91 39 00:46 26.04.2022
3997 Clouds 16 1013 80 10000 1.88 29 23:48 25.04.2022
3998 Clouds 17 1012 80 10000 1.62 8 21:49 25.04.2022
3999 Clouds 17 1012 76 10000 1.06 24 21:23 25.04.2022
4000 Clouds 18 1011 72 10000 0.24 311 19:39 25.04.2022
4001 Clouds 19 1011 69 10000 0.72 191 18:25 25.04.2022
4002 Clouds 19 1011 69 10000 0.72 191 17:39 25.04.2022
4003 Clouds 18 1011 69 10000 0.51 244 16:30 25.04.2022
4004 Clouds 18 1012 69 10000 1.56 270 15:19 25.04.2022
4005 Clear 17 1013 69 10000 2.33 251 14:22 25.04.2022
4006 Clear 17 1013 70 10000 1.93 238 12:40 25.04.2022
4007 Clear 14 1013 76 10000 2.02 259 10:29 25.04.2022
4008 Clear 13 1013 76 10000 2.02 259 09:36 25.04.2022
4009 Clouds 13 1012 82 10000 2.25 268 07:34 25.04.2022
4010 Clouds 11 1012 82 10000 2.39 265 05:53 25.04.2022
4011 Clouds 16 1014 76 10000 2.72 284 01:24 25.04.2022
4012 Clouds 15 1014 75 10000 2.67 286 23:54 24.04.2022
4013 Clouds 17 1014 76 10000 2.89 290 23:20 24.04.2022
4014 Clouds 17 1014 76 10000 2.89 290 22:37 24.04.2022
4015 Clouds 15 1014 76 10000 2.73 288 21:54 24.04.2022
4016 Clouds 19 1013 76 10000 3.14 291 21:20 24.04.2022
4017 Clouds 20 1013 76 10000 3.14 291 20:39 24.04.2022
4018 Clouds 20 1013 74 10000 3.83 286 19:51 24.04.2022
4019 Clouds 19 1013 68 10000 4.26 269 18:28 24.04.2022
4020 Clouds 20 1013 68 10000 4.26 269 17:40 24.04.2022
4021 Clouds 19 1013 68 10000 4.57 265 17:19 24.04.2022
4022 Clouds 20 1013 68 10000 4.57 265 16:48 24.04.2022
4023 Clouds 21 1013 68 10000 4.3 258 16:20 24.04.2022
4024 Clouds 20 1013 68 10000 4.3 258 15:31 24.04.2022
4025 Clouds 19 1014 71 10000 3.53 267 14:19 24.04.2022
4026 Clouds 18 1015 74 10000 3.41 275 13:26 24.04.2022
4027 Clouds 18 1015 74 10000 3.41 275 13:26 24.04.2022
4028 Clouds 18 1015 74 10000 3.41 275 12:35 24.04.2022
4029 Clouds 17 1015 76 10000 3.41 261 11:34 24.04.2022
4030 Clouds 15 1015 79 10000 2.91 251 10:30 24.04.2022
4031 Clouds 14 1014 85 10000 1.93 251 09:29 24.04.2022
4032 Clouds 14 1014 85 10000 2.36 275 06:46 24.04.2022
4033 Clouds 14 1014 87 10000 4.32 260 03:57 24.04.2022
4034 Clouds 15 1015 86 10000 5.67 249 01:38 24.04.2022
4035 Clouds 15 1015 86 10000 5.69 249 01:38 24.04.2022
4036 Clouds 15 1015 84 10000 6.66 251 00:29 24.04.2022
4037 Clouds 15 1015 84 10000 6.66 251 23:45 23.04.2022
4038 Clouds 15 1015 82 10000 7.32 252 23:22 23.04.2022
4039 Clear 17 1014 81 10000 8.21 252 21:53 23.04.2022
4040 Clear 17 1014 81 10000 8.21 252 21:34 23.04.2022
4041 Clear 17 1013 79 10000 8.87 253 20:51 23.04.2022
4042 Clouds 17 1013 79 10000 9.33 257 19:47 23.04.2022
4043 Clouds 18 1012 76 10000 9.84 257 19:19 23.04.2022
4044 Clouds 18 1012 76 10000 9.84 257 18:52 23.04.2022
4045 Clouds 19 1012 73 10000 10.22 257 17:51 23.04.2022
4046 Clear 18 1012 71 10000 10.49 257 17:26 23.04.2022
4047 Clear 19 1012 71 10000 10.49 257 16:41 23.04.2022
4048 Clear 19 1012 67 10000 10 256 15:20 23.04.2022
4049 Clear 18 1012 64 10000 9.09 260 12:44 23.04.2022
4050 Clear 16 1011 67 10000 9.66 272 10:43 23.04.2022
4051 Clear 14 1010 68 10000 10.25 275 09:30 23.04.2022
4052 Clouds 15 1008 72 10000 11.71 273 06:31 23.04.2022
4053 Clouds 13 1006 81 10000 13.19 272 03:54 23.04.2022
4054 Clouds 15 1005 88 9701 13.01 253 00:57 23.04.2022
4055 Clouds 14 1005 87 10000 13.63 242 23:29 22.04.2022
4056 Clouds 15 1005 86 10000 14.13 238 22:20 22.04.2022
4057 Clouds 16 1005 86 10000 14.13 238 21:42 22.04.2022
4058 Clouds 15 1004 84 10000 14.21 236 20:46 22.04.2022
4059 Clouds 15 1004 84 10000 13.89 237 20:26 22.04.2022
4060 Clouds 17 1004 78 10000 13.01 237 19:18 22.04.2022
4061 Clouds 17 1004 78 10000 13.01 237 18:36 22.04.2022
4062 Clouds 17 1004 73 10000 13.19 234 17:39 22.04.2022
4063 Clouds 17 1004 73 10000 12.33 233 16:33 22.04.2022
4064 Clouds 17 1005 74 10000 11.79 234 15:32 22.04.2022
4065 Clouds 17 1006 78 10000 10.98 223 14:44 22.04.2022
4066 Clouds 17 1007 78 10000 11.25 219 13:43 22.04.2022
4067 Clouds 16 1007 74 10000 11.04 221 12:57 22.04.2022
4068 Clouds 16 1007 74 10000 11.08 217 11:43 22.04.2022
4069 Clouds 16 1007 76 10000 10.3 217 11:20 22.04.2022
4070 Clouds 15 1007 76 10000 10.3 217 10:47 22.04.2022
4071 Clouds 14 1007 77 10000 9.24 217 10:27 22.04.2022
4072 Clouds 14 1007 77 10000 9.24 217 09:42 22.04.2022
4073 Clouds 14 1007 79 10000 8.54 218 08:49 22.04.2022
4074 Clouds 13 1008 80 10000 7.63 224 06:56 22.04.2022
4075 Clouds 15 1010 81 10000 7.58 224 01:49 22.04.2022
4076 Clouds 16 1012 79 10000 7.4 238 23:53 21.04.2022
4077 Clouds 16 1012 78 10000 7.6 244 22:59 21.04.2022
4078 Clouds 16 1012 77 10000 7.76 251 21:56 21.04.2022
4079 Clouds 16 1012 77 10000 7.73 258 20:34 21.04.2022
4080 Clouds 17 1012 75 10000 7.73 267 19:51 21.04.2022
4081 Clouds 17 1012 66 10000 8.24 262 18:34 21.04.2022
4082 Clear 17 1012 63 10000 8.51 263 17:47 21.04.2022
4083 Clear 17 1013 64 10000 9.02 267 16:24 21.04.2022
4084 Clear 17 1013 65 10000 8.99 267 15:19 21.04.2022
4085 Clouds 17 1013 65 10000 9.2 269 14:38 21.04.2022
4086 Clouds 16 1014 68 10000 8.31 266 13:23 21.04.2022
4087 Clouds 16 1014 68 10000 8.31 266 12:36 21.04.2022
4088 Clouds 14 1014 75 10000 6.06 277 10:20 21.04.2022
4089 Clouds 14 1014 78 10000 5.63 283 08:53 21.04.2022
4090 Clear 14 1013 80 10000 5.57 286 06:55 21.04.2022
4091 Clear 15 1013 71 10000 4.71 285 04:34 21.04.2022
4092 Clear 15 1013 70 10000 4.24 313 03:24 21.04.2022
4093 Clear 15 1013 70 10000 4.24 313 02:46 21.04.2022
4094 Clouds 16 1013 70 10000 5.77 304 00:43 21.04.2022
4095 Clouds 16 1013 69 10000 5.28 286 23:48 20.04.2022
4096 Clouds 16 1013 68 10000 5.62 278 23:21 20.04.2022
4097 Clouds 17 1013 68 10000 5.62 278 22:45 20.04.2022
4098 Clouds 17 1012 68 10000 7.32 272 22:18 20.04.2022
4099 Clouds 17 1012 66 10000 8.33 267 21:23 20.04.2022
4100 Clouds 17 1011 63 10000 8.79 263 20:22 20.04.2022
4101 Clouds 18 1011 63 10000 8.77 263 19:47 20.04.2022
4102 Clouds 18 1011 60 10000 9.22 267 18:52 20.04.2022
4103 Clouds 17 1011 57 10000 9.03 275 17:53 20.04.2022
4104 Clouds 16 1011 54 10000 9.71 279 16:39 20.04.2022
4105 Clouds 16 1012 52 10000 10.6 280 15:39 20.04.2022
4106 Clouds 15 1013 59 10000 11.41 288 12:47 20.04.2022
4107 Clouds 14 1013 58 10000 11.42 293 11:42 20.04.2022
4108 Clouds 13 1013 60 10000 11.51 293 10:51 20.04.2022
4109 Clouds 12 1013 64 10000 9.75 300 09:34 20.04.2022
4110 Clouds 14 1013 66 10000 9.61 302 08:51 20.04.2022
4111 Clouds 13 1012 69 10000 9.33 299 08:19 20.04.2022
4112 Clouds 13 1012 74 10000 8.95 299 06:26 20.04.2022
4113 Clouds 15 1012 74 10000 7.48 306 02:58 20.04.2022
4114 Clouds 17 1013 74 10000 7.95 244 00:22 20.04.2022
4115 Clear 17 1013 78 10000 9.88 235 23:19 19.04.2022
4116 Clear 16 1013 77 10000 9.82 239 22:24 19.04.2022
4117 Clear 15 1013 77 10000 9.82 239 21:55 19.04.2022
4118 Clear 16 1013 73 10000 9.77 246 20:59 19.04.2022
4119 Clear 17 1013 73 10000 9.8 246 20:37 19.04.2022
4120 Clear 17 1012 70 10000 9.34 248 19:41 19.04.2022
4121 Clear 17 1012 70 10000 8.72 253 18:31 19.04.2022
4122 Clear 17 1013 70 10000 9.87 269 17:24 19.04.2022
4123 Clear 17 1013 70 10000 9.87 269 16:42 19.04.2022
4124 Clear 17 1013 70 10000 9.87 269 16:42 19.04.2022
4125 Clouds 17 1014 69 10000 9.71 270 16:20 19.04.2022
4126 Clouds 18 1014 69 10000 9.2 271 14:46 19.04.2022
4127 Clouds 18 1014 69 10000 9.18 271 14:46 19.04.2022
4128 Clouds 17 1015 72 10000 8.44 271 12:58 19.04.2022
4129 Clouds 17 1015 72 10000 8.46 271 12:36 19.04.2022
4130 Clouds 16 1016 73 10000 7.87 274 11:38 19.04.2022
4131 Clouds 17 1015 77 10000 7.01 285 09:52 19.04.2022
4132 Clouds 17 1014 80 10000 6.86 281 08:22 19.04.2022
4133 Clouds 18 1014 94 10000 5.84 239 04:26 19.04.2022
4134 Clouds 17 1014 93 10000 5.45 246 02:41 19.04.2022
4135 Clouds 19 1015 88 10000 4.08 247 00:23 19.04.2022
4136 Clouds 17 1015 84 10000 3.73 254 22:54 18.04.2022
4137 Clouds 21 1014 78 10000 3.24 263 21:28 18.04.2022
4138 Clouds 21 1014 78 10000 3.24 263 20:40 18.04.2022
4139 Clouds 21 1014 76 10000 2.59 257 20:22 18.04.2022
4140 Clouds 21 1013 77 10000 2.45 256 19:40 18.04.2022
4141 Clouds 23 1013 74 10000 1.44 239 18:52 18.04.2022
4142 Clouds 20 1013 72 10000 0.61 179 17:49 18.04.2022
4143 Clouds 20 1013 72 10000 0.61 179 17:49 18.04.2022
4144 Clouds 20 1013 72 10000 0.61 179 17:49 18.04.2022
4145 Clouds 19 1014 72 10000 1.2 96 17:20 18.04.2022
4146 Clouds 20 1014 72 10000 1.2 96 16:40 18.04.2022
4147 Clouds 20 1014 73 10000 2.45 82 15:41 18.04.2022
4148 Clouds 20 1015 74 10000 3.6 80 14:28 18.04.2022
4149 Clouds 19 1016 73 10000 3.23 83 13:25 18.04.2022
4150 Clouds 19 1016 75 10000 3.31 80 12:27 18.04.2022
4151 Clouds 20 1016 76 10000 3.15 77 10:59 18.04.2022
4152 Clouds 20 1015 79 10000 3.39 70 10:18 18.04.2022
4153 Clouds 18 1015 84 10000 3.79 64 09:30 18.04.2022
4154 Clouds 18 1014 84 10000 3.03 63 07:29 18.04.2022
4155 Clouds 18 1014 74 10000 0.21 307 03:51 18.04.2022
4156 Clouds 24 1016 71 10000 2.59 262 23:30 17.04.2022
4157 Clouds 25 1016 74 10000 2.48 265 22:37 17.04.2022
4158 Clouds 26 1016 76 10000 2.49 251 21:34 17.04.2022
4159 Clouds 26 1015 80 10000 2.57 253 20:53 17.04.2022
4160 Clouds 25 1015 81 10000 3.04 256 20:25 17.04.2022
4161 Clouds 26 1015 78 10000 3.42 258 19:20 17.04.2022
4162 Clouds 28 1015 72 10000 3.53 262 17:34 17.04.2022
4163 Clouds 28 1015 63 10000 3.26 251 15:37 17.04.2022
4164 Clouds 27 1016 55 10000 2.51 246 14:53 17.04.2022
4165 Clouds 27 1016 51 10000 2.21 257 13:41 17.04.2022
4166 Clouds 27 1017 52 10000 1.43 269 12:52 17.04.2022
4167 Clear 19 1017 60 10000 0.11 96 10:59 17.04.2022
4168 Clear 17 1017 60 10000 0.11 96 10:30 17.04.2022
4169 Clear 16 1017 62 10000 0.89 87 09:57 17.04.2022
4170 Clear 15 1017 63 10000 1.11 89 09:21 17.04.2022
4171 Clear 15 1017 63 10000 1.11 89 08:41 17.04.2022
4172 Clear 15 1016 59 10000 1.42 51 06:32 17.04.2022
4173 Clear 16 1018 58 10000 2.64 50 02:31 17.04.2022
4174 Clear 18 1019 58 10000 2.4 66 00:42 17.04.2022
4175 Clear 18 1019 59 10000 2.71 78 23:41 16.04.2022
4176 Clear 20 1019 62 10000 3.5 73 21:54 16.04.2022
4177 Clear 21 1019 64 10000 3.64 73 21:19 16.04.2022
4178 Clear 21 1019 64 10000 3.68 76 19:30 16.04.2022
4179 Clear 20 1018 58 10000 3.99 81 18:44 16.04.2022
4180 Clear 20 1019 54 10000 4.33 79 17:21 16.04.2022
4181 Clear 21 1020 54 10000 4.66 81 16:19 16.04.2022
4182 Clear 21 1020 55 10000 4.29 79 14:59 16.04.2022
4183 Clear 21 1020 55 10000 4.29 79 14:41 16.04.2022
4184 Clear 22 1021 56 10000 4.23 80 13:50 16.04.2022
4185 Clear 22 1021 58 10000 3.87 79 13:18 16.04.2022
4186 Clear 19 1021 59 10000 3.95 78 11:50 16.04.2022
4187 Clear 17 1021 62 10000 3.92 71 10:35 16.04.2022
4188 Clear 15 1021 66 10000 3.87 64 09:37 16.04.2022
4189 Clear 14 1020 71 10000 3.83 65 08:52 16.04.2022
4190 Clear 14 1020 72 10000 3.83 66 07:22 16.04.2022
4191 Clear 15 1020 74 10000 3.94 65 05:38 16.04.2022
4192 Clouds 17 1021 79 10000 4.45 67 01:49 16.04.2022
4193 Clear 19 1022 82 10000 4.74 63 23:52 15.04.2022
4194 Clear 17 1022 82 10000 4.51 65 22:51 15.04.2022
4195 Clear 17 1021 82 10000 4.19 72 22:29 15.04.2022
4196 Clear 17 1021 82 10000 4.24 78 21:25 15.04.2022
4197 Clear 18 1021 82 10000 4.24 78 20:38 15.04.2022
4198 Clear 19 1020 78 10000 4.48 84 19:45 15.04.2022
4199 Clear 19 1020 74 10000 5.26 80 18:59 15.04.2022
4200 Clear 19 1020 74 10000 5.26 80 18:41 15.04.2022
4201 Clear 19 1019 72 10000 5.38 81 18:21 15.04.2022
4202 Clear 18 1019 70 10000 5.13 82 17:26 15.04.2022
4203 Clear 18 1020 69 10000 5.06 86 16:25 15.04.2022
4204 Clear 18 1020 69 10000 5.06 86 15:46 15.04.2022
4205 Clear 18 1020 70 10000 4.19 87 14:18 15.04.2022
4206 Clear 18 1020 70 10000 3.02 88 12:52 15.04.2022
4207 Clear 19 1020 71 10000 1.99 93 12:26 15.04.2022
4208 Clear 19 1020 71 10000 1.99 93 11:51 15.04.2022
4209 Clear 16 1019 74 10000 1.63 101 10:46 15.04.2022
4210 Clear 15 1019 77 10000 1.36 93 10:20 15.04.2022
4211 Clear 15 1019 81 10000 1.43 79 09:22 15.04.2022
4212 Clear 14 1019 81 10000 1.43 79 08:40 15.04.2022
4213 Clear 12 1018 86 10000 1.92 49 06:50 15.04.2022
4214 Clear 15 1018 87 10000 2.81 58 04:49 15.04.2022
4215 Clouds 17 1019 85 10000 0.38 225 00:46 15.04.2022
4216 Clouds 17 1019 83 10000 2 259 23:26 14.04.2022
4217 Clouds 17 1019 83 10000 2.02 259 22:46 14.04.2022
4218 Clouds 17 1018 83 10000 2.72 252 22:27 14.04.2022
4219 Clouds 17 1018 83 10000 2.72 252 21:50 14.04.2022
4220 Clouds 19 1016 80 10000 1.38 209 19:41 14.04.2022
4221 Clouds 19 1016 78 10000 1.81 234 19:20 14.04.2022
4222 Clouds 21 1015 77 10000 2.93 234 17:45 14.04.2022
4223 Clouds 20 1015 75 10000 3.57 242 16:51 14.04.2022
4224 Clouds 20 1016 75 10000 4.47 242 15:52 14.04.2022
4225 Clear 22 1017 77 10000 5.35 262 13:54 14.04.2022
4226 Clear 21 1017 78 10000 5.64 261 13:21 14.04.2022
4227 Clear 20 1017 78 10000 5.64 261 12:32 14.04.2022
4228 Clear 19 1017 80 10000 6.57 259 11:47 14.04.2022
4229 Clouds 19 1016 82 10000 6.65 254 11:18 14.04.2022
4230 Clouds 17 1016 82 10000 6.65 254 10:31 14.04.2022
4231 Clouds 16 1016 85 10000 5.93 250 09:30 14.04.2022
4232 Clouds 15 1015 90 10000 5.38 243 08:24 14.04.2022
4233 Clouds 14 1014 91 10000 4.89 239 05:57 14.04.2022
4234 Clear 17 1016 87 10000 4.33 240 00:59 14.04.2022
4235 Clear 18 1016 84 10000 4.25 253 22:38 13.04.2022
4236 Clear 18 1016 84 10000 4.25 253 22:38 13.04.2022
4237 Clear 18 1016 83 10000 4.2 258 21:43 13.04.2022
4238 Clear 19 1015 81 10000 4.73 260 20:45 13.04.2022
4239 Clear 21 1014 77 10000 5.4 259 19:54 13.04.2022
4240 Clear 21 1013 72 10000 5.95 266 18:39 13.04.2022
4241 Clear 20 1013 69 10000 6.4 270 17:41 13.04.2022
4242 Clear 20 1013 69 10000 6.77 271 17:23 13.04.2022
4243 Clear 20 1014 68 10000 7.48 275 16:18 13.04.2022
4244 Clear 19 1014 68 10000 7.19 274 15:29 13.04.2022
4245 Clear 19 1014 68 10000 7.21 274 14:40 13.04.2022
4246 Clear 19 1014 68 10000 6.63 272 13:43 13.04.2022
4247 Clear 17 1015 69 10000 5.54 278 12:52 13.04.2022
4248 Clear 17 1015 71 10000 5.13 278 11:58 13.04.2022
4249 Clear 16 1015 74 10000 4.77 278 10:34 13.04.2022
4250 Clear 14 1014 82 10000 3.83 276 08:49 13.04.2022
4251 Clear 14 1013 83 10000 3.65 274 08:23 13.04.2022
4252 Clouds 14 1013 84 10000 3.66 267 06:49 13.04.2022
4253 Clouds 14 1012 84 10000 3.51 254 06:24 13.04.2022
4254 Clouds 15 1013 84 10000 3.56 262 02:24 13.04.2022
4255 Clouds 17 1014 85 10000 4.53 264 00:20 13.04.2022
4256 Clouds 17 1013 85 10000 4.78 260 22:34 12.04.2022
4257 Clouds 17 1013 85 10000 5.33 256 21:54 12.04.2022
4258 Clouds 17 1012 85 10000 5.28 258 20:48 12.04.2022
4259 Clouds 18 1012 82 10000 5.91 260 20:22 12.04.2022
4260 Clouds 18 1012 81 10000 5.83 264 19:40 12.04.2022
4261 Clouds 18 1011 77 10000 6.49 264 18:56 12.04.2022
4262 Clouds 19 1011 73 10000 6.87 260 17:39 12.04.2022
4263 Clouds 19 1011 70 10000 6.97 262 16:47 12.04.2022
4264 Clouds 18 1012 69 10000 7.47 260 15:34 12.04.2022
4265 Clouds 17 1012 71 10000 7.25 247 14:53 12.04.2022
4266 Clouds 18 1012 72 10000 7.39 239 13:50 12.04.2022
4267 Clouds 16 1012 75 10000 7.49 237 13:25 12.04.2022
4268 Clouds 17 1012 77 10000 7.29 237 12:18 12.04.2022
4269 Clouds 16 1012 77 10000 7.29 237 11:35 12.04.2022
4270 Clouds 15 1012 84 10000 5 229 09:47 12.04.2022
4271 Clouds 15 1012 85 10000 4.38 234 08:49 12.04.2022
4272 Clouds 16 1011 86 10000 4.45 244 06:47 12.04.2022
4273 Clouds 16 1011 86 10000 4.25 246 05:41 12.04.2022
4274 Clouds 17 1011 86 10000 4.97 253 02:37 12.04.2022
4275 Clouds 17 1011 83 10000 5.34 254 23:24 11.04.2022
4276 Clouds 18 1011 83 10000 5.34 254 22:32 11.04.2022
4277 Clouds 18 1009 86 10000 6.64 242 21:22 11.04.2022
4278 Clouds 18 1009 86 10000 6.64 242 20:35 11.04.2022
4279 Clouds 18 1009 83 10000 6.13 250 19:59 11.04.2022
4280 Clouds 17 1008 80 10000 5.47 244 19:27 11.04.2022
4281 Clouds 17 1008 80 10000 5.47 244 18:54 11.04.2022
4282 Clouds 18 1009 79 10000 3.61 233 17:58 11.04.2022
4283 Clouds 18 1009 79 10000 3.61 233 17:39 11.04.2022
4284 Clouds 18 1009 80 10000 2 218 16:33 11.04.2022
4285 Clouds 17 1010 79 10000 1.09 88 14:49 11.04.2022
4286 Clouds 17 1010 79 10000 3.45 73 13:36 11.04.2022
4287 Clouds 17 1011 80 10000 3.36 85 12:39 11.04.2022
4288 Clouds 17 1011 82 10000 3.08 92 12:20 11.04.2022
4289 Clouds 16 1011 84 10000 2.85 91 10:37 11.04.2022
4290 Clouds 16 1010 86 10000 3.52 93 09:49 11.04.2022
4291 Clouds 14 1010 88 10000 3.94 90 07:58 11.04.2022
4292 Clouds 16 1010 89 10000 5.13 84 04:18 11.04.2022
4293 Clouds 17 1012 91 10000 6.86 79 23:27 10.04.2022
4294 Clouds 17 1011 91 10000 7.05 79 22:26 10.04.2022
4295 Clouds 17 1011 91 10000 7.05 79 21:49 10.04.2022
4296 Clouds 17 1011 89 10000 7.48 78 20:50 10.04.2022
4297 Clouds 17 1011 89 10000 7.48 78 20:50 10.04.2022
4298 Clouds 18 1011 86 10000 7.53 80 19:54 10.04.2022
4299 Clouds 18 1011 86 10000 7.53 80 19:33 10.04.2022
4300 Clouds 18 1011 82 10000 7.98 83 18:46 10.04.2022
4301 Clouds 18 1011 77 10000 8.29 84 18:20 10.04.2022
4302 Clouds 18 1011 77 10000 8.29 84 17:41 10.04.2022
4303 Clouds 18 1011 74 10000 8.55 82 16:47 10.04.2022
4304 Clouds 18 1012 74 10000 8.73 81 15:37 10.04.2022
4305 Clouds 18 1012 73 10000 8.87 79 14:37 10.04.2022
4306 Clouds 17 1013 74 10000 8.22 77 12:50 10.04.2022
4307 Clouds 17 1014 76 10000 8.27 78 12:26 10.04.2022
4308 Clouds 16 1013 79 10000 8.13 79 11:29 10.04.2022
4309 Clouds 15 1013 79 10000 8.13 79 10:57 10.04.2022
4310 Clouds 15 1013 85 10000 7.15 78 10:20 10.04.2022
4311 Clouds 16 1013 85 10000 7.15 78 09:39 10.04.2022
4312 Clouds 15 1013 89 10000 5.75 77 08:24 10.04.2022
4313 Clouds 15 1013 88 10000 5.92 78 07:42 10.04.2022
4314 Clouds 11 1014 85 10000 4.95 80 05:57 10.04.2022
4315 Clouds 16 1015 85 10000 2.4 78 02:37 10.04.2022
4316 Clouds 18 1016 85 10000 0.6 123 00:34 10.04.2022
4317 Clouds 18 1017 86 10000 0.57 229 23:49 09.04.2022
4318 Clouds 14 1017 87 10000 1.37 274 22:50 09.04.2022
4319 Clouds 19 1017 87 10000 2.36 275 21:46 09.04.2022
4320 Clouds 16 1016 86 10000 2.68 263 20:50 09.04.2022
4321 Clouds 20 1016 83 10000 3.47 262 20:26 09.04.2022
4322 Clouds 20 1016 83 10000 3.07 263 19:42 09.04.2022
4323 Clouds 20 1016 78 10000 3.89 267 19:18 09.04.2022
4324 Clouds 22 1016 76 10000 3.69 257 18:21 09.04.2022
4325 Clouds 20 1016 76 10000 3.69 257 17:39 09.04.2022
4326 Clouds 21 1017 76 10000 4.13 259 16:52 09.04.2022
4327 Clear 21 1018 76 10000 4.48 255 15:55 09.04.2022
4328 Clear 20 1018 75 10000 4.88 253 15:30 09.04.2022
4329 Clear 20 1018 75 10000 4.9 253 14:44 09.04.2022
4330 Clear 20 1019 73 10000 4.62 255 14:23 09.04.2022
4331 Clear 20 1020 72 10000 4.02 262 13:18 09.04.2022
4332 Clear 19 1020 72 10000 4.02 262 12:41 09.04.2022
4333 Clear 18 1020 76 10000 4.64 271 11:22 09.04.2022
4334 Clear 16 1020 79 10000 4.27 271 10:21 09.04.2022
4335 Clear 15 1020 79 10000 4.27 271 09:38 09.04.2022
4336 Clear 12 1020 82 10000 3.75 275 08:53 09.04.2022
4337 Clouds 14 1019 85 10000 3.89 276 07:21 09.04.2022
4338 Clouds 14 1021 88 10000 3.96 271 02:20 09.04.2022
4339 Clouds 16 1022 85 10000 4 276 23:45 08.04.2022
4340 Clouds 17 1022 82 10000 4.71 279 21:58 08.04.2022
4341 Clouds 17 1021 81 10000 5.17 279 21:29 08.04.2022
4342 Clouds 18 1021 81 10000 5.17 279 20:38 08.04.2022
4343 Clouds 20 1021 73 10000 5.87 275 19:20 08.04.2022
4344 Clouds 20 1021 70 10000 5.96 272 18:29 08.04.2022
4345 Clouds 20 1021 70 10000 5.96 272 17:46 08.04.2022
4346 Clouds 22 1021 68 10000 6.19 273 17:22 08.04.2022
4347 Clouds 22 1021 68 10000 6.19 273 16:47 08.04.2022
4348 Clouds 21 1021 68 10000 6.36 275 15:57 08.04.2022
4349 Clouds 20 1022 67 10000 6.07 272 15:26 08.04.2022
4350 Clouds 20 1022 68 10000 5.87 273 14:26 08.04.2022
4351 Clouds 19 1022 68 10000 5.95 273 13:45 08.04.2022
4352 Clouds 19 1023 70 10000 5.78 270 13:27 08.04.2022
4353 Clear 18 1023 71 10000 5.38 270 11:54 08.04.2022
4354 Clear 16 1023 74 10000 5.27 270 10:33 08.04.2022
4355 Clear 14 1023 76 10000 4.62 265 09:37 08.04.2022
4356 Clear 14 1022 81 10000 4.5 271 08:34 08.04.2022
4357 Clear 10 1021 87 10000 3.99 254 06:54 08.04.2022
4358 Clear 10 1022 87 10000 3.67 266 04:58 08.04.2022
4359 Clear 15 1023 79 10000 2.97 286 01:26 08.04.2022
4360 Clear 16 1023 77 10000 3.02 281 00:22 08.04.2022
4361 Clear 14 1023 77 10000 3.13 279 22:59 07.04.2022
4362 Clear 17 1023 77 10000 3.13 280 22:39 07.04.2022
4363 Clear 17 1023 79 10000 3.37 275 22:20 07.04.2022
4364 Clear 18 1023 79 10000 3.37 275 21:49 07.04.2022
4365 Clear 19 1022 80 10000 3.73 275 20:58 07.04.2022
4366 Clear 19 1022 80 10000 3.73 275 20:30 07.04.2022
4367 Clear 22 1021 71 10000 4.73 269 18:29 07.04.2022
4368 Clear 20 1021 70 10000 4.65 262 17:25 07.04.2022
4369 Clear 20 1021 70 10000 4.64 263 16:44 07.04.2022
4370 Clear 19 1022 70 10000 4.41 258 16:21 07.04.2022
4371 Clear 19 1023 70 10000 4.15 258 14:42 07.04.2022
4372 Clear 19 1023 70 10000 4.23 270 13:42 07.04.2022
4373 Clear 18 1024 71 10000 4.17 269 12:41 07.04.2022
4374 Clear 16 1024 75 10000 3.37 259 11:29 07.04.2022
4375 Clear 14 1023 79 10000 2.99 258 09:37 07.04.2022
4376 Clear 13 1023 83 10000 2.73 258 08:37 07.04.2022
4377 Clear 14 1022 83 10000 2.83 271 06:42 07.04.2022
4378 Clear 14 1022 83 10000 3.46 267 02:47 07.04.2022
4379 Clear 14 1023 83 10000 3.61 263 02:18 07.04.2022
4380 Clouds 12 1023 83 10000 4.13 263 23:57 06.04.2022
4381 Clouds 15 1023 83 10000 4.1 266 22:48 06.04.2022
4382 Clear 15 1022 83 10000 4 270 22:25 06.04.2022
4383 Clear 16 1022 83 10000 4 270 21:32 06.04.2022
4384 Clear 17 1020 80 10000 4.43 274 20:28 06.04.2022
4385 Clear 17 1020 80 10000 4.43 274 19:53 06.04.2022
4386 Clouds 18 1019 77 10000 5.76 279 18:51 06.04.2022
4387 Clouds 18 1018 75 10000 5.62 278 17:57 06.04.2022
4388 Clouds 18 1018 75 10000 5.62 278 17:35 06.04.2022
4389 Clear 18 1018 74 10000 5.6 278 16:36 06.04.2022
4390 Clouds 18 1019 72 10000 5.8 279 15:48 06.04.2022
4391 Clouds 18 1019 70 10000 5.57 275 14:35 06.04.2022
4392 Clouds 16 1019 70 10000 5.18 274 12:58 06.04.2022
4393 Clouds 16 1019 71 10000 5.15 274 11:55 06.04.2022
4394 Clouds 14 1018 75 10000 5.02 271 10:45 06.04.2022
4395 Clouds 13 1017 79 10000 5.18 269 10:20 06.04.2022
4396 Clouds 13 1017 79 10000 5.18 269 09:40 06.04.2022
4397 Clouds 13 1016 82 10000 5.01 268 08:32 06.04.2022
4398 Clouds 13 1015 86 10000 2.89 252 07:47 06.04.2022
4399 Rain 14 1009 91 4531 8.99 62 03:37 06.04.2022
4400 Clouds 14 1011 83 10000 7.72 94 23:51 05.04.2022
4401 Clouds 14 1011 83 10000 7.05 94 22:30 05.04.2022
4402 Clouds 14 1010 79 10000 6.09 97 21:19 05.04.2022
4403 Clouds 15 1010 76 10000 5.23 99 20:25 05.04.2022
4404 Rain 14 1010 74 10000 2.5 93 19:41 05.04.2022
4405 Clouds 15 1010 72 10000 3.39 171 17:55 05.04.2022
4406 Clouds 14 1009 66 10000 3.37 140 16:54 05.04.2022
4407 Clouds 15 1010 63 10000 4.79 158 15:53 05.04.2022
4408 Clouds 15 1010 63 10000 4.79 158 15:33 05.04.2022
4409 Clouds 15 1010 62 10000 5.02 194 14:27 05.04.2022
4410 Clouds 14 1011 63 10000 3.07 165 12:56 05.04.2022
4411 Clouds 14 1011 64 10000 3.12 172 11:50 05.04.2022
4412 Clouds 13 1011 64 10000 3.12 172 11:32 05.04.2022
4413 Clouds 12 1010 73 10000 3.18 138 09:52 05.04.2022
4414 Clouds 12 1009 74 10000 3.85 152 08:52 05.04.2022
4415 Clouds 13 1008 89 3846 6.88 118 06:58 05.04.2022
4416 Clouds 12 1009 89 9281 11.61 104 01:51 05.04.2022
4417 Clouds 12 1008 85 10000 14.09 100 22:42 04.04.2022
4418 Clouds 12 1007 82 10000 15.08 97 22:22 04.04.2022
4419 Rain 12 1006 82 10000 15.97 102 21:21 04.04.2022
4420 Rain 12 1006 82 10000 15.94 102 21:21 04.04.2022
4421 Clouds 13 1006 82 10000 15.97 102 20:49 04.04.2022
4422 Rain 13 1006 87 6284 15.11 99 19:45 04.04.2022
4423 Rain 13 1005 86 8099 15.47 92 19:25 04.04.2022
4424 Rain 13 1004 85 10000 16.16 86 18:20 04.04.2022
4425 Rain 13 1004 84 10000 15.92 85 16:36 04.04.2022
4426 Rain 13 1005 82 10000 15.44 83 15:43 04.04.2022
4427 Rain 13 1005 84 10000 15.71 85 15:25 04.04.2022
4428 Rain 13 1005 84 10000 15.71 85 14:46 04.04.2022
4429 Rain 13 1005 86 10000 16.61 92 13:22 04.04.2022
4430 Rain 13 1005 79 10000 16.72 92 11:55 04.04.2022
4431 Rain 13 1005 78 10000 16.91 91 11:28 04.04.2022
4432 Clouds 14 1004 77 10000 16.86 92 08:36 04.04.2022
4433 Clouds 13 1006 73 10000 16.13 95 03:52 04.04.2022
4434 Clouds 14 1008 72 10000 15.33 97 00:41 04.04.2022
4435 Clouds 14 1008 71 10000 14.47 95 22:36 03.04.2022
4436 Clouds 14 1008 70 10000 14.1 96 21:44 03.04.2022
4437 Clouds 14 1007 69 10000 14.32 94 20:54 03.04.2022
4438 Clouds 15 1007 68 10000 14.02 93 19:49 03.04.2022
4439 Clouds 15 1007 68 10000 14.26 92 18:32 03.04.2022
4440 Clouds 15 1007 67 10000 14.19 93 17:47 03.04.2022
4441 Clouds 15 1008 66 10000 14.36 94 16:57 03.04.2022
4442 Clouds 15 1008 66 10000 14.36 94 16:39 03.04.2022
4443 Clouds 16 1008 65 10000 14.21 92 14:39 03.04.2022
4444 Clouds 15 1009 64 10000 14.41 92 13:51 03.04.2022
4445 Clouds 15 1009 63 10000 14.03 94 12:41 03.04.2022
4446 Clouds 15 1010 62 10000 14.07 92 10:58 03.04.2022
4447 Clouds 15 1009 63 10000 13.78 93 09:36 03.04.2022
4448 Clouds 14 1009 62 10000 13.1 90 08:27 03.04.2022
4449 Clouds 14 1010 65 10000 11.37 85 04:42 03.04.2022
4450 Clouds 14 1012 65 10000 10.76 85 01:53 03.04.2022
4451 Clouds 15 1014 66 10000 9.64 82 23:21 02.04.2022
4452 Clouds 14 1014 66 10000 9.43 82 21:58 02.04.2022
4453 Clouds 15 1014 66 10000 9.43 82 21:36 02.04.2022
4454 Clouds 15 1014 67 10000 9.33 83 21:18 02.04.2022
4455 Clouds 16 1013 69 10000 9.92 82 19:53 02.04.2022
4456 Clouds 16 1014 70 10000 11.04 84 18:23 02.04.2022
4457 Clouds 17 1014 70 10000 11.04 84 17:53 02.04.2022
4458 Clouds 16 1014 69 10000 11.73 82 16:25 02.04.2022
4459 Clouds 17 1015 72 10000 12.68 77 15:21 02.04.2022
4460 Clouds 17 1015 72 10000 12.68 77 14:49 02.04.2022
4461 Clouds 17 1015 71 10000 12.66 77 14:49 02.04.2022
4462 Clouds 17 1016 68 10000 12.01 74 13:35 02.04.2022
4463 Clouds 16 1016 70 10000 11.82 75 12:38 02.04.2022
4464 Clouds 16 1016 70 10000 11.31 73 11:31 02.04.2022
4465 Clouds 15 1015 78 10000 7.03 71 09:30 02.04.2022
4466 Clear 10 1014 84 10000 1.18 77 06:51 02.04.2022
4467 Clear 14 1015 82 10000 1.11 283 03:52 02.04.2022
4468 Clouds 12 1017 80 10000 3.44 272 23:57 01.04.2022
4469 Clouds 15 1017 80 10000 3.44 272 23:30 01.04.2022
4470 Clouds 16 1017 79 10000 3.64 261 21:42 01.04.2022
4471 Clouds 16 1016 79 10000 3.73 258 20:51 01.04.2022
4472 Clouds 17 1016 76 10000 3.97 265 20:28 01.04.2022
4473 Clouds 18 1016 76 10000 3.62 262 19:34 01.04.2022
4474 Clouds 18 1015 72 10000 4.38 266 18:48 01.04.2022
4475 Clouds 18 1015 69 10000 5.06 275 17:47 01.04.2022
4476 Clouds 18 1016 68 10000 6.06 281 16:53 01.04.2022
4477 Clouds 17 1016 69 10000 6.82 282 15:41 01.04.2022
4478 Clouds 17 1017 73 10000 7.18 281 14:25 01.04.2022
4479 Clouds 16 1017 73 10000 6.89 282 13:34 01.04.2022
4480 Clouds 15 1017 76 10000 5.67 290 12:32 01.04.2022
4481 Clouds 14 1017 76 10000 5.68 289 11:40 01.04.2022
4482 Clouds 14 1017 81 10000 5.59 304 10:19 01.04.2022
4483 Clouds 13 1016 84 10000 5.41 303 08:58 01.04.2022
4484 Clear 14 1015 80 10000 6.58 297 06:54 01.04.2022
4485 Clear 14 1015 80 10000 7.11 295 04:51 01.04.2022
4486 Clear 14 1015 80 10000 7.11 295 04:31 01.04.2022
4487 Clouds 15 1015 80 10000 7.83 289 01:56 01.04.2022
4488 Clouds 15 1014 77 10000 7.7 287 22:58 31.03.2022
4489 Clouds 15 1013 80 10000 9.68 278 21:51 31.03.2022
4490 Clouds 17 1013 80 10000 9.68 278 21:32 31.03.2022
4491 Clouds 18 1012 82 10000 10.73 270 20:29 31.03.2022
4492 Clouds 18 1012 82 10000 10.73 270 19:48 31.03.2022
4493 Clear 18 1011 82 10000 10.59 268 18:44 31.03.2022
4494 Clear 19 1011 81 10000 10.15 269 17:49 31.03.2022
4495 Clear 18 1011 79 10000 9.93 276 16:38 31.03.2022
4496 Clouds 17 1011 78 10000 10.1 277 15:43 31.03.2022
4497 Clouds 17 1011 80 10000 9.75 282 15:19 31.03.2022
4498 Clouds 16 1011 80 10000 9.75 282 14:35 31.03.2022
4499 Clouds 17 1012 88 10000 11.61 259 11:43 31.03.2022
4500 Clouds 17 1012 85 10000 11.08 251 11:20 31.03.2022
4501 Clouds 16 1012 85 10000 10 259 09:44 31.03.2022
4502 Clouds 15 1011 87 10000 8.3 275 07:55 31.03.2022
4503 Clouds 15 1011 87 10000 7.65 285 04:46 31.03.2022
4504 Clear 16 1011 80 10000 8.09 295 23:37 30.03.2022
4505 Clear 16 1010 73 10000 9.54 280 22:27 30.03.2022
4506 Clear 17 1010 73 10000 9.54 280 21:38 30.03.2022
4507 Clear 17 1009 76 10000 9.84 264 20:44 30.03.2022
4508 Clouds 17 1009 79 10000 10.28 260 19:59 30.03.2022
4509 Clouds 17 1008 78 10000 10.33 257 18:59 30.03.2022
4510 Clouds 16 1008 73 10000 10.05 259 17:53 30.03.2022
4511 Clouds 16 1008 73 10000 10.05 259 17:34 30.03.2022
4512 Clouds 16 1008 72 10000 9.39 264 16:51 30.03.2022
4513 Clouds 17 1008 72 10000 9.39 264 16:30 30.03.2022
4514 Clouds 17 1009 74 10000 9.45 279 14:56 30.03.2022
4515 Clouds 16 1009 81 10000 8.83 282 13:34 30.03.2022
4516 Clouds 15 1009 83 10000 8.15 284 12:41 30.03.2022
4517 Clouds 14 1009 83 10000 7.49 288 10:54 30.03.2022
4518 Clouds 15 1008 86 10000 6.78 290 09:58 30.03.2022
4519 Clouds 14 1007 89 10000 6.03 293 08:57 30.03.2022
4520 Clouds 15 1007 90 10000 7.59 236 07:31 30.03.2022
4521 Clouds 15 1006 87 10000 6.38 225 05:40 30.03.2022
4522 Clouds 15 1008 88 10000 5.3 227 03:21 30.03.2022
4523 Clouds 16 1009 91 10000 3.73 244 23:32 29.03.2022
4524 Rain 15 1009 93 5820 3.79 274 22:18 29.03.2022
4525 Rain 17 1009 93 5805 3.8 274 21:40 29.03.2022
4526 Clouds 17 1008 92 7722 4.41 277 20:39 29.03.2022
4527 Clouds 18 1007 91 10000 4.68 305 19:35 29.03.2022
4528 Clouds 18 1007 89 10000 4.93 278 18:54 29.03.2022
4529 Clouds 17 1007 88 9912 2.59 245 17:57 29.03.2022
4530 Clouds 18 1007 90 10000 1.12 112 17:20 29.03.2022
4531 Clouds 17 1007 90 10000 1.12 112 16:54 29.03.2022
4532 Clouds 16 1008 91 10000 1.79 105 15:44 29.03.2022
4533 Clouds 16 1009 91 10000 2.5 102 14:43 29.03.2022
4534 Clouds 16 1009 91 10000 2.5 102 14:43 29.03.2022
4535 Clouds 16 1010 91 10000 1.94 107 13:36 29.03.2022
4536 Clouds 15 1010 91 10000 1.94 107 12:39 29.03.2022
4537 Rain 15 1011 90 10000 3.19 98 11:24 29.03.2022
4538 Rain 15 1011 91 10000 3.35 96 10:20 29.03.2022
4539 Rain 15 1010 92 10000 3.73 99 08:52 29.03.2022
4540 Clouds 15 1011 92 10000 4.36 95 06:53 29.03.2022
4541 Clouds 15 1012 92 10000 6.26 100 02:52 29.03.2022
4542 Clouds 16 1014 92 10000 7.8 101 23:37 28.03.2022
4543 Rain 16 1014 91 10000 8.26 100 22:57 28.03.2022
4544 Rain 16 1014 91 10000 8.26 100 22:33 28.03.2022
4545 Rain 16 1013 91 10000 8.82 97 21:43 28.03.2022
4546 Rain 16 1013 92 10000 9.5 91 20:35 28.03.2022
4547 Clouds 16 1013 90 10000 9.86 92 19:48 28.03.2022
4548 Clouds 16 1013 90 10000 9.86 92 19:30 28.03.2022
4549 Rain 16 1013 89 10000 10.47 88 18:50 28.03.2022
4550 Clouds 17 1014 89 10000 11.08 88 17:41 28.03.2022
4551 Clouds 16 1014 89 10000 11.68 86 16:48 28.03.2022
4552 Clouds 16 1015 88 10000 14.18 88 15:22 28.03.2022
4553 Clouds 16 1016 88 10000 14.85 90 14:24 28.03.2022
4554 Clouds 16 1016 87 10000 15.36 92 13:19 28.03.2022
4555 Clouds 16 1016 86 10000 15.98 92 11:52 28.03.2022
4556 Clouds 15 1016 88 10000 16.21 94 09:55 28.03.2022
4557 Clouds 15 1016 89 10000 16.06 94 09:21 28.03.2022
4558 Clouds 15 1016 90 10000 15.99 92 08:23 28.03.2022
4559 Clouds 16 1016 90 10000 15.99 92 07:59 28.03.2022
4560 Clouds 16 1016 90 10000 15.2 90 06:30 28.03.2022
4561 Clouds 16 1020 87 10000 13.15 96 00:19 28.03.2022
4562 Clouds 16 1020 89 10000 12.99 97 22:35 27.03.2022
4563 Clouds 16 1020 88 10000 12.74 97 21:43 27.03.2022
4564 Clouds 16 1019 88 10000 12.66 94 20:58 27.03.2022
4565 Clouds 16 1018 87 10000 12.58 96 20:21 27.03.2022
4566 Clouds 16 1018 87 10000 12.55 96 19:36 27.03.2022
4567 Clouds 16 1017 86 10000 13.46 94 18:30 27.03.2022
4568 Clouds 16 1017 85 10000 13.48 92 17:55 27.03.2022
4569 Clouds 16 1017 85 10000 13.48 92 17:35 27.03.2022
4570 Clouds 16 1017 85 10000 13.48 92 17:35 27.03.2022
4571 Clouds 17 1017 84 10000 14.31 92 15:47 27.03.2022
4572 Clouds 16 1018 86 10000 14.58 93 13:57 27.03.2022
4573 Clouds 17 1018 87 10000 14.73 92 12:58 27.03.2022
4574 Clouds 16 1018 88 10000 14.72 91 11:30 27.03.2022
4575 Clouds 16 1017 89 10000 13.72 90 09:37 27.03.2022
4576 Clouds 14 1016 89 10000 12.61 93 06:54 27.03.2022
4577 Clouds 14 1017 87 10000 10.07 103 01:55 27.03.2022
4578 Clear 15 1017 87 10000 8.76 96 00:25 27.03.2022
4579 Clear 16 1017 86 10000 7.9 93 22:45 26.03.2022
4580 Clear 16 1017 86 10000 6.86 90 21:50 26.03.2022
4581 Clear 16 1016 85 10000 6.66 87 21:28 26.03.2022
4582 Clear 16 1016 83 10000 6.18 90 19:31 26.03.2022
4583 Clear 16 1015 74 10000 6.34 97 18:24 26.03.2022
4584 Clear 17 1015 74 10000 6.34 97 17:33 26.03.2022
4585 Clear 17 1015 72 10000 6.24 93 16:30 26.03.2022
4586 Clear 17 1015 70 10000 6.12 88 15:35 26.03.2022
4587 Clear 16 1015 69 10000 4.89 92 13:55 26.03.2022
4588 Clouds 16 1015 70 10000 4.8 90 13:19 26.03.2022
4589 Clouds 15 1016 72 10000 4.54 90 11:42 26.03.2022
4590 Clouds 14 1015 79 10000 4.02 87 10:32 26.03.2022
4591 Clouds 13 1014 81 10000 3.84 85 08:44 26.03.2022
4592 Clouds 13 1013 82 10000 2.71 85 06:30 26.03.2022
4593 Clouds 13 1013 82 10000 3.68 83 05:28 26.03.2022
4594 Clouds 14 1013 82 10000 5 83 00:30 26.03.2022
4595 Clouds 13 1014 84 10000 5.78 86 21:56 25.03.2022
4596 Clouds 14 1013 84 10000 6.15 90 20:46 25.03.2022
4597 Clouds 14 1013 82 10000 6.31 86 20:20 25.03.2022
4598 Clouds 14 1012 78 10000 4.8 97 18:51 25.03.2022
4599 Clouds 15 1011 74 10000 3.09 95 17:49 25.03.2022
4600 Clouds 15 1011 70 10000 2.32 61 17:27 25.03.2022
4601 Clouds 15 1011 69 10000 2.89 31 16:18 25.03.2022
4602 Clouds 16 1012 65 10000 2.93 49 14:26 25.03.2022
4603 Clouds 15 1012 67 10000 3.47 71 13:24 25.03.2022
4604 Clouds 14 1012 78 10000 2.26 88 10:26 25.03.2022
4605 Clouds 13 1012 80 10000 1.91 89 09:28 25.03.2022
4606 Clouds 11 1011 83 10000 2.24 62 08:24 25.03.2022
4607 Clouds 11 1010 82 10000 2.15 59 07:28 25.03.2022
4608 Clouds 12 1009 81 10000 0.21 83 06:24 25.03.2022
4609 Rain 12 1009 93 4375 4.29 203 01:18 25.03.2022
4610 Rain 13 1008 96 2559 0.11 173 22:51 24.03.2022
4611 Rain 14 1009 94 8792 3.06 350 21:45 24.03.2022
4612 Rain 13 1009 95 5195 2.16 334 20:26 24.03.2022
4613 Rain 13 1009 95 5195 2.16 334 19:47 24.03.2022
4614 Rain 13 1009 93 2678 2.74 242 17:47 24.03.2022
4615 Rain 13 1009 90 8417 4.28 237 17:19 24.03.2022
4616 Clouds 12 1010 89 10000 2.81 247 15:45 24.03.2022
4617 Clouds 12 1011 88 10000 2.69 253 14:48 24.03.2022
4618 Rain 12 1012 87 10000 2.15 238 14:18 24.03.2022
4619 Clouds 12 1012 83 10000 1.64 209 12:52 24.03.2022
4620 Clouds 12 1013 85 10000 0.6 158 11:45 24.03.2022
4621 Clouds 12 1012 87 10000 0.73 193 09:53 24.03.2022
4622 Clouds 12 1012 88 10000 0.22 78 08:42 24.03.2022
4623 Rain 12 1010 74 10000 0.58 154 06:49 24.03.2022
4624 Clouds 12 1010 77 10000 7.44 206 03:57 24.03.2022
4625 Rain 15 1010 96 1593 3.83 138 23:20 23.03.2022
4626 Rain 15 1010 96 1593 3.83 138 23:20 23.03.2022
4627 Rain 16 1010 93 3439 6.04 116 21:39 23.03.2022
4628 Rain 16 1010 92 4473 7.56 110 21:18 23.03.2022
4629 Rain 16 1010 91 9530 7.05 105 19:46 23.03.2022
4630 Rain 16 1010 92 6574 6.95 101 18:45 23.03.2022
4631 Rain 16 1009 93 3582 7.54 120 17:36 23.03.2022
4632 Rain 16 1010 90 6166 6.56 115 16:33 23.03.2022
4633 Rain 17 1011 90 10000 6.78 107 14:51 23.03.2022
4634 Clouds 16 1011 91 10000 8.47 98 14:26 23.03.2022
4635 Clouds 16 1013 92 5237 8.26 97 12:50 23.03.2022
4636 Clouds 16 1014 91 7701 7.53 116 09:42 23.03.2022
4637 Clouds 16 1013 90 10000 6.27 95 06:41 23.03.2022
4638 Clouds 15 1014 89 10000 8.04 98 04:41 23.03.2022
4639 Rain 15 1017 90 10000 9.93 96 00:29 23.03.2022
4640 Rain 15 1018 89 10000 9.38 94 22:46 22.03.2022
4641 Rain 16 1018 87 10000 8.29 88 21:29 22.03.2022
4642 Rain 16 1018 87 10000 8.28 88 20:40 22.03.2022
4643 Rain 16 1018 85 10000 7.88 93 19:41 22.03.2022
4644 Rain 16 1017 85 10000 8.07 90 19:18 22.03.2022
4645 Rain 16 1017 84 10000 7.71 87 18:22 22.03.2022
4646 Rain 16 1017 84 10000 7.23 81 17:29 22.03.2022
4647 Clouds 16 1018 83 10000 7.04 81 15:59 22.03.2022
4648 Clouds 17 1018 83 10000 7.47 86 15:22 22.03.2022
4649 Rain 17 1018 83 10000 7.47 86 14:46 22.03.2022
4650 Clouds 17 1019 83 10000 6.99 92 14:26 22.03.2022
4651 Clouds 16 1019 82 10000 6.11 93 12:55 22.03.2022
4652 Clouds 16 1020 83 10000 5.11 76 11:48 22.03.2022
4653 Clouds 16 1020 84 10000 4.64 78 10:35 22.03.2022
4654 Clouds 14 1019 89 10000 3.52 71 08:24 22.03.2022
4655 Clouds 14 1019 88 10000 2.39 75 05:21 22.03.2022
4656 Clouds 14 1019 87 10000 1.89 78 03:46 22.03.2022
4657 Clouds 13 1020 85 10000 1.8 180 23:59 21.03.2022
4658 Clouds 16 1020 85 10000 2.09 207 22:29 21.03.2022
4659 Clouds 17 1020 85 10000 1.97 221 20:47 21.03.2022
4660 Clouds 17 1019 85 10000 2.62 233 20:27 21.03.2022
4661 Clouds 18 1019 85 10000 2.62 233 19:57 21.03.2022
4662 Clouds 18 1018 83 10000 2.74 252 19:25 21.03.2022
4663 Clouds 18 1017 80 10000 3.91 252 17:53 21.03.2022
4664 Clouds 18 1017 77 10000 4.34 249 17:18 21.03.2022
4665 Clouds 18 1017 77 10000 4.34 249 16:42 21.03.2022
4666 Clouds 18 1017 74 10000 4.56 244 15:48 21.03.2022
4667 Clouds 18 1018 71 10000 4.5 237 14:56 21.03.2022
4668 Clouds 18 1018 68 10000 3.85 232 13:46 21.03.2022
4669 Clear 17 1019 66 10000 1.37 195 12:34 21.03.2022
4670 Clear 16 1019 67 10000 1.9 166 11:44 21.03.2022
4671 Clear 16 1020 70 10000 2.14 151 10:34 21.03.2022
4672 Clear 15 1018 82 10000 1.29 146 08:29 21.03.2022
4673 Clear 16 1018 81 10000 1.5 166 06:37 21.03.2022
4674 Clear 16 1018 83 10000 2.59 185 02:48 21.03.2022
4675 Clouds 15 1018 82 10000 3.59 182 23:41 20.03.2022
4676 Clouds 15 1018 87 10000 3.89 163 22:43 20.03.2022
4677 Rain 15 1017 90 10000 3.8 134 21:51 20.03.2022
4678 Clouds 15 1017 92 10000 3.89 148 21:20 20.03.2022
4679 Clouds 15 1017 92 10000 3.89 148 20:43 20.03.2022
4680 Rain 15 1016 93 3012 5.17 162 19:57 20.03.2022
4681 Rain 16 1016 93 4658 5.9 131 19:26 20.03.2022
4682 Rain 16 1015 91 6452 7.63 122 17:52 20.03.2022
4683 Clouds 16 1015 91 6452 7.63 122 17:30 20.03.2022
4684 Clouds 16 1015 89 7224 10.24 112 16:52 20.03.2022
4685 Clouds 16 1015 86 10000 13.14 101 15:28 20.03.2022
4686 Clouds 16 1015 86 10000 13.77 99 14:23 20.03.2022
4687 Clouds 15 1016 87 10000 14.26 92 12:29 20.03.2022
4688 Clouds 16 1016 88 10000 14.56 91 10:55 20.03.2022
4689 Clouds 15 1016 88 10000 15.44 91 08:42 20.03.2022
4690 Clouds 15 1016 88 10000 14.68 92 06:55 20.03.2022
4691 Clouds 15 1016 89 10000 14.93 92 04:23 20.03.2022
4692 Clouds 15 1018 87 10000 14.13 96 01:29 20.03.2022
4693 Clouds 16 1018 87 10000 13.78 97 00:37 20.03.2022
4694 Clouds 15 1019 84 10000 12.91 98 22:56 19.03.2022
4695 Clouds 16 1019 85 10000 12.19 99 21:27 19.03.2022
4696 Clouds 16 1018 85 10000 11.78 99 20:28 19.03.2022
4697 Clear 16 1018 83 10000 11.82 99 18:44 19.03.2022
4698 Clouds 16 1018 82 10000 12.13 97 18:23 19.03.2022
4699 Clouds 16 1018 82 10000 12.13 97 17:34 19.03.2022
4700 Clear 16 1018 80 10000 12.6 94 15:43 19.03.2022
4701 Clear 16 1019 77 10000 13.18 96 14:21 19.03.2022
4702 Clear 17 1020 76 10000 12.76 100 12:56 19.03.2022
4703 Clear 17 1020 75 10000 12.6 99 12:38 19.03.2022
4704 Clear 17 1020 75 10000 12.53 100 11:49 19.03.2022
4705 Clear 16 1020 76 10000 12.41 100 10:41 19.03.2022
4706 Clouds 15 1019 82 10000 11.64 95 05:59 19.03.2022
4707 Clouds 16 1020 81 10000 11.17 101 02:48 19.03.2022
4708 Clouds 16 1021 79 10000 11 96 01:32 19.03.2022
4709 Clouds 16 1021 79 10000 10.5 93 23:22 18.03.2022
4710 Clouds 16 1022 79 10000 9.26 91 22:23 18.03.2022
4711 Clouds 16 1021 80 10000 7.86 93 20:48 18.03.2022
4712 Clouds 16 1021 80 10000 7.87 93 19:48 18.03.2022
4713 Clouds 16 1020 78 10000 7.8 95 19:19 18.03.2022
4714 Clouds 16 1020 78 10000 7.8 95 19:19 18.03.2022
4715 Clouds 17 1020 69 10000 9.76 98 17:27 18.03.2022
4716 Clouds 17 1020 69 10000 9.76 98 16:42 18.03.2022
4717 Clouds 17 1020 65 10000 9.83 107 14:30 18.03.2022
4718 Clear 17 1020 63 10000 9.33 107 13:41 18.03.2022
4719 Clouds 17 1021 69 10000 9.36 107 12:18 18.03.2022
4720 Clouds 16 1020 78 10000 8.82 106 10:27 18.03.2022
4721 Clouds 16 1020 80 10000 8.08 108 09:20 18.03.2022
4722 Clouds 15 1019 80 10000 7.71 109 07:45 18.03.2022
4723 Clouds 15 1019 84 10000 7.12 111 05:39 18.03.2022
4724 Clouds 11 1019 88 10000 3.94 71 01:55 18.03.2022
4725 Clouds 15 1019 86 10000 4.41 74 00:21 18.03.2022
4726 Clouds 12 1019 84 10000 4.04 68 22:54 17.03.2022
4727 Clouds 16 1018 82 10000 3.89 72 22:21 17.03.2022
4728 Clouds 16 1018 82 10000 3.89 72 21:46 17.03.2022
4729 Clouds 14 1018 78 10000 3.73 80 20:58 17.03.2022
4730 Clouds 16 1016 76 10000 2.67 99 20:29 17.03.2022
4731 Clouds 16 1016 76 10000 2.67 99 19:39 17.03.2022
4732 Clouds 16 1016 74 10000 2.15 131 18:55 17.03.2022
4733 Clouds 16 1016 72 10000 2.11 119 17:47 17.03.2022
4734 Clouds 17 1015 74 10000 2.56 177 16:29 17.03.2022
4735 Clouds 17 1015 74 10000 2.56 177 15:43 17.03.2022
4736 Clouds 17 1015 74 10000 3.45 206 15:21 17.03.2022
4737 Clouds 17 1016 75 10000 3.99 212 13:47 17.03.2022
4738 Clouds 16 1017 69 10000 2.51 230 12:47 17.03.2022
4739 Clouds 15 1017 73 10000 2.68 271 11:40 17.03.2022
4740 Clouds 15 1017 80 10000 4.71 265 10:58 17.03.2022
4741 Clouds 14 1016 85 10000 5.3 262 09:40 17.03.2022
4742 Clouds 14 1015 85 10000 4.92 271 08:20 17.03.2022
4743 Clouds 14 1015 83 10000 4.52 270 06:18 17.03.2022
4744 Clouds 13 1014 81 10000 4.62 266 05:23 17.03.2022
4745 Clouds 14 1015 81 10000 2.16 265 00:27 17.03.2022
4746 Clouds 14 1015 81 10000 1.67 287 22:57 16.03.2022
4747 Clouds 14 1015 81 10000 1.69 287 22:36 16.03.2022
4748 Clouds 14 1015 82 10000 2.14 298 21:56 16.03.2022
4749 Clouds 14 1015 79 10000 2.22 309 20:47 16.03.2022
4750 Clouds 14 1013 75 10000 3.42 272 19:24 16.03.2022
4751 Clouds 15 1013 76 10000 3.86 276 18:43 16.03.2022
4752 Clouds 15 1012 74 10000 4.45 282 17:50 16.03.2022
4753 Clouds 15 1012 74 10000 4.45 282 17:31 16.03.2022
4754 Clouds 15 1012 73 10000 4.59 276 16:35 16.03.2022
4755 Clouds 15 1012 72 10000 5.33 273 15:34 16.03.2022
4756 Clouds 14 1013 72 10000 4.47 264 13:41 16.03.2022
4757 Clouds 14 1013 70 10000 5.05 258 12:56 16.03.2022
4758 Clouds 13 1014 74 10000 3.49 256 11:24 16.03.2022
4759 Clouds 12 1014 74 10000 3.47 256 10:37 16.03.2022
4760 Clouds 12 1013 78 10000 3.66 276 09:57 16.03.2022
4761 Clouds 12 1011 81 10000 3.4 265 08:24 16.03.2022
4762 Clouds 11 1010 87 10000 1.86 69 02:46 16.03.2022
4763 Clouds 10 1010 85 10000 0.67 46 22:58 15.03.2022
4764 Clouds 11 1010 85 10000 0.68 45 22:36 15.03.2022
4765 Clouds 12 1010 90 6535 2.3 316 21:19 15.03.2022
4766 Clouds 12 1009 91 5762 4.35 300 19:46 15.03.2022
4767 Rain 12 1008 93 6979 1.38 260 17:47 15.03.2022
4768 Clouds 13 1007 92 10000 2.13 290 16:41 15.03.2022
4769 Rain 14 1008 92 10000 2.47 322 15:38 15.03.2022
4770 Clouds 14 1008 91 9941 2.29 289 14:54 15.03.2022
4771 Clouds 14 1009 89 10000 2.11 279 13:56 15.03.2022
4772 Clouds 14 1010 86 10000 3.34 233 13:22 15.03.2022
4773 Clouds 13 1010 86 10000 3.42 222 11:33 15.03.2022
4774 Clouds 12 1009 84 10000 3.12 236 10:53 15.03.2022
4775 Clouds 12 1009 86 10000 3.96 224 09:24 15.03.2022
4776 Rain 12 1008 85 10000 6.65 226 08:24 15.03.2022
4777 Rain 12 1008 85 10000 6.65 226 07:36 15.03.2022
4778 Rain 12 1007 88 8146 5.07 245 05:56 15.03.2022
4779 Clouds 13 1008 87 10000 9.03 213 00:31 15.03.2022
4780 Clouds 13 1007 85 10000 4.75 241 23:29 14.03.2022
4781 Clouds 13 1007 85 10000 4.75 241 22:49 14.03.2022
4782 Rain 14 1006 82 10000 3.49 242 21:51 14.03.2022
4783 Rain 13 1006 85 10000 2.58 197 20:55 14.03.2022
4784 Rain 13 1003 83 10000 2.62 100 20:24 14.03.2022
4785 Clouds 14 1004 82 10000 1.66 83 19:24 14.03.2022
4786 Rain 14 1003 83 10000 1.89 74 17:57 14.03.2022
4787 Rain 14 1003 83 10000 1.89 74 17:39 14.03.2022
4788 Clouds 14 1003 88 10000 2.75 68 16:28 14.03.2022
4789 Rain 14 1004 89 10000 4.08 66 14:47 14.03.2022
4790 Clouds 13 1005 90 9277 4.02 86 13:20 14.03.2022
4791 Rain 11 1005 92 10000 3.08 177 10:59 14.03.2022
4792 Clouds 10 1005 92 9780 0.89 124 09:56 14.03.2022
4793 Rain 10 1004 89 7877 1.42 5 09:24 14.03.2022
4794 Rain 11 1004 89 7877 1.42 5 08:57 14.03.2022
4795 Rain 11 1005 91 3902 5.82 2 08:24 14.03.2022
4796 Rain 11 1005 93 4589 3.33 284 05:51 14.03.2022
4797 Rain 11 1007 96 2468 0.73 53 02:58 14.03.2022
4798 Rain 13 1008 96 2972 2.06 48 01:36 14.03.2022
4799 Rain 14 1012 92 8950 3.3 79 23:29 13.03.2022
4800 Clouds 15 1013 92 5480 2.73 128 21:41 13.03.2022
4801 Rain 15 1012 94 7090 2.55 146 21:19 13.03.2022
4802 Rain 15 1012 94 7090 2.55 146 20:46 13.03.2022
4803 Rain 15 1013 90 10000 2.44 209 20:21 13.03.2022
4804 Rain 17 1013 90 10000 2.44 209 19:41 13.03.2022
4805 Rain 17 1013 88 10000 2.05 246 19:20 13.03.2022
4806 Rain 17 1013 88 10000 2.05 246 18:40 13.03.2022
4807 Clouds 18 1013 91 10000 1.05 266 17:48 13.03.2022
4808 Clouds 18 1014 85 10000 3.91 257 17:22 13.03.2022
4809 Clouds 18 1014 85 10000 3.91 257 16:44 13.03.2022
4810 Clouds 18 1014 83 10000 3.87 254 16:20 13.03.2022
4811 Rain 18 1014 83 10000 3.87 254 15:34 13.03.2022
4812 Clouds 18 1015 84 10000 3.83 257 13:53 13.03.2022
4813 Clouds 17 1016 85 10000 3.94 243 13:26 13.03.2022
4814 Clouds 16 1017 86 10000 3.75 248 12:20 13.03.2022
4815 Clouds 15 1017 86 10000 3.75 248 11:36 13.03.2022
4816 Clouds 14 1017 86 10000 3.51 249 10:48 13.03.2022
4817 Clouds 14 1017 84 10000 4.07 253 10:25 13.03.2022
4818 Clouds 14 1017 84 10000 4.07 253 09:41 13.03.2022
4819 Rain 15 1017 88 10000 5.72 260 08:47 13.03.2022
4820 Clouds 15 1016 89 5341 8.37 245 07:47 13.03.2022
4821 Clouds 15 1015 78 10000 9.37 223 05:48 13.03.2022
4822 Clouds 16 1016 79 10000 7.92 228 03:26 13.03.2022
4823 Clouds 16 1018 79 10000 5.39 245 00:30 13.03.2022
4824 Clouds 15 1018 81 10000 4.89 251 22:44 12.03.2022
4825 Clouds 16 1018 78 10000 4.45 271 20:58 12.03.2022
4826 Clouds 16 1018 76 10000 4.18 271 19:57 12.03.2022
4827 Clouds 16 1018 76 10000 4.18 271 19:38 12.03.2022
4828 Clouds 17 1017 70 10000 3.54 276 18:29 12.03.2022
4829 Clouds 17 1017 70 10000 3.54 276 17:39 12.03.2022
4830 Clouds 18 1018 64 10000 4.15 271 16:24 12.03.2022
4831 Clouds 18 1019 65 10000 4.39 279 15:24 12.03.2022
4832 Clouds 18 1019 65 10000 4.39 279 14:51 12.03.2022
4833 Clouds 17 1020 68 10000 4.42 278 13:47 12.03.2022
4834 Clouds 16 1021 72 10000 4.04 277 11:57 12.03.2022
4835 Clouds 16 1021 72 10000 4.04 277 11:38 12.03.2022
4836 Clouds 15 1021 75 10000 3.74 278 10:58 12.03.2022
4837 Clouds 14 1020 78 10000 2.55 277 09:46 12.03.2022
4838 Clouds 14 1020 78 10000 2.55 277 09:46 12.03.2022
4839 Clouds 12 1020 81 10000 2.33 298 08:56 12.03.2022
4840 Clouds 12 1019 81 10000 3.3 322 07:29 12.03.2022
4841 Clouds 13 1019 84 10000 4.16 285 03:54 12.03.2022
4842 Clouds 14 1019 87 10000 4.21 288 23:56 11.03.2022
4843 Clouds 13 1019 87 10000 4.22 288 23:56 11.03.2022
4844 Clouds 14 1019 87 10000 4.21 288 23:56 11.03.2022
4845 Clouds 13 1019 87 10000 4.22 288 23:56 11.03.2022
4846 Clouds 14 1020 89 10000 4.71 292 23:19 11.03.2022
4847 Clouds 15 1019 89 10000 4.96 290 21:41 11.03.2022
4848 Rain 14 1018 89 10000 5.6 266 20:56 11.03.2022
4849 Rain 15 1018 89 10000 5.6 266 20:35 11.03.2022
4850 Rain 14 1018 88 10000 7.07 254 19:52 11.03.2022
4851 Rain 15 1017 90 7729 6.52 238 19:22 11.03.2022
4852 Rain 17 1017 93 2444 8.22 240 17:30 11.03.2022
4853 Rain 17 1016 83 10000 8.64 239 16:36 11.03.2022
4854 Rain 17 1017 77 10000 8.48 235 15:53 11.03.2022
4855 Clouds 18 1019 69 10000 6.26 246 14:19 11.03.2022
4856 Clouds 17 1019 66 10000 5.24 237 12:44 11.03.2022
4857 Clouds 17 1019 68 10000 4.86 233 12:21 11.03.2022
4858 Clouds 16 1019 68 10000 4.86 233 11:51 11.03.2022
4859 Clouds 13 1020 80 10000 2.69 244 09:50 11.03.2022
4860 Clouds 15 1019 83 10000 2.46 238 08:56 11.03.2022
4861 Clouds 13 1018 87 10000 2.61 221 08:21 11.03.2022
4862 Clouds 13 1018 87 10000 2.61 221 07:40 11.03.2022
4863 Clouds 13 1018 88 10000 3.32 218 05:44 11.03.2022
4864 Clouds 13 1019 87 10000 3.36 219 03:41 11.03.2022
4865 Clouds 14 1020 87 10000 1.89 136 23:31 10.03.2022
4866 Clouds 15 1021 87 10000 2.25 101 22:29 10.03.2022
4867 Clouds 15 1020 87 10000 3.69 101 21:27 10.03.2022
4868 Clouds 16 1020 87 10000 3.69 101 20:49 10.03.2022
4869 Clouds 16 1020 83 10000 3.98 85 19:23 10.03.2022
4870 Clouds 16 1020 82 10000 4.02 87 18:40 10.03.2022
4871 Clouds 17 1019 78 10000 5.35 87 16:54 10.03.2022
4872 Clouds 17 1020 76 10000 5.32 76 15:49 10.03.2022
4873 Clouds 17 1020 77 10000 6.48 87 14:24 10.03.2022
4874 Clouds 16 1021 75 10000 5.62 89 12:50 10.03.2022
4875 Clouds 16 1021 77 10000 5.12 89 11:39 10.03.2022
4876 Clouds 16 1021 81 10000 4.47 78 10:19 10.03.2022
4877 Clouds 14 1021 83 10000 4.34 77 08:48 10.03.2022
4878 Clouds 15 1020 87 10000 4.67 81 06:36 10.03.2022
4879 Clouds 15 1019 89 10000 5.64 81 03:42 10.03.2022
4880 Clouds 15 1020 89 10000 6.03 80 00:23 10.03.2022
4881 Clouds 15 1020 89 10000 5.99 80 22:45 09.03.2022
4882 Clouds 15 1020 88 10000 5.63 79 21:48 09.03.2022
4883 Clouds 15 1020 87 10000 5.41 79 20:59 09.03.2022
4884 Clouds 16 1019 83 10000 6.42 87 19:28 09.03.2022
4885 Clouds 16 1018 77 10000 6.62 85 17:57 09.03.2022
4886 Clouds 17 1018 75 10000 7.28 86 17:23 09.03.2022
4887 Clouds 18 1019 73 10000 7.09 88 16:23 09.03.2022
4888 Clouds 17 1020 72 10000 6.77 85 14:27 09.03.2022
4889 Clouds 17 1020 72 10000 6.77 85 14:27 09.03.2022
4890 Clouds 17 1020 72 10000 6.77 85 13:51 09.03.2022
4891 Clouds 15 1021 75 10000 6.19 86 12:27 09.03.2022
4892 Clouds 15 1021 76 10000 6.2 86 11:48 09.03.2022
4893 Clouds 15 1021 80 10000 5.39 79 10:59 09.03.2022
4894 Clouds 13 1021 84 10000 4.77 74 09:40 09.03.2022
4895 Clouds 10 1021 87 10000 4.09 72 08:45 09.03.2022
4896 Clouds 10 1020 86 10000 2.31 81 06:25 09.03.2022
4897 Clouds 11 1021 82 10000 1.1 243 00:59 09.03.2022
4898 Clear 13 1022 84 10000 1.09 256 23:48 08.03.2022
4899 Clear 14 1022 83 10000 0.86 249 22:46 08.03.2022
4900 Clear 13 1022 83 10000 1.31 269 21:51 08.03.2022
4901 Clear 15 1021 84 10000 2.3 270 21:21 08.03.2022
4902 Clear 15 1021 84 10000 2.98 266 20:21 08.03.2022
4903 Clouds 15 1020 84 10000 4.24 260 19:21 08.03.2022
4904 Clouds 16 1020 77 10000 5.68 259 18:22 08.03.2022
4905 Clouds 15 1019 82 10000 7.35 244 16:42 08.03.2022
4906 Clouds 15 1020 80 10000 8.85 235 14:55 08.03.2022
4907 Clouds 16 1020 78 10000 8.69 230 13:39 08.03.2022
4908 Clouds 17 1020 72 10000 7.59 226 12:20 08.03.2022
4909 Clouds 16 1020 72 10000 7.59 226 11:42 08.03.2022
4910 Clouds 15 1020 78 10000 5.78 218 10:28 08.03.2022
4911 Clouds 13 1020 80 10000 5.73 222 08:56 08.03.2022
4912 Clouds 13 1018 77 10000 5.83 235 05:51 08.03.2022
4913 Clouds 15 1018 72 10000 6.49 251 01:53 08.03.2022
4914 Clouds 15 1018 72 10000 6.5 248 22:41 07.03.2022
4915 Clouds 15 1017 71 10000 6.62 251 21:36 07.03.2022
4916 Clouds 15 1017 71 10000 6.35 249 20:55 07.03.2022
4917 Clouds 15 1016 70 10000 6.59 251 20:29 07.03.2022
4918 Clouds 15 1016 70 10000 6.59 251 19:48 07.03.2022
4919 Clouds 16 1015 68 10000 7.15 250 18:50 07.03.2022
4920 Clouds 16 1015 66 10000 7.65 256 18:28 07.03.2022
4921 Clouds 16 1014 63 10000 8.11 253 16:56 07.03.2022
4922 Clouds 16 1014 63 10000 8.11 253 16:37 07.03.2022
4923 Clouds 17 1015 58 10000 8.94 254 14:41 07.03.2022
4924 Clouds 16 1015 56 10000 8.65 252 12:34 07.03.2022
4925 Clouds 12 1015 70 10000 8.16 235 11:21 07.03.2022
4926 Clouds 11 1015 77 10000 7.02 226 10:26 07.03.2022
4927 Clouds 10 1014 84 10000 4.99 216 07:42 07.03.2022
4928 Clouds 13 1014 79 10000 1.04 257 00:37 07.03.2022
4929 Clouds 10 1014 77 10000 0.56 248 00:19 07.03.2022
4930 Clouds 10 1014 76 10000 0.26 282 23:19 06.03.2022
4931 Clouds 13 1014 75 10000 0.26 140 22:25 06.03.2022
4932 Clouds 13 1013 76 10000 0.39 103 21:22 06.03.2022
4933 Clouds 15 1013 75 10000 0.41 65 20:29 06.03.2022
4934 Clouds 15 1013 75 10000 0.42 67 19:35 06.03.2022
4935 Clouds 16 1012 72 10000 1.77 79 18:40 06.03.2022
4936 Clouds 15 1011 67 10000 1.86 71 17:36 06.03.2022
4937 Clouds 16 1011 66 10000 2.6 83 17:18 06.03.2022
4938 Clouds 16 1011 66 10000 3.36 86 16:24 06.03.2022
4939 Clouds 15 1011 68 10000 3.59 80 15:23 06.03.2022
4940 Clouds 15 1011 68 10000 3.59 80 14:41 06.03.2022
4941 Clouds 15 1012 72 10000 3.89 80 13:48 06.03.2022
4942 Clouds 15 1012 69 10000 2.52 90 12:36 06.03.2022
4943 Clouds 14 1012 69 10000 2.54 82 11:39 06.03.2022
4944 Clouds 12 1012 72 10000 2.49 75 10:33 06.03.2022
4945 Clouds 11 1012 77 10000 2.27 74 08:51 06.03.2022
4946 Clouds 11 1011 78 10000 2.34 70 08:27 06.03.2022
4947 Clouds 11 1011 79 10000 2.42 76 07:18 06.03.2022
4948 Clouds 12 1012 82 10000 4.05 165 01:37 06.03.2022
4949 Clouds 12 1013 84 10000 5.38 212 00:34 06.03.2022
4950 Clouds 12 1014 82 10000 5.16 231 23:46 05.03.2022
4951 Clouds 12 1014 74 10000 3.89 228 23:18 05.03.2022
4952 Clouds 13 1014 74 10000 3.89 228 22:31 05.03.2022
4953 Clouds 13 1014 74 10000 3.89 228 22:31 05.03.2022
4954 Clouds 13 1014 71 10000 3.43 245 21:24 05.03.2022
4955 Clouds 14 1014 72 10000 5.21 254 19:59 05.03.2022
4956 Clouds 15 1014 70 10000 6.15 256 18:57 05.03.2022
4957 Clouds 15 1015 69 10000 5.96 257 18:36 05.03.2022
4958 Clouds 16 1015 64 10000 5.8 269 16:58 05.03.2022
4959 Clouds 16 1016 63 10000 5.83 272 15:49 05.03.2022
4960 Clouds 16 1017 63 10000 6.57 273 14:53 05.03.2022
4961 Clouds 16 1017 63 10000 6.57 273 14:34 05.03.2022
4962 Clouds 16 1018 64 10000 6.93 270 13:35 05.03.2022
4963 Rain 15 1019 68 10000 7.47 253 11:55 05.03.2022
4964 Clouds 15 1020 74 10000 7.86 249 11:20 05.03.2022
4965 Clouds 14 1020 74 10000 7.04 243 10:23 05.03.2022
4966 Clouds 14 1019 75 10000 6.55 238 09:28 05.03.2022
4967 Clouds 12 1019 78 10000 7.3 241 07:58 05.03.2022
4968 Clouds 13 1018 77 10000 6.08 226 05:47 05.03.2022
4969 Clouds 13 1018 78 10000 5.55 222 04:38 05.03.2022
4970 Clouds 14 1020 73 10000 5.23 225 23:39 04.03.2022
4971 Clouds 14 1021 72 10000 4.71 227 22:44 04.03.2022
4972 Clouds 14 1021 69 10000 4.4 244 22:23 04.03.2022
4973 Clouds 15 1020 67 10000 4.39 260 21:24 04.03.2022
4974 Clouds 15 1020 65 10000 5.1 270 20:28 04.03.2022
4975 Clouds 15 1020 65 10000 5.1 270 19:36 04.03.2022
4976 Clouds 16 1019 63 10000 5.72 277 18:46 04.03.2022
4977 Clouds 17 1019 60 10000 6.56 273 18:20 04.03.2022
4978 Clouds 17 1018 57 10000 7.87 278 17:28 04.03.2022
4979 Clouds 16 1018 56 10000 7.91 279 15:31 04.03.2022
4980 Clouds 15 1018 53 10000 7.17 286 14:33 04.03.2022
4981 Clouds 15 1020 55 10000 7.91 300 13:27 04.03.2022
4982 Clouds 13 1020 58 10000 7.33 294 11:54 04.03.2022
4983 Clouds 12 1020 62 10000 7.01 300 10:55 04.03.2022
4984 Clouds 11 1021 70 10000 7.04 308 10:18 04.03.2022
4985 Clouds 11 1020 76 10000 6.9 311 08:40 04.03.2022
4986 Clouds 11 1020 76 10000 6.9 311 08:40 04.03.2022
4987 Clouds 11 1019 79 10000 7.12 312 07:38 04.03.2022
4988 Clear 12 1018 77 10000 9.36 306 04:31 04.03.2022
4989 Clear 13 1019 73 10000 8.27 303 00:41 04.03.2022
4990 Clear 15 1020 70 10000 8.32 304 22:39 03.03.2022
4991 Clear 15 1019 70 10000 7.72 308 21:50 03.03.2022
4992 Clear 15 1019 72 10000 7.78 300 21:29 03.03.2022
4993 Clouds 15 1018 77 10000 7.77 296 20:18 03.03.2022
4994 Clouds 14 1018 81 10000 6.74 297 18:55 03.03.2022
4995 Rain 14 1017 88 9745 7.9 306 18:24 03.03.2022
4996 Rain 17 1017 88 9745 7.9 306 17:31 03.03.2022
4997 Clouds 18 1018 77 10000 10.07 258 16:26 03.03.2022
4998 Clouds 19 1018 76 10000 10.1 258 15:32 03.03.2022
4999 Clouds 18 1019 74 10000 9.61 253 14:43 03.03.2022
5000 Clouds 18 1020 77 10000 9.58 256 14:24 03.03.2022
5001 Clouds 18 1021 72 10000 8.56 252 12:27 03.03.2022
5002 Clouds 16 1022 73 10000 7.91 254 10:49 03.03.2022
5003 Clouds 14 1022 75 10000 6.93 257 09:45 03.03.2022
5004 Clouds 14 1022 80 10000 5.76 263 08:19 03.03.2022
5005 Clouds 14 1021 78 10000 4.95 261 06:38 03.03.2022
5006 Clouds 15 1021 80 10000 4.59 251 04:46 03.03.2022
5007 Clouds 16 1023 86 10000 3.95 281 23:41 02.03.2022
5008 Clouds 15 1024 85 10000 3.78 282 22:53 02.03.2022
5009 Clouds 15 1024 85 10000 3.78 282 22:53 02.03.2022
5010 Clouds 17 1023 83 10000 3.76 282 21:36 02.03.2022
5011 Clear 17 1023 81 10000 3.57 279 20:57 02.03.2022
5012 Clear 18 1023 80 10000 3.69 280 20:25 02.03.2022
5013 Clear 18 1023 80 10000 3.69 280 19:37 02.03.2022
5014 Clear 20 1022 74 10000 4.07 277 18:57 02.03.2022
5015 Clear 20 1022 63 10000 4.21 278 18:26 02.03.2022
5016 Clear 19 1022 63 10000 4.21 278 17:36 02.03.2022
5017 Clear 20 1022 54 10000 2.92 279 16:51 02.03.2022
5018 Clear 18 1023 54 10000 0.97 80 15:20 02.03.2022
5019 Clear 18 1024 55 10000 2.02 105 13:35 02.03.2022
5020 Clear 17 1024 55 10000 2.15 106 12:45 02.03.2022
5021 Clear 17 1025 55 10000 2.11 81 12:21 02.03.2022
5022 Clear 14 1025 58 10000 2.52 82 11:26 02.03.2022
5023 Clear 13 1025 58 10000 2.52 82 10:30 02.03.2022
5024 Clear 13 1025 58 10000 2.52 82 10:30 02.03.2022
5025 Clear 10 1025 63 10000 2.75 64 09:31 02.03.2022
5026 Clear 10 1024 72 10000 3.58 56 08:28 02.03.2022
5027 Clouds 10 1024 72 10000 3.86 63 07:23 02.03.2022
5028 Clouds 11 1024 73 10000 4.86 66 03:56 02.03.2022
5029 Clouds 15 1025 72 10000 5.1 67 00:40 02.03.2022
5030 Clouds 14 1025 72 10000 5.8 72 22:53 01.03.2022
5031 Clouds 14 1025 72 10000 5.8 72 22:35 01.03.2022
5032 Clouds 16 1025 72 10000 6.26 78 21:37 01.03.2022
5033 Clouds 16 1025 71 10000 6.59 79 20:38 01.03.2022
5034 Clear 16 1025 69 10000 6.57 74 20:19 01.03.2022
5035 Clear 17 1024 67 10000 6.95 72 18:52 01.03.2022
5036 Clear 17 1023 64 10000 7.84 79 18:21 01.03.2022
5037 Clear 18 1023 64 10000 7.84 79 17:39 01.03.2022
5038 Clear 17 1023 61 10000 8.65 83 16:36 01.03.2022
5039 Clear 17 1024 60 10000 8.62 82 15:47 01.03.2022
5040 Clear 17 1024 61 10000 8.85 82 14:42 01.03.2022
5041 Clear 17 1025 62 10000 8.63 81 14:23 01.03.2022
5042 Clear 16 1026 64 10000 8.49 80 13:26 01.03.2022
5043 Clear 16 1026 64 10000 8.43 80 12:35 01.03.2022
5044 Clear 15 1026 67 10000 8.93 79 10:52 01.03.2022
5045 Clear 14 1025 72 10000 9 76 09:27 01.03.2022
5046 Clear 14 1025 72 10000 9.89 78 08:20 01.03.2022
5047 Clear 14 1025 72 10000 10.26 79 06:47 01.03.2022
5048 Clear 14 1026 75 10000 11.4 92 02:57 01.03.2022
5049 Clear 15 1026 75 10000 11.71 91 00:47 01.03.2022
5050 Clear 15 1026 75 10000 11.82 87 23:39 28.02.2022
5051 Clear 15 1027 74 10000 11.84 84 22:38 28.02.2022
5052 Clear 15 1027 73 10000 11.18 84 21:43 28.02.2022
5053 Clear 15 1027 73 10000 10.77 85 20:34 28.02.2022
5054 Clear 15 1026 73 10000 10.64 85 19:51 28.02.2022
5055 Clouds 16 1026 73 10000 10.52 84 18:50 28.02.2022
5056 Clouds 16 1025 73 10000 10.63 84 17:37 28.02.2022
5057 Clouds 16 1025 72 10000 10.8 87 17:18 28.02.2022
5058 Clouds 17 1024 71 10000 10.89 90 16:21 28.02.2022
5059 Clouds 16 1025 71 10000 10.99 93 14:32 28.02.2022
5060 Clouds 16 1025 73 10000 11.06 94 13:53 28.02.2022
5061 Clouds 16 1026 73 10000 11.33 94 13:19 28.02.2022
5062 Clouds 16 1025 75 10000 10.89 94 11:59 28.02.2022
5063 Clouds 15 1025 76 10000 11.01 92 11:19 28.02.2022
5064 Clouds 15 1025 78 10000 10.49 91 10:22 28.02.2022
5065 Clouds 15 1025 78 10000 10.49 91 09:44 28.02.2022
5066 Clouds 14 1024 80 10000 9.43 89 08:52 28.02.2022
5067 Clouds 14 1023 81 10000 8 86 07:58 28.02.2022
5068 Clouds 14 1022 82 10000 7.91 81 05:54 28.02.2022
5069 Clouds 15 1022 82 10000 7.96 78 04:30 28.02.2022
5070 Clouds 14 1022 81 10000 9.67 84 00:52 28.02.2022
5071 Clouds 15 1023 82 10000 8.53 83 22:44 27.02.2022
5072 Clouds 15 1022 83 10000 8.41 84 22:26 27.02.2022
5073 Clouds 15 1022 83 10000 8.41 84 21:37 27.02.2022
5074 Clouds 15 1022 82 10000 8.29 87 20:43 27.02.2022
5075 Clouds 15 1022 83 10000 8.27 83 20:18 27.02.2022
5076 Clouds 15 1022 83 10000 8.27 83 19:43 27.02.2022
5077 Clouds 15 1021 84 10000 8.39 80 19:21 27.02.2022
5078 Clouds 15 1020 81 10000 9.21 79 18:24 27.02.2022
5079 Clouds 15 1020 81 10000 9.21 79 17:45 27.02.2022
5080 Clouds 14 1020 81 10000 9.56 86 16:23 27.02.2022
5081 Clouds 15 1021 84 10000 9.76 88 14:29 27.02.2022
5082 Clouds 14 1022 82 10000 9.04 83 12:36 27.02.2022
5083 Clouds 14 1021 83 10000 9.58 84 11:46 27.02.2022
5084 Clouds 13 1021 87 10000 9.5 81 10:36 27.02.2022
5085 Clouds 13 1021 87 10000 9.37 80 09:58 27.02.2022
5086 Rain 14 1020 87 10000 9.3 80 09:23 27.02.2022
5087 Rain 14 1020 87 10000 9.3 80 08:45 27.02.2022
5088 Clouds 13 1019 87 10000 9.82 80 05:45 27.02.2022
5089 Clouds 13 1019 87 10000 9.81 88 03:35 27.02.2022
5090 Clouds 15 1019 85 10000 11.74 91 23:52 26.02.2022
5091 Clouds 15 1019 86 10000 12.06 88 22:42 26.02.2022
5092 Clouds 15 1018 88 10000 11.86 89 21:27 26.02.2022
5093 Clouds 15 1018 88 10000 11.84 89 20:41 26.02.2022
5094 Clouds 16 1017 88 10000 11.75 86 19:56 26.02.2022
5095 Clouds 15 1017 88 10000 11.75 86 19:33 26.02.2022
5096 Clouds 16 1017 89 10000 10.58 86 18:33 26.02.2022
5097 Clouds 16 1017 90 10000 10.65 88 17:36 26.02.2022
5098 Clouds 16 1016 90 10000 11.37 90 16:39 26.02.2022
5099 Clouds 16 1016 91 10000 11.45 90 15:38 26.02.2022
5100 Clouds 16 1017 91 10000 11.5 90 15:19 26.02.2022
5101 Clouds 16 1017 91 10000 11.5 90 14:42 26.02.2022
5102 Clouds 16 1017 90 10000 12.05 90 13:53 26.02.2022
5103 Clouds 16 1018 89 10000 12.64 90 12:53 26.02.2022
5104 Clouds 16 1018 89 10000 13.31 90 11:52 26.02.2022
5105 Clouds 16 1018 90 10000 13.08 89 11:25 26.02.2022
5106 Clouds 16 1017 90 10000 12.9 90 09:44 26.02.2022
5107 Clouds 15 1016 91 10000 12.79 90 08:28 26.02.2022
5108 Clouds 15 1016 92 10000 12.78 88 06:31 26.02.2022
5109 Clouds 15 1018 88 10000 13.46 89 23:52 25.02.2022
5110 Clouds 16 1018 88 10000 13.29 90 22:34 25.02.2022
5111 Clouds 16 1018 88 10000 13.52 92 21:32 25.02.2022
5112 Clouds 16 1018 88 10000 13.98 89 20:51 25.02.2022
5113 Clouds 16 1018 89 10000 13.79 91 20:25 25.02.2022
5114 Clouds 16 1017 85 10000 13.16 90 17:57 25.02.2022
5115 Clouds 16 1017 85 10000 13.02 89 16:59 25.02.2022
5116 Clouds 16 1017 85 10000 12.91 87 15:56 25.02.2022
5117 Clouds 16 1018 86 10000 13.29 87 15:23 25.02.2022
5118 Clouds 16 1018 86 10000 13.29 87 14:55 25.02.2022
5119 Clouds 16 1018 86 10000 13.31 87 14:27 25.02.2022
5120 Clouds 16 1018 86 10000 13.31 87 13:30 25.02.2022
5121 Clouds 16 1020 86 10000 12.23 89 12:21 25.02.2022
5122 Clouds 16 1019 84 10000 10.49 81 11:22 25.02.2022
5123 Clouds 16 1019 86 10000 10.54 79 10:23 25.02.2022
5124 Clouds 16 1019 86 10000 10.54 79 10:23 25.02.2022
5125 Clouds 16 1019 86 10000 10.54 79 09:46 25.02.2022
5126 Clouds 15 1019 85 10000 8.78 84 08:41 25.02.2022
5127 Clouds 15 1018 86 10000 7.68 80 07:31 25.02.2022
5128 Clouds 15 1018 87 10000 7.34 74 05:42 25.02.2022
5129 Clouds 15 1019 91 10000 5.97 69 02:48 25.02.2022
5130 Clouds 15 1020 91 10000 5.52 85 22:48 24.02.2022
5131 Clouds 15 1019 90 10000 5.5 76 21:51 24.02.2022
5132 Clouds 15 1019 90 10000 5.51 76 21:51 24.02.2022
5133 Clouds 15 1019 90 10000 5.51 76 21:30 24.02.2022
5134 Clouds 15 1020 90 10000 5.29 90 20:47 24.02.2022
5135 Clouds 15 1020 88 10000 4.28 81 19:32 24.02.2022
5136 Clouds 15 1017 77 10000 5.42 90 18:21 24.02.2022
5137 Rain 15 1017 77 10000 5.42 90 17:58 24.02.2022
5138 Rain 15 1017 77 10000 5.42 90 17:33 24.02.2022
5139 Rain 15 1019 74 10000 3.26 67 16:28 24.02.2022
5140 Rain 16 1019 74 10000 3.29 67 15:44 24.02.2022
5141 Rain 17 1019 75 10000 4.86 71 14:51 24.02.2022
5142 Rain 17 1019 73 10000 5.51 76 14:19 24.02.2022
5143 Rain 17 1019 73 10000 5.51 76 13:39 24.02.2022
5144 Rain 17 1019 73 10000 5.51 76 13:39 24.02.2022
5145 Clouds 17 1021 72 10000 4.28 80 12:27 24.02.2022
5146 Clouds 16 1021 74 10000 5.06 86 10:39 24.02.2022
5147 Clouds 14 1020 78 10000 6.09 85 08:46 24.02.2022
5148 Clouds 14 1019 81 10000 6.15 81 08:22 24.02.2022
5149 Clouds 15 1021 86 10000 3.04 74 05:50 24.02.2022
5150 Clouds 15 1020 87 10000 6.59 72 00:32 24.02.2022
5151 Clouds 16 1021 86 10000 6.47 81 22:29 23.02.2022
5152 Clouds 16 1021 86 10000 6.47 81 21:34 23.02.2022
5153 Clouds 16 1021 85 10000 6.79 81 20:30 23.02.2022
5154 Clouds 16 1021 84 10000 7.25 84 19:44 23.02.2022
5155 Clouds 18 1020 76 10000 7.68 85 18:32 23.02.2022
5156 Clouds 18 1020 72 10000 8.14 84 17:21 23.02.2022
5157 Clouds 18 1021 69 10000 8.2 83 14:34 23.02.2022
5158 Clouds 18 1023 68 10000 7.91 84 12:37 23.02.2022
5159 Clouds 17 1023 70 10000 8.22 82 11:23 23.02.2022
5160 Clouds 16 1023 70 10000 8.22 82 10:30 23.02.2022
5161 Clouds 16 1022 79 10000 8.01 81 08:57 23.02.2022
5162 Clouds 16 1022 78 10000 8.5 79 07:57 23.02.2022
5163 Clouds 15 1022 79 10000 9.04 78 03:48 23.02.2022
5164 Clouds 16 1024 82 10000 8.46 83 00:19 23.02.2022
5165 Clouds 16 1024 80 10000 8.02 81 23:35 22.02.2022
5166 Clouds 16 1024 80 10000 8.03 81 22:31 22.02.2022
5167 Clouds 16 1024 77 10000 7.84 80 21:48 22.02.2022
5168 Clouds 16 1024 79 10000 7.28 82 21:25 22.02.2022
5169 Clouds 16 1024 79 10000 7.28 82 20:49 22.02.2022
5170 Clouds 16 1024 82 10000 6.8 83 20:29 22.02.2022
5171 Clouds 16 1024 82 10000 6.8 83 19:34 22.02.2022
5172 Clouds 19 1024 78 10000 6.86 80 18:58 22.02.2022
5173 Clouds 18 1023 71 10000 6.97 78 17:36 22.02.2022
5174 Clouds 18 1024 66 10000 7.44 78 17:18 22.02.2022
5175 Clouds 18 1024 66 10000 7.44 78 16:36 22.02.2022
5176 Clouds 17 1024 65 10000 7.04 83 15:37 22.02.2022
5177 Clear 18 1024 65 10000 7.11 84 14:42 22.02.2022
5178 Clear 17 1026 67 10000 6.42 86 11:41 22.02.2022
5179 Clear 15 1026 78 10000 5.55 77 10:24 22.02.2022
5180 Clear 13 1025 87 10000 5.42 77 07:43 22.02.2022
5181 Clouds 13 1025 87 10000 5.59 75 07:25 22.02.2022
5182 Clouds 15 1026 88 10000 5.63 74 02:51 22.02.2022
5183 Clear 14 1026 89 10000 5.58 64 00:44 22.02.2022
5184 Clear 15 1026 88 10000 4.38 75 22:38 21.02.2022
5185 Clear 15 1026 86 10000 4.44 89 21:25 21.02.2022
5186 Clear 15 1025 84 10000 4.56 83 20:19 21.02.2022
5187 Clear 16 1024 81 10000 4.57 79 18:40 21.02.2022
5188 Clear 18 1024 74 10000 5.83 74 16:40 21.02.2022
5189 Clouds 18 1026 74 10000 7.84 82 14:24 21.02.2022
5190 Clouds 17 1026 74 10000 7.84 82 13:56 21.02.2022
5191 Clouds 17 1026 75 10000 8.48 91 12:58 21.02.2022
5192 Clouds 17 1027 75 10000 7.9 92 12:22 21.02.2022
5193 Clouds 16 1027 77 10000 7.67 83 10:35 21.02.2022
5194 Clouds 15 1026 82 10000 7.5 71 08:31 21.02.2022
5195 Clouds 15 1026 84 10000 9.87 87 00:56 21.02.2022
5196 Clouds 15 1027 85 10000 10.4 82 22:40 20.02.2022
5197 Clouds 15 1027 85 10000 9.46 85 21:54 20.02.2022
5198 Clouds 15 1027 84 10000 9.93 79 21:25 20.02.2022
5199 Clouds 15 1027 84 10000 9.91 79 20:50 20.02.2022
5200 Clouds 15 1026 83 10000 10.26 76 20:21 20.02.2022
5201 Clouds 15 1026 83 10000 10.85 75 19:21 20.02.2022
5202 Clouds 16 1025 82 10000 10.84 78 18:42 20.02.2022
5203 Clouds 16 1025 82 10000 11.29 77 18:23 20.02.2022
5204 Clouds 16 1025 82 10000 11.29 77 17:30 20.02.2022
5205 Clouds 16 1025 81 10000 12.21 88 15:29 20.02.2022
5206 Clouds 16 1026 83 10000 12.08 87 14:20 20.02.2022
5207 Clouds 16 1026 83 10000 11.46 90 12:51 20.02.2022
5208 Clouds 16 1026 84 10000 10.78 89 11:56 20.02.2022
5209 Clouds 15 1025 86 10000 9.39 90 10:21 20.02.2022
5210 Clouds 15 1025 86 10000 9.37 90 09:51 20.02.2022
5211 Clouds 15 1024 88 10000 3.69 76 06:30 20.02.2022
5212 Clouds 13 1024 79 10000 1.94 262 00:33 20.02.2022
5213 Clouds 13 1024 81 10000 2.6 250 23:39 19.02.2022
5214 Clouds 14 1022 81 10000 3.91 236 22:25 19.02.2022
5215 Clouds 12 1022 81 10000 3.91 236 21:52 19.02.2022
5216 Clouds 15 1022 81 10000 4.23 242 20:45 19.02.2022
5217 Clouds 15 1021 80 10000 4.55 250 19:36 19.02.2022
5218 Clouds 16 1020 77 10000 5.08 256 18:41 19.02.2022
5219 Clouds 16 1020 74 10000 5.63 265 17:59 19.02.2022
5220 Clouds 16 1020 74 10000 5.66 265 17:32 19.02.2022
5221 Clouds 18 1019 72 10000 6.55 269 15:59 19.02.2022
5222 Clouds 17 1019 71 10000 6.79 265 14:55 19.02.2022
5223 Clouds 17 1020 71 10000 6.84 265 13:58 19.02.2022
5224 Clouds 17 1020 72 10000 6.69 261 11:58 19.02.2022
5225 Clouds 15 1020 75 10000 6.19 262 11:24 19.02.2022
5226 Clouds 13 1019 83 10000 5.61 284 09:00 19.02.2022
5227 Clouds 15 1018 86 10000 5.99 289 06:49 19.02.2022
5228 Clouds 15 1018 89 10000 5.21 256 00:50 19.02.2022
5229 Clouds 16 1019 90 10000 4.82 250 22:33 18.02.2022
5230 Clouds 16 1019 89 10000 4.33 256 21:26 18.02.2022
5231 Clouds 16 1019 89 10000 4.27 261 20:24 18.02.2022
5232 Clouds 16 1019 89 10000 4.27 261 19:50 18.02.2022
5233 Clouds 17 1018 86 10000 4.77 265 18:37 18.02.2022
5234 Clouds 18 1017 80 10000 4.74 273 18:18 18.02.2022
5235 Clouds 18 1018 76 10000 5.01 272 17:18 18.02.2022
5236 Clear 19 1019 73 10000 4.87 273 14:30 18.02.2022
5237 Clear 19 1019 68 10000 3.88 267 13:46 18.02.2022
5238 Clouds 17 1020 66 10000 2.71 249 12:50 18.02.2022
5239 Clouds 14 1021 67 10000 2.07 240 11:57 18.02.2022
5240 Clouds 13 1021 69 10000 1.3 228 10:45 18.02.2022
5241 Clear 12 1021 81 10000 0.91 113 08:47 18.02.2022
5242 Clear 12 1020 85 10000 2.95 72 06:35 18.02.2022
5243 Clear 11 1020 85 10000 3.08 74 05:34 18.02.2022
5244 Clouds 15 1022 78 10000 3.14 75 22:20 17.02.2022
5245 Clouds 15 1022 78 10000 3.13 75 21:38 17.02.2022
5246 Clouds 16 1023 77 10000 2.08 65 20:43 17.02.2022
5247 Clouds 17 1023 77 10000 0.59 32 19:55 17.02.2022
5248 Clear 17 1023 77 10000 1.42 293 19:22 17.02.2022
5249 Clouds 19 1022 75 10000 2.3 257 18:29 17.02.2022
5250 Clouds 18 1022 75 10000 2.32 257 17:42 17.02.2022
5251 Clear 18 1023 72 10000 2.87 264 15:57 17.02.2022
5252 Clear 17 1026 70 10000 4.22 257 14:29 17.02.2022
5253 Clear 17 1026 70 10000 4.22 257 13:31 17.02.2022
5254 Clouds 16 1027 71 10000 5.21 249 11:48 17.02.2022
5255 Clouds 13 1027 74 10000 4.37 249 10:20 17.02.2022
5256 Clouds 13 1027 80 10000 4.6 251 07:45 17.02.2022
5257 Clouds 15 1029 72 10000 4.75 273 23:23 16.02.2022
5258 Clouds 15 1029 68 10000 4.99 267 22:28 16.02.2022
5259 Clouds 16 1029 69 10000 5.27 260 20:22 16.02.2022
5260 Clouds 18 1028 69 10000 5.67 263 18:56 16.02.2022
5261 Clouds 19 1028 64 10000 6.01 264 17:56 16.02.2022
5262 Clouds 19 1028 60 10000 6.57 267 17:22 16.02.2022
5263 Clear 19 1028 53 10000 6.53 270 15:22 16.02.2022
5264 Clear 18 1029 51 10000 6.38 268 13:40 16.02.2022
5265 Clouds 18 1030 49 10000 5.67 268 12:24 16.02.2022
5266 Clouds 17 1030 49 10000 5.67 268 11:45 16.02.2022
5267 Clouds 15 1030 48 10000 5.18 272 10:34 16.02.2022
5268 Clouds 13 1030 51 10000 4.62 281 09:34 16.02.2022
5269 Clouds 9 1028 55 10000 3 285 06:43 16.02.2022
5270 Clouds 14 1029 57 10000 0.63 319 00:37 16.02.2022
5271 Clear 15 1029 56 10000 1.84 353 22:34 15.02.2022
5272 Clear 13 1029 54 10000 1.9 346 21:50 15.02.2022
5273 Clear 16 1028 52 10000 1.02 333 21:29 15.02.2022
5274 Clear 13 1028 52 10000 1.02 333 20:57 15.02.2022
5275 Clear 16 1028 50 10000 0.38 277 20:19 15.02.2022
5276 Clear 17 1028 50 10000 0.38 277 19:33 15.02.2022
5277 Clear 18 1027 48 10000 0.72 255 18:24 15.02.2022
5278 Clear 18 1027 48 10000 0.72 255 17:52 15.02.2022
5279 Clear 18 1027 43 10000 0.1 270 17:28 15.02.2022
5280 Clear 19 1027 44 10000 0.51 118 15:36 15.02.2022
5281 Clear 17 1028 46 10000 0.77 55 13:49 15.02.2022
5282 Clouds 17 1028 46 10000 0.76 75 13:25 15.02.2022
5283 Clouds 15 1029 46 10000 1.21 93 11:41 15.02.2022
5284 Clouds 15 1029 46 10000 1.21 93 11:41 15.02.2022
5285 Clouds 11 1028 54 10000 0.38 77 09:54 15.02.2022
5286 Clouds 10 1027 61 10000 0.67 5 07:41 15.02.2022
5287 Clear 10 1026 61 10000 1.01 354 06:36 15.02.2022
5288 Clouds 14 1026 64 10000 3.06 324 23:34 14.02.2022
5289 Clouds 15 1025 67 10000 3.74 307 21:55 14.02.2022
5290 Clouds 14 1024 68 10000 4.33 306 20:51 14.02.2022
5291 Clouds 16 1024 68 10000 5.22 304 19:46 14.02.2022
5292 Clouds 16 1023 66 10000 5.95 292 19:26 14.02.2022
5293 Clouds 17 1022 62 10000 6.75 284 18:23 14.02.2022
5294 Clouds 18 1022 55 10000 7.2 281 17:27 14.02.2022
5295 Clouds 18 1022 52 10000 7.38 276 16:26 14.02.2022
5296 Clear 18 1022 53 10000 6.82 273 14:43 14.02.2022
5297 Clear 16 1022 57 10000 6.07 281 13:34 14.02.2022
5298 Clouds 16 1023 64 10000 5.88 296 12:56 14.02.2022
5299 Clouds 15 1023 76 10000 5.1 299 11:55 14.02.2022
5300 Clouds 15 1023 82 10000 4.72 274 11:18 14.02.2022
5301 Clouds 15 1022 85 10000 5.26 242 09:19 14.02.2022
5302 Clouds 14 1021 84 10000 4.93 256 07:33 14.02.2022
5303 Clouds 14 1021 84 10000 4.93 256 07:33 14.02.2022
5304 Clouds 14 1021 81 10000 4.86 259 06:32 14.02.2022
5305 Clouds 14 1022 82 10000 1.62 333 22:43 13.02.2022
5306 Clouds 14 1022 82 10000 0.83 112 22:25 13.02.2022
5307 Clouds 14 1022 82 10000 0.83 113 21:36 13.02.2022
5308 Clouds 14 1022 83 10000 2.32 102 20:42 13.02.2022
5309 Clouds 15 1022 83 10000 2.81 93 19:51 13.02.2022
5310 Clouds 15 1020 83 10000 2.71 100 18:54 13.02.2022
5311 Clouds 15 1020 83 10000 2.71 100 18:35 13.02.2022
5312 Clouds 16 1020 74 10000 3.58 80 16:39 13.02.2022
5313 Clouds 16 1021 71 10000 4.57 80 15:27 13.02.2022
5314 Clouds 16 1021 71 10000 4.57 80 14:37 13.02.2022
5315 Clouds 16 1023 70 10000 4.98 90 12:52 13.02.2022
5316 Clouds 16 1024 69 10000 4.85 90 12:18 13.02.2022
5317 Clouds 15 1023 71 10000 4.98 92 10:38 13.02.2022
5318 Clouds 15 1023 74 10000 4.94 89 09:49 13.02.2022
5319 Clouds 11 1023 80 10000 5.27 86 07:52 13.02.2022
5320 Clouds 15 1024 82 10000 5.4 82 00:36 13.02.2022
5321 Clouds 12 1024 81 10000 5.3 82 23:54 12.02.2022
5322 Clouds 15 1025 80 10000 5.35 83 22:33 12.02.2022
5323 Clouds 15 1025 78 10000 5.47 84 21:36 12.02.2022
5324 Clouds 14 1024 77 10000 5.77 87 20:52 12.02.2022
5325 Clouds 15 1024 77 10000 5.85 85 19:48 12.02.2022
5326 Clouds 15 1024 76 10000 5.91 83 18:53 12.02.2022
5327 Clouds 15 1023 75 10000 5.87 81 18:35 12.02.2022
5328 Clouds 16 1023 71 10000 5.99 79 17:37 12.02.2022
5329 Clouds 16 1023 69 10000 6.38 79 16:43 12.02.2022
5330 Clouds 16 1023 68 10000 6.89 85 15:52 12.02.2022
5331 Clouds 16 1024 68 10000 6.94 86 14:55 12.02.2022
5332 Clouds 16 1025 67 10000 6.9 86 14:25 12.02.2022
5333 Clouds 15 1025 71 10000 7.24 93 11:20 12.02.2022
5334 Clouds 15 1025 74 10000 6.74 90 10:28 12.02.2022
5335 Clouds 15 1025 74 10000 6.74 90 09:33 12.02.2022
5336 Clouds 14 1025 78 10000 6.28 87 08:45 12.02.2022
5337 Clouds 14 1024 79 10000 6.11 87 05:41 12.02.2022
5338 Clouds 15 1024 79 10000 6.14 87 04:36 12.02.2022
5339 Clouds 12 1024 81 10000 5.84 82 02:19 12.02.2022
5340 Clear 12 1025 83 10000 4.6 78 22:57 11.02.2022
5341 Clear 15 1025 83 10000 4.71 80 22:20 11.02.2022
5342 Clear 15 1025 83 10000 4.47 81 20:52 11.02.2022
5343 Clear 15 1024 82 10000 4.35 84 20:21 11.02.2022
5344 Clear 15 1024 80 10000 4.36 82 19:27 11.02.2022
5345 Clear 16 1023 74 10000 4.38 89 18:29 11.02.2022
5346 Clear 16 1023 72 10000 4.55 92 17:26 11.02.2022
5347 Clear 16 1024 71 10000 4.68 90 16:26 11.02.2022
5348 Clear 16 1024 71 10000 4.76 86 14:59 11.02.2022
5349 Clear 16 1024 71 10000 4.76 86 14:37 11.02.2022
5350 Clear 16 1025 71 10000 4.64 85 14:18 11.02.2022
5351 Clear 16 1025 71 10000 4.64 85 13:39 11.02.2022
5352 Clouds 15 1026 72 10000 4.51 82 12:20 11.02.2022
5353 Clouds 14 1026 77 10000 4.8 81 10:29 11.02.2022
5354 Clouds 14 1025 79 10000 4.96 80 09:22 11.02.2022
5355 Clouds 14 1025 79 10000 4.94 79 08:28 11.02.2022
5356 Clouds 14 1025 81 10000 4.33 80 07:39 11.02.2022
5357 Clouds 14 1025 82 10000 4.58 78 02:40 11.02.2022
5358 Clouds 14 1026 81 10000 4.68 75 02:20 11.02.2022
5359 Clouds 14 1026 80 10000 4.91 80 23:36 10.02.2022
5360 Clouds 14 1026 80 10000 5.15 83 21:53 10.02.2022
5361 Clouds 15 1026 80 10000 5.35 83 21:26 10.02.2022
5362 Clouds 15 1026 80 10000 5.35 83 20:48 10.02.2022
5363 Clouds 15 1026 79 10000 5.36 79 19:37 10.02.2022
5364 Clouds 15 1026 77 10000 5.66 79 19:18 10.02.2022
5365 Clouds 16 1025 74 10000 5.96 83 17:39 10.02.2022
5366 Clouds 16 1025 71 10000 6.47 83 17:19 10.02.2022
5367 Clouds 16 1026 70 10000 6.88 83 16:20 10.02.2022
5368 Clouds 16 1026 70 10000 6.88 83 15:33 10.02.2022
5369 Clouds 17 1026 68 10000 7.01 86 14:49 10.02.2022
5370 Clouds 17 1027 68 10000 6.99 86 14:29 10.02.2022
5371 Clouds 16 1027 68 10000 6.99 86 13:33 10.02.2022
5372 Clouds 16 1028 69 10000 6.9 87 12:51 10.02.2022
5373 Clouds 16 1028 70 10000 7.14 88 11:44 10.02.2022
5374 Clouds 15 1028 71 10000 7.12 87 11:25 10.02.2022
5375 Clouds 15 1028 73 10000 6.69 86 10:19 10.02.2022
5376 Clouds 14 1027 74 10000 6.85 86 09:25 10.02.2022
5377 Clouds 14 1027 75 10000 6.98 85 07:40 10.02.2022
5378 Clouds 14 1027 76 10000 7.26 86 05:52 10.02.2022
5379 Clouds 14 1027 76 10000 8.38 85 01:57 10.02.2022
5380 Clouds 14 1028 77 10000 8.06 83 00:50 10.02.2022
5381 Clouds 14 1028 77 10000 8.06 83 00:50 10.02.2022
5382 Clouds 14 1028 76 10000 8.14 83 00:29 10.02.2022
5383 Clouds 14 1028 75 10000 8.19 83 23:26 09.02.2022
5384 Clouds 15 1028 75 10000 8.19 83 22:37 09.02.2022
5385 Clouds 14 1028 74 10000 8.4 85 21:52 09.02.2022
5386 Clouds 15 1028 74 10000 8.4 85 21:30 09.02.2022
5387 Clouds 15 1028 74 10000 8.24 85 20:51 09.02.2022
5388 Clouds 15 1028 74 10000 8.24 85 20:31 09.02.2022
5389 Clouds 15 1028 74 10000 8.3 85 19:56 09.02.2022
5390 Clouds 15 1028 74 10000 8.49 87 19:32 09.02.2022
5391 Clouds 15 1027 74 10000 8.66 86 17:38 09.02.2022
5392 Clouds 16 1027 74 10000 9.05 87 16:52 09.02.2022
5393 Clouds 17 1028 73 10000 9.24 88 15:51 09.02.2022
5394 Clouds 16 1028 73 10000 9.4 88 14:42 09.02.2022
5395 Clouds 15 1029 76 10000 10.23 89 12:28 09.02.2022
5396 Clouds 15 1029 77 10000 10.34 90 10:55 09.02.2022
5397 Clouds 15 1029 77 10000 10.34 90 10:30 09.02.2022
5398 Clouds 15 1029 77 10000 10.39 90 09:40 09.02.2022
5399 Clouds 15 1029 75 10000 10.58 91 09:19 09.02.2022
5400 Clouds 15 1028 75 10000 11.13 92 07:55 09.02.2022
5401 Clouds 15 1028 76 10000 11.46 90 05:30 09.02.2022
5402 Clouds 15 1028 76 10000 11.46 90 05:30 09.02.2022
5403 Clouds 15 1028 76 10000 11.4 90 03:50 09.02.2022
5404 Clouds 15 1028 80 10000 11.9 90 00:44 09.02.2022
5405 Clouds 15 1028 80 10000 12.18 92 23:32 08.02.2022
5406 Clouds 15 1028 80 10000 12.18 92 23:32 08.02.2022
5407 Clouds 15 1028 80 10000 12.18 92 23:32 08.02.2022
5408 Clouds 15 1028 80 10000 12.18 92 23:32 08.02.2022
5409 Clouds 15 1028 80 10000 12.24 92 22:46 08.02.2022
5410 Clouds 15 1028 80 10000 11.63 91 22:21 08.02.2022
5411 Clouds 15 1028 80 10000 11.63 91 21:39 08.02.2022
5412 Clouds 15 1028 79 10000 11.22 91 21:20 08.02.2022
5413 Clouds 15 1028 79 10000 11.22 91 20:43 08.02.2022
5414 Clouds 15 1027 80 10000 11.44 91 19:46 08.02.2022
5415 Clouds 15 1026 80 10000 11.4 90 18:38 08.02.2022
5416 Clouds 15 1026 79 10000 11.47 91 17:40 08.02.2022
5417 Clouds 16 1026 78 10000 12.45 90 16:29 08.02.2022
5418 Clear 16 1027 78 10000 12.08 90 15:29 08.02.2022
5419 Clear 16 1027 78 10000 12.08 90 14:31 08.02.2022
5420 Clouds 16 1028 76 10000 12.13 93 13:20 08.02.2022
5421 Clouds 16 1027 76 10000 12.13 93 11:33 08.02.2022
5422 Clouds 15 1027 80 10000 12.54 90 10:23 08.02.2022
5423 Clouds 15 1027 80 10000 12.54 90 09:44 08.02.2022
5424 Clouds 15 1026 80 10000 10.66 88 07:46 08.02.2022
5425 Clouds 14 1025 80 10000 10.11 85 05:37 08.02.2022
5426 Clouds 15 1025 81 10000 10.19 85 04:39 08.02.2022
5427 Clouds 15 1025 81 10000 10.08 85 04:21 08.02.2022
5428 Clouds 15 1025 81 10000 10.08 85 03:36 08.02.2022
5429 Clouds 15 1025 81 10000 9.69 87 03:18 08.02.2022
5430 Clouds 15 1025 81 10000 9.69 87 02:58 08.02.2022
5431 Clouds 15 1025 81 10000 9.69 87 02:36 08.02.2022
5432 Clouds 15 1025 81 10000 9.55 88 02:18 08.02.2022
5433 Clouds 15 1025 81 10000 9.55 88 01:43 08.02.2022
5434 Clouds 15 1025 82 10000 9.31 87 01:24 08.02.2022
5435 Clouds 15 1025 82 10000 9.31 87 00:49 08.02.2022
5436 Clouds 15 1025 82 10000 9.04 87 23:45 07.02.2022
5437 Clouds 15 1025 83 10000 8.57 86 23:19 07.02.2022
5438 Clouds 14 1025 83 10000 8.57 86 23:00 07.02.2022
5439 Clouds 15 1025 83 10000 8.25 87 22:19 07.02.2022
5440 Clouds 15 1025 83 10000 8.25 87 21:52 07.02.2022
5441 Clouds 15 1025 83 10000 8.18 86 21:29 07.02.2022
5442 Clouds 15 1025 83 10000 8.18 86 21:29 07.02.2022
5443 Clouds 15 1025 83 10000 8.18 86 20:56 07.02.2022
5444 Clouds 15 1025 83 10000 8.18 86 20:38 07.02.2022
5445 Clouds 15 1025 82 10000 8.25 84 19:47 07.02.2022
5446 Clouds 15 1024 82 10000 8.37 83 19:20 07.02.2022
5447 Clouds 16 1024 80 10000 8.21 82 17:39 07.02.2022
5448 Clouds 16 1024 77 10000 9.05 83 16:52 07.02.2022
5449 Clouds 16 1024 76 10000 9.47 84 15:49 07.02.2022
5450 Clouds 16 1024 76 10000 9.56 85 14:41 07.02.2022
5451 Clouds 16 1026 77 10000 9.84 84 13:27 07.02.2022
5452 Clouds 16 1026 77 10000 9.84 84 12:37 07.02.2022
5453 Clouds 16 1027 77 10000 10.35 85 11:55 07.02.2022
5454 Clouds 16 1026 78 10000 10.47 87 11:26 07.02.2022
5455 Clouds 16 1026 78 10000 10.47 87 10:45 07.02.2022
5456 Clouds 15 1026 80 10000 11.08 87 10:26 07.02.2022
5457 Clouds 15 1026 80 10000 11.09 87 09:52 07.02.2022
5458 Clouds 15 1026 81 10000 11.09 87 09:18 07.02.2022
5459 Clouds 14 1025 81 10000 11.05 87 07:59 07.02.2022
5460 Clouds 15 1025 81 10000 10.22 85 06:35 07.02.2022
5461 Clouds 15 1025 83 10000 10.55 88 05:26 07.02.2022
5462 Clouds 15 1026 83 10000 11.07 84 02:56 07.02.2022
5463 Clouds 15 1026 84 10000 10.84 85 00:29 07.02.2022
5464 Clouds 15 1026 84 10000 10.84 85 23:33 06.02.2022
5465 Clouds 15 1026 84 10000 11.05 86 22:45 06.02.2022
5466 Clouds 15 1026 85 10000 11.05 86 21:47 06.02.2022
5467 Clouds 15 1026 84 10000 10.64 85 21:21 06.02.2022
5468 Clouds 15 1026 84 10000 10.64 85 21:21 06.02.2022
5469 Clouds 15 1026 84 10000 10.64 85 21:21 06.02.2022
5470 Clouds 15 1026 84 10000 10.64 85 20:48 06.02.2022
5471 Clouds 15 1025 84 10000 10.71 83 20:24 06.02.2022
5472 Clouds 15 1025 85 10000 10.83 81 19:22 06.02.2022
5473 Clouds 15 1025 84 10000 10.87 80 18:34 06.02.2022
5474 Clouds 16 1024 82 10000 10.86 79 17:39 06.02.2022
5475 Clouds 16 1024 82 10000 11.22 82 16:52 06.02.2022
5476 Clouds 16 1024 81 10000 11.6 87 16:29 06.02.2022
5477 Clouds 16 1024 81 10000 11.6 87 15:47 06.02.2022
5478 Clouds 16 1024 81 10000 11.6 87 15:47 06.02.2022
5479 Clouds 16 1024 80 10000 11.48 86 15:25 06.02.2022
5480 Clouds 16 1025 80 10000 11.27 84 14:23 06.02.2022
5481 Clouds 16 1026 80 10000 11.07 86 13:23 06.02.2022
5482 Clouds 16 1026 80 10000 10.63 84 12:33 06.02.2022
5483 Clouds 15 1025 82 10000 10.26 90 10:37 06.02.2022
5484 Clouds 15 1025 84 10000 10.02 89 09:48 06.02.2022
5485 Clouds 15 1025 84 10000 9.52 86 08:41 06.02.2022
5486 Clouds 15 1024 85 10000 8.83 86 07:31 06.02.2022
5487 Clouds 15 1023 86 10000 8.19 79 05:28 06.02.2022
5488 Clouds 14 1024 88 10000 6.94 68 02:25 06.02.2022
5489 Clouds 14 1024 89 10000 6.27 66 00:49 06.02.2022
5490 Clouds 14 1024 89 10000 5.43 60 00:22 06.02.2022
5491 Clouds 15 1024 84 10000 3.08 64 21:48 05.02.2022
5492 Clouds 16 1024 80 10000 1.88 50 20:47 05.02.2022
5493 Clouds 16 1023 77 10000 0.94 355 20:22 05.02.2022
5494 Clouds 17 1023 77 10000 0.95 355 19:42 05.02.2022
5495 Clouds 18 1023 78 10000 1.79 285 18:45 05.02.2022
5496 Clouds 19 1022 74 10000 2.97 265 17:36 05.02.2022
5497 Clouds 19 1022 67 10000 3.87 254 16:24 05.02.2022
5498 Clouds 19 1022 67 10000 3.86 254 15:31 05.02.2022
5499 Clouds 19 1023 65 10000 3.81 260 13:55 05.02.2022
5500 Clouds 18 1024 66 10000 3.76 261 12:46 05.02.2022
5501 Clouds 17 1024 68 10000 3.92 261 11:47 05.02.2022
5502 Clouds 16 1024 72 10000 3.66 265 10:44 05.02.2022
5503 Clouds 14 1024 76 10000 3.72 271 09:51 05.02.2022
5504 Clouds 8 1023 80 10000 3.84 276 08:51 05.02.2022
5505 Clouds 14 1023 79 10000 4.58 287 07:27 05.02.2022
5506 Clouds 9 1023 82 10000 4.48 290 06:55 05.02.2022
5507 Clouds 15 1023 83 10000 4.59 260 02:43 05.02.2022
5508 Clouds 15 1023 80 10000 3.93 283 01:18 05.02.2022
5509 Clouds 15 1023 81 10000 4.29 281 00:36 05.02.2022
5510 Clouds 15 1024 75 10000 4.35 296 23:33 04.02.2022
5511 Clouds 15 1024 72 10000 5.23 313 22:50 04.02.2022
5512 Clouds 15 1024 68 10000 5.76 308 21:36 04.02.2022
5513 Clouds 15 1023 66 10000 5.55 298 21:18 04.02.2022
5514 Clouds 16 1023 66 10000 5.55 298 20:37 04.02.2022
5515 Clouds 17 1022 63 10000 4.91 276 19:19 04.02.2022
5516 Clouds 18 1022 58 10000 4.3 270 16:44 04.02.2022
5517 Clouds 18 1023 61 10000 5.71 282 15:19 04.02.2022
5518 Clouds 18 1023 61 10000 5.71 282 14:40 04.02.2022
5519 Clouds 18 1024 58 10000 4.94 258 12:43 04.02.2022
5520 Clouds 18 1024 69 10000 4.78 280 11:45 04.02.2022
5521 Clouds 17 1024 68 10000 4.81 273 10:55 04.02.2022
5522 Clouds 15 1024 71 10000 4.89 269 09:56 04.02.2022
5523 Clouds 12 1022 63 10000 3.78 272 07:56 04.02.2022
5524 Clouds 15 1022 66 10000 2.96 255 03:31 04.02.2022
5525 Clouds 14 1023 67 10000 3.37 264 02:34 04.02.2022
5526 Clouds 15 1023 73 10000 3.53 262 23:35 03.02.2022
5527 Clear 15 1023 73 10000 3.3 268 22:50 03.02.2022
5528 Clear 15 1023 73 10000 3.19 270 21:51 03.02.2022
5529 Clear 16 1023 74 10000 3.51 274 21:22 03.02.2022
5530 Clear 17 1023 74 10000 3.71 275 20:21 03.02.2022
5531 Clear 18 1023 74 10000 3.71 275 19:36 03.02.2022
5532 Clouds 19 1022 73 10000 3.59 269 18:56 03.02.2022
5533 Clouds 21 1022 69 10000 3.59 271 17:55 03.02.2022
5534 Clouds 21 1021 61 10000 3.78 269 16:48 03.02.2022
5535 Clouds 20 1022 55 10000 2.97 273 14:59 03.02.2022
5536 Clouds 17 1024 53 10000 1.37 241 13:19 03.02.2022
5537 Clouds 14 1024 54 10000 1.06 275 11:44 03.02.2022
5538 Clouds 9 1024 65 10000 0.66 86 08:55 03.02.2022
5539 Clouds 10 1023 69 10000 1.52 75 07:40 03.02.2022
5540 Clouds 13 1024 78 10000 3.84 74 00:34 03.02.2022
5541 Clouds 13 1024 78 10000 3.89 78 23:47 02.02.2022
5542 Clouds 14 1024 79 10000 4.52 81 22:38 02.02.2022
5543 Clouds 15 1024 80 10000 4.88 84 21:42 02.02.2022
5544 Clouds 15 1024 80 10000 4.8 87 21:24 02.02.2022
5545 Clouds 15 1024 80 10000 5.24 83 20:19 02.02.2022
5546 Clouds 15 1024 80 10000 5.24 83 19:45 02.02.2022
5547 Clouds 15 1024 78 10000 5.24 83 18:53 02.02.2022
5548 Clear 16 1024 72 10000 4.91 86 18:22 02.02.2022
5549 Clear 16 1024 68 10000 5.53 83 17:20 02.02.2022
5550 Clear 16 1024 68 10000 5.53 83 16:47 02.02.2022
5551 Clear 16 1026 67 10000 6.96 82 14:18 02.02.2022
5552 Clear 16 1027 68 10000 6.66 83 12:26 02.02.2022
5553 Clear 15 1027 68 10000 6.66 83 11:40 02.02.2022
5554 Clear 15 1027 71 10000 6.96 84 10:38 02.02.2022
5555 Clear 14 1026 76 10000 8.65 88 07:42 02.02.2022
5556 Clouds 15 1027 78 10000 8.03 86 01:36 02.02.2022
5557 Clouds 13 1027 80 10000 6.79 83 21:59 01.02.2022
5558 Clouds 15 1027 80 10000 6.71 86 20:49 01.02.2022
5559 Clear 16 1026 72 10000 4.74 80 18:35 01.02.2022
5560 Clear 17 1025 61 10000 2.19 82 16:43 01.02.2022
5561 Clear 19 1025 50 10000 3.44 236 14:56 01.02.2022
5562 Clear 19 1026 52 10000 4.95 261 12:49 01.02.2022
5563 Clear 17 1026 53 10000 4.85 260 11:48 01.02.2022
5564 Clear 7 1025 60 10000 4.58 271 06:57 01.02.2022
5565 Clear 15 1026 60 10000 2.99 282 23:54 31.01.2022
5566 Clear 15 1026 60 10000 2.99 282 23:54 31.01.2022
5567 Clear 15 1026 60 10000 3 282 23:36 31.01.2022
5568 Clear 15 1026 60 10000 3 282 23:36 31.01.2022
5569 Clear 16 1027 62 10000 2.66 284 22:27 31.01.2022
5570 Clear 18 1027 62 10000 2.66 284 21:34 31.01.2022
5571 Clear 18 1026 63 10000 2.51 280 20:34 31.01.2022
5572 Clear 17 1025 64 10000 2.5 265 19:46 31.01.2022
5573 Clear 19 1025 63 10000 3.3 252 18:31 31.01.2022
5574 Clear 19 1025 64 10000 3.35 248 18:31 31.01.2022
5575 Clear 20 1024 60 10000 3.67 247 17:53 31.01.2022
5576 Clear 20 1024 54 10000 3.35 249 16:58 31.01.2022
5577 Clear 19 1025 50 10000 3.58 249 15:44 31.01.2022
5578 Clear 18 1026 46 10000 3.49 251 14:25 31.01.2022
5579 Clear 17 1027 46 10000 2.81 273 12:51 31.01.2022
5580 Clear 14 1027 47 10000 2.11 281 11:59 31.01.2022
5581 Clear 12 1027 51 10000 1.46 294 10:54 31.01.2022
5582 Clear 11 1027 51 10000 1.46 294 10:36 31.01.2022
5583 Clear 11 1027 58 10000 0.69 316 09:34 31.01.2022
5584 Clear 13 1026 64 10000 0.68 37 08:52 31.01.2022
5585 Clear 10 1026 69 10000 1.09 58 08:20 31.01.2022
5586 Clouds 11 1026 71 10000 1.5 65 06:36 31.01.2022
5587 Clouds 11 1025 76 10000 2.98 64 05:20 31.01.2022
5588 Clear 15 1026 79 10000 5.1 79 23:20 30.01.2022
5589 Clear 15 1026 79 10000 5.1 79 22:30 30.01.2022
5590 Clear 15 1026 79 10000 5.1 79 22:30 30.01.2022
5591 Clear 15 1026 79 10000 5.34 81 21:43 30.01.2022
5592 Clear 15 1026 79 10000 5.65 81 21:20 30.01.2022
5593 Clear 15 1026 78 10000 5.5 80 20:50 30.01.2022
5594 Clear 15 1026 78 10000 5.77 81 20:29 30.01.2022
5595 Clear 15 1026 78 10000 5.77 81 19:53 30.01.2022
5596 Clear 16 1025 76 10000 6.35 82 18:44 30.01.2022
5597 Clear 16 1025 72 10000 7.05 83 18:20 30.01.2022
5598 Clear 16 1025 70 10000 7.63 80 17:28 30.01.2022
5599 Clear 17 1025 70 10000 7.63 80 16:41 30.01.2022
5600 Clear 17 1025 69 10000 8.14 82 16:22 30.01.2022
5601 Clear 17 1025 69 10000 8.14 82 15:52 30.01.2022
5602 Clear 17 1025 69 10000 8.14 82 15:32 30.01.2022
5603 Clear 17 1025 68 10000 8.59 85 14:46 30.01.2022
5604 Clouds 17 1027 68 10000 9.6 85 12:54 30.01.2022
5605 Clouds 17 1027 68 10000 9.6 85 12:33 30.01.2022
5606 Clouds 16 1027 70 10000 10.24 90 10:36 30.01.2022
5607 Clouds 15 1027 72 10000 10.32 90 09:56 30.01.2022
5608 Clouds 14 1027 73 10000 10.26 89 08:58 30.01.2022
5609 Clouds 15 1026 73 10000 10.4 90 07:55 30.01.2022
5610 Clouds 15 1027 70 10000 12.29 92 02:29 30.01.2022
5611 Clouds 15 1027 70 10000 12.29 92 01:39 30.01.2022
5612 Clear 15 1027 73 10000 12.41 93 23:21 29.01.2022
5613 Clear 15 1027 74 10000 12.32 95 21:59 29.01.2022
5614 Clouds 15 1027 75 10000 12.57 96 21:26 29.01.2022
5615 Clouds 15 1027 75 10000 12.57 96 20:38 29.01.2022
5616 Clouds 15 1027 75 10000 12.75 97 19:36 29.01.2022
5617 Clear 16 1027 74 10000 12.76 95 19:00 29.01.2022
5618 Clear 16 1027 76 10000 12.16 96 18:30 29.01.2022
5619 Clear 16 1027 74 10000 12.67 95 17:41 29.01.2022
5620 Clear 16 1027 73 10000 13.17 96 16:42 29.01.2022
5621 Clouds 16 1027 73 10000 13.55 96 14:33 29.01.2022
5622 Clouds 16 1027 74 10000 13.59 95 13:45 29.01.2022
5623 Clouds 16 1028 74 10000 13.94 94 13:25 29.01.2022
5624 Clouds 16 1028 74 10000 13.94 94 12:36 29.01.2022
5625 Clouds 16 1028 75 10000 14.01 95 11:38 29.01.2022
5626 Clouds 15 1027 77 10000 13.64 97 09:49 29.01.2022
5627 Clouds 15 1026 79 10000 13.86 99 06:55 29.01.2022
5628 Clear 15 1026 78 10000 13.15 100 00:49 29.01.2022
5629 Clear 15 1026 78 10000 13.15 100 00:31 29.01.2022
5630 Clear 15 1026 80 10000 13.06 102 22:51 28.01.2022
5631 Clear 15 1026 80 10000 12.97 101 22:26 28.01.2022
5632 Clear 15 1026 80 10000 12.97 101 21:52 28.01.2022
5633 Clear 15 1025 81 10000 13.03 99 20:30 28.01.2022
5634 Clear 15 1025 81 10000 13.03 99 20:30 28.01.2022
5635 Clouds 15 1025 81 10000 12.91 96 19:33 28.01.2022
5636 Clouds 15 1025 80 10000 12.83 95 18:46 28.01.2022
5637 Clouds 15 1024 78 10000 12.73 96 17:31 28.01.2022
5638 Clouds 15 1025 76 10000 13.35 96 15:20 28.01.2022
5639 Clouds 15 1025 77 10000 13.75 96 13:52 28.01.2022
5640 Clouds 15 1025 78 10000 13.81 94 12:30 28.01.2022
5641 Clouds 15 1025 80 10000 13.64 91 11:24 28.01.2022
5642 Clouds 15 1025 80 10000 13.54 91 09:52 28.01.2022
5643 Clouds 15 1024 79 10000 13.29 94 08:22 28.01.2022
5644 Clouds 15 1024 79 10000 13.29 94 07:34 28.01.2022
5645 Clouds 14 1024 79 10000 13.07 100 03:57 28.01.2022
5646 Clear 15 1024 76 10000 13.25 102 03:20 28.01.2022
5647 Clear 15 1024 74 10000 13.45 102 02:22 28.01.2022
5648 Clear 15 1024 74 10000 13.45 102 01:31 28.01.2022
5649 Clear 15 1024 72 10000 13.31 100 22:48 27.01.2022
5650 Clear 15 1024 71 10000 13.15 100 21:46 27.01.2022
5651 Clear 15 1023 71 10000 12.67 99 21:28 27.01.2022
5652 Clear 15 1023 71 10000 12.08 96 20:24 27.01.2022
5653 Clouds 15 1023 71 10000 12.27 93 18:26 27.01.2022
5654 Clouds 15 1023 71 10000 12.27 93 17:34 27.01.2022
5655 Clouds 16 1023 71 10000 12.95 89 14:35 27.01.2022
5656 Clouds 16 1024 70 10000 12.29 88 13:24 27.01.2022
5657 Clouds 15 1024 69 10000 12.22 88 12:39 27.01.2022
5658 Clouds 15 1023 72 10000 11.88 87 09:56 27.01.2022
5659 Clouds 15 1023 75 10000 12.45 87 08:41 27.01.2022
5660 Clouds 15 1022 76 10000 12.72 86 08:18 27.01.2022
5661 Clouds 15 1022 78 10000 13.26 88 03:37 27.01.2022
5662 Clouds 15 1021 72 10000 13.59 84 00:25 27.01.2022
5663 Clouds 15 1021 72 10000 13.59 84 00:25 27.01.2022
5664 Clouds 15 1021 79 10000 14.15 80 22:38 26.01.2022
5665 Clouds 15 1021 78 10000 14.55 85 21:45 26.01.2022
5666 Clouds 15 1021 79 10000 15.18 85 20:59 26.01.2022
5667 Clouds 15 1021 79 10000 15.18 85 20:35 26.01.2022
5668 Clouds 15 1021 80 10000 14.95 82 19:52 26.01.2022
5669 Clouds 15 1021 82 10000 14.54 80 18:52 26.01.2022
5670 Clouds 15 1021 82 10000 14.35 80 18:24 26.01.2022
5671 Clouds 15 1021 82 10000 14.35 80 17:39 26.01.2022
5672 Clouds 15 1021 84 10000 14.37 78 17:19 26.01.2022
5673 Clouds 15 1021 78 10000 13.8 79 16:25 26.01.2022
5674 Clouds 15 1021 78 10000 13.77 81 15:23 26.01.2022
5675 Rain 15 1022 80 10000 14.32 80 12:44 26.01.2022
5676 Rain 15 1023 84 10000 14.64 87 10:56 26.01.2022
5677 Rain 14 1023 83 10000 14.36 90 09:58 26.01.2022
5678 Rain 14 1023 83 10000 14.36 90 09:39 26.01.2022
5679 Clouds 15 1022 83 10000 14.11 92 07:28 26.01.2022
5680 Clouds 15 1024 85 10000 14.97 92 00:42 26.01.2022
5681 Clouds 15 1024 85 10000 15.22 93 23:43 25.01.2022
5682 Clouds 15 1024 84 10000 15.26 93 22:49 25.01.2022
5683 Clouds 15 1025 83 10000 15.04 94 22:19 25.01.2022
5684 Clouds 15 1025 84 10000 15.04 94 21:34 25.01.2022
5685 Clouds 15 1024 83 10000 15.19 94 20:45 25.01.2022
5686 Clouds 15 1024 82 10000 15.18 93 19:58 25.01.2022
5687 Clouds 15 1024 82 10000 15.21 93 19:58 25.01.2022
5688 Clouds 15 1024 82 10000 15.21 93 19:32 25.01.2022
5689 Clouds 15 1023 81 10000 15.03 91 17:56 25.01.2022
5690 Clouds 15 1023 81 10000 15.03 91 17:37 25.01.2022
5691 Clouds 15 1023 81 10000 14.95 90 16:35 25.01.2022
5692 Clouds 15 1023 81 10000 14.94 89 15:39 25.01.2022
5693 Clouds 15 1023 81 10000 14.88 90 15:19 25.01.2022
5694 Clouds 15 1023 81 10000 14.88 90 14:56 25.01.2022
5695 Clouds 14 1026 79 10000 14.59 90 12:21 25.01.2022
5696 Clouds 14 1025 79 10000 13.33 98 09:35 25.01.2022
5697 Clouds 14 1025 83 10000 13.57 94 07:52 25.01.2022
5698 Clouds 14 1024 83 10000 13.35 92 07:21 25.01.2022
5699 Clouds 14 1024 83 10000 13.18 93 05:26 25.01.2022
5700 Clouds 13 1024 81 10000 13.26 96 00:35 25.01.2022
5701 Clouds 14 1024 81 10000 13.37 96 23:36 24.01.2022
5702 Clouds 14 1024 82 10000 13.13 95 23:18 24.01.2022
5703 Clouds 14 1024 82 10000 13.13 95 22:42 24.01.2022
5704 Clouds 14 1024 82 10000 12.76 93 22:19 24.01.2022
5705 Clouds 14 1024 82 10000 12.76 93 21:40 24.01.2022
5706 Clouds 14 1024 81 10000 12.75 92 21:19 24.01.2022
5707 Clouds 14 1024 82 10000 12.57 90 20:26 24.01.2022
5708 Clouds 14 1024 82 10000 12.57 90 20:26 24.01.2022
5709 Clouds 14 1024 82 10000 12.57 90 19:38 24.01.2022
5710 Clouds 14 1024 86 10000 11.72 84 18:50 24.01.2022
5711 Clouds 14 1023 85 10000 11.63 83 17:39 24.01.2022
5712 Clouds 14 1023 84 10000 11.65 85 17:21 24.01.2022
5713 Clouds 13 1023 84 10000 11.65 85 16:31 24.01.2022
5714 Clouds 13 1023 80 10000 11.73 88 15:25 24.01.2022
5715 Clouds 13 1024 79 10000 12.03 88 13:58 24.01.2022
5716 Clouds 13 1024 82 10000 12.08 85 12:34 24.01.2022
5717 Clouds 13 1024 84 10000 12.22 87 11:41 24.01.2022
5718 Clouds 14 1023 85 10000 11.69 91 10:19 24.01.2022
5719 Rain 14 1023 85 10000 11.69 91 09:44 24.01.2022
5720 Clouds 14 1023 86 10000 11.66 91 07:45 24.01.2022
5721 Clouds 14 1023 76 10000 11.94 93 01:38 24.01.2022
5722 Clouds 14 1023 75 10000 11.89 93 00:50 24.01.2022
5723 Clouds 14 1023 76 10000 12.31 93 00:29 24.01.2022
5724 Clouds 14 1023 75 10000 12.31 94 22:58 23.01.2022
5725 Clouds 14 1023 75 10000 11.95 94 21:52 23.01.2022
5726 Clouds 14 1023 76 10000 11.8 93 21:27 23.01.2022
5727 Clouds 14 1023 76 10000 11.8 93 20:55 23.01.2022
5728 Clouds 15 1023 77 10000 11.96 92 20:21 23.01.2022
5729 Clouds 15 1022 78 10000 12.21 92 18:53 23.01.2022
5730 Clouds 15 1022 78 10000 11.94 93 18:22 23.01.2022
5731 Clouds 15 1022 77 10000 11.06 93 16:55 23.01.2022
5732 Clouds 15 1022 77 10000 11.32 92 15:46 23.01.2022
5733 Clouds 15 1022 76 10000 11.66 88 14:50 23.01.2022
5734 Clouds 15 1023 76 10000 12.25 90 14:18 23.01.2022
5735 Clouds 15 1024 74 10000 12.41 90 12:44 23.01.2022
5736 Clouds 15 1024 75 10000 12.32 91 12:19 23.01.2022
5737 Clouds 15 1024 75 10000 12.67 93 11:26 23.01.2022
5738 Clouds 15 1024 75 10000 12.67 93 10:57 23.01.2022
5739 Rain 15 1024 74 10000 12.82 95 10:25 23.01.2022
5740 Clouds 14 1024 74 10000 12.82 95 09:31 23.01.2022
5741 Clouds 14 1023 73 10000 12.79 92 08:33 23.01.2022
5742 Clouds 14 1022 73 10000 13.14 91 03:34 23.01.2022
5743 Clouds 14 1023 73 10000 13.33 89 01:36 23.01.2022
5744 Clouds 14 1024 72 10000 12.78 91 00:46 23.01.2022
5745 Clouds 14 1024 72 10000 12.74 93 23:59 22.01.2022
5746 Clouds 14 1024 71 10000 12.97 93 22:49 22.01.2022
5747 Clouds 14 1024 71 10000 13 93 22:19 22.01.2022
5748 Clouds 14 1024 71 10000 12.89 93 20:33 22.01.2022
5749 Clouds 15 1024 71 10000 13.05 92 19:41 22.01.2022
5750 Clouds 15 1023 73 10000 12.69 91 18:37 22.01.2022
5751 Clouds 15 1023 73 10000 12.84 92 17:45 22.01.2022
5752 Clouds 15 1023 71 10000 13.11 92 17:19 22.01.2022
5753 Clouds 15 1023 71 10000 13.11 92 16:54 22.01.2022
5754 Clouds 15 1023 70 10000 13.2 93 15:45 22.01.2022
5755 Clouds 16 1023 70 10000 13.52 93 14:42 22.01.2022
5756 Clouds 16 1024 71 10000 13.64 93 13:30 22.01.2022
5757 Clouds 15 1024 70 10000 13.31 93 12:37 22.01.2022
5758 Clouds 15 1025 72 10000 13.35 93 12:19 22.01.2022
5759 Clouds 15 1024 72 10000 13.23 93 10:54 22.01.2022
5760 Clouds 15 1024 72 10000 13.15 94 10:23 22.01.2022
5761 Clouds 12 1024 69 10000 12.89 95 08:56 22.01.2022
5762 Clouds 14 1024 69 10000 12.89 95 08:38 22.01.2022
5763 Clouds 14 1023 70 10000 12.72 93 06:46 22.01.2022
5764 Clouds 14 1023 71 10000 12.71 95 02:40 22.01.2022
5765 Clouds 13 1024 70 10000 11.67 96 23:50 21.01.2022
5766 Clouds 14 1023 69 10000 11.29 94 23:20 21.01.2022
5767 Clouds 14 1023 70 10000 10.84 91 21:34 21.01.2022
5768 Clouds 14 1023 73 10000 10.28 88 19:35 21.01.2022
5769 Clouds 14 1022 72 10000 9.26 89 17:51 21.01.2022
5770 Clouds 15 1022 67 10000 8.6 89 15:56 21.01.2022
5771 Clouds 15 1022 67 10000 8.37 90 14:58 21.01.2022
5772 Clouds 16 1023 69 10000 7.86 87 12:43 21.01.2022
5773 Clouds 15 1023 69 10000 7.7 87 11:29 21.01.2022
5774 Clouds 14 1023 69 10000 7.69 87 10:33 21.01.2022
5775 Clouds 10 1022 71 10000 6.55 85 08:58 21.01.2022
5776 Clouds 10 1022 69 10000 6.7 89 07:58 21.01.2022
5777 Clouds 12 1023 70 10000 8.12 88 01:51 21.01.2022
5778 Clouds 14 1024 72 10000 6.66 84 22:47 20.01.2022
5779 Clear 14 1024 72 10000 6.4 83 21:49 20.01.2022
5780 Clear 14 1024 71 10000 6.27 81 21:25 20.01.2022
5781 Clouds 14 1024 70 10000 6.32 81 19:47 20.01.2022
5782 Clouds 14 1024 70 10000 6.44 84 19:18 20.01.2022
5783 Clouds 15 1023 68 10000 6.55 83 17:37 20.01.2022
5784 Clouds 15 1024 66 10000 7.32 79 16:19 20.01.2022
5785 Clouds 15 1024 65 10000 7.37 83 15:29 20.01.2022
5786 Clouds 15 1025 65 10000 7.64 90 14:19 20.01.2022
5787 Clouds 15 1026 65 10000 7.69 88 12:48 20.01.2022
5788 Clouds 15 1027 65 10000 7.67 88 12:27 20.01.2022
5789 Clouds 15 1027 66 10000 7.59 93 10:59 20.01.2022
5790 Clouds 14 1026 68 10000 7.01 88 09:44 20.01.2022
5791 Clouds 13 1026 69 10000 6.63 83 08:37 20.01.2022
5792 Clouds 13 1026 72 10000 6.15 83 06:49 20.01.2022
5793 Clouds 14 1028 72 10000 6.62 87 00:30 20.01.2022
5794 Clouds 13 1028 74 10000 6.44 85 22:38 19.01.2022
5795 Clouds 14 1028 74 10000 6.4 86 21:33 19.01.2022
5796 Clouds 14 1028 74 10000 6.25 85 20:55 19.01.2022
5797 Clouds 14 1028 74 10000 6.25 85 20:30 19.01.2022
5798 Clouds 14 1027 71 10000 5.82 83 18:49 19.01.2022
5799 Clouds 14 1027 70 10000 6.05 83 17:50 19.01.2022
5800 Clouds 14 1027 69 10000 6.5 83 17:18 19.01.2022
5801 Clouds 15 1028 65 10000 7.26 84 14:55 19.01.2022
5802 Clouds 15 1030 66 10000 8.06 89 13:20 19.01.2022
5803 Clouds 15 1030 66 10000 8.02 89 11:58 19.01.2022
5804 Clouds 15 1030 67 10000 7.85 89 11:22 19.01.2022
5805 Clouds 14 1030 70 10000 7.28 87 09:35 19.01.2022
5806 Clouds 14 1029 73 10000 7.07 85 08:20 19.01.2022
5807 Clouds 12 1029 75 10000 6.33 84 05:19 19.01.2022
5808 Clouds 11 1030 72 10000 6.74 87 23:53 18.01.2022
5809 Clouds 14 1030 72 10000 6.98 88 23:18 18.01.2022
5810 Clouds 14 1030 72 10000 7.2 87 21:43 18.01.2022
5811 Clouds 14 1029 73 10000 7.06 87 20:21 18.01.2022
5812 Clouds 14 1029 72 10000 7.16 88 19:39 18.01.2022
5813 Clouds 14 1029 72 10000 7.07 90 19:21 18.01.2022
5814 Clouds 14 1028 71 10000 7.3 88 18:18 18.01.2022
5815 Clouds 14 1028 69 10000 7.31 89 17:29 18.01.2022
5816 Clouds 15 1028 68 10000 7.74 88 15:56 18.01.2022
5817 Clouds 15 1028 67 10000 8.19 89 15:24 18.01.2022
5818 Clouds 14 1028 67 10000 8.63 88 13:32 18.01.2022
5819 Clouds 15 1029 68 10000 9.2 90 11:20 18.01.2022
5820 Clouds 14 1029 70 10000 9.19 90 09:58 18.01.2022
5821 Clouds 14 1028 72 10000 9.09 87 08:19 18.01.2022
5822 Clouds 14 1028 72 10000 9.09 87 07:31 18.01.2022
5823 Clouds 14 1030 70 10000 10.81 90 00:22 18.01.2022
5824 Clouds 14 1030 70 10000 10.41 90 22:31 17.01.2022
5825 Clouds 14 1030 71 10000 9.72 90 21:36 17.01.2022
5826 Clouds 14 1030 70 10000 10.18 89 20:33 17.01.2022
5827 Clear 14 1028 69 10000 9.29 89 18:42 17.01.2022
5828 Clear 15 1028 67 10000 10.07 92 17:55 17.01.2022
5829 Clear 15 1028 66 10000 10.23 91 16:53 17.01.2022
5830 Clear 15 1029 65 10000 10.91 91 15:24 17.01.2022
5831 Clear 18 1029 65 10000 10.91 91 14:57 17.01.2022
5832 Clear 15 1029 65 10000 10.49 93 13:30 17.01.2022
5833 Clouds 16 1030 66 10000 10.39 89 12:57 17.01.2022
5834 Clouds 15 1031 67 10000 10.66 90 11:50 17.01.2022
5835 Clouds 15 1031 69 10000 10.25 89 10:38 17.01.2022
5836 Clouds 14 1030 70 10000 10.07 89 09:35 17.01.2022
5837 Clouds 14 1029 71 10000 9.65 95 07:47 17.01.2022
5838 Clouds 14 1029 71 10000 8.67 91 07:19 17.01.2022
5839 Clouds 13 1030 77 10000 6.82 81 00:57 17.01.2022
5840 Clouds 14 1030 79 10000 6.16 81 22:31 16.01.2022
5841 Clouds 15 1030 80 10000 5.82 83 20:38 16.01.2022
5842 Clouds 15 1029 83 10000 5.41 81 18:53 16.01.2022
5843 Clouds 15 1028 80 10000 5.05 83 18:18 16.01.2022
5844 Clouds 16 1028 78 10000 5.14 79 17:25 16.01.2022
5845 Clouds 15 1028 78 10000 5.13 79 16:45 16.01.2022
5846 Clouds 15 1028 78 10000 5.14 80 14:50 16.01.2022
5847 Clouds 15 1029 78 10000 4.94 83 14:27 16.01.2022
5848 Clouds 14 1029 77 10000 4.95 88 12:49 16.01.2022
5849 Clouds 15 1030 78 10000 5.4 88 11:43 16.01.2022
5850 Clouds 14 1029 79 10000 5.24 92 10:55 16.01.2022
5851 Clouds 14 1029 81 10000 5.12 95 10:26 16.01.2022
5852 Clouds 14 1029 81 10000 5.12 95 09:52 16.01.2022
5853 Clouds 13 1028 83 10000 5.21 93 09:22 16.01.2022
5854 Clouds 13 1028 83 10000 5.21 93 08:37 16.01.2022
5855 Clouds 13 1027 81 10000 4.48 94 02:36 16.01.2022
5856 Clouds 13 1027 79 10000 4.83 95 23:49 15.01.2022
5857 Clouds 14 1027 77 10000 4.93 95 21:46 15.01.2022
5858 Clouds 14 1027 77 10000 4.97 92 21:19 15.01.2022
5859 Clouds 14 1027 77 10000 4.97 92 20:40 15.01.2022
5860 Clouds 14 1026 77 10000 5.08 89 19:29 15.01.2022
5861 Clouds 14 1026 76 10000 5.17 87 18:44 15.01.2022
5862 Clouds 14 1026 72 10000 5.68 90 17:25 15.01.2022
5863 Clouds 16 1025 71 10000 5.93 93 15:42 15.01.2022
5864 Clouds 15 1026 69 10000 6.39 100 13:52 15.01.2022
5865 Clouds 15 1028 69 10000 7.47 100 11:46 15.01.2022
5866 Clouds 14 1027 73 10000 8.26 99 10:25 15.01.2022
5867 Clouds 13 1026 69 10000 8.15 97 06:40 15.01.2022
5868 Clouds 14 1028 67 10000 10.08 100 23:49 14.01.2022
5869 Clouds 14 1028 67 10000 10.8 99 21:41 14.01.2022
5870 Clouds 14 1028 68 10000 10.77 100 20:37 14.01.2022
5871 Clouds 14 1028 68 10000 10.83 99 19:58 14.01.2022
5872 Clouds 14 1027 68 10000 10.99 96 18:46 14.01.2022
5873 Clouds 14 1027 69 10000 11.42 95 17:54 14.01.2022
5874 Clouds 14 1026 68 10000 11.58 95 16:47 14.01.2022
5875 Clouds 14 1026 65 10000 11.84 96 15:33 14.01.2022
5876 Clouds 14 1027 64 10000 11.98 97 14:30 14.01.2022
5877 Clouds 14 1028 64 10000 12.25 98 13:27 14.01.2022
5878 Clouds 14 1028 64 10000 12.13 98 12:20 14.01.2022
5879 Clouds 13 1028 66 10000 12.27 97 10:46 14.01.2022
5880 Clouds 10 1027 68 10000 12.64 97 08:54 14.01.2022
5881 Clouds 14 1027 68 10000 12.9 96 07:46 14.01.2022
5882 Clouds 14 1027 67 10000 13.49 99 03:19 14.01.2022
5883 Clouds 14 1028 63 10000 13.69 100 00:35 14.01.2022
5884 Clouds 13 1028 62 10000 14.55 100 21:57 13.01.2022
5885 Clouds 14 1028 62 10000 14.55 100 21:30 13.01.2022
5886 Clouds 14 1028 63 10000 14.6 99 20:33 13.01.2022
5887 Clouds 14 1028 63 10000 14.49 97 19:32 13.01.2022
5888 Clouds 15 1027 63 10000 14.73 96 18:50 13.01.2022
5889 Clouds 15 1026 62 10000 14.7 96 16:58 13.01.2022
5890 Clouds 15 1026 61 10000 14.9 96 15:49 13.01.2022
5891 Clouds 15 1026 61 10000 15.02 96 15:26 13.01.2022
5892 Clouds 15 1027 61 10000 15.29 97 13:42 13.01.2022
5893 Clouds 15 1028 62 10000 15.51 98 11:43 13.01.2022
5894 Clouds 15 1027 63 10000 15.34 100 09:37 13.01.2022
5895 Clouds 13 1026 63 10000 15.4 98 08:52 13.01.2022
5896 Clouds 14 1026 63 10000 15.41 97 08:18 13.01.2022
5897 Clouds 14 1025 63 10000 15.35 98 07:20 13.01.2022
5898 Clouds 14 1025 66 10000 15.19 96 05:21 13.01.2022
5899 Clouds 13 1025 66 10000 15.19 96 04:55 13.01.2022
5900 Clear 14 1025 66 10000 14.98 98 01:41 13.01.2022
5901 Clear 13 1026 64 10000 15.07 98 23:54 12.01.2022
5902 Clear 14 1026 63 10000 14.82 98 23:34 12.01.2022
5903 Clear 14 1026 63 10000 14.83 98 22:35 12.01.2022
5904 Clear 14 1025 62 10000 14.54 98 21:49 12.01.2022
5905 Clear 14 1025 61 10000 14.28 97 21:20 12.01.2022
5906 Clear 14 1025 61 10000 14.28 97 20:49 12.01.2022
5907 Clouds 14 1025 65 10000 13.62 93 19:24 12.01.2022
5908 Clouds 15 1024 66 10000 13.35 91 18:27 12.01.2022
5909 Clouds 15 1024 66 10000 13.25 90 16:58 12.01.2022
5910 Clouds 15 1024 69 10000 13.25 90 15:49 12.01.2022
5911 Clouds 15 1024 70 10000 13.08 91 14:45 12.01.2022
5912 Clouds 15 1025 72 10000 12.6 91 12:58 12.01.2022
5913 Clouds 15 1024 76 10000 11.67 92 09:58 12.01.2022
5914 Clouds 14 1024 78 10000 11.32 90 07:59 12.01.2022
5915 Clouds 15 1024 78 10000 11.32 90 07:33 12.01.2022
5916 Clouds 14 1023 77 10000 11.14 85 04:54 12.01.2022
5917 Clouds 15 1023 81 10000 10.91 89 23:27 11.01.2022
5918 Clouds 15 1023 81 10000 10.89 89 22:40 11.01.2022
5919 Clouds 15 1023 82 10000 10.83 87 22:18 11.01.2022
5920 Clouds 15 1023 84 10000 10.75 83 20:40 11.01.2022
5921 Clouds 16 1023 85 10000 10.75 80 19:40 11.01.2022
5922 Clouds 16 1021 86 10000 11.41 79 17:55 11.01.2022
5923 Clouds 16 1021 86 10000 11.28 79 16:47 11.01.2022
5924 Clouds 16 1021 84 10000 11.39 78 16:28 11.01.2022
5925 Clouds 16 1021 82 10000 11.31 79 14:57 11.01.2022
5926 Clouds 16 1021 82 10000 11.31 79 14:38 11.01.2022
5927 Clouds 16 1021 82 10000 11.32 83 13:53 11.01.2022
5928 Clouds 16 1022 81 10000 11.41 83 13:28 11.01.2022
5929 Clouds 16 1021 80 10000 11.01 83 12:36 11.01.2022
5930 Clouds 16 1021 84 10000 9.37 83 10:40 11.01.2022
5931 Clouds 11 1020 83 10000 3.58 78 08:26 11.01.2022
5932 Clouds 14 1019 86 10000 1.24 167 04:30 11.01.2022
5933 Clear 15 1020 84 10000 3.83 228 00:28 11.01.2022
5934 Clear 15 1020 84 10000 3.79 228 23:40 10.01.2022
5935 Clear 15 1020 83 10000 4.21 228 22:43 10.01.2022
5936 Clear 16 1020 82 10000 4.2 238 22:18 10.01.2022
5937 Clear 16 1020 82 10000 4.2 238 21:42 10.01.2022
5938 Clear 15 1019 81 10000 3.59 261 21:18 10.01.2022
5939 Clear 16 1019 81 10000 3.59 261 20:55 10.01.2022
5940 Clear 16 1019 80 10000 3.83 274 20:23 10.01.2022
5941 Clear 17 1019 80 10000 3.81 275 19:39 10.01.2022
5942 Clear 17 1019 80 10000 4.82 274 19:19 10.01.2022
5943 Clear 17 1019 80 10000 4.82 274 18:47 10.01.2022
5944 Clear 18 1019 73 10000 5.48 269 16:51 10.01.2022
5945 Clear 18 1019 73 10000 5.48 269 16:33 10.01.2022
5946 Clear 18 1019 69 10000 5.91 271 14:50 10.01.2022
5947 Clear 17 1020 70 10000 6.05 273 13:35 10.01.2022
5948 Clear 16 1022 72 10000 5.75 281 11:57 10.01.2022
5949 Clear 15 1022 75 10000 5.46 285 11:24 10.01.2022
5950 Clear 13 1022 79 10000 5.29 284 09:40 10.01.2022
5951 Clear 9 1022 77 10000 4.44 275 05:52 10.01.2022
5952 Clear 12 1022 74 10000 4.36 280 04:48 10.01.2022
5953 Clear 13 1024 71 10000 4.37 274 01:22 10.01.2022
5954 Clear 14 1025 72 10000 4.45 277 00:22 10.01.2022
5955 Clear 13 1025 69 10000 4.97 272 22:48 09.01.2022
5956 Clear 13 1026 65 10000 5.24 268 22:21 09.01.2022
5957 Clear 13 1026 65 10000 5.24 268 21:42 09.01.2022
5958 Clear 13 1026 63 10000 5.28 266 21:22 09.01.2022
5959 Clear 14 1026 63 10000 5.28 266 20:47 09.01.2022
5960 Clear 14 1026 61 10000 5.42 267 20:29 09.01.2022
5961 Clear 14 1026 61 10000 5.42 267 19:42 09.01.2022
5962 Clear 14 1026 61 10000 5.79 273 19:21 09.01.2022
5963 Clear 15 1025 60 10000 5.61 271 18:47 09.01.2022
5964 Clear 16 1025 58 10000 5.87 271 18:28 09.01.2022
5965 Clear 16 1025 58 10000 5.87 271 17:30 09.01.2022
5966 Clear 17 1025 55 10000 6.16 267 16:50 09.01.2022
5967 Clear 17 1025 52 10000 6.13 270 15:52 09.01.2022
5968 Clear 17 1025 52 10000 6.13 270 15:33 09.01.2022
5969 Clear 17 1025 52 10000 6.26 274 14:39 09.01.2022
5970 Clear 17 1026 53 10000 6.31 274 13:49 09.01.2022
5971 Clear 15 1027 54 10000 6.4 269 12:31 09.01.2022
5972 Clear 15 1027 55 10000 6.26 268 11:47 09.01.2022
5973 Clear 12 1027 60 10000 5.89 270 09:56 09.01.2022
5974 Clear 12 1027 60 10000 5.81 273 09:29 09.01.2022
5975 Clear 12 1026 58 10000 5.55 275 08:25 09.01.2022
5976 Clouds 12 1026 61 10000 3.36 282 01:43 09.01.2022
5977 Clouds 12 1027 66 10000 3.06 275 01:19 09.01.2022
5978 Clouds 12 1027 67 10000 2.82 289 23:38 08.01.2022
5979 Clouds 11 1027 66 10000 2.09 289 22:58 08.01.2022
5980 Clouds 13 1027 66 10000 0.86 271 21:33 08.01.2022
5981 Clouds 14 1027 68 10000 0.27 11 20:45 08.01.2022
5982 Clouds 14 1027 68 10000 0.96 77 20:23 08.01.2022
5983 Clouds 13 1027 68 10000 0.96 77 19:55 08.01.2022
5984 Clear 16 1026 68 10000 2.06 68 17:49 08.01.2022
5985 Clear 16 1026 64 10000 2.65 83 17:21 08.01.2022
5986 Clear 16 1027 62 10000 3.07 89 15:47 08.01.2022
5987 Clear 15 1027 61 10000 3.89 71 14:40 08.01.2022
5988 Clear 15 1028 63 10000 4.34 76 12:36 08.01.2022
5989 Clear 11 1029 72 10000 4.76 62 10:49 08.01.2022
5990 Clear 10 1028 77 10000 4.64 61 10:24 08.01.2022
5991 Clear 10 1028 77 10000 4.64 61 09:34 08.01.2022
5992 Clouds 11 1027 81 10000 5.05 59 07:18 08.01.2022
5993 Clear 13 1027 78 10000 6 76 02:33 08.01.2022
5994 Clear 13 1027 74 10000 5.7 78 00:40 08.01.2022
5995 Clear 13 1027 69 10000 4.78 90 22:40 07.01.2022
5996 Clear 9 1027 67 10000 3.99 73 20:56 07.01.2022
5997 Clear 13 1027 65 10000 2.69 62 19:39 07.01.2022
5998 Clear 13 1026 65 10000 2.43 64 18:53 07.01.2022
5999 Clear 15 1026 65 10000 2.43 64 18:30 07.01.2022
6000 Clear 16 1024 60 10000 1.09 60 17:25 07.01.2022
6001 Clear 16 1024 58 10000 0.12 31 16:22 07.01.2022
6002 Clouds 15 1024 60 10000 1.62 237 13:53 07.01.2022
6003 Clouds 15 1025 61 10000 1.94 242 13:18 07.01.2022
6004 Clouds 14 1025 60 10000 2.23 246 12:35 07.01.2022
6005 Clear 11 1023 69 10000 3.2 298 07:31 07.01.2022
6006 Clear 7 1023 70 10000 3.27 286 02:54 07.01.2022
6007 Clear 11 1023 69 10000 3.51 298 01:52 07.01.2022
6008 Clear 11 1023 68 10000 4.35 303 01:27 07.01.2022
6009 Clear 8 1023 68 10000 4.35 303 00:55 07.01.2022
6010 Clear 13 1023 65 10000 4.82 280 22:42 06.01.2022
6011 Clear 13 1023 66 10000 4.42 271 21:23 06.01.2022
6012 Clear 14 1022 65 10000 4.42 275 20:20 06.01.2022
6013 Clear 14 1022 65 10000 4.42 275 19:40 06.01.2022
6014 Clear 16 1020 63 10000 3.85 268 17:53 06.01.2022
6015 Clear 16 1020 63 10000 3.85 268 17:32 06.01.2022
6016 Clear 17 1020 61 10000 4.21 260 16:40 06.01.2022
6017 Clear 17 1020 62 10000 4.12 252 15:45 06.01.2022
6018 Clear 16 1019 64 10000 3.29 256 15:23 06.01.2022
6019 Clear 16 1020 66 10000 3.29 280 14:21 06.01.2022
6020 Clear 15 1020 66 10000 3.3 280 13:46 06.01.2022
6021 Clear 14 1020 70 10000 4.16 292 12:41 06.01.2022
6022 Clear 13 1021 73 10000 4.53 293 11:41 06.01.2022
6023 Clear 12 1020 76 10000 4.78 295 11:20 06.01.2022
6024 Clouds 11 1019 83 10000 5.13 309 08:31 06.01.2022
6025 Clouds 15 1019 71 10000 8.96 268 00:39 06.01.2022
6026 Clouds 15 1020 73 10000 6.35 275 23:35 05.01.2022
6027 Clouds 15 1020 73 10000 6.35 275 23:35 05.01.2022
6028 Clouds 14 1021 75 10000 6.68 286 22:51 05.01.2022
6029 Clouds 14 1021 77 10000 6.61 274 22:29 05.01.2022
6030 Clouds 14 1021 77 10000 6.61 274 21:45 05.01.2022
6031 Clouds 14 1022 77 10000 5.9 278 20:45 05.01.2022
6032 Clouds 14 1022 78 10000 5.87 282 19:53 05.01.2022
6033 Clouds 15 1021 74 10000 6.69 296 18:27 05.01.2022
6034 Clear 15 1022 72 10000 7.62 296 16:59 05.01.2022
6035 Clear 16 1021 70 10000 8.15 291 16:24 05.01.2022
6036 Clear 15 1022 68 10000 7.72 291 15:20 05.01.2022
6037 Clear 14 1022 66 10000 7.45 290 13:38 05.01.2022
6038 Clouds 14 1024 68 10000 7.29 297 12:49 05.01.2022
6039 Clouds 13 1024 78 10000 5.69 303 08:57 05.01.2022
6040 Clouds 11 1023 79 10000 5.57 305 07:31 05.01.2022
6041 Clouds 14 1023 79 10000 6.8 309 01:59 05.01.2022
6042 Clouds 15 1023 76 10000 5.98 306 23:50 04.01.2022
6043 Clouds 14 1023 75 10000 6.3 308 23:26 04.01.2022
6044 Clouds 15 1023 76 10000 7.07 306 22:27 04.01.2022
6045 Clouds 15 1022 75 10000 7.28 306 20:50 04.01.2022
6046 Clouds 15 1020 77 10000 10.36 296 19:19 04.01.2022
6047 Clouds 17 1019 81 10000 9.9 303 17:38 04.01.2022
6048 Clouds 18 1018 82 10000 9.65 278 16:40 04.01.2022
6049 Clouds 18 1018 82 10000 9.65 278 16:40 04.01.2022
6050 Clouds 17 1018 78 10000 9.93 246 16:21 04.01.2022
6051 Clouds 17 1018 77 10000 10.17 236 14:51 04.01.2022
6052 Clouds 17 1018 77 10000 10.17 236 14:33 04.01.2022
6053 Clouds 18 1020 72 10000 7.68 245 13:26 04.01.2022
6054 Clouds 15 1021 79 10000 6.1 242 10:40 04.01.2022
6055 Clouds 11 1021 84 10000 5.18 249 08:59 04.01.2022
6056 Clouds 13 1021 81 10000 4.65 251 08:23 04.01.2022
6057 Clouds 11 1023 70 10000 1.78 257 01:19 04.01.2022
6058 Clouds 12 1023 70 10000 1.78 257 00:40 04.01.2022
6059 Clouds 12 1024 68 10000 0.42 317 22:41 03.01.2022
6060 Clear 12 1024 70 10000 0.73 19 21:41 03.01.2022
6061 Clear 12 1024 72 10000 0.89 32 21:23 03.01.2022
6062 Clear 13 1024 73 10000 1.14 56 19:46 03.01.2022
6063 Clear 14 1024 73 10000 1.1 86 18:33 03.01.2022
6064 Clear 14 1023 72 10000 1.92 105 17:40 03.01.2022
6065 Clear 14 1024 68 10000 1.78 90 16:56 03.01.2022
6066 Clear 14 1025 63 10000 2.61 76 14:54 03.01.2022
6067 Clear 14 1025 64 10000 3.1 77 13:53 03.01.2022
6068 Clear 14 1026 62 10000 2.68 76 12:33 03.01.2022
6069 Clear 13 1027 63 10000 2.75 81 11:31 03.01.2022
6070 Clear 10 1027 71 10000 2.99 82 09:42 03.01.2022
6071 Clear 10 1026 74 10000 3.19 70 08:28 03.01.2022
6072 Clouds 12 1026 74 10000 3.14 73 06:31 03.01.2022
6073 Clouds 11 1028 71 10000 3.15 74 23:45 02.01.2022
6074 Clouds 11 1028 70 10000 3.14 73 23:18 02.01.2022
6075 Clouds 12 1028 70 10000 3.15 73 22:42 02.01.2022
6076 Clouds 13 1028 71 10000 3.31 78 21:32 02.01.2022
6077 -273 0 0 0 0 0 20:31 02.01.2022
6078 Clouds 13 1028 71 10000 3.32 78 20:30 02.01.2022
6079 Clouds 14 1028 73 10000 3.29 78 19:31 02.01.2022
6080 Clouds 14 1028 75 10000 3.25 77 18:56 02.01.2022
6081 Clouds 14 1027 73 10000 3.33 81 17:58 02.01.2022
6082 Clouds 14 1027 73 10000 3.33 81 17:39 02.01.2022
6083 Clouds 14 1027 69 10000 3.42 82 17:21 02.01.2022
6084 Clouds 14 1027 65 10000 3.71 84 16:28 02.01.2022
6085 Clouds 15 1027 64 10000 3.67 79 14:44 02.01.2022
6086 Clouds 14 1028 65 10000 3.71 76 13:37 02.01.2022
6087 Clouds 14 1029 65 10000 3.34 70 12:32 02.01.2022
6088 Clouds 14 1029 69 10000 3.49 69 11:49 02.01.2022
6089 Clouds 14 1029 74 10000 3.78 75 10:54 02.01.2022
6090 Clouds 14 1029 79 10000 3.66 71 09:57 02.01.2022
6091 Clouds 13 1028 83 10000 3.73 69 07:34 02.01.2022
6092 Clouds 10 1028 86 10000 4.46 74 02:56 02.01.2022
6093 Clouds 14 1028 88 10000 4.43 73 23:42 01.01.2022
6094 Clouds 14 1028 88 10000 4.6 77 23:24 01.01.2022
6095 Clouds 14 1028 88 10000 4.72 81 22:25 01.01.2022
6096 Clouds 15 1028 88 10000 4.72 81 21:46 01.01.2022
6097 Clouds 15 1028 88 10000 4.97 84 21:28 01.01.2022
6098 Clouds 15 1027 87 10000 5.22 84 20:25 01.01.2022
6099 Clouds 15 1027 87 10000 5.22 84 19:34 01.01.2022
6100 Clouds 15 1027 82 10000 5.23 83 18:51 01.01.2022
6101 Clouds 15 1026 79 10000 5.48 83 17:38 01.01.2022
6102 Clouds 16 1026 74 10000 5.54 83 16:34 01.01.2022
6103 Clouds 16 1026 74 10000 5.54 83 16:34 01.01.2022
6104 Clouds 16 1026 70 10000 5.86 84 15:33 01.01.2022
6105 Clouds 16 1027 70 10000 6.08 83 14:25 01.01.2022
6106 Clouds 16 1027 70 10000 6.08 83 13:36 01.01.2022
6107 Clear 15 1028 73 10000 5.27 84 12:18 01.01.2022
6108 Clear 14 1027 77 10000 5.99 85 11:25 01.01.2022
6109 Clear 15 1027 77 10000 5.99 85 10:52 01.01.2022
6110 Clear 14 1027 82 10000 5.99 83 09:47 01.01.2022
6111 Clear 14 1026 84 10000 5.75 81 08:27 01.01.2022
6112 Clear 12 1026 84 10000 5.75 81 07:56 01.01.2022
6113 Clear 14 1026 84 10000 5.75 81 07:37 01.01.2022
6114 Clear 14 1025 84 10000 5.69 80 06:43 01.01.2022
6115 Clear 14 1025 84 10000 5.79 79 04:39 01.01.2022
6116 Clear 13 1026 84 10000 5.82 80 03:50 01.01.2022
6117 Clear 15 1026 84 10000 5.84 79 23:53 31.12.2021
6118 Clear 14 1026 82 10000 6.09 78 21:57 31.12.2021
6119 Clear 14 1026 82 10000 6.09 78 21:39 31.12.2021
6120 Clear 14 1025 82 10000 6.32 79 19:43 31.12.2021
6121 Clear 14 1025 82 10000 5.66 78 18:50 31.12.2021
6122 Clear 15 1024 79 10000 5.47 77 17:49 31.12.2021
6123 Clear 15 1024 74 10000 5.41 76 17:24 31.12.2021
6124 Clear 15 1024 74 10000 5.41 76 16:52 31.12.2021
6125 Clear 16 1024 69 10000 5.66 77 16:18 31.12.2021
6126 Clear 16 1024 69 10000 5.67 77 15:45 31.12.2021
6127 Clear 16 1024 68 10000 5.52 76 15:26 31.12.2021
6128 Clear 14 1024 68 10000 5.52 76 14:38 31.12.2021
6129 Clear 15 1025 67 10000 5.35 75 13:45 31.12.2021
6130 Clear 15 1025 67 10000 5.2 74 12:50 31.12.2021
6131 Clear 15 1025 67 10000 4.53 71 12:20 31.12.2021
6132 Clear 15 1025 67 10000 4.53 71 11:41 31.12.2021
6133 Clear 14 1025 69 10000 4.28 68 10:50 31.12.2021
6134 Clear 14 1025 71 10000 4.21 71 10:28 31.12.2021
6135 Clear 13 1025 71 10000 4.21 71 09:34 31.12.2021
6136 Clear 12 1025 72 10000 3.97 74 08:50 31.12.2021
6137 Clear 10 1025 71 10000 3.65 73 07:53 31.12.2021
6138 Clear 13 1024 70 10000 3.32 65 02:36 31.12.2021
6139 Clear 13 1025 69 10000 2.78 84 23:18 30.12.2021
6140 Clear 15 1025 69 10000 2.37 78 22:27 30.12.2021
6141 Clear 15 1025 69 10000 2.37 78 21:39 30.12.2021
6142 Clear 13 1025 70 10000 2.64 76 20:59 30.12.2021
6143 Clear 16 1025 70 10000 2.64 76 20:38 30.12.2021
6144 Clear 16 1024 71 10000 2.78 76 19:53 30.12.2021
6145 Clear 16 1024 72 10000 3.02 78 19:28 30.12.2021
6146 Clear 17 1023 70 10000 2.86 79 18:26 30.12.2021
6147 Clear 17 1023 69 10000 2.97 81 16:50 30.12.2021
6148 Clear 18 1022 64 10000 3.46 84 15:53 30.12.2021
6149 Clear 18 1022 64 10000 3.46 84 15:53 30.12.2021
6150 Clear 17 1022 64 10000 3.26 80 14:54 30.12.2021
6151 Clear 17 1022 63 10000 3.25 80 14:35 30.12.2021
6152 Rain 17 1023 67 10000 3.13 82 13:25 30.12.2021
6153 Clear 14 1024 69 10000 3.13 83 11:53 30.12.2021
6154 Clear 12 1023 77 10000 3.16 78 10:28 30.12.2021
6155 Clear 12 1023 77 10000 3.16 78 09:44 30.12.2021
6156 Clear 9 1022 80 10000 3.43 74 06:56 30.12.2021
6157 Clear 15 1022 78 10000 3.59 73 05:20 30.12.2021
6158 Clear 14 1022 77 10000 3.5 72 03:40 30.12.2021
6159 Clear 14 1022 76 10000 2.82 76 02:27 30.12.2021
6160 Clear 15 1023 72 10000 1.41 84 23:37 29.12.2021
6161 Clear 16 1023 72 10000 1.11 106 22:35 29.12.2021
6162 Clear 12 1023 72 10000 0.88 154 21:56 29.12.2021
6163 Clear 16 1023 73 10000 0.78 205 20:57 29.12.2021
6164 Clear 17 1022 74 10000 1.03 231 20:29 29.12.2021
6165 Clear 18 1022 74 10000 1.03 231 19:31 29.12.2021
6166 Clear 19 1022 75 10000 0.86 220 18:36 29.12.2021
6167 Clear 19 1022 75 10000 1.23 237 17:42 29.12.2021
6168 Clear 19 1021 72 10000 1.82 256 17:23 29.12.2021
6169 Clear 20 1022 68 10000 1.56 261 16:21 29.12.2021
6170 Clear 20 1022 69 10000 2.07 270 15:21 29.12.2021
6171 Clear 18 1024 72 10000 2.32 248 12:57 29.12.2021
6172 Clear 18 1024 72 10000 2.43 255 12:33 29.12.2021
6173 Clear 15 1024 78 10000 2.86 247 11:23 29.12.2021
6174 Clear 13 1024 82 10000 2.97 252 09:30 29.12.2021
6175 Clear 14 1023 86 10000 3.2 248 07:30 29.12.2021
6176 Clear 15 1023 87 10000 3.5 263 06:32 29.12.2021
6177 Clear 13 1023 87 10000 3.46 260 05:55 29.12.2021
6178 Clear 15 1023 87 10000 3.52 262 04:57 29.12.2021
6179 Clouds 17 1025 90 10000 4.47 268 00:43 29.12.2021
6180 Clouds 17 1025 90 10000 4.05 264 23:58 28.12.2021
6181 Clear 16 1025 90 10000 3.68 262 22:57 28.12.2021
6182 Clear 17 1025 90 10000 3.69 264 22:25 28.12.2021
6183 Clear 17 1025 90 10000 3.69 264 22:25 28.12.2021
6184 Clear 17 1025 90 10000 3.69 264 22:25 28.12.2021
6185 Clear 16 1025 90 10000 3.69 264 21:54 28.12.2021
6186 Clear 16 1025 90 10000 3.69 264 21:54 28.12.2021
6187 Clear 18 1025 90 10000 3.69 264 21:34 28.12.2021
6188 Clear 18 1025 91 10000 3.7 277 19:53 28.12.2021
6189 Clouds 18 1024 91 10000 3.98 275 18:54 28.12.2021
6190 Clouds 19 1024 89 10000 4.27 266 18:25 28.12.2021
6191 Clouds 19 1024 89 10000 4.27 266 17:34 28.12.2021
6192 Clouds 20 1024 83 10000 4.38 270 15:53 28.12.2021
6193 Clouds 20 1024 84 10000 4.34 277 15:29 28.12.2021
6194 Clouds 19 1024 84 10000 4.34 277 14:55 28.12.2021
6195 Clouds 19 1024 83 10000 4.33 277 14:37 28.12.2021
6196 Clouds 19 1024 85 10000 4.06 275 14:18 28.12.2021
6197 Clouds 19 1024 85 10000 4.06 275 13:37 28.12.2021
6198 Clouds 19 1025 86 10000 3.72 270 12:56 28.12.2021
6199 Clouds 18 1026 87 10000 3.63 252 12:20 28.12.2021
6200 Clouds 17 1025 93 10000 2.82 246 10:19 28.12.2021
6201 Clouds 16 1025 94 10000 2.55 269 07:33 28.12.2021
6202 Clouds 17 1024 93 10000 3.11 262 03:35 28.12.2021
6203 Clouds 18 1024 93 10000 3.55 252 23:39 27.12.2021
6204 Clouds 18 1024 92 10000 3.53 250 22:21 27.12.2021
6205 Clouds 18 1024 92 10000 3.53 250 21:30 27.12.2021
6206 Clouds 18 1023 92 10000 3.44 253 20:39 27.12.2021
6207 Clear 18 1023 91 10000 3.49 252 19:48 27.12.2021
6208 Clouds 18 1022 91 10000 3.56 259 19:27 27.12.2021
6209 Clouds 19 1021 89 10000 4.31 253 17:51 27.12.2021
6210 Clouds 20 1021 86 10000 4.83 262 17:28 27.12.2021
6211 Clouds 20 1021 84 10000 5.2 259 15:56 27.12.2021
6212 Clouds 20 1021 84 10000 5.47 258 15:19 27.12.2021
6213 Clouds 19 1021 86 10000 6 253 14:22 27.12.2021
6214 Clouds 18 1022 86 10000 6.24 244 12:52 27.12.2021
6215 Clouds 17 1022 90 10000 5.73 238 10:40 27.12.2021
6216 Clouds 17 1021 90 10000 5.52 234 10:22 27.12.2021
6217 Clouds 17 1021 91 10000 5.82 234 08:43 27.12.2021
6218 Clouds 17 1020 92 10000 6.7 229 07:34 27.12.2021
6219 Clouds 17 1019 92 10000 6.78 244 06:27 27.12.2021
6220 Clouds 17 1018 92 10000 6.73 224 01:51 27.12.2021
6221 Clouds 16 1019 91 10000 7.11 234 23:49 26.12.2021
6222 Clouds 16 1019 90 10000 7.21 228 23:19 26.12.2021
6223 Clouds 17 1019 89 10000 6.96 225 21:33 26.12.2021
6224 Clouds 18 1018 90 10000 7.94 226 19:55 26.12.2021
6225 Clouds 18 1018 89 10000 7.73 230 18:39 26.12.2021
6226 Clouds 18 1017 90 10000 8.06 233 18:19 26.12.2021
6227 Clouds 18 1017 89 10000 8.55 240 15:35 26.12.2021
6228 Clouds 18 1017 87 10000 8.91 235 13:43 26.12.2021
6229 Clouds 18 1018 88 10000 8.3 234 13:21 26.12.2021
6230 Clouds 18 1018 88 10000 8.56 232 12:35 26.12.2021
6231 Clouds 17 1018 91 10000 7.11 229 11:20 26.12.2021
6232 Clouds 16 1017 92 10000 6.47 230 09:31 26.12.2021
6233 Clouds 16 1017 93 10000 5.71 232 08:45 26.12.2021
6234 Clouds 16 1016 93 10000 5.63 234 08:26 26.12.2021
6235 Clouds 16 1014 92 10000 6.71 250 01:50 26.12.2021
6236 Clouds 16 1015 92 10000 6.68 245 00:39 26.12.2021
6237 Clouds 17 1014 91 10000 6.63 247 23:35 25.12.2021
6238 Clouds 17 1014 92 10000 6.21 259 22:29 25.12.2021
6239 Clouds 17 1014 92 10000 6.21 259 21:30 25.12.2021
6240 Clouds 17 1012 92 10000 7.2 259 20:26 25.12.2021
6241 Clouds 17 1011 90 10000 7.8 251 19:19 25.12.2021
6242 Clouds 16 1012 89 10000 10.04 242 18:37 25.12.2021
6243 Clouds 16 1010 94 5865 13.2 228 16:50 25.12.2021
6244 Clouds 17 1010 94 4163 12.56 227 15:34 25.12.2021
6245 Clouds 17 1010 88 10000 12.95 213 14:23 25.12.2021
6246 Clouds 16 1012 83 10000 11.81 209 12:21 25.12.2021
6247 Clouds 15 1012 87 10000 11.48 208 10:46 25.12.2021
6248 Clouds 17 1012 88 10000 9.93 209 09:49 25.12.2021
6249 Clouds 15 1012 86 7800 9.23 248 07:27 25.12.2021
6250 Clouds 16 1012 90 10000 5.91 227 01:40 25.12.2021
6251 Clouds 16 1014 89 10000 4.24 220 00:21 25.12.2021
6252 Clouds 15 1014 91 10000 3.82 222 21:57 24.12.2021
6253 Clouds 15 1014 89 10000 5.45 233 19:27 24.12.2021
6254 Clouds 16 1014 89 10000 5.45 233 18:56 24.12.2021
6255 Rain 14 1014 89 10000 7.78 225 16:44 24.12.2021
6256 Clouds 14 1014 90 10000 7.78 230 15:50 24.12.2021
6257 Clouds 14 1014 90 10000 7.78 230 15:50 24.12.2021
6258 Clouds 14 1014 91 5008 8.63 226 15:20 24.12.2021
6259 Clouds 14 1014 91 5017 8.61 226 14:34 24.12.2021
6260 Rain 14 1015 94 3232 6.48 212 13:54 24.12.2021
6261 Rain 14 1015 94 3232 6.48 212 13:32 24.12.2021
6262 Rain 14 1015 93 5095 7.03 235 12:40 24.12.2021
6263 Rain 14 1017 88 10000 5.72 228 11:43 24.12.2021
6264 Clouds 14 1016 87 10000 5.02 220 11:24 24.12.2021
6265 Clouds 15 1016 87 10000 5.02 220 10:35 24.12.2021
6266 Clouds 16 1016 92 8588 2.97 171 08:58 24.12.2021
6267 Clouds 15 1016 93 9850 2.26 124 07:58 24.12.2021
6268 Clouds 15 1016 93 9850 2.26 124 07:31 24.12.2021
6269 Clouds 16 1018 95 7694 2.68 112 00:47 24.12.2021
6270 Clouds 16 1019 93 10000 3.56 102 23:50 23.12.2021
6271 Clouds 17 1019 94 7576 2.71 100 22:53 23.12.2021
6272 Clouds 16 1020 94 7187 2.57 102 22:24 23.12.2021
6273 Clouds 16 1020 94 7187 2.57 102 21:41 23.12.2021
6274 Clouds 15 1020 94 9342 2.8 104 20:31 23.12.2021
6275 Clouds 15 1019 94 10000 2.62 105 20:31 23.12.2021
6276 Clouds 15 1019 94 10000 2.62 105 19:30 23.12.2021
6277 Clouds 15 1019 96 6770 1.74 123 18:27 23.12.2021
6278 Clouds 15 1019 96 6770 1.74 123 17:46 23.12.2021
6279 Clouds 16 1018 93 8161 2.88 102 16:27 23.12.2021
6280 Clouds 16 1018 93 8161 2.88 102 15:48 23.12.2021
6281 Clouds 16 1018 93 8161 2.88 102 15:30 23.12.2021
6282 Clouds 15 1019 93 10000 3.14 106 14:42 23.12.2021
6283 Clouds 15 1020 94 8181 3.07 103 13:43 23.12.2021
6284 Rain 16 1021 94 5303 3.25 112 11:59 23.12.2021
6285 Rain 15 1021 85 10000 2.07 104 09:55 23.12.2021
6286 Rain 15 1021 85 10000 2.07 104 09:34 23.12.2021
6287 Clouds 15 1020 85 10000 1.83 116 08:41 23.12.2021
6288 Clouds 15 1020 86 10000 1.05 181 05:43 23.12.2021
6289 Clouds 15 1020 87 10000 0.81 97 03:22 23.12.2021
6290 Clouds 15 1021 91 10000 2.4 98 22:53 22.12.2021
6291 Clouds 15 1021 90 10000 1.96 110 22:22 22.12.2021
6292 Clouds 15 1021 90 10000 1.96 110 21:37 22.12.2021
6293 Clouds 15 1021 90 10000 2.2 137 21:19 22.12.2021
6294 Clouds 15 1021 90 10000 2.2 137 20:40 22.12.2021
6295 Clouds 15 1020 90 10000 2.44 172 19:57 22.12.2021
6296 Clouds 15 1020 93 5983 3.32 185 18:55 22.12.2021
6297 Clouds 16 1019 91 3721 2.2 173 17:38 22.12.2021
6298 Rain 16 1019 88 4912 2.15 140 16:25 22.12.2021
6299 Clouds 17 1019 89 7349 1.58 150 14:33 22.12.2021
6300 Clouds 17 1021 86 10000 2.57 133 12:55 22.12.2021
6301 Clouds 16 1022 87 10000 3.46 140 11:48 22.12.2021
6302 Clouds 16 1021 90 10000 3.11 182 09:52 22.12.2021
6303 Clouds 15 1020 91 10000 4.31 163 08:23 22.12.2021
6304 Clouds 16 1019 87 10000 4.46 202 05:54 22.12.2021
6305 Rain 15 1019 87 10000 4.46 202 05:36 22.12.2021
6306 Clouds 15 1019 82 10000 4.35 212 05:18 22.12.2021
6307 Clouds 15 1019 82 10000 4.35 212 04:37 22.12.2021
6308 Clouds 17 1019 81 10000 6.69 213 03:52 22.12.2021
6309 Clouds 14 1019 81 10000 6.69 213 03:31 22.12.2021
6310 Rain 15 1021 95 2391 3.55 214 23:48 21.12.2021
6311 Clouds 15 1020 89 8775 2.95 149 22:41 21.12.2021
6312 Clouds 15 1020 88 10000 3.31 89 21:57 21.12.2021
6313 Clouds 15 1020 88 10000 3.31 89 21:33 21.12.2021
6314 Clouds 15 1019 89 10000 4.21 76 20:39 21.12.2021
6315 Clouds 15 1019 89 10000 4.15 82 20:18 21.12.2021
6316 Clouds 15 1019 89 10000 4.15 82 19:34 21.12.2021
6317 Clouds 16 1019 84 10000 4.44 92 18:23 21.12.2021
6318 Clouds 16 1019 84 10000 4.44 92 17:58 21.12.2021
6319 Clouds 17 1018 81 10000 4.62 86 17:29 21.12.2021
6320 Clouds 17 1018 79 10000 5.42 84 15:34 21.12.2021
6321 Clouds 16 1019 79 10000 5.88 82 14:20 21.12.2021
6322 Clouds 17 1019 79 10000 5.89 82 13:41 21.12.2021
6323 Clouds 16 1021 82 10000 5.82 80 12:26 21.12.2021
6324 Clouds 15 1021 85 10000 5.86 79 10:38 21.12.2021
6325 Clouds 14 1021 88 10000 5.55 80 09:50 21.12.2021
6326 Clouds 14 1020 90 10000 5.35 81 08:55 21.12.2021
6327 Clouds 14 1020 91 10000 5.32 79 07:43 21.12.2021
6328 Clouds 14 1020 91 10000 5.55 81 07:20 21.12.2021
6329 Clouds 14 1021 90 10000 5.29 84 03:24 21.12.2021
6330 Clouds 15 1021 90 10000 5.35 87 01:20 21.12.2021
6331 Clouds 14 1022 89 10000 5.01 85 23:54 20.12.2021
6332 Clouds 15 1022 89 10000 4.62 86 22:35 20.12.2021
6333 Clouds 15 1022 89 10000 4.79 84 21:51 20.12.2021
6334 Clouds 15 1022 89 10000 5.44 82 21:24 20.12.2021
6335 Clouds 15 1022 89 10000 5.43 82 20:51 20.12.2021
6336 Clouds 15 1021 88 10000 5.58 82 20:19 20.12.2021
6337 Clouds 15 1021 88 10000 5.58 82 19:36 20.12.2021
6338 Clouds 15 1021 87 10000 5.89 82 19:18 20.12.2021
6339 Clouds 16 1021 87 10000 5.52 82 18:30 20.12.2021
6340 Clouds 16 1020 86 10000 5.85 82 17:49 20.12.2021
6341 Clouds 17 1021 84 10000 6.11 81 16:46 20.12.2021
6342 Clouds 16 1021 83 10000 6.21 80 15:57 20.12.2021
6343 Clouds 17 1021 83 10000 6.21 80 15:31 20.12.2021
6344 Clouds 17 1022 81 10000 6.46 82 13:31 20.12.2021
6345 Clouds 16 1023 83 10000 6.34 83 11:47 20.12.2021
6346 Clouds 16 1023 83 10000 6.39 84 10:35 20.12.2021
6347 Clouds 15 1022 83 10000 6.54 84 09:38 20.12.2021
6348 Clouds 15 1022 85 10000 6.55 87 08:44 20.12.2021
6349 Clouds 14 1022 85 10000 6.66 86 08:00 20.12.2021
6350 Clouds 15 1022 85 10000 6.66 86 07:32 20.12.2021
6351 Clouds 15 1021 85 10000 6.42 86 06:32 20.12.2021
6352 Clouds 15 1021 85 10000 6.42 86 06:32 20.12.2021
6353 Clouds 16 1023 85 10000 7.76 91 00:19 20.12.2021
6354 Clouds 15 1022 85 10000 7.89 92 22:56 19.12.2021
6355 Clouds 15 1022 85 10000 8.67 92 21:58 19.12.2021
6356 Clouds 16 1022 85 10000 8.67 92 21:32 19.12.2021
6357 Clouds 16 1023 86 10000 8.89 97 20:35 19.12.2021
6358 Clouds 16 1022 87 10000 9.53 95 19:53 19.12.2021
6359 Clouds 16 1022 87 10000 9.53 95 19:34 19.12.2021
6360 Clouds 16 1021 86 10000 10.02 90 18:35 19.12.2021
6361 Clouds 16 1021 85 10000 10.39 90 17:53 19.12.2021
6362 Clouds 16 1021 85 10000 10.72 89 17:28 19.12.2021
6363 Clouds 16 1020 83 10000 11.31 87 16:27 19.12.2021
6364 Clouds 16 1020 83 10000 11.32 87 16:27 19.12.2021
6365 Clouds 16 1020 83 10000 11.31 87 15:51 19.12.2021
6366 Clouds 16 1020 85 10000 12.1 88 15:23 19.12.2021
6367 Clouds 16 1020 84 10000 12.1 88 14:45 19.12.2021
6368 Clouds 16 1022 84 10000 13.28 90 13:26 19.12.2021
6369 Clouds 16 1022 84 10000 13.28 90 12:50 19.12.2021
6370 Clouds 16 1022 86 10000 13.43 91 12:28 19.12.2021
6371 Clouds 16 1022 86 10000 13.43 91 11:30 19.12.2021
6372 Clouds 16 1022 86 10000 13.62 91 10:30 19.12.2021
6373 Clouds 16 1022 86 10000 13.66 92 09:53 19.12.2021
6374 Clouds 16 1022 87 10000 13.7 93 08:45 19.12.2021
6375 Clouds 15 1022 87 10000 13.37 93 04:45 19.12.2021
6376 Clouds 16 1022 86 10000 13.19 94 01:39 19.12.2021
6377 Clouds 15 1023 87 10000 13.09 94 00:53 19.12.2021
6378 Clouds 16 1023 88 10000 12.98 95 22:50 18.12.2021
6379 Clouds 16 1024 88 10000 12.9 96 22:20 18.12.2021
6380 Clouds 16 1024 88 10000 12.9 96 22:20 18.12.2021
6381 Clouds 15 1024 88 10000 12.9 96 21:41 18.12.2021
6382 Clouds 15 1024 88 10000 12.9 96 21:41 18.12.2021
6383 Clouds 15 1024 87 10000 12.48 98 21:22 18.12.2021
6384 Clouds 15 1023 86 10000 12.17 97 20:20 18.12.2021
6385 Clouds 15 1023 86 10000 11.94 95 19:25 18.12.2021
6386 Clouds 16 1023 85 10000 12.04 96 18:22 18.12.2021
6387 Clouds 16 1023 85 10000 12.04 96 17:48 18.12.2021
6388 Clouds 16 1022 83 10000 12.16 94 16:26 18.12.2021
6389 Clouds 16 1023 82 10000 12.18 95 15:28 18.12.2021
6390 Clouds 16 1023 82 10000 12.18 95 14:51 18.12.2021
6391 Clouds 16 1024 82 10000 12 96 13:28 18.12.2021
6392 Clouds 16 1024 81 10000 11.64 97 11:23 18.12.2021
6393 Clouds 15 1024 81 10000 11.74 97 09:40 18.12.2021
6394 Clouds 15 1024 82 10000 11.93 95 08:47 18.12.2021
6395 Clouds 15 1023 82 10000 11.93 95 08:24 18.12.2021
6396 Clouds 14 1022 82 10000 11.41 96 05:56 18.12.2021
6397 Clouds 15 1024 81 10000 11.07 99 00:30 18.12.2021
6398 Clouds 15 1024 81 10000 11.11 98 23:46 17.12.2021
6399 Clouds 15 1024 81 10000 11.36 97 21:58 17.12.2021
6400 Clouds 15 1024 81 10000 11.4 96 21:20 17.12.2021
6401 Clouds 15 1024 81 10000 11.41 96 20:41 17.12.2021
6402 Clouds 16 1023 81 10000 11.47 97 19:28 17.12.2021
6403 Clouds 16 1023 81 10000 11.13 97 18:39 17.12.2021
6404 Clouds 16 1022 81 10000 11.52 96 17:33 17.12.2021
6405 Clouds 16 1022 79 10000 11.53 97 16:49 17.12.2021
6406 Clouds 16 1022 78 10000 11.8 96 16:22 17.12.2021
6407 Clouds 16 1022 78 10000 12.11 97 15:25 17.12.2021
6408 Clouds 16 1022 78 10000 12.11 97 14:40 17.12.2021
6409 Clouds 16 1023 78 10000 12.67 94 13:21 17.12.2021
6410 Clouds 17 1024 78 10000 12.53 95 11:50 17.12.2021
6411 Clouds 16 1023 80 10000 12.48 95 10:37 17.12.2021
6412 Clouds 15 1023 80 10000 12.57 94 09:33 17.12.2021
6413 Clouds 15 1023 81 10000 12.77 94 08:30 17.12.2021
6414 Clouds 15 1022 81 10000 12.73 92 06:47 17.12.2021
6415 Clouds 14 1022 80 10000 13.08 96 02:54 17.12.2021
6416 Clouds 16 1022 77 10000 13.23 100 23:40 16.12.2021
6417 Clouds 16 1022 81 10000 13.89 98 22:24 16.12.2021
6418 Clouds 16 1022 81 10000 13.89 98 22:24 16.12.2021
6419 Clouds 16 1022 81 10000 13.89 98 22:24 16.12.2021
6420 Clouds 16 1022 81 10000 13.89 98 22:23 16.12.2021
6421 Clouds 16 1022 81 10000 13.89 98 22:23 16.12.2021
6422 Clouds 16 1022 81 10000 13.89 98 21:44 16.12.2021
6423 Clouds 16 1022 80 10000 13.87 99 20:55 16.12.2021
6424 Clouds 16 1021 78 10000 13.48 101 20:27 16.12.2021
6425 Clouds 16 1021 78 10000 13.49 101 19:33 16.12.2021
6426 Clouds 16 1021 76 10000 13.18 101 18:37 16.12.2021
6427 Clouds 15 1020 77 10000 13.06 101 17:48 16.12.2021
6428 Clouds 15 1020 76 10000 13.27 101 16:44 16.12.2021
6429 Clouds 16 1020 77 10000 13.37 100 16:18 16.12.2021
6430 Clouds 16 1020 75 10000 13.18 100 14:23 16.12.2021
6431 Clouds 16 1022 74 10000 13.73 102 12:30 16.12.2021
6432 Clouds 16 1021 76 10000 13.66 100 11:19 16.12.2021
6433 Clouds 16 1021 76 10000 13.66 100 10:44 16.12.2021
6434 Clouds 15 1021 77 10000 13.7 99 09:50 16.12.2021
6435 Clouds 15 1020 74 10000 14.38 96 07:18 16.12.2021
6436 Clouds 15 1020 74 10000 14.37 96 06:18 16.12.2021
6437 Clouds 16 1021 78 10000 14.2 95 00:35 16.12.2021
6438 Clouds 15 1021 79 10000 14.08 96 23:20 15.12.2021
6439 Clouds 15 1021 79 10000 14.25 94 22:21 15.12.2021
6440 Clouds 15 1021 79 10000 14.25 94 21:45 15.12.2021
6441 Clouds 15 1021 79 10000 14.04 93 21:24 15.12.2021
6442 Clouds 15 1021 79 10000 13.97 93 19:54 15.12.2021
6443 Clouds 15 1020 81 10000 13.79 92 19:19 15.12.2021
6444 Clouds 15 1020 80 10000 13.4 91 18:24 15.12.2021
6445 Clouds 16 1020 80 10000 13.4 91 17:46 15.12.2021
6446 Clouds 16 1020 78 10000 13.4 92 17:21 15.12.2021
6447 Clouds 16 1020 78 10000 13.34 92 15:49 15.12.2021
6448 Clouds 16 1020 78 10000 13.34 92 15:31 15.12.2021
6449 Clouds 16 1020 77 10000 13.33 93 14:59 15.12.2021
6450 Clouds 16 1020 75 10000 13.06 93 13:45 15.12.2021
6451 Clouds 16 1021 78 10000 12.98 94 11:52 15.12.2021
6452 Clouds 15 1021 80 10000 13.06 95 10:22 15.12.2021
6453 Clouds 15 1021 80 10000 12.95 94 08:26 15.12.2021
6454 Clouds 14 1020 78 10000 11.84 94 05:53 15.12.2021
6455 Clouds 15 1021 80 10000 11.41 92 00:37 15.12.2021
6456 Clouds 15 1021 81 10000 11.21 91 23:27 14.12.2021
6457 Clouds 15 1021 81 10000 11.23 91 22:44 14.12.2021
6458 Clouds 15 1022 81 10000 11.04 90 21:43 14.12.2021
6459 Clouds 15 1022 81 10000 11.04 90 21:43 14.12.2021
6460 Clouds 15 1022 82 10000 10.31 90 20:22 14.12.2021
6461 Clouds 15 1022 82 10000 10.31 90 19:34 14.12.2021
6462 Clouds 15 1021 82 10000 9.7 89 18:38 14.12.2021
6463 Clouds 15 1021 81 10000 9.76 89 17:55 14.12.2021
6464 Clouds 16 1021 79 10000 9.72 89 16:47 14.12.2021
6465 Clouds 16 1021 78 10000 9.81 91 16:28 14.12.2021
6466 Clouds 16 1021 79 10000 9.63 91 14:32 14.12.2021
6467 Clouds 16 1023 79 10000 9.65 95 12:58 14.12.2021
6468 Clouds 16 1023 79 10000 9.43 91 11:44 14.12.2021
6469 Clouds 16 1023 79 10000 9.35 90 11:20 14.12.2021
6470 Clouds 15 1023 78 10000 9.21 90 09:55 14.12.2021
6471 Clouds 13 1022 80 10000 8.96 87 08:58 14.12.2021
6472 Clouds 15 1022 80 10000 9.18 85 08:21 14.12.2021
6473 Clouds 15 1022 81 10000 9.02 86 07:23 14.12.2021
6474 Clouds 13 1023 81 10000 8.29 87 23:52 13.12.2021
6475 Clouds 15 1023 82 10000 8.33 86 22:26 13.12.2021
6476 Clouds 15 1023 82 10000 8.33 86 21:39 13.12.2021
6477 Clouds 14 1023 83 10000 8.53 86 20:54 13.12.2021
6478 Clouds 15 1023 83 10000 8.5 86 20:22 13.12.2021
6479 Clouds 15 1023 83 10000 8.5 86 19:49 13.12.2021
6480 Clouds 15 1023 83 10000 8.49 86 19:49 13.12.2021
6481 Clouds 16 1022 83 10000 8.16 85 17:28 13.12.2021
6482 Clouds 16 1022 83 10000 8.16 85 16:43 13.12.2021
6483 Clouds 16 1022 81 10000 8.63 86 15:43 13.12.2021
6484 Clouds 17 1022 80 10000 8.84 86 14:42 13.12.2021
6485 Clouds 16 1022 79 10000 8.98 86 13:37 13.12.2021
6486 Clouds 16 1023 80 10000 9.05 87 12:40 13.12.2021
6487 Clouds 18 1024 80 10000 9.16 88 11:53 13.12.2021
6488 Clouds 16 1024 80 10000 9.16 88 11:34 13.12.2021
6489 Clouds 16 1024 80 10000 9.27 89 10:37 13.12.2021
6490 Clouds 15 1023 83 10000 9.36 89 08:44 13.12.2021
6491 Clouds 15 1022 85 10000 8.63 87 06:55 13.12.2021
6492 Clouds 15 1022 86 10000 8.7 83 05:19 13.12.2021
6493 Clear 15 1023 87 10000 8.87 84 00:27 13.12.2021
6494 Clear 17 1024 82 10000 9.37 84 21:59 12.12.2021
6495 Clear 16 1024 80 10000 9.31 84 21:24 12.12.2021
6496 Clear 16 1023 78 10000 9.31 84 19:35 12.12.2021
6497 Clear 16 1022 76 10000 8.3 79 18:23 12.12.2021
6498 Clear 18 1022 72 10000 8.8 79 16:40 12.12.2021
6499 Clear 18 1022 69 10000 9.06 81 15:58 12.12.2021
6500 Clear 18 1022 67 10000 9.53 82 15:28 12.12.2021
6501 Clear 18 1022 67 10000 9.53 82 14:51 12.12.2021
6502 Clear 18 1022 66 10000 9.8 82 14:18 12.12.2021
6503 Clear 17 1023 64 10000 9.56 81 12:48 12.12.2021
6504 Clear 19 1023 66 10000 9.28 79 11:59 12.12.2021
6505 Clear 16 1023 66 10000 9.28 79 11:32 12.12.2021
6506 Clear 15 1023 70 10000 8.32 78 10:44 12.12.2021
6507 Clear 15 1023 75 10000 7.04 73 10:20 12.12.2021
6508 Clear 14 1022 81 10000 6.53 72 08:46 12.12.2021
6509 Clear 14 1022 83 10000 6.31 71 07:25 12.12.2021
6510 Clear 13 1022 85 10000 5.59 72 05:29 12.12.2021
6511 Clear 11 1022 85 10000 5.59 72 04:51 12.12.2021
6512 Clear 12 1022 84 10000 4.22 76 00:57 12.12.2021
6513 Clear 11 1022 80 10000 2.99 84 22:56 11.12.2021
6514 Clear 15 1022 76 10000 2.22 88 22:20 11.12.2021
6515 Clear 15 1022 76 10000 2.22 88 21:35 11.12.2021
6516 Clear 16 1022 77 10000 0.58 320 20:18 11.12.2021
6517 Clear 17 1021 79 10000 1.59 280 19:21 11.12.2021
6518 Clear 17 1021 79 10000 1.59 280 18:45 11.12.2021
6519 Clear 16 1021 77 10000 2.44 264 17:54 11.12.2021
6520 Clear 18 1021 70 10000 4.01 256 15:59 11.12.2021
6521 Clear 18 1021 70 10000 4.01 256 15:40 11.12.2021
6522 Clear 18 1021 70 10000 4.54 256 14:35 11.12.2021
6523 Clouds 17 1023 76 10000 5.68 266 12:29 11.12.2021
6524 Clouds 16 1023 79 10000 5.63 264 10:49 11.12.2021
6525 Clouds 14 1023 85 10000 5.66 268 09:40 11.12.2021
6526 Clouds 15 1023 92 10000 6.02 292 03:58 11.12.2021
6527 Clouds 15 1024 88 10000 5.89 286 00:48 11.12.2021
6528 Clouds 16 1024 87 10000 5.98 285 23:44 10.12.2021
6529 Clouds 16 1024 87 10000 6.34 274 22:39 10.12.2021
6530 Clouds 16 1025 87 10000 6.9 270 21:40 10.12.2021
6531 Clouds 16 1025 85 10000 6.6 267 20:26 10.12.2021
6532 Clouds 16 1024 83 10000 6.29 269 19:18 10.12.2021
6533 Clouds 16 1024 79 10000 6.81 271 17:46 10.12.2021
6534 Clouds 16 1024 76 10000 7.54 276 16:37 10.12.2021
6535 Clouds 16 1024 74 10000 8.61 283 15:45 10.12.2021
6536 Clouds 16 1024 73 10000 8.87 282 15:26 10.12.2021
6537 Clouds 16 1024 73 10000 8.87 282 14:35 10.12.2021
6538 Clouds 15 1025 72 10000 8.76 281 13:49 10.12.2021
6539 Clouds 15 1026 72 10000 8.56 287 12:55 10.12.2021
6540 Clouds 15 1026 75 10000 7.54 287 11:41 10.12.2021
6541 Clear 14 1026 78 10000 6.84 290 10:56 10.12.2021
6542 Clouds 13 1026 82 10000 6.65 288 09:46 10.12.2021
6543 Clear 13 1025 85 10000 6.56 288 07:28 10.12.2021
6544 Clear 15 1025 83 10000 6.72 293 04:57 10.12.2021
6545 Clear 14 1025 82 10000 6.63 303 02:39 10.12.2021
6546 Clear 14 1026 77 10000 5.04 294 23:40 09.12.2021
6547 Clear 14 1026 77 10000 5.04 294 23:40 09.12.2021
6548 Clear 14 1027 77 10000 4.55 304 22:41 09.12.2021
6549 Clear 14 1027 77 10000 4.5 308 22:21 09.12.2021
6550 Clear 14 1027 77 10000 4.5 308 21:39 09.12.2021
6551 Clear 15 1027 77 10000 5.03 316 20:34 09.12.2021
6552 Clear 15 1027 78 10000 4.94 297 19:38 09.12.2021
6553 Clear 15 1027 75 10000 4.76 292 19:19 09.12.2021
6554 Clear 16 1026 71 10000 5.43 296 18:18 09.12.2021
6555 Clear 16 1026 71 10000 5.43 296 17:47 09.12.2021
6556 Clear 16 1026 65 10000 6.45 299 17:24 09.12.2021
6557 Clear 17 1026 62 10000 7.32 297 16:25 09.12.2021
6558 Clear 16 1026 59 10000 7.05 289 14:59 09.12.2021
6559 Clear 15 1026 56 10000 6.23 287 13:52 09.12.2021
6560 Clouds 14 1027 59 10000 5.61 287 12:47 09.12.2021
6561 Clouds 13 1028 70 10000 5.33 285 11:29 09.12.2021
6562 Clouds 12 1028 77 10000 4.92 294 10:20 09.12.2021
6563 Clouds 14 1026 83 10000 5.63 314 06:59 09.12.2021
6564 Clouds 14 1026 79 10000 5.16 310 03:55 09.12.2021
6565 Clouds 13 1026 70 10000 5.8 308 00:25 09.12.2021
6566 Clouds 14 1026 70 10000 5.8 308 23:36 08.12.2021
6567 Clouds 15 1026 69 10000 5.86 309 22:57 08.12.2021
6568 Clouds 14 1025 70 10000 6.07 304 21:50 08.12.2021
6569 Clouds 14 1025 70 10000 6.07 304 21:32 08.12.2021
6570 Clouds 14 1025 71 10000 6.43 301 20:31 08.12.2021
6571 Clouds 15 1024 69 10000 6.2 299 19:55 08.12.2021
6572 Clouds 14 1023 68 10000 6.86 291 18:57 08.12.2021
6573 Clear 16 1023 63 10000 8.15 294 18:22 08.12.2021
6574 Clear 16 1022 62 10000 8.81 293 16:44 08.12.2021
6575 Clear 17 1022 63 10000 9.22 293 15:40 08.12.2021
6576 Clouds 16 1022 62 10000 9.66 293 15:21 08.12.2021
6577 Clouds 16 1022 64 10000 7.58 288 13:21 08.12.2021
6578 Clouds 14 1023 65 10000 7.11 307 10:42 08.12.2021
6579 Clouds 13 1022 74 10000 7.19 305 09:32 08.12.2021
6580 Clouds 13 1020 90 6316 9.46 256 07:50 08.12.2021
6581 Clouds 15 1021 84 10000 10.93 236 05:22 08.12.2021
6582 Clouds 16 1022 83 10000 8.85 221 00:21 08.12.2021
6583 Clouds 14 1023 81 10000 7.73 243 22:48 07.12.2021
6584 Clouds 14 1023 83 10000 7 260 21:24 07.12.2021
6585 Clouds 15 1023 79 10000 6.59 265 20:25 07.12.2021
6586 Clear 16 1022 77 10000 6.15 266 18:57 07.12.2021
6587 Clear 16 1022 73 10000 6.15 269 18:19 07.12.2021
6588 Clear 17 1022 69 10000 6.23 264 17:20 07.12.2021
6589 Clear 17 1022 69 10000 6.23 264 16:37 07.12.2021
6590 Clear 17 1022 65 10000 6.52 271 15:37 07.12.2021
6591 Clear 18 1022 63 10000 6.47 271 14:37 07.12.2021
6592 Clear 17 1024 61 10000 5.88 264 13:19 07.12.2021
6593 Clear 16 1025 61 10000 5.57 259 12:21 07.12.2021
6594 Clear 13 1025 62 10000 5 261 10:45 07.12.2021
6595 Clear 11 1024 68 10000 4.22 270 09:19 07.12.2021
6596 Clear 11 1024 68 10000 3.86 265 06:39 07.12.2021
6597 Clear 12 1024 67 10000 3.31 269 05:45 07.12.2021
6598 Clear 12 1025 65 10000 2.99 262 01:43 07.12.2021
6599 Clear 13 1026 64 10000 3.93 267 23:18 06.12.2021
6600 Clear 13 1026 64 10000 3.93 267 22:39 06.12.2021
6601 Clear 11 1026 63 10000 3.98 269 21:58 06.12.2021
6602 Clear 14 1027 62 10000 4.15 276 21:20 06.12.2021
6603 Clear 14 1027 62 10000 4.15 276 20:30 06.12.2021
6604 Clear 15 1026 62 10000 5.16 273 19:24 06.12.2021
6605 Clear 15 1025 62 10000 5.39 269 18:29 06.12.2021
6606 Clear 16 1025 62 10000 5.39 269 17:52 06.12.2021
6607 Clear 16 1025 58 10000 5.83 268 17:20 06.12.2021
6608 Clear 16 1025 53 10000 6.74 280 15:49 06.12.2021
6609 Clear 15 1026 55 10000 6.6 279 13:47 06.12.2021
6610 Clear 15 1027 58 10000 6.23 276 12:40 06.12.2021
6611 Clear 14 1028 61 10000 5.7 272 11:54 06.12.2021
6612 Clear 12 1028 70 10000 4.91 278 09:35 06.12.2021
6613 Clear 12 1027 79 10000 4.32 287 06:43 06.12.2021
6614 Clear 14 1027 71 10000 5.54 308 00:33 06.12.2021
6615 Clear 15 1027 66 10000 6.48 301 21:53 05.12.2021
6616 Clear 14 1027 66 10000 6.85 301 21:25 05.12.2021
6617 Clear 14 1026 63 10000 7.29 292 20:20 05.12.2021
6618 Clear 14 1026 63 10000 7.31 292 19:49 05.12.2021
6619 Clouds 14 1026 61 10000 7.44 285 19:21 05.12.2021
6620 Clear 15 1025 59 10000 7.62 285 18:20 05.12.2021
6621 Clear 15 1025 59 10000 7.62 285 17:49 05.12.2021
6622 Clear 16 1025 57 10000 8.38 282 16:52 05.12.2021
6623 Clear 16 1025 57 10000 8.64 285 16:27 05.12.2021
6624 Clear 16 1025 57 10000 8.64 285 15:58 05.12.2021
6625 Clear 16 1025 60 10000 8.87 283 14:45 05.12.2021
6626 Clear 15 1025 62 10000 8.98 285 14:26 05.12.2021
6627 Clear 15 1026 63 10000 8.52 284 13:27 05.12.2021
6628 Clear 14 1026 63 10000 7.99 282 12:40 05.12.2021
6629 Clear 14 1027